GFSGL_prec_precacc24_018.txt.gz
Total_Precipitation_Accumulation
0.00 0.00 0.00 0.00 0.00 0.00 0.00 0.00 0.00 0.00 0.00 0.00 0.00 0.01 0.01 0.03 0.07 0.08 0.05 0.03 0.03 0.03 0.03 0.02 0.01 0.01 0.01 0.00 0.00 0.00 0.00 0.01 0.01 0.00 0.00 0.00 0.00 0.00 0.00 0.00 0.00 0.02 0.04
0.00 0.00 0.00 0.00 0.00 0.00 0.00 0.00 0.00 0.01 0.01 0.02 0.01 0.03 0.05 0.06 0.06 0.04 0.02 0.01 0.01 0.01 0.01 0.01 0.00 0.00 0.00 0.00 0.00 0.00 0.00 0.00 0.00 0.00 0.00 0.00 0.00 0.00 0.00 0.00 0.00 0.00 0.00
0.00 0.00 0.00 0.00 0.00 0.00 0.00 0.01 0.01 0.02 0.02 0.02 0.02 0.04 0.03 0.02 0.01 0.01 0.00 0.00 0.00 0.00 0.00 0.00 0.00 0.00 0.00 0.00 0.00 0.00 0.00 0.00 0.00 0.00 0.00 0.00 0.00 0.00 0.00 0.00 0.00 0.00 0.00
0.00 0.00 0.00 0.01 0.01 0.01 0.00 0.02 0.02 0.02 0.01 0.00 0.00 0.00 0.00 0.00 0.00 0.00 0.00 0.00 0.00 0.00 0.00 0.00 0.00 0.00 0.00 0.00 0.00 0.00 0.00 0.00 0.00 0.00 0.00 0.00 0.00 0.00 0.00 0.00 0.00 0.00 0.00
0.00 0.00 0.00 0.00 0.01 0.02 0.02 0.03 0.05 0.01 0.00 0.00 0.00 0.00 0.00 0.00 0.00 0.00 0.00 0.00 0.00 0.00 0.00 0.00 0.00 0.00 0.00 0.00 0.01 0.00 0.01 0.00 0.00 0.00 0.00 0.00 0.00 0.00 0.00 0.00 0.00 0.00 0.00
0.01 0.01 0.00 0.01 0.02 0.03 0.04 0.05 0.01 0.00 0.00 0.00 0.00 0.00 0.00 0.00 0.00 0.00 0.00 0.00 0.00 0.00 0.00 0.00 0.00 0.00 0.00 0.00 0.00 0.00 0.01 0.03 0.02 0.02 0.01 0.00 0.00 0.00 0.00 0.00 0.00 0.00 0.00
0.00 0.01 0.01 0.02 0.02 0.02 0.02 0.03 0.03 0.02 0.00 0.00 0.00 0.00 0.00 0.00 0.00 0.00 0.00 0.00 0.00 0.00 0.00 0.00 0.00 0.00 0.00 0.00 0.00 0.00 0.00 0.00 0.01 0.02 0.03 0.02 0.01 0.01 0.01 0.01 0.01 0.01 0.01
0.00 0.01 0.03 0.02 0.01 0.02 0.05 0.04 0.02 0.00 0.00 0.00 0.00 0.00 0.00 0.00 0.00 0.00 0.00 0.00 0.00 0.00 0.00 0.00 0.00 0.00 0.00 0.01 0.02 0.02 0.01 0.01 0.01 0.01 0.02 0.02 0.02 0.01 0.02 0.03 0.04 0.05 0.03
0.00 0.01 0.01 0.02 0.02 0.02 0.02 0.05 0.02 0.00 0.00 0.00 0.00 0.00 0.00 0.00 0.00 0.00 0.00 0.00 0.01 0.01 0.00 0.00 0.01 0.01 0.01 0.03 0.06 0.08 0.04 0.02 0.01 0.02 0.03 0.03 0.03 0.02 0.03 0.06 0.09 0.10 0.09
0.01 0.01 0.01 0.02 0.03 0.08 0.10 0.02 0.00 0.00 0.00 0.00 0.00 0.00 0.00 0.00 0.01 0.00 0.01 0.02 0.02 0.02 0.02 0.01 0.01 0.03 0.08 0.10 0.16 0.15 0.11 0.04 0.03 0.03 0.03 0.03 0.03 0.03 0.01 0.05 0.07 0.09 0.07
0.00 0.01 0.04 0.09 0.07 0.03 0.00 0.00 0.00 0.00 0.00 0.00 0.01 0.01 0.01 0.01 0.01 0.00 0.01 0.02 0.05 0.07 0.04 0.03 0.05 0.22 0.17 0.10 0.06 0.06 0.05 0.05 0.03 0.02 0.02 0.01 0.02 0.03 0.04 0.05 0.07 0.09 0.08
0.01 0.02 0.02 0.01 0.00 0.00 0.00 0.00 0.00 0.00 0.00 0.00 0.01 0.01 0.01 0.01 0.00 0.00 0.00 0.02 0.04 0.10 0.08 0.13 0.24 0.13 0.06 0.03 0.04 0.07 0.05 0.03 0.04 0.07 0.07 0.05 0.05 0.05 0.04 0.06 0.09 0.10 0.07
0.00 0.01 0.00 0.00 0.00 0.00 0.00 0.00 0.00 0.00 0.00 0.00 0.00 0.00 0.00 0.00 0.00 0.00 0.01 0.02 0.02 0.06 0.17 0.18 0.13 0.09 0.04 0.04 0.09 0.06 0.05 0.11 0.16 0.14 0.11 0.08 0.09 0.08 0.10 0.12 0.09 0.09 0.11
0.01 0.00 0.00 0.00 0.00 0.00 0.00 0.00 0.00 0.00 0.00 0.00 0.00 0.00 0.01 0.00 0.01 0.02 0.03 0.02 0.04 0.09 0.09 0.14 0.13 0.06 0.08 0.12 0.12 0.08 0.11 0.12 0.09 0.11 0.08 0.07 0.08 0.10 0.14 0.14 0.15 0.16 0.18
0.00 0.00 0.00 0.00 0.00 0.00 0.00 0.00 0.00 0.00 0.00 0.00 0.00 0.00 0.02 0.02 0.02 0.05 0.07 0.09 0.14 0.10 0.12 0.14 0.09 0.09 0.09 0.09 0.05 0.05 0.06 0.05 0.06 0.07 0.08 0.08 0.07 0.07 0.08 0.09 0.10 0.09 0.14
0.00 0.00 0.00 0.00 0.00 0.00 0.00 0.00 0.00 0.00 0.00 0.00 0.00 0.00 0.00 0.01 0.03 0.04 0.05 0.08 0.10 0.08 0.11 0.12 0.14 0.13 0.11 0.09 0.08 0.05 0.04 0.06 0.05 0.06 0.07 0.07 0.06 0.07 0.06 0.05 0.05 0.05 0.08
0.00 0.00 0.00 0.00 0.00 0.00 0.00 0.00 0.00 0.00 0.00 0.00 0.00 0.00 0.00 0.01 0.02 0.03 0.05 0.07 0.09 0.07 0.09 0.11 0.12 0.11 0.06 0.03 0.04 0.05 0.07 0.08 0.05 0.06 0.07 0.07 0.06 0.05 0.05 0.04 0.04 0.05 0.07
0.00 0.00 0.00 0.00 0.00 0.00 0.00 0.00 0.01 0.01 0.01 0.01 0.01 0.00 0.00 0.00 0.01 0.02 0.03 0.04 0.06 0.06 0.07 0.09 0.08 0.05 0.02 0.01 0.02 0.02 0.04 0.05 0.03 0.04 0.06 0.06 0.05 0.05 0.04 0.03 0.03 0.04 0.06
0.00 0.00 0.00 0.00 0.00 0.00 0.00 0.01 0.01 0.01 0.01 0.01 0.00 0.00 0.00 0.00 0.01 0.02 0.02 0.04 0.06 0.06 0.06 0.05 0.04 0.03 0.02 0.02 0.02 0.02 0.04 0.05 0.03 0.03 0.04 0.06 0.06 0.06 0.04 0.03 0.02 0.01 0.02
0.00 0.00 0.00 0.00 0.00 0.00 0.01 0.00 0.01 0.01 0.01 0.01 0.01 0.00 0.00 0.00 0.01 0.02 0.02 0.02 0.03 0.02 0.02 0.02 0.02 0.01 0.02 0.02 0.02 0.01 0.01 0.02 0.02 0.02 0.03 0.04 0.06 0.06 0.07 0.04 0.02 0.02 0.01
0.00 0.00 0.00 0.00 0.00 0.00 0.01 0.01 0.01 0.01 0.01 0.01 0.01 0.01 0.00 0.01 0.02 0.02 0.02 0.01 0.01 0.00 0.00 0.00 0.00 0.01 0.01 0.01 0.01 0.01 0.01 0.01 0.02 0.02 0.02 0.03 0.04 0.03 0.04 0.05 0.02 0.02 0.01
0.00 0.00 0.01 0.00 0.01 0.01 0.01 0.01 0.01 0.02 0.02 0.02 0.01 0.00 0.00 0.02 0.01 0.02 0.01 0.01 0.00 0.00 0.00 0.00 0.00 0.00 0.01 0.01 0.01 0.01 0.01 0.00 0.01 0.01 0.01 0.01 0.02 0.02 0.02 0.03 0.02 0.02 0.01
0.01 0.01 0.01 0.01 0.02 0.01 0.01 0.02 0.02 0.02 0.02 0.01 0.01 0.01 0.01 0.01 0.02 0.02 0.02 0.01 0.00 0.00 0.00 0.00 0.00 0.00 0.00 0.00 0.00 0.00 0.01 0.01 0.01 0.00 0.00 0.01 0.01 0.01 0.02 0.01 0.01 0.01 0.01
0.01 0.02 0.02 0.02 0.02 0.02 0.02 0.02 0.02 0.02 0.02 0.02 0.02 0.02 0.01 0.01 0.01 0.02 0.02 0.01 0.01 0.00 0.00 0.00 0.00 0.00 0.00 0.00 0.00 0.00 0.00 0.00 0.00 0.00 0.00 0.01 0.00 0.00 0.00 0.00 0.01 0.01 0.01
0.02 0.03 0.03 0.03 0.03 0.03 0.02 0.02 0.03 0.03 0.03 0.03 0.03 0.02 0.01 0.01 0.01 0.01 0.01 0.01 0.01 0.00 0.00 0.00 0.00 0.00 0.00 0.00 0.00 0.00 0.00 0.00 0.00 0.00 0.00 0.00 0.00 0.00 0.00 0.00 0.00 0.00 0.00
0.02 0.03 0.03 0.03 0.03 0.03 0.03 0.03 0.02 0.03 0.03 0.03 0.03 0.02 0.02 0.01 0.00 0.00 0.01 0.01 0.00 0.00 0.00 0.00 0.00 0.00 0.00 0.00 0.00 0.00 0.00 0.00 0.00 0.00 0.00 0.00 0.00 0.00 0.00 0.00 0.00 0.00 0.00

GFSGL_prec_precacc24_021.txt.gz
Total_Precipitation_Accumulation
0.00 0.00 0.00 0.00 0.00 0.00 0.00 0.00 0.00 0.00 0.00 0.00 0.00 0.01 0.01 0.03 0.07 0.08 0.05 0.03 0.03 0.03 0.03 0.02 0.01 0.01 0.01 0.00 0.00 0.00 0.00 0.01 0.01 0.00 0.00 0.00 0.00 0.00 0.00 0.00 0.00 0.02 0.04
0.00 0.00 0.00 0.00 0.00 0.00 0.00 0.00 0.00 0.01 0.01 0.02 0.01 0.03 0.05 0.06 0.06 0.04 0.02 0.01 0.01 0.01 0.01 0.01 0.00 0.00 0.00 0.00 0.00 0.00 0.00 0.00 0.00 0.00 0.00 0.00 0.00 0.00 0.00 0.00 0.00 0.00 0.00
0.00 0.00 0.00 0.00 0.00 0.00 0.00 0.01 0.01 0.02 0.02 0.02 0.03 0.04 0.03 0.02 0.01 0.01 0.00 0.00 0.00 0.00 0.00 0.00 0.00 0.00 0.00 0.00 0.00 0.00 0.00 0.00 0.00 0.00 0.00 0.00 0.00 0.00 0.00 0.00 0.00 0.00 0.00
0.00 0.00 0.00 0.01 0.01 0.01 0.00 0.02 0.02 0.03 0.02 0.00 0.00 0.00 0.00 0.00 0.00 0.00 0.00 0.00 0.00 0.00 0.00 0.00 0.00 0.00 0.00 0.00 0.00 0.00 0.00 0.00 0.00 0.00 0.00 0.00 0.00 0.00 0.00 0.00 0.00 0.00 0.00
0.00 0.00 0.00 0.00 0.01 0.02 0.02 0.03 0.06 0.02 0.01 0.00 0.00 0.00 0.00 0.00 0.00 0.00 0.00 0.00 0.00 0.00 0.00 0.00 0.00 0.00 0.00 0.00 0.01 0.00 0.01 0.02 0.02 0.02 0.01 0.00 0.00 0.00 0.00 0.00 0.00 0.00 0.00
0.01 0.01 0.00 0.01 0.02 0.03 0.04 0.05 0.01 0.01 0.01 0.00 0.00 0.00 0.00 0.00 0.00 0.00 0.00 0.00 0.00 0.00 0.00 0.00 0.00 0.00 0.00 0.00 0.00 0.01 0.02 0.04 0.04 0.02 0.02 0.02 0.01 0.00 0.00 0.00 0.00 0.00 0.00
0.00 0.01 0.01 0.02 0.02 0.02 0.02 0.03 0.03 0.03 0.01 0.00 0.00 0.00 0.00 0.00 0.00 0.00 0.00 0.00 0.00 0.00 0.00 0.00 0.00 0.00 0.00 0.00 0.00 0.00 0.00 0.01 0.02 0.03 0.04 0.02 0.01 0.01 0.01 0.01 0.01 0.01 0.01
0.00 0.01 0.03 0.02 0.01 0.02 0.05 0.04 0.02 0.00 0.00 0.00 0.00 0.00 0.00 0.00 0.00 0.00 0.00 0.00 0.00 0.00 0.00 0.00 0.00 0.00 0.00 0.01 0.04 0.04 0.02 0.01 0.01 0.01 0.03 0.03 0.02 0.01 0.02 0.03 0.04 0.05 0.03
0.00 0.01 0.01 0.02 0.02 0.02 0.02 0.05 0.02 0.00 0.00 0.00 0.00 0.00 0.00 0.00 0.00 0.00 0.00 0.00 0.01 0.01 0.00 0.00 0.01 0.01 0.02 0.04 0.09 0.09 0.05 0.02 0.01 0.02 0.03 0.04 0.06 0.03 0.04 0.09 0.10 0.11 0.10
0.01 0.01 0.01 0.02 0.03 0.08 0.10 0.02 0.00 0.00 0.00 0.00 0.00 0.00 0.00 0.00 0.01 0.00 0.01 0.02 0.02 0.02 0.02 0.01 0.01 0.03 0.09 0.12 0.19 0.17 0.13 0.04 0.03 0.03 0.03 0.03 0.03 0.03 0.01 0.05 0.07 0.09 0.07
0.00 0.01 0.04 0.09 0.07 0.03 0.00 0.00 0.00 0.00 0.00 0.00 0.01 0.01 0.01 0.01 0.01 0.00 0.01 0.02 0.05 0.07 0.04 0.03 0.05 0.22 0.18 0.12 0.08 0.09 0.09 0.06 0.04 0.03 0.02 0.02 0.02 0.03 0.04 0.05 0.07 0.09 0.08
0.01 0.02 0.02 0.01 0.00 0.00 0.00 0.00 0.00 0.00 0.00 0.00 0.01 0.01 0.01 0.01 0.00 0.00 0.00 0.02 0.04 0.11 0.08 0.14 0.25 0.14 0.07 0.04 0.06 0.10 0.06 0.03 0.05 0.08 0.08 0.06 0.06 0.06 0.05 0.06 0.09 0.10 0.07
0.00 0.01 0.00 0.00 0.00 0.00 0.00 0.00 0.00 0.00 0.00 0.00 0.00 0.00 0.00 0.00 0.00 0.00 0.01 0.02 0.02 0.06 0.17 0.19 0.13 0.10 0.04 0.05 0.10 0.08 0.06 0.12 0.16 0.14 0.12 0.09 0.11 0.12 0.14 0.14 0.10 0.11 0.15
0.01 0.00 0.00 0.00 0.00 0.00 0.00 0.00 0.00 0.00 0.00 0.00 0.00 0.00 0.01 0.00 0.01 0.02 0.03 0.02 0.04 0.09 0.09 0.14 0.13 0.06 0.08 0.12 0.12 0.09 0.12 0.14 0.11 0.13 0.11 0.09 0.10 0.13 0.17 0.18 0.19 0.20 0.21
0.00 0.00 0.00 0.00 0.00 0.00 0.00 0.00 0.00 0.00 0.00 0.00 0.00 0.00 0.02 0.02 0.02 0.06 0.07 0.09 0.14 0.10 0.12 0.14 0.09 0.09 0.09 0.09 0.05 0.05 0.06 0.06 0.07 0.08 0.10 0.09 0.09 0.10 0.11 0.13 0.13 0.11 0.15
0.00 0.00 0.00 0.00 0.00 0.00 0.00 0.00 0.00 0.00 0.00 0.00 0.00 0.00 0.00 0.01 0.03 0.04 0.05 0.08 0.10 0.08 0.11 0.12 0.14 0.13 0.11 0.09 0.08 0.05 0.04 0.07 0.06 0.07 0.08 0.08 0.08 0.09 0.08 0.06 0.05 0.06 0.09
0.00 0.00 0.00 0.00 0.00 0.00 0.00 0.00 0.00 0.00 0.00 0.00 0.00 0.00 0.00 0.01 0.02 0.03 0.05 0.07 0.09 0.07 0.09 0.11 0.12 0.11 0.06 0.03 0.04 0.05 0.07 0.08 0.06 0.07 0.09 0.08 0.08 0.06 0.06 0.05 0.05 0.05 0.07
0.00 0.00 0.00 0.00 0.00 0.00 0.00 0.00 0.01 0.01 0.01 0.01 0.01 0.00 0.00 0.00 0.01 0.02 0.03 0.04 0.06 0.06 0.07 0.09 0.08 0.05 0.02 0.01 0.02 0.02 0.04 0.05 0.03 0.05 0.07 0.07 0.06 0.06 0.05 0.03 0.03 0.04 0.06
0.00 0.00 0.00 0.00 0.00 0.00 0.00 0.01 0.01 0.01 0.01 0.01 0.00 0.00 0.00 0.00 0.01 0.02 0.02 0.04 0.06 0.06 0.06 0.05 0.04 0.03 0.02 0.02 0.02 0.02 0.04 0.05 0.03 0.03 0.04 0.06 0.07 0.06 0.04 0.03 0.02 0.01 0.02
0.00 0.00 0.00 0.00 0.00 0.00 0.01 0.00 0.01 0.01 0.01 0.01 0.01 0.00 0.00 0.00 0.01 0.02 0.02 0.02 0.03 0.02 0.02 0.02 0.02 0.01 0.02 0.02 0.02 0.01 0.01 0.02 0.02 0.02 0.03 0.04 0.06 0.06 0.07 0.05 0.03 0.02 0.01
0.01 0.01 0.00 0.00 0.00 0.00 0.01 0.01 0.01 0.01 0.01 0.01 0.01 0.01 0.00 0.01 0.02 0.02 0.02 0.01 0.01 0.00 0.00 0.00 0.00 0.01 0.01 0.01 0.01 0.01 0.01 0.01 0.02 0.02 0.02 0.03 0.04 0.03 0.04 0.05 0.03 0.02 0.01
0.01 0.01 0.01 0.00 0.01 0.01 0.01 0.01 0.01 0.02 0.02 0.02 0.01 0.00 0.00 0.02 0.01 0.02 0.01 0.01 0.00 0.00 0.00 0.00 0.00 0.00 0.01 0.01 0.01 0.01 0.01 0.00 0.01 0.01 0.01 0.01 0.02 0.02 0.02 0.03 0.02 0.02 0.01
0.02 0.03 0.02 0.01 0.02 0.01 0.01 0.02 0.02 0.03 0.02 0.01 0.01 0.01 0.01 0.01 0.02 0.02 0.02 0.01 0.00 0.00 0.00 0.00 0.00 0.00 0.00 0.00 0.00 0.00 0.01 0.01 0.01 0.00 0.00 0.01 0.01 0.01 0.02 0.01 0.01 0.01 0.01
0.02 0.03 0.03 0.02 0.02 0.02 0.02 0.02 0.02 0.02 0.02 0.02 0.02 0.02 0.01 0.01 0.01 0.02 0.02 0.01 0.01 0.00 0.00 0.00 0.00 0.00 0.00 0.00 0.00 0.00 0.00 0.00 0.00 0.00 0.00 0.01 0.00 0.00 0.00 0.00 0.01 0.01 0.01
0.03 0.04 0.04 0.04 0.03 0.03 0.02 0.02 0.03 0.04 0.03 0.03 0.03 0.02 0.01 0.01 0.01 0.01 0.01 0.01 0.01 0.00 0.00 0.00 0.00 0.00 0.00 0.00 0.00 0.00 0.00 0.00 0.00 0.00 0.00 0.00 0.00 0.00 0.00 0.00 0.00 0.00 0.00
0.03 0.04 0.04 0.04 0.04 0.03 0.03 0.03 0.02 0.03 0.03 0.03 0.03 0.02 0.02 0.01 0.00 0.00 0.01 0.01 0.00 0.00 0.00 0.00 0.00 0.00 0.00 0.00 0.00 0.00 0.00 0.00 0.00 0.00 0.00 0.00 0.00 0.00 0.00 0.00 0.00 0.00 0.00

GFSGL_prec_precacc24_024.txt.gz
Total_Precipitation_Accumulation
0.00 0.00 0.00 0.00 0.00 0.00 0.00 0.00 0.00 0.00 0.00 0.00 0.00 0.01 0.01 0.03 0.07 0.08 0.05 0.03 0.03 0.03 0.03 0.02 0.01 0.01 0.01 0.00 0.00 0.00 0.00 0.01 0.01 0.00 0.00 0.00 0.00 0.00 0.00 0.00 0.00 0.02 0.04
0.00 0.00 0.00 0.00 0.00 0.00 0.00 0.00 0.00 0.01 0.01 0.02 0.01 0.03 0.05 0.06 0.06 0.04 0.02 0.01 0.01 0.01 0.01 0.01 0.00 0.00 0.00 0.00 0.00 0.00 0.00 0.00 0.00 0.00 0.00 0.00 0.00 0.00 0.00 0.00 0.00 0.00 0.00
0.00 0.00 0.00 0.00 0.00 0.00 0.00 0.01 0.01 0.02 0.02 0.02 0.03 0.04 0.03 0.02 0.01 0.01 0.00 0.00 0.00 0.00 0.00 0.00 0.00 0.00 0.00 0.00 0.00 0.00 0.00 0.00 0.01 0.02 0.01 0.00 0.00 0.00 0.00 0.00 0.00 0.00 0.00
0.00 0.00 0.00 0.01 0.01 0.01 0.00 0.02 0.02 0.03 0.02 0.00 0.00 0.00 0.00 0.00 0.00 0.00 0.00 0.00 0.00 0.00 0.00 0.00 0.00 0.00 0.00 0.00 0.00 0.00 0.00 0.00 0.00 0.01 0.01 0.01 0.00 0.00 0.00 0.00 0.00 0.00 0.00
0.00 0.00 0.00 0.00 0.01 0.02 0.02 0.03 0.06 0.02 0.01 0.00 0.00 0.00 0.00 0.00 0.00 0.00 0.00 0.00 0.00 0.00 0.00 0.00 0.00 0.00 0.00 0.00 0.01 0.00 0.01 0.02 0.03 0.04 0.02 0.02 0.01 0.00 0.00 0.00 0.00 0.00 0.00
0.01 0.01 0.00 0.01 0.02 0.03 0.04 0.05 0.01 0.01 0.01 0.00 0.00 0.00 0.00 0.00 0.00 0.00 0.00 0.00 0.00 0.00 0.00 0.00 0.00 0.00 0.00 0.00 0.01 0.01 0.02 0.06 0.06 0.04 0.03 0.02 0.01 0.01 0.01 0.02 0.01 0.01 0.00
0.00 0.01 0.01 0.02 0.02 0.02 0.02 0.03 0.03 0.03 0.01 0.00 0.00 0.00 0.00 0.00 0.00 0.00 0.00 0.00 0.00 0.00 0.00 0.00 0.00 0.00 0.00 0.00 0.00 0.00 0.01 0.01 0.05 0.08 0.09 0.03 0.02 0.01 0.01 0.01 0.02 0.01 0.01
0.00 0.01 0.03 0.02 0.01 0.02 0.05 0.04 0.02 0.00 0.00 0.00 0.00 0.00 0.00 0.00 0.00 0.00 0.00 0.00 0.00 0.00 0.00 0.00 0.00 0.00 0.00 0.01 0.06 0.06 0.02 0.01 0.01 0.02 0.05 0.04 0.03 0.03 0.03 0.03 0.04 0.05 0.03
0.00 0.01 0.01 0.02 0.02 0.02 0.02 0.05 0.02 0.00 0.00 0.00 0.00 0.00 0.00 0.00 0.00 0.00 0.00 0.00 0.01 0.01 0.00 0.00 0.01 0.01 0.02 0.06 0.12 0.10 0.05 0.02 0.01 0.02 0.03 0.05 0.07 0.06 0.07 0.12 0.12 0.12 0.10
0.01 0.01 0.01 0.02 0.03 0.08 0.10 0.02 0.00 0.00 0.00 0.00 0.00 0.00 0.00 0.00 0.01 0.00 0.01 0.02 0.02 0.02 0.02 0.01 0.01 0.03 0.10 0.14 0.22 0.19 0.15 0.04 0.03 0.03 0.03 0.03 0.03 0.03 0.01 0.05 0.08 0.12 0.08
0.00 0.01 0.04 0.09 0.07 0.03 0.00 0.00 0.00 0.00 0.00 0.00 0.01 0.01 0.01 0.01 0.01 0.00 0.01 0.02 0.05 0.07 0.04 0.03 0.05 0.23 0.19 0.13 0.10 0.12 0.13 0.08 0.04 0.04 0.03 0.02 0.02 0.03 0.04 0.05 0.07 0.09 0.08
0.01 0.02 0.02 0.01 0.00 0.00 0.00 0.00 0.00 0.00 0.00 0.00 0.01 0.01 0.01 0.01 0.00 0.00 0.00 0.02 0.04 0.11 0.08 0.14 0.25 0.14 0.08 0.04 0.07 0.12 0.07 0.03 0.05 0.08 0.09 0.06 0.07 0.07 0.06 0.07 0.09 0.10 0.07
0.00 0.01 0.00 0.00 0.00 0.00 0.00 0.00 0.00 0.00 0.00 0.00 0.00 0.00 0.00 0.00 0.00 0.00 0.01 0.02 0.02 0.06 0.17 0.19 0.13 0.10 0.04 0.05 0.10 0.08 0.06 0.12 0.17 0.15 0.12 0.10 0.13 0.14 0.16 0.17 0.12 0.12 0.16
0.01 0.00 0.00 0.00 0.00 0.00 0.00 0.00 0.00 0.00 0.00 0.00 0.00 0.00 0.01 0.00 0.01 0.02 0.03 0.02 0.04 0.09 0.09 0.14 0.13 0.06 0.08 0.12 0.12 0.09 0.12 0.15 0.12 0.15 0.12 0.10 0.11 0.15 0.20 0.23 0.24 0.25 0.25
0.00 0.00 0.00 0.00 0.00 0.00 0.00 0.00 0.00 0.00 0.00 0.00 0.00 0.00 0.02 0.02 0.02 0.06 0.07 0.09 0.14 0.10 0.12 0.14 0.09 0.09 0.09 0.09 0.05 0.05 0.06 0.06 0.08 0.09 0.10 0.10 0.10 0.11 0.13 0.17 0.17 0.13 0.16
0.00 0.00 0.00 0.01 0.01 0.00 0.00 0.00 0.00 0.00 0.00 0.00 0.00 0.00 0.00 0.01 0.03 0.04 0.05 0.08 0.10 0.08 0.11 0.12 0.14 0.13 0.11 0.10 0.08 0.05 0.04 0.07 0.06 0.08 0.09 0.09 0.09 0.10 0.09 0.07 0.07 0.07 0.11
0.00 0.00 0.01 0.02 0.01 0.00 0.00 0.00 0.00 0.00 0.00 0.00 0.00 0.00 0.00 0.01 0.02 0.03 0.05 0.07 0.09 0.07 0.09 0.11 0.13 0.11 0.06 0.03 0.04 0.05 0.07 0.08 0.06 0.07 0.09 0.09 0.08 0.07 0.06 0.05 0.05 0.06 0.08
0.00 0.01 0.01 0.01 0.01 0.01 0.01 0.00 0.01 0.01 0.01 0.01 0.01 0.00 0.00 0.00 0.01 0.02 0.03 0.04 0.06 0.06 0.07 0.09 0.08 0.05 0.02 0.02 0.02 0.03 0.04 0.05 0.03 0.05 0.07 0.07 0.07 0.07 0.05 0.04 0.03 0.04 0.06
0.00 0.00 0.01 0.01 0.00 0.00 0.00 0.01 0.01 0.01 0.01 0.01 0.00 0.00 0.00 0.00 0.01 0.02 0.02 0.04 0.06 0.06 0.06 0.05 0.04 0.03 0.02 0.02 0.02 0.02 0.04 0.05 0.03 0.03 0.04 0.06 0.07 0.07 0.05 0.04 0.02 0.01 0.02
0.01 0.02 0.01 0.01 0.01 0.00 0.01 0.00 0.01 0.01 0.02 0.01 0.01 0.00 0.00 0.00 0.01 0.02 0.02 0.02 0.03 0.02 0.02 0.02 0.02 0.01 0.02 0.02 0.02 0.01 0.01 0.02 0.02 0.02 0.03 0.04 0.06 0.06 0.07 0.05 0.03 0.02 0.01
0.02 0.01 0.02 0.02 0.01 0.01 0.01 0.01 0.01 0.01 0.01 0.01 0.01 0.01 0.00 0.01 0.02 0.02 0.02 0.01 0.01 0.00 0.00 0.00 0.00 0.01 0.01 0.01 0.01 0.01 0.01 0.01 0.02 0.02 0.02 0.03 0.04 0.03 0.04 0.05 0.03 0.02 0.01
0.02 0.03 0.02 0.02 0.02 0.02 0.01 0.01 0.01 0.02 0.02 0.02 0.01 0.00 0.00 0.02 0.02 0.02 0.01 0.01 0.00 0.00 0.00 0.00 0.00 0.00 0.01 0.01 0.01 0.01 0.01 0.00 0.01 0.01 0.01 0.01 0.02 0.02 0.02 0.03 0.02 0.02 0.01
0.03 0.03 0.03 0.03 0.03 0.02 0.01 0.02 0.02 0.03 0.02 0.02 0.01 0.01 0.01 0.02 0.02 0.02 0.02 0.01 0.00 0.00 0.00 0.00 0.00 0.00 0.00 0.00 0.00 0.00 0.01 0.01 0.01 0.00 0.00 0.02 0.01 0.01 0.02 0.01 0.01 0.01 0.01
0.03 0.04 0.05 0.04 0.03 0.03 0.02 0.02 0.02 0.02 0.02 0.02 0.02 0.02 0.01 0.01 0.01 0.02 0.02 0.01 0.01 0.00 0.00 0.00 0.00 0.00 0.00 0.00 0.00 0.00 0.00 0.00 0.00 0.00 0.00 0.01 0.01 0.00 0.00 0.00 0.01 0.01 0.01
0.04 0.05 0.06 0.05 0.04 0.04 0.03 0.02 0.03 0.04 0.03 0.04 0.03 0.02 0.01 0.01 0.01 0.01 0.01 0.01 0.01 0.00 0.00 0.00 0.00 0.00 0.00 0.00 0.00 0.00 0.00 0.00 0.00 0.00 0.00 0.00 0.00 0.00 0.00 0.00 0.00 0.00 0.00
0.04 0.05 0.05 0.05 0.05 0.05 0.05 0.04 0.03 0.03 0.04 0.04 0.03 0.02 0.02 0.01 0.00 0.00 0.01 0.01 0.00 0.00 0.00 0.00 0.00 0.00 0.00 0.00 0.00 0.00 0.00 0.00 0.00 0.00 0.00 0.00 0.00 0.00 0.00 0.00 0.00 0.00 0.00

GFSGL_prec_precacc24_027.txt.gz
Total_Precipitation_Accumulation
0.00 0.00 0.00 0.00 0.00 0.00 0.00 0.00 0.00 0.00 0.00 0.00 0.00 0.01 0.01 0.02 0.06 0.07 0.04 0.03 0.03 0.03 0.03 0.02 0.01 0.01 0.01 0.00 0.00 0.00 0.00 0.01 0.01 0.00 0.00 0.00 0.00 0.00 0.00 0.00 0.00 0.02 0.04
0.00 0.00 0.00 0.00 0.00 0.00 0.00 0.00 0.00 0.01 0.01 0.02 0.01 0.02 0.04 0.05 0.05 0.04 0.02 0.01 0.01 0.01 0.01 0.01 0.00 0.00 0.00 0.00 0.00 0.00 0.00 0.00 0.00 0.00 0.00 0.00 0.00 0.00 0.00 0.00 0.00 0.00 0.00
0.00 0.00 0.00 0.00 0.00 0.00 0.00 0.01 0.01 0.02 0.02 0.02 0.03 0.04 0.03 0.02 0.01 0.01 0.00 0.00 0.00 0.00 0.00 0.00 0.00 0.00 0.00 0.00 0.00 0.00 0.00 0.00 0.01 0.03 0.01 0.00 0.00 0.00 0.00 0.00 0.00 0.00 0.00
0.00 0.00 0.00 0.01 0.01 0.01 0.00 0.02 0.02 0.03 0.02 0.00 0.00 0.01 0.00 0.00 0.00 0.00 0.00 0.00 0.00 0.00 0.00 0.00 0.00 0.00 0.00 0.00 0.01 0.01 0.01 0.01 0.01 0.01 0.01 0.01 0.01 0.01 0.01 0.01 0.01 0.00 0.00
0.00 0.00 0.00 0.00 0.01 0.02 0.02 0.03 0.06 0.02 0.00 0.00 0.00 0.00 0.00 0.00 0.00 0.00 0.00 0.00 0.00 0.00 0.00 0.00 0.00 0.00 0.00 0.01 0.01 0.01 0.02 0.03 0.04 0.05 0.03 0.02 0.01 0.00 0.01 0.01 0.03 0.01 0.01
0.01 0.01 0.00 0.01 0.02 0.03 0.04 0.05 0.01 0.01 0.01 0.00 0.00 0.00 0.00 0.00 0.00 0.00 0.00 0.00 0.00 0.00 0.00 0.00 0.00 0.00 0.00 0.00 0.01 0.01 0.03 0.07 0.10 0.06 0.05 0.04 0.02 0.01 0.01 0.03 0.04 0.03 0.02
0.00 0.01 0.01 0.02 0.02 0.02 0.02 0.03 0.03 0.03 0.01 0.00 0.00 0.00 0.00 0.00 0.00 0.00 0.00 0.00 0.00 0.00 0.00 0.00 0.00 0.00 0.00 0.00 0.00 0.01 0.01 0.02 0.07 0.12 0.11 0.05 0.03 0.01 0.02 0.03 0.03 0.04 0.02
0.00 0.01 0.03 0.02 0.01 0.02 0.05 0.04 0.02 0.00 0.00 0.00 0.00 0.00 0.00 0.00 0.00 0.00 0.00 0.00 0.00 0.00 0.00 0.00 0.00 0.00 0.00 0.02 0.08 0.06 0.02 0.01 0.01 0.03 0.07 0.05 0.04 0.04 0.05 0.06 0.06 0.06 0.04
0.00 0.01 0.01 0.02 0.02 0.02 0.02 0.05 0.02 0.00 0.00 0.00 0.00 0.00 0.00 0.00 0.00 0.00 0.00 0.00 0.01 0.01 0.00 0.00 0.01 0.01 0.02 0.07 0.11 0.09 0.04 0.02 0.01 0.02 0.05 0.06 0.08 0.07 0.07 0.13 0.13 0.15 0.11
0.01 0.01 0.01 0.02 0.03 0.08 0.10 0.02 0.00 0.00 0.00 0.00 0.00 0.00 0.00 0.00 0.01 0.00 0.01 0.02 0.02 0.02 0.02 0.01 0.01 0.04 0.10 0.13 0.20 0.16 0.13 0.04 0.02 0.02 0.02 0.03 0.03 0.02 0.01 0.03 0.05 0.11 0.09
0.00 0.01 0.04 0.09 0.07 0.03 0.00 0.00 0.00 0.00 0.00 0.00 0.01 0.01 0.01 0.01 0.01 0.00 0.01 0.02 0.04 0.06 0.03 0.03 0.05 0.22 0.17 0.12 0.10 0.12 0.15 0.08 0.04 0.03 0.02 0.01 0.02 0.03 0.04 0.04 0.04 0.06 0.05
0.01 0.02 0.02 0.01 0.00 0.00 0.00 0.00 0.00 0.00 0.00 0.00 0.01 0.01 0.01 0.01 0.00 0.00 0.00 0.02 0.04 0.08 0.07 0.12 0.21 0.13 0.07 0.04 0.06 0.12 0.07 0.03 0.05 0.08 0.08 0.06 0.06 0.06 0.07 0.08 0.10 0.10 0.06
0.00 0.01 0.00 0.00 0.00 0.00 0.00 0.00 0.00 0.00 0.00 0.00 0.00 0.00 0.00 0.00 0.00 0.00 0.01 0.02 0.02 0.05 0.12 0.15 0.11 0.09 0.04 0.05 0.10 0.08 0.05 0.11 0.16 0.14 0.12 0.10 0.13 0.14 0.17 0.17 0.12 0.12 0.15
0.01 0.00 0.00 0.00 0.00 0.00 0.00 0.00 0.00 0.00 0.00 0.00 0.00 0.00 0.00 0.00 0.01 0.01 0.02 0.02 0.03 0.06 0.05 0.11 0.12 0.06 0.07 0.12 0.12 0.09 0.11 0.13 0.12 0.14 0.11 0.09 0.10 0.14 0.19 0.25 0.26 0.28 0.25
0.00 0.00 0.00 0.00 0.00 0.00 0.00 0.00 0.00 0.00 0.00 0.00 0.00 0.00 0.01 0.01 0.01 0.04 0.05 0.06 0.09 0.07 0.08 0.11 0.07 0.08 0.09 0.09 0.05 0.05 0.05 0.05 0.07 0.08 0.09 0.09 0.09 0.10 0.12 0.16 0.17 0.13 0.17
0.00 0.00 0.00 0.01 0.01 0.01 0.00 0.00 0.00 0.00 0.00 0.00 0.00 0.00 0.00 0.01 0.01 0.02 0.03 0.05 0.06 0.04 0.08 0.09 0.11 0.12 0.10 0.09 0.07 0.05 0.04 0.06 0.05 0.07 0.08 0.08 0.09 0.10 0.09 0.07 0.06 0.07 0.11
0.00 0.00 0.01 0.02 0.02 0.01 0.01 0.00 0.00 0.00 0.00 0.00 0.00 0.00 0.00 0.00 0.01 0.01 0.02 0.03 0.05 0.04 0.06 0.09 0.10 0.09 0.06 0.03 0.03 0.04 0.06 0.08 0.05 0.06 0.08 0.07 0.07 0.06 0.06 0.05 0.05 0.05 0.07
0.00 0.01 0.01 0.01 0.01 0.01 0.01 0.01 0.02 0.02 0.01 0.01 0.01 0.00 0.00 0.00 0.01 0.01 0.01 0.02 0.03 0.04 0.05 0.06 0.06 0.04 0.01 0.01 0.01 0.02 0.04 0.04 0.03 0.04 0.05 0.06 0.06 0.06 0.05 0.04 0.03 0.04 0.05
0.00 0.01 0.01 0.02 0.01 0.00 0.01 0.01 0.01 0.02 0.01 0.01 0.00 0.00 0.00 0.00 0.01 0.01 0.01 0.02 0.03 0.03 0.03 0.03 0.02 0.01 0.01 0.01 0.01 0.02 0.04 0.04 0.02 0.03 0.04 0.05 0.06 0.06 0.05 0.04 0.02 0.01 0.01
0.01 0.02 0.02 0.02 0.01 0.01 0.01 0.01 0.01 0.01 0.02 0.01 0.01 0.00 0.00 0.00 0.02 0.01 0.02 0.01 0.01 0.00 0.00 0.00 0.00 0.01 0.01 0.01 0.01 0.01 0.01 0.02 0.02 0.02 0.02 0.04 0.05 0.05 0.07 0.04 0.03 0.02 0.01
0.02 0.01 0.02 0.03 0.02 0.01 0.02 0.02 0.02 0.01 0.01 0.01 0.01 0.01 0.00 0.01 0.02 0.02 0.01 0.00 0.00 0.00 0.00 0.00 0.00 0.00 0.01 0.01 0.01 0.01 0.01 0.01 0.01 0.01 0.02 0.03 0.04 0.03 0.04 0.05 0.03 0.02 0.01
0.02 0.03 0.03 0.03 0.03 0.03 0.02 0.01 0.02 0.02 0.02 0.02 0.01 0.00 0.00 0.02 0.01 0.01 0.01 0.00 0.00 0.00 0.00 0.00 0.00 0.00 0.00 0.01 0.01 0.01 0.01 0.00 0.01 0.01 0.01 0.01 0.02 0.02 0.02 0.03 0.02 0.02 0.01
0.03 0.03 0.03 0.03 0.04 0.03 0.03 0.03 0.03 0.03 0.02 0.02 0.01 0.01 0.01 0.01 0.01 0.01 0.01 0.01 0.00 0.00 0.00 0.00 0.00 0.00 0.00 0.00 0.00 0.00 0.00 0.00 0.01 0.00 0.00 0.02 0.01 0.01 0.02 0.01 0.01 0.01 0.01
0.02 0.04 0.05 0.04 0.04 0.04 0.03 0.03 0.03 0.02 0.02 0.02 0.02 0.02 0.01 0.01 0.01 0.01 0.01 0.01 0.01 0.00 0.00 0.00 0.00 0.00 0.00 0.00 0.00 0.00 0.00 0.00 0.00 0.00 0.00 0.01 0.01 0.00 0.00 0.00 0.01 0.01 0.01
0.04 0.05 0.06 0.06 0.06 0.05 0.04 0.03 0.04 0.04 0.04 0.04 0.04 0.03 0.01 0.01 0.01 0.00 0.01 0.01 0.01 0.00 0.00 0.00 0.00 0.00 0.00 0.00 0.00 0.00 0.00 0.00 0.00 0.00 0.00 0.00 0.00 0.00 0.00 0.00 0.00 0.00 0.00
0.04 0.05 0.07 0.07 0.06 0.05 0.05 0.05 0.04 0.05 0.06 0.06 0.05 0.04 0.03 0.02 0.01 0.00 0.00 0.00 0.00 0.00 0.00 0.00 0.00 0.00 0.00 0.00 0.00 0.00 0.00 0.00 0.00 0.00 0.00 0.00 0.00 0.00 0.00 0.00 0.00 0.00 0.00

GFSGL_prec_precacc24_030.txt.gz
Total_Precipitation_Accumulation
0.00 0.00 0.00 0.00 0.00 0.00 0.00 0.00 0.00 0.00 0.00 0.00 0.00 0.01 0.01 0.02 0.03 0.05 0.05 0.03 0.02 0.03 0.03 0.02 0.01 0.01 0.01 0.00 0.00 0.00 0.00 0.01 0.01 0.00 0.00 0.00 0.00 0.00 0.00 0.00 0.00 0.02 0.04
0.00 0.00 0.00 0.00 0.00 0.00 0.00 0.00 0.00 0.01 0.01 0.01 0.01 0.02 0.03 0.04 0.06 0.04 0.03 0.01 0.01 0.01 0.01 0.01 0.00 0.00 0.00 0.00 0.00 0.00 0.00 0.00 0.00 0.00 0.00 0.00 0.00 0.00 0.00 0.00 0.00 0.00 0.00
0.00 0.00 0.00 0.00 0.00 0.00 0.00 0.00 0.00 0.01 0.01 0.01 0.02 0.03 0.03 0.03 0.01 0.01 0.00 0.00 0.00 0.00 0.00 0.00 0.00 0.00 0.00 0.00 0.00 0.00 0.00 0.01 0.01 0.03 0.01 0.00 0.00 0.00 0.00 0.01 0.01 0.00 0.00
0.00 0.00 0.00 0.01 0.00 0.00 0.00 0.01 0.01 0.02 0.01 0.00 0.00 0.00 0.00 0.00 0.00 0.00 0.00 0.00 0.00 0.00 0.00 0.00 0.00 0.00 0.00 0.00 0.01 0.01 0.01 0.01 0.01 0.02 0.02 0.01 0.02 0.02 0.02 0.02 0.02 0.01 0.01
0.00 0.00 0.00 0.00 0.01 0.02 0.02 0.03 0.06 0.02 0.00 0.00 0.00 0.00 0.00 0.00 0.00 0.00 0.00 0.00 0.00 0.00 0.00 0.00 0.00 0.00 0.00 0.01 0.01 0.01 0.02 0.03 0.04 0.05 0.04 0.03 0.02 0.01 0.01 0.01 0.03 0.01 0.01
0.01 0.01 0.00 0.01 0.02 0.03 0.04 0.05 0.01 0.01 0.01 0.00 0.00 0.00 0.00 0.00 0.00 0.00 0.00 0.00 0.00 0.00 0.00 0.00 0.00 0.00 0.00 0.00 0.01 0.01 0.03 0.08 0.12 0.08 0.06 0.05 0.03 0.03 0.03 0.05 0.06 0.06 0.03
0.00 0.01 0.01 0.02 0.02 0.02 0.02 0.03 0.03 0.03 0.01 0.00 0.00 0.00 0.00 0.00 0.00 0.00 0.00 0.00 0.00 0.00 0.00 0.00 0.00 0.00 0.00 0.00 0.00 0.01 0.01 0.03 0.09 0.13 0.13 0.06 0.04 0.03 0.04 0.05 0.05 0.07 0.05
0.00 0.01 0.03 0.02 0.01 0.02 0.05 0.04 0.02 0.00 0.00 0.00 0.00 0.00 0.00 0.00 0.00 0.00 0.00 0.00 0.00 0.00 0.00 0.00 0.00 0.00 0.00 0.02 0.08 0.07 0.02 0.01 0.01 0.04 0.09 0.07 0.07 0.07 0.08 0.08 0.09 0.08 0.05
0.00 0.01 0.01 0.02 0.02 0.02 0.02 0.05 0.02 0.00 0.00 0.00 0.00 0.00 0.00 0.00 0.00 0.00 0.00 0.00 0.00 0.00 0.00 0.00 0.01 0.01 0.02 0.08 0.11 0.08 0.03 0.02 0.01 0.02 0.05 0.06 0.08 0.08 0.08 0.15 0.14 0.16 0.11
0.01 0.01 0.01 0.02 0.03 0.08 0.10 0.02 0.00 0.00 0.00 0.00 0.00 0.00 0.00 0.00 0.01 0.00 0.00 0.01 0.01 0.02 0.01 0.01 0.00 0.03 0.10 0.12 0.17 0.14 0.12 0.04 0.02 0.02 0.01 0.02 0.02 0.02 0.01 0.03 0.05 0.09 0.08
0.00 0.01 0.04 0.09 0.07 0.03 0.00 0.00 0.00 0.00 0.00 0.00 0.00 0.00 0.00 0.01 0.01 0.00 0.01 0.01 0.03 0.05 0.02 0.02 0.04 0.19 0.16 0.12 0.09 0.11 0.14 0.07 0.03 0.03 0.02 0.01 0.02 0.03 0.04 0.06 0.06 0.06 0.04
0.01 0.02 0.02 0.01 0.00 0.00 0.00 0.00 0.00 0.00 0.00 0.00 0.00 0.01 0.01 0.01 0.00 0.00 0.00 0.01 0.03 0.06 0.05 0.08 0.16 0.11 0.07 0.04 0.07 0.11 0.06 0.03 0.04 0.07 0.08 0.06 0.06 0.06 0.07 0.09 0.12 0.12 0.06
0.00 0.01 0.00 0.00 0.00 0.00 0.00 0.00 0.00 0.00 0.00 0.00 0.00 0.00 0.00 0.00 0.00 0.00 0.00 0.01 0.01 0.04 0.08 0.10 0.10 0.08 0.04 0.05 0.10 0.08 0.05 0.10 0.15 0.13 0.11 0.09 0.13 0.14 0.17 0.20 0.15 0.15 0.16
0.01 0.00 0.00 0.00 0.00 0.00 0.00 0.00 0.00 0.00 0.00 0.00 0.00 0.00 0.00 0.00 0.00 0.00 0.01 0.01 0.02 0.03 0.02 0.07 0.10 0.04 0.06 0.11 0.11 0.08 0.10 0.12 0.11 0.14 0.11 0.09 0.10 0.12 0.17 0.26 0.28 0.29 0.27
0.00 0.00 0.00 0.00 0.00 0.00 0.00 0.00 0.00 0.00 0.00 0.00 0.00 0.00 0.01 0.01 0.01 0.02 0.03 0.04 0.06 0.04 0.05 0.08 0.05 0.05 0.07 0.08 0.05 0.04 0.05 0.04 0.06 0.07 0.09 0.08 0.08 0.09 0.11 0.16 0.17 0.13 0.17
0.00 0.00 0.00 0.01 0.01 0.01 0.00 0.00 0.00 0.00 0.00 0.00 0.00 0.00 0.00 0.00 0.00 0.01 0.02 0.02 0.04 0.02 0.05 0.05 0.07 0.07 0.08 0.09 0.07 0.04 0.03 0.06 0.04 0.06 0.07 0.07 0.08 0.09 0.08 0.07 0.06 0.07 0.10
0.00 0.00 0.01 0.02 0.02 0.02 0.01 0.01 0.01 0.01 0.00 0.00 0.00 0.00 0.00 0.00 0.00 0.01 0.01 0.01 0.03 0.02 0.03 0.05 0.06 0.05 0.03 0.02 0.03 0.04 0.06 0.07 0.04 0.05 0.07 0.07 0.07 0.06 0.05 0.04 0.04 0.04 0.07
0.00 0.01 0.01 0.02 0.02 0.02 0.02 0.01 0.02 0.03 0.02 0.02 0.01 0.00 0.00 0.00 0.01 0.01 0.01 0.01 0.01 0.02 0.02 0.03 0.03 0.01 0.00 0.01 0.01 0.01 0.03 0.04 0.02 0.03 0.05 0.05 0.05 0.06 0.04 0.03 0.02 0.02 0.04
0.00 0.01 0.01 0.02 0.01 0.01 0.01 0.02 0.02 0.02 0.02 0.01 0.01 0.00 0.00 0.00 0.01 0.01 0.02 0.02 0.01 0.01 0.01 0.01 0.00 0.01 0.00 0.01 0.01 0.01 0.03 0.03 0.02 0.02 0.03 0.05 0.05 0.06 0.04 0.03 0.02 0.01 0.00
0.01 0.02 0.03 0.02 0.02 0.02 0.02 0.02 0.02 0.02 0.02 0.02 0.01 0.01 0.00 0.00 0.01 0.02 0.02 0.01 0.01 0.00 0.00 0.00 0.00 0.00 0.01 0.01 0.01 0.01 0.01 0.01 0.01 0.01 0.02 0.03 0.05 0.05 0.06 0.04 0.03 0.02 0.01
0.02 0.01 0.02 0.03 0.03 0.02 0.03 0.02 0.02 0.02 0.02 0.02 0.01 0.01 0.00 0.01 0.02 0.01 0.01 0.01 0.01 0.00 0.00 0.00 0.00 0.00 0.00 0.01 0.00 0.00 0.00 0.01 0.01 0.01 0.01 0.02 0.03 0.02 0.03 0.04 0.02 0.02 0.01
0.02 0.03 0.03 0.03 0.03 0.04 0.03 0.03 0.03 0.03 0.02 0.02 0.01 0.00 0.00 0.01 0.01 0.01 0.01 0.01 0.01 0.00 0.00 0.00 0.00 0.00 0.00 0.00 0.00 0.01 0.00 0.00 0.00 0.00 0.00 0.01 0.01 0.01 0.02 0.02 0.01 0.01 0.01
0.03 0.03 0.03 0.04 0.04 0.04 0.03 0.04 0.04 0.04 0.03 0.02 0.01 0.01 0.01 0.02 0.01 0.01 0.01 0.01 0.01 0.01 0.00 0.00 0.00 0.00 0.00 0.00 0.00 0.00 0.00 0.00 0.00 0.00 0.00 0.01 0.01 0.00 0.01 0.01 0.01 0.01 0.01
0.02 0.03 0.05 0.05 0.05 0.05 0.05 0.04 0.04 0.03 0.03 0.03 0.03 0.02 0.01 0.01 0.01 0.01 0.01 0.01 0.01 0.01 0.00 0.00 0.00 0.00 0.00 0.00 0.00 0.00 0.00 0.00 0.00 0.00 0.00 0.01 0.01 0.00 0.00 0.00 0.00 0.00 0.00
0.03 0.04 0.06 0.07 0.07 0.07 0.05 0.04 0.04 0.05 0.05 0.05 0.05 0.03 0.02 0.02 0.01 0.01 0.01 0.01 0.01 0.00 0.00 0.00 0.00 0.00 0.00 0.00 0.00 0.00 0.00 0.00 0.00 0.00 0.00 0.00 0.00 0.00 0.00 0.00 0.00 0.00 0.00
0.03 0.05 0.07 0.08 0.08 0.07 0.07 0.06 0.05 0.06 0.07 0.07 0.07 0.06 0.05 0.04 0.03 0.02 0.02 0.03 0.03 0.02 0.01 0.00 0.00 0.00 0.00 0.00 0.00 0.00 0.00 0.00 0.00 0.00 0.00 0.00 0.00 0.00 0.00 0.00 0.00 0.00 0.00

GFSGL_prec_precacc24_033.txt.gz
Total_Precipitation_Accumulation
0.00 0.00 0.00 0.00 0.00 0.00 0.00 0.00 0.00 0.00 0.00 0.00 0.00 0.01 0.01 0.01 0.02 0.04 0.06 0.05 0.03 0.03 0.03 0.03 0.02 0.01 0.01 0.01 0.00 0.00 0.00 0.01 0.01 0.00 0.00 0.00 0.00 0.00 0.00 0.00 0.00 0.02 0.04
0.00 0.00 0.00 0.00 0.00 0.00 0.00 0.00 0.00 0.00 0.00 0.00 0.00 0.00 0.01 0.02 0.03 0.04 0.03 0.01 0.01 0.01 0.01 0.01 0.00 0.00 0.00 0.00 0.00 0.00 0.00 0.00 0.00 0.00 0.00 0.00 0.00 0.00 0.00 0.00 0.00 0.00 0.00
0.00 0.00 0.00 0.00 0.00 0.00 0.00 0.00 0.00 0.00 0.00 0.00 0.00 0.01 0.01 0.01 0.01 0.00 0.00 0.00 0.00 0.00 0.00 0.00 0.00 0.00 0.00 0.00 0.00 0.00 0.00 0.01 0.01 0.03 0.01 0.00 0.00 0.00 0.00 0.01 0.01 0.00 0.00
0.00 0.00 0.00 0.01 0.00 0.00 0.00 0.01 0.01 0.02 0.01 0.00 0.00 0.00 0.00 0.00 0.00 0.00 0.00 0.00 0.00 0.00 0.00 0.00 0.00 0.00 0.00 0.00 0.01 0.01 0.01 0.01 0.01 0.02 0.02 0.01 0.02 0.02 0.03 0.03 0.02 0.02 0.01
0.00 0.00 0.00 0.00 0.01 0.02 0.02 0.03 0.06 0.02 0.00 0.00 0.00 0.00 0.00 0.00 0.00 0.00 0.00 0.00 0.00 0.00 0.00 0.00 0.00 0.00 0.00 0.01 0.01 0.01 0.02 0.04 0.04 0.06 0.05 0.04 0.03 0.02 0.03 0.03 0.05 0.02 0.02
0.01 0.01 0.00 0.01 0.02 0.03 0.04 0.05 0.01 0.01 0.01 0.00 0.00 0.00 0.00 0.00 0.00 0.00 0.00 0.00 0.00 0.00 0.00 0.00 0.00 0.00 0.00 0.00 0.01 0.01 0.03 0.09 0.14 0.10 0.08 0.06 0.04 0.04 0.05 0.08 0.09 0.08 0.04
0.00 0.01 0.01 0.02 0.02 0.02 0.02 0.03 0.03 0.03 0.01 0.00 0.00 0.00 0.00 0.00 0.00 0.00 0.00 0.00 0.00 0.00 0.00 0.00 0.00 0.00 0.00 0.00 0.00 0.01 0.02 0.03 0.10 0.14 0.15 0.08 0.07 0.06 0.07 0.07 0.08 0.09 0.07
0.00 0.01 0.03 0.02 0.01 0.02 0.05 0.04 0.02 0.00 0.00 0.00 0.00 0.00 0.00 0.00 0.00 0.00 0.00 0.00 0.00 0.00 0.00 0.00 0.00 0.00 0.00 0.02 0.08 0.07 0.02 0.01 0.01 0.04 0.08 0.07 0.07 0.07 0.09 0.09 0.10 0.09 0.05
0.00 0.01 0.01 0.02 0.02 0.02 0.02 0.05 0.02 0.00 0.00 0.00 0.00 0.00 0.00 0.00 0.00 0.00 0.00 0.00 0.00 0.00 0.00 0.00 0.01 0.01 0.02 0.08 0.10 0.06 0.02 0.01 0.01 0.02 0.04 0.06 0.08 0.08 0.08 0.15 0.13 0.15 0.12
0.01 0.01 0.01 0.02 0.03 0.08 0.10 0.02 0.00 0.00 0.00 0.00 0.00 0.00 0.00 0.00 0.01 0.00 0.00 0.01 0.00 0.01 0.01 0.00 0.00 0.03 0.10 0.11 0.15 0.11 0.10 0.03 0.01 0.01 0.00 0.01 0.01 0.02 0.02 0.05 0.07 0.13 0.09
0.00 0.01 0.04 0.09 0.07 0.03 0.00 0.00 0.00 0.00 0.00 0.00 0.00 0.00 0.00 0.01 0.00 0.00 0.01 0.01 0.02 0.03 0.01 0.01 0.02 0.12 0.13 0.10 0.08 0.10 0.13 0.06 0.03 0.03 0.02 0.02 0.02 0.02 0.03 0.05 0.08 0.11 0.09
0.01 0.02 0.02 0.01 0.00 0.00 0.00 0.00 0.00 0.00 0.00 0.00 0.00 0.00 0.00 0.00 0.00 0.00 0.00 0.01 0.01 0.03 0.03 0.05 0.08 0.08 0.07 0.04 0.07 0.11 0.06 0.03 0.04 0.06 0.06 0.04 0.05 0.06 0.06 0.09 0.13 0.13 0.07
0.00 0.00 0.00 0.00 0.00 0.00 0.00 0.00 0.00 0.00 0.00 0.00 0.00 0.01 0.01 0.01 0.01 0.00 0.00 0.00 0.01 0.02 0.04 0.06 0.08 0.08 0.03 0.04 0.09 0.07 0.04 0.07 0.12 0.11 0.10 0.08 0.11 0.13 0.16 0.19 0.14 0.16 0.18
0.00 0.00 0.00 0.00 0.00 0.00 0.00 0.00 0.00 0.00 0.00 0.00 0.00 0.01 0.00 0.00 0.00 0.00 0.01 0.01 0.01 0.01 0.01 0.04 0.07 0.02 0.04 0.07 0.09 0.06 0.08 0.10 0.09 0.12 0.10 0.09 0.09 0.11 0.15 0.23 0.26 0.28 0.29
0.00 0.00 0.00 0.00 0.00 0.00 0.00 0.00 0.00 0.00 0.00 0.00 0.00 0.01 0.01 0.01 0.01 0.01 0.02 0.02 0.04 0.03 0.02 0.04 0.02 0.02 0.03 0.04 0.03 0.03 0.03 0.03 0.04 0.06 0.07 0.07 0.07 0.08 0.10 0.14 0.16 0.11 0.15
0.00 0.00 0.00 0.01 0.01 0.00 0.00 0.00 0.00 0.00 0.00 0.00 0.00 0.00 0.00 0.00 0.00 0.01 0.01 0.01 0.02 0.01 0.02 0.03 0.03 0.04 0.04 0.06 0.05 0.03 0.03 0.05 0.04 0.05 0.06 0.06 0.07 0.08 0.06 0.05 0.06 0.06 0.08
0.00 0.00 0.01 0.02 0.02 0.01 0.01 0.01 0.01 0.01 0.00 0.00 0.00 0.00 0.00 0.00 0.00 0.00 0.01 0.00 0.02 0.01 0.01 0.02 0.03 0.02 0.01 0.01 0.02 0.03 0.05 0.06 0.03 0.04 0.06 0.05 0.05 0.05 0.04 0.03 0.02 0.03 0.05
0.00 0.01 0.01 0.01 0.02 0.02 0.02 0.02 0.04 0.04 0.03 0.02 0.01 0.00 0.00 0.00 0.00 0.01 0.01 0.01 0.01 0.01 0.01 0.01 0.01 0.01 0.00 0.00 0.01 0.01 0.01 0.02 0.01 0.02 0.04 0.04 0.04 0.05 0.04 0.02 0.02 0.02 0.01
0.00 0.01 0.01 0.02 0.02 0.02 0.02 0.03 0.03 0.04 0.03 0.02 0.01 0.01 0.00 0.00 0.01 0.01 0.02 0.03 0.01 0.01 0.01 0.00 0.00 0.01 0.00 0.00 0.00 0.01 0.01 0.02 0.00 0.01 0.02 0.03 0.05 0.04 0.04 0.03 0.02 0.01 0.00
0.01 0.02 0.03 0.02 0.02 0.02 0.02 0.03 0.03 0.04 0.04 0.03 0.02 0.01 0.00 0.01 0.02 0.02 0.03 0.03 0.02 0.01 0.01 0.00 0.00 0.00 0.00 0.00 0.00 0.00 0.01 0.01 0.01 0.00 0.00 0.02 0.03 0.04 0.05 0.03 0.02 0.02 0.01
0.02 0.02 0.02 0.04 0.03 0.03 0.03 0.03 0.03 0.04 0.04 0.03 0.02 0.01 0.01 0.01 0.02 0.02 0.02 0.03 0.02 0.01 0.01 0.01 0.01 0.00 0.00 0.01 0.00 0.00 0.00 0.00 0.00 0.00 0.00 0.01 0.01 0.01 0.02 0.03 0.01 0.01 0.01
0.03 0.03 0.04 0.05 0.05 0.06 0.04 0.04 0.04 0.04 0.04 0.04 0.02 0.01 0.00 0.01 0.01 0.01 0.02 0.02 0.02 0.01 0.01 0.01 0.01 0.01 0.01 0.00 0.00 0.01 0.00 0.00 0.00 0.00 0.00 0.00 0.00 0.01 0.01 0.01 0.01 0.01 0.00
0.03 0.04 0.04 0.05 0.06 0.05 0.04 0.04 0.05 0.05 0.05 0.03 0.02 0.03 0.03 0.03 0.01 0.01 0.01 0.01 0.01 0.02 0.01 0.01 0.01 0.01 0.00 0.00 0.00 0.00 0.00 0.00 0.00 0.00 0.00 0.01 0.01 0.00 0.00 0.00 0.00 0.00 0.00
0.03 0.04 0.05 0.05 0.06 0.06 0.07 0.07 0.06 0.05 0.04 0.04 0.04 0.04 0.04 0.03 0.02 0.02 0.01 0.01 0.01 0.01 0.01 0.01 0.00 0.00 0.00 0.00 0.00 0.00 0.00 0.00 0.00 0.00 0.00 0.01 0.01 0.00 0.00 0.00 0.00 0.00 0.00
0.05 0.06 0.07 0.07 0.08 0.09 0.08 0.07 0.07 0.07 0.06 0.06 0.05 0.05 0.04 0.04 0.04 0.02 0.02 0.02 0.03 0.02 0.02 0.02 0.01 0.00 0.00 0.00 0.00 0.00 0.00 0.00 0.00 0.00 0.00 0.00 0.00 0.00 0.00 0.00 0.00 0.00 0.00
0.06 0.07 0.09 0.08 0.09 0.09 0.11 0.11 0.10 0.09 0.09 0.08 0.08 0.07 0.06 0.05 0.05 0.04 0.04 0.06 0.06 0.05 0.04 0.05 0.04 0.02 0.01 0.01 0.00 0.00 0.00 0.00 0.00 0.00 0.00 0.00 0.00 0.00 0.00 0.00 0.00 0.00 0.00

GFSGL_prec_precacc24_036.txt.gz
Total_Precipitation_Accumulation
0.00 0.00 0.00 0.00 0.00 0.00 0.00 0.00 0.00 0.00 0.00 0.00 0.00 0.00 0.00 0.00 0.00 0.02 0.04 0.04 0.02 0.01 0.01 0.02 0.02 0.02 0.02 0.01 0.01 0.00 0.00 0.01 0.01 0.00 0.00 0.00 0.00 0.00 0.00 0.00 0.00 0.02 0.04
0.00 0.00 0.00 0.00 0.00 0.00 0.00 0.00 0.00 0.00 0.00 0.00 0.00 0.00 0.00 0.01 0.02 0.03 0.01 0.00 0.00 0.00 0.00 0.01 0.00 0.00 0.00 0.00 0.00 0.00 0.00 0.00 0.00 0.00 0.00 0.00 0.00 0.00 0.00 0.00 0.00 0.00 0.00
0.00 0.00 0.00 0.00 0.00 0.00 0.00 0.00 0.00 0.00 0.00 0.00 0.00 0.01 0.01 0.01 0.01 0.00 0.00 0.00 0.00 0.00 0.00 0.00 0.00 0.00 0.00 0.00 0.00 0.00 0.00 0.01 0.01 0.03 0.01 0.00 0.00 0.00 0.00 0.01 0.01 0.01 0.00
0.00 0.00 0.00 0.01 0.00 0.00 0.00 0.01 0.01 0.02 0.01 0.00 0.00 0.00 0.00 0.00 0.00 0.00 0.00 0.00 0.00 0.00 0.00 0.00 0.00 0.00 0.00 0.00 0.01 0.01 0.01 0.01 0.01 0.02 0.02 0.02 0.02 0.02 0.03 0.03 0.03 0.02 0.01
0.00 0.00 0.00 0.00 0.01 0.02 0.02 0.03 0.06 0.02 0.00 0.00 0.00 0.00 0.00 0.00 0.00 0.00 0.00 0.00 0.00 0.00 0.00 0.00 0.00 0.00 0.00 0.01 0.01 0.01 0.02 0.04 0.05 0.06 0.05 0.04 0.03 0.02 0.03 0.03 0.06 0.03 0.02
0.00 0.00 0.00 0.01 0.02 0.03 0.04 0.05 0.01 0.01 0.01 0.00 0.00 0.00 0.00 0.00 0.00 0.00 0.00 0.00 0.00 0.00 0.00 0.00 0.00 0.00 0.00 0.00 0.00 0.01 0.03 0.09 0.15 0.10 0.08 0.07 0.05 0.05 0.07 0.09 0.11 0.09 0.05
0.00 0.01 0.01 0.01 0.01 0.01 0.02 0.03 0.03 0.03 0.01 0.00 0.00 0.00 0.00 0.00 0.00 0.00 0.00 0.00 0.00 0.00 0.00 0.00 0.00 0.00 0.00 0.00 0.00 0.01 0.01 0.03 0.10 0.14 0.15 0.10 0.09 0.07 0.07 0.08 0.08 0.10 0.08
0.00 0.00 0.00 0.01 0.01 0.02 0.05 0.04 0.02 0.00 0.00 0.00 0.00 0.00 0.00 0.00 0.00 0.00 0.00 0.00 0.00 0.00 0.00 0.00 0.00 0.00 0.00 0.01 0.08 0.07 0.02 0.01 0.01 0.03 0.08 0.07 0.07 0.07 0.08 0.09 0.10 0.09 0.05
0.00 0.00 0.00 0.01 0.02 0.02 0.02 0.05 0.02 0.00 0.00 0.00 0.00 0.00 0.01 0.00 0.00 0.00 0.00 0.00 0.00 0.00 0.00 0.00 0.00 0.01 0.02 0.07 0.10 0.06 0.02 0.00 0.00 0.01 0.04 0.06 0.07 0.07 0.08 0.15 0.13 0.15 0.11
0.00 0.00 0.00 0.01 0.03 0.08 0.10 0.02 0.00 0.00 0.00 0.00 0.00 0.00 0.00 0.00 0.00 0.00 0.00 0.01 0.00 0.00 0.00 0.00 0.00 0.02 0.08 0.11 0.13 0.08 0.07 0.02 0.01 0.01 0.01 0.01 0.01 0.02 0.02 0.06 0.12 0.20 0.15
0.00 0.00 0.01 0.01 0.05 0.02 0.00 0.00 0.00 0.00 0.00 0.00 0.00 0.00 0.00 0.00 0.00 0.00 0.01 0.01 0.01 0.01 0.00 0.00 0.01 0.04 0.09 0.09 0.07 0.09 0.13 0.06 0.03 0.03 0.02 0.02 0.02 0.03 0.03 0.05 0.07 0.13 0.14
0.00 0.00 0.00 0.00 0.00 0.00 0.00 0.00 0.00 0.00 0.00 0.00 0.00 0.00 0.00 0.00 0.00 0.00 0.00 0.00 0.01 0.01 0.02 0.02 0.04 0.06 0.06 0.04 0.06 0.11 0.06 0.02 0.04 0.06 0.05 0.04 0.04 0.04 0.06 0.08 0.12 0.12 0.10
0.00 0.00 0.00 0.00 0.00 0.00 0.00 0.00 0.00 0.00 0.00 0.00 0.00 0.01 0.01 0.01 0.01 0.00 0.00 0.00 0.00 0.01 0.02 0.05 0.05 0.04 0.02 0.03 0.07 0.07 0.03 0.05 0.07 0.07 0.07 0.07 0.10 0.12 0.14 0.17 0.14 0.15 0.18
0.00 0.00 0.00 0.00 0.00 0.00 0.00 0.00 0.00 0.00 0.00 0.00 0.01 0.01 0.01 0.00 0.00 0.01 0.00 0.00 0.01 0.01 0.00 0.02 0.02 0.01 0.03 0.05 0.04 0.04 0.05 0.06 0.07 0.09 0.08 0.07 0.08 0.10 0.14 0.22 0.23 0.26 0.28
0.00 0.00 0.00 0.00 0.00 0.00 0.00 0.00 0.00 0.00 0.00 0.00 0.01 0.01 0.02 0.01 0.01 0.01 0.02 0.02 0.03 0.02 0.01 0.01 0.00 0.01 0.01 0.02 0.01 0.01 0.01 0.02 0.03 0.04 0.06 0.05 0.06 0.07 0.09 0.13 0.14 0.10 0.13
0.00 0.00 0.00 0.01 0.01 0.00 0.00 0.00 0.00 0.00 0.00 0.00 0.00 0.00 0.00 0.00 0.00 0.00 0.01 0.00 0.01 0.00 0.00 0.01 0.01 0.01 0.01 0.02 0.02 0.01 0.01 0.03 0.03 0.04 0.04 0.04 0.06 0.07 0.06 0.03 0.04 0.06 0.08
0.00 0.00 0.01 0.02 0.02 0.01 0.01 0.01 0.01 0.01 0.00 0.00 0.00 0.00 0.00 0.00 0.00 0.00 0.00 0.00 0.00 0.00 0.00 0.01 0.01 0.01 0.01 0.01 0.01 0.02 0.03 0.04 0.02 0.03 0.04 0.04 0.05 0.04 0.03 0.02 0.02 0.02 0.03
0.00 0.01 0.01 0.01 0.02 0.02 0.02 0.02 0.04 0.04 0.03 0.02 0.01 0.00 0.00 0.00 0.00 0.00 0.01 0.01 0.01 0.01 0.01 0.00 0.01 0.01 0.00 0.01 0.00 0.00 0.01 0.01 0.00 0.01 0.03 0.03 0.04 0.04 0.02 0.02 0.01 0.01 0.01
0.00 0.01 0.01 0.02 0.02 0.01 0.02 0.03 0.03 0.03 0.03 0.02 0.02 0.01 0.00 0.00 0.00 0.00 0.01 0.03 0.02 0.01 0.01 0.01 0.00 0.01 0.00 0.00 0.00 0.00 0.00 0.01 0.00 0.00 0.01 0.02 0.03 0.04 0.03 0.02 0.01 0.01 0.00
0.01 0.02 0.03 0.03 0.02 0.02 0.02 0.03 0.03 0.04 0.04 0.03 0.02 0.01 0.01 0.03 0.04 0.02 0.02 0.03 0.02 0.01 0.01 0.01 0.00 0.00 0.00 0.00 0.00 0.00 0.00 0.00 0.00 0.00 0.00 0.01 0.02 0.03 0.04 0.03 0.01 0.01 0.00
0.03 0.03 0.03 0.05 0.05 0.05 0.05 0.05 0.05 0.05 0.05 0.04 0.02 0.02 0.02 0.04 0.05 0.03 0.03 0.03 0.02 0.01 0.01 0.01 0.01 0.01 0.01 0.01 0.00 0.00 0.00 0.00 0.00 0.00 0.00 0.00 0.00 0.00 0.01 0.02 0.01 0.00 0.00
0.03 0.04 0.04 0.06 0.07 0.07 0.06 0.06 0.06 0.05 0.04 0.04 0.03 0.02 0.01 0.02 0.02 0.02 0.02 0.02 0.02 0.02 0.01 0.01 0.01 0.01 0.01 0.00 0.00 0.01 0.00 0.00 0.00 0.00 0.00 0.00 0.00 0.00 0.00 0.00 0.00 0.00 0.00
0.04 0.04 0.05 0.06 0.06 0.06 0.05 0.04 0.06 0.06 0.06 0.05 0.04 0.04 0.04 0.06 0.05 0.02 0.01 0.01 0.02 0.02 0.01 0.01 0.01 0.01 0.00 0.00 0.00 0.00 0.00 0.00 0.00 0.00 0.00 0.00 0.00 0.00 0.00 0.00 0.00 0.00 0.00
0.04 0.06 0.08 0.09 0.07 0.07 0.07 0.07 0.07 0.06 0.07 0.07 0.06 0.05 0.04 0.05 0.07 0.07 0.04 0.02 0.02 0.01 0.01 0.02 0.01 0.01 0.00 0.01 0.01 0.00 0.00 0.00 0.00 0.00 0.00 0.01 0.00 0.00 0.00 0.00 0.00 0.00 0.00
0.06 0.07 0.09 0.09 0.10 0.10 0.10 0.09 0.09 0.08 0.09 0.10 0.10 0.08 0.05 0.05 0.05 0.04 0.04 0.05 0.05 0.04 0.04 0.04 0.04 0.03 0.02 0.02 0.02 0.01 0.00 0.00 0.00 0.00 0.00 0.00 0.00 0.00 0.00 0.00 0.00 0.00 0.00
0.07 0.10 0.12 0.12 0.16 0.18 0.16 0.12 0.10 0.10 0.11 0.10 0.10 0.10 0.09 0.09 0.09 0.07 0.05 0.06 0.07 0.06 0.05 0.06 0.06 0.04 0.04 0.04 0.04 0.04 0.01 0.00 0.00 0.00 0.00 0.00 0.00 0.00 0.00 0.00 0.00 0.00 0.00

GFSGL_prec_precacc24_039.txt.gz
Total_Precipitation_Accumulation
0.00 0.00 0.00 0.00 0.00 0.00 0.00 0.00 0.00 0.00 0.00 0.00 0.00 0.00 0.00 0.00 0.00 0.02 0.04 0.03 0.02 0.01 0.00 0.01 0.01 0.01 0.01 0.01 0.00 0.00 0.00 0.00 0.01 0.00 0.00 0.00 0.00 0.00 0.00 0.00 0.00 0.00 0.02
0.00 0.00 0.00 0.00 0.00 0.00 0.00 0.00 0.00 0.00 0.00 0.00 0.00 0.00 0.00 0.01 0.02 0.03 0.01 0.00 0.00 0.00 0.00 0.00 0.00 0.00 0.00 0.00 0.00 0.00 0.00 0.00 0.00 0.00 0.00 0.00 0.00 0.00 0.00 0.00 0.00 0.00 0.00
0.00 0.00 0.00 0.00 0.00 0.00 0.00 0.00 0.00 0.00 0.00 0.00 0.00 0.01 0.01 0.01 0.01 0.00 0.00 0.00 0.00 0.00 0.00 0.00 0.00 0.00 0.00 0.00 0.00 0.00 0.00 0.01 0.01 0.03 0.01 0.00 0.00 0.00 0.00 0.01 0.01 0.01 0.00
0.00 0.00 0.00 0.00 0.00 0.00 0.00 0.01 0.01 0.02 0.01 0.00 0.00 0.00 0.00 0.00 0.00 0.00 0.00 0.00 0.00 0.00 0.00 0.00 0.00 0.00 0.00 0.00 0.01 0.01 0.01 0.01 0.01 0.02 0.02 0.02 0.02 0.02 0.03 0.03 0.03 0.02 0.01
0.00 0.00 0.00 0.00 0.00 0.01 0.02 0.02 0.04 0.02 0.00 0.00 0.00 0.00 0.00 0.00 0.00 0.00 0.00 0.00 0.00 0.00 0.00 0.00 0.00 0.00 0.00 0.00 0.01 0.01 0.02 0.04 0.05 0.06 0.05 0.04 0.03 0.02 0.04 0.04 0.06 0.03 0.02
0.00 0.00 0.00 0.00 0.00 0.01 0.01 0.02 0.01 0.01 0.01 0.00 0.00 0.00 0.00 0.00 0.00 0.00 0.00 0.00 0.00 0.00 0.00 0.00 0.00 0.00 0.00 0.00 0.00 0.01 0.03 0.09 0.15 0.10 0.08 0.07 0.05 0.06 0.07 0.09 0.11 0.09 0.05
0.00 0.00 0.00 0.00 0.00 0.00 0.00 0.02 0.03 0.03 0.01 0.00 0.00 0.00 0.00 0.00 0.00 0.00 0.00 0.00 0.00 0.00 0.00 0.00 0.00 0.00 0.00 0.00 0.00 0.01 0.01 0.03 0.10 0.14 0.15 0.10 0.09 0.07 0.07 0.08 0.08 0.10 0.08
0.00 0.00 0.00 0.00 0.00 0.00 0.00 0.02 0.02 0.00 0.00 0.00 0.00 0.00 0.00 0.00 0.00 0.00 0.00 0.00 0.00 0.00 0.00 0.00 0.00 0.00 0.00 0.01 0.08 0.07 0.02 0.01 0.01 0.03 0.08 0.07 0.06 0.07 0.08 0.08 0.08 0.07 0.05
0.00 0.00 0.00 0.00 0.00 0.00 0.00 0.04 0.02 0.00 0.00 0.00 0.00 0.00 0.01 0.00 0.00 0.00 0.00 0.00 0.00 0.00 0.00 0.00 0.00 0.01 0.02 0.07 0.09 0.06 0.02 0.00 0.00 0.01 0.03 0.05 0.06 0.06 0.07 0.15 0.14 0.16 0.13
0.00 0.00 0.00 0.00 0.00 0.00 0.00 0.01 0.00 0.00 0.00 0.00 0.00 0.00 0.00 0.00 0.00 0.00 0.00 0.00 0.00 0.00 0.00 0.00 0.00 0.01 0.04 0.06 0.11 0.07 0.07 0.02 0.01 0.01 0.01 0.01 0.01 0.02 0.03 0.06 0.11 0.18 0.15
0.00 0.00 0.01 0.01 0.00 0.00 0.00 0.00 0.00 0.00 0.00 0.00 0.00 0.00 0.00 0.00 0.00 0.00 0.00 0.00 0.00 0.01 0.00 0.00 0.00 0.02 0.05 0.06 0.06 0.09 0.13 0.06 0.03 0.03 0.02 0.02 0.02 0.03 0.03 0.05 0.07 0.12 0.15
0.00 0.00 0.00 0.00 0.00 0.00 0.00 0.00 0.00 0.00 0.00 0.00 0.00 0.00 0.00 0.00 0.00 0.00 0.00 0.00 0.01 0.01 0.01 0.01 0.03 0.03 0.03 0.03 0.05 0.09 0.04 0.02 0.03 0.05 0.04 0.03 0.03 0.03 0.04 0.06 0.10 0.11 0.10
0.00 0.00 0.00 0.00 0.00 0.00 0.00 0.00 0.00 0.00 0.00 0.00 0.00 0.01 0.01 0.01 0.01 0.00 0.00 0.00 0.00 0.00 0.01 0.03 0.02 0.01 0.02 0.02 0.04 0.04 0.02 0.03 0.03 0.03 0.05 0.05 0.08 0.11 0.13 0.16 0.13 0.14 0.17
0.00 0.00 0.00 0.00 0.00 0.00 0.00 0.00 0.00 0.00 0.00 0.00 0.01 0.01 0.01 0.00 0.00 0.01 0.00 0.00 0.01 0.00 0.00 0.00 0.00 0.00 0.01 0.02 0.02 0.03 0.03 0.03 0.06 0.07 0.07 0.06 0.07 0.09 0.12 0.20 0.21 0.23 0.26
0.00 0.00 0.00 0.00 0.00 0.00 0.00 0.00 0.00 0.00 0.00 0.00 0.01 0.01 0.02 0.02 0.01 0.01 0.02 0.02 0.03 0.01 0.00 0.00 0.00 0.00 0.00 0.01 0.00 0.01 0.01 0.01 0.02 0.04 0.05 0.04 0.05 0.07 0.09 0.12 0.13 0.10 0.12
0.00 0.00 0.00 0.01 0.01 0.00 0.00 0.00 0.00 0.00 0.00 0.00 0.00 0.00 0.00 0.00 0.00 0.00 0.00 0.01 0.01 0.01 0.01 0.00 0.00 0.01 0.01 0.01 0.00 0.00 0.00 0.02 0.02 0.03 0.03 0.04 0.05 0.06 0.05 0.03 0.04 0.05 0.08
0.00 0.00 0.01 0.02 0.02 0.01 0.01 0.01 0.01 0.01 0.00 0.00 0.00 0.00 0.00 0.00 0.00 0.00 0.00 0.00 0.00 0.01 0.01 0.00 0.01 0.01 0.01 0.01 0.00 0.00 0.01 0.01 0.02 0.02 0.03 0.03 0.04 0.04 0.03 0.02 0.02 0.02 0.03
0.00 0.01 0.01 0.01 0.02 0.02 0.02 0.02 0.03 0.04 0.03 0.02 0.01 0.00 0.00 0.00 0.00 0.00 0.01 0.04 0.04 0.02 0.01 0.00 0.01 0.01 0.00 0.01 0.00 0.00 0.00 0.00 0.00 0.01 0.02 0.03 0.03 0.03 0.02 0.02 0.01 0.01 0.01
0.00 0.01 0.01 0.02 0.02 0.02 0.02 0.04 0.05 0.06 0.05 0.02 0.02 0.01 0.00 0.00 0.00 0.01 0.03 0.09 0.03 0.01 0.01 0.01 0.00 0.01 0.00 0.00 0.00 0.00 0.00 0.00 0.00 0.00 0.01 0.01 0.02 0.02 0.02 0.02 0.01 0.01 0.00
0.01 0.02 0.03 0.04 0.03 0.03 0.04 0.06 0.06 0.06 0.06 0.05 0.03 0.01 0.01 0.04 0.05 0.03 0.04 0.05 0.03 0.01 0.01 0.01 0.00 0.00 0.00 0.00 0.00 0.00 0.00 0.00 0.00 0.00 0.00 0.00 0.01 0.02 0.02 0.02 0.01 0.01 0.00
0.03 0.03 0.04 0.06 0.06 0.06 0.06 0.07 0.06 0.07 0.07 0.05 0.03 0.02 0.02 0.06 0.06 0.05 0.04 0.04 0.03 0.01 0.01 0.01 0.01 0.01 0.01 0.01 0.00 0.00 0.00 0.00 0.00 0.00 0.00 0.00 0.00 0.00 0.00 0.01 0.01 0.00 0.00
0.03 0.04 0.05 0.07 0.07 0.07 0.06 0.06 0.07 0.06 0.04 0.03 0.03 0.02 0.01 0.04 0.04 0.03 0.05 0.06 0.04 0.02 0.01 0.01 0.01 0.01 0.01 0.00 0.00 0.01 0.00 0.00 0.00 0.00 0.00 0.00 0.00 0.00 0.00 0.00 0.00 0.00 0.00
0.04 0.04 0.05 0.07 0.07 0.08 0.10 0.11 0.09 0.06 0.06 0.05 0.05 0.05 0.06 0.09 0.07 0.04 0.03 0.03 0.06 0.07 0.03 0.02 0.02 0.01 0.00 0.00 0.00 0.00 0.00 0.00 0.00 0.00 0.00 0.00 0.00 0.00 0.00 0.00 0.00 0.00 0.00
0.04 0.07 0.09 0.09 0.10 0.09 0.08 0.07 0.07 0.07 0.09 0.09 0.08 0.09 0.10 0.10 0.11 0.10 0.07 0.06 0.06 0.06 0.06 0.06 0.04 0.02 0.01 0.01 0.01 0.00 0.00 0.00 0.00 0.00 0.00 0.00 0.00 0.00 0.00 0.00 0.00 0.00 0.00
0.07 0.08 0.10 0.11 0.14 0.14 0.13 0.16 0.21 0.18 0.13 0.11 0.11 0.10 0.09 0.09 0.09 0.08 0.08 0.09 0.09 0.09 0.07 0.07 0.06 0.05 0.05 0.05 0.04 0.02 0.00 0.00 0.00 0.00 0.00 0.00 0.00 0.00 0.00 0.00 0.00 0.00 0.00
0.07 0.11 0.14 0.15 0.18 0.22 0.26 0.22 0.18 0.15 0.14 0.11 0.10 0.11 0.10 0.10 0.11 0.11 0.11 0.12 0.14 0.11 0.08 0.08 0.07 0.05 0.05 0.05 0.07 0.08 0.03 0.02 0.03 0.01 0.00 0.00 0.00 0.00 0.00 0.00 0.00 0.00 0.00

GFSGL_prec_precacc24_042.txt.gz
Total_Precipitation_Accumulation
0.00 0.00 0.01 0.01 0.00 0.00 0.00 0.00 0.00 0.00 0.00 0.00 0.00 0.00 0.00 0.00 0.00 0.02 0.04 0.03 0.02 0.01 0.00 0.01 0.01 0.01 0.01 0.01 0.00 0.00 0.00 0.00 0.00 0.00 0.00 0.00 0.00 0.00 0.00 0.00 0.00 0.00 0.00
0.00 0.00 0.00 0.00 0.00 0.00 0.00 0.00 0.00 0.00 0.00 0.00 0.00 0.00 0.00 0.01 0.02 0.03 0.01 0.00 0.00 0.00 0.00 0.00 0.00 0.00 0.00 0.00 0.00 0.00 0.00 0.00 0.00 0.00 0.00 0.00 0.00 0.00 0.00 0.00 0.00 0.00 0.00
0.00 0.00 0.00 0.00 0.00 0.00 0.00 0.00 0.00 0.00 0.00 0.00 0.00 0.01 0.01 0.01 0.01 0.00 0.00 0.00 0.00 0.00 0.00 0.00 0.00 0.00 0.00 0.00 0.00 0.00 0.00 0.01 0.01 0.03 0.01 0.00 0.00 0.00 0.00 0.01 0.01 0.01 0.00
0.00 0.00 0.00 0.00 0.00 0.00 0.00 0.00 0.00 0.00 0.00 0.00 0.00 0.00 0.00 0.00 0.00 0.00 0.00 0.00 0.00 0.00 0.00 0.00 0.00 0.00 0.00 0.00 0.01 0.01 0.01 0.01 0.01 0.02 0.02 0.02 0.02 0.02 0.03 0.03 0.03 0.02 0.01
0.01 0.01 0.01 0.00 0.00 0.00 0.00 0.00 0.00 0.00 0.00 0.00 0.00 0.00 0.00 0.00 0.00 0.00 0.00 0.00 0.00 0.00 0.00 0.00 0.00 0.00 0.00 0.00 0.00 0.01 0.01 0.03 0.05 0.06 0.05 0.04 0.03 0.02 0.04 0.04 0.06 0.03 0.02
0.00 0.00 0.00 0.00 0.00 0.00 0.00 0.00 0.00 0.00 0.01 0.00 0.00 0.00 0.00 0.00 0.00 0.00 0.00 0.00 0.00 0.00 0.00 0.00 0.00 0.00 0.00 0.00 0.00 0.01 0.02 0.07 0.13 0.09 0.08 0.07 0.05 0.06 0.08 0.09 0.11 0.09 0.05
0.00 0.00 0.00 0.00 0.00 0.00 0.00 0.00 0.00 0.00 0.00 0.00 0.00 0.00 0.00 0.00 0.00 0.00 0.00 0.00 0.00 0.00 0.00 0.00 0.00 0.00 0.00 0.00 0.00 0.01 0.01 0.03 0.09 0.13 0.14 0.10 0.09 0.07 0.07 0.08 0.08 0.10 0.08
0.00 0.00 0.00 0.00 0.00 0.00 0.00 0.01 0.01 0.00 0.00 0.00 0.00 0.00 0.00 0.00 0.00 0.00 0.00 0.00 0.00 0.00 0.00 0.00 0.00 0.00 0.00 0.01 0.07 0.06 0.02 0.01 0.01 0.03 0.08 0.07 0.06 0.07 0.08 0.09 0.09 0.08 0.05
0.00 0.00 0.00 0.00 0.01 0.03 0.05 0.02 0.00 0.00 0.00 0.00 0.00 0.00 0.01 0.00 0.00 0.00 0.00 0.00 0.00 0.00 0.00 0.00 0.00 0.00 0.01 0.05 0.07 0.04 0.01 0.00 0.00 0.01 0.02 0.04 0.05 0.06 0.07 0.15 0.13 0.15 0.12
0.00 0.00 0.01 0.03 0.05 0.03 0.01 0.00 0.00 0.00 0.00 0.00 0.00 0.00 0.00 0.00 0.00 0.00 0.00 0.00 0.00 0.00 0.00 0.00 0.00 0.01 0.03 0.05 0.07 0.05 0.06 0.02 0.01 0.01 0.01 0.01 0.01 0.02 0.03 0.06 0.11 0.19 0.16
0.01 0.04 0.06 0.03 0.01 0.00 0.00 0.00 0.00 0.00 0.00 0.00 0.00 0.00 0.00 0.00 0.00 0.00 0.00 0.00 0.00 0.00 0.00 0.00 0.00 0.01 0.02 0.03 0.04 0.07 0.11 0.04 0.02 0.03 0.02 0.02 0.02 0.03 0.03 0.05 0.07 0.13 0.16
0.03 0.02 0.00 0.00 0.00 0.00 0.00 0.00 0.00 0.00 0.00 0.00 0.00 0.00 0.00 0.00 0.00 0.00 0.00 0.00 0.00 0.00 0.00 0.00 0.01 0.01 0.01 0.02 0.02 0.05 0.02 0.01 0.02 0.03 0.03 0.03 0.03 0.03 0.04 0.05 0.08 0.09 0.09
0.00 0.00 0.00 0.00 0.00 0.00 0.00 0.00 0.00 0.00 0.00 0.00 0.00 0.01 0.01 0.01 0.01 0.00 0.00 0.00 0.00 0.00 0.00 0.01 0.00 0.00 0.00 0.00 0.01 0.02 0.01 0.01 0.02 0.02 0.03 0.03 0.06 0.08 0.11 0.14 0.11 0.12 0.14
0.00 0.00 0.00 0.00 0.00 0.00 0.00 0.00 0.00 0.00 0.00 0.00 0.01 0.01 0.01 0.00 0.00 0.01 0.01 0.01 0.02 0.02 0.00 0.00 0.00 0.00 0.00 0.00 0.00 0.01 0.01 0.02 0.04 0.05 0.05 0.05 0.05 0.07 0.10 0.17 0.20 0.20 0.23
0.00 0.00 0.00 0.00 0.00 0.00 0.00 0.00 0.00 0.00 0.00 0.00 0.01 0.01 0.02 0.02 0.01 0.01 0.03 0.03 0.03 0.03 0.02 0.02 0.00 0.00 0.00 0.00 0.00 0.00 0.00 0.01 0.01 0.02 0.03 0.03 0.04 0.05 0.06 0.10 0.12 0.09 0.11
0.00 0.00 0.00 0.01 0.01 0.00 0.00 0.00 0.00 0.00 0.00 0.00 0.00 0.00 0.00 0.00 0.00 0.00 0.00 0.01 0.01 0.02 0.05 0.02 0.01 0.01 0.01 0.01 0.00 0.00 0.00 0.00 0.01 0.02 0.02 0.03 0.04 0.04 0.04 0.03 0.04 0.05 0.07
0.00 0.00 0.01 0.02 0.02 0.01 0.01 0.01 0.01 0.01 0.00 0.00 0.00 0.01 0.01 0.00 0.00 0.00 0.00 0.01 0.02 0.07 0.06 0.00 0.01 0.01 0.01 0.00 0.00 0.00 0.00 0.00 0.00 0.01 0.02 0.02 0.03 0.03 0.03 0.02 0.02 0.02 0.02
0.00 0.01 0.01 0.01 0.02 0.02 0.02 0.03 0.04 0.05 0.05 0.04 0.02 0.02 0.03 0.00 0.00 0.01 0.02 0.07 0.09 0.08 0.04 0.00 0.01 0.01 0.00 0.00 0.00 0.00 0.00 0.00 0.00 0.00 0.01 0.01 0.02 0.02 0.02 0.02 0.01 0.01 0.01
0.00 0.01 0.01 0.02 0.02 0.02 0.02 0.04 0.06 0.07 0.08 0.05 0.03 0.02 0.00 0.00 0.00 0.01 0.04 0.14 0.07 0.03 0.01 0.01 0.00 0.00 0.00 0.00 0.00 0.00 0.00 0.00 0.00 0.00 0.00 0.00 0.01 0.01 0.01 0.01 0.01 0.01 0.00
0.01 0.02 0.03 0.04 0.03 0.03 0.04 0.06 0.07 0.07 0.07 0.06 0.04 0.02 0.01 0.04 0.05 0.03 0.04 0.07 0.07 0.03 0.02 0.02 0.01 0.01 0.00 0.00 0.00 0.01 0.01 0.00 0.00 0.00 0.00 0.00 0.00 0.01 0.01 0.01 0.01 0.00 0.00
0.03 0.03 0.04 0.06 0.06 0.06 0.07 0.07 0.07 0.09 0.09 0.07 0.05 0.03 0.02 0.06 0.07 0.06 0.04 0.04 0.04 0.03 0.03 0.02 0.02 0.01 0.01 0.01 0.00 0.00 0.00 0.00 0.00 0.00 0.00 0.00 0.00 0.00 0.00 0.00 0.00 0.00 0.00
0.03 0.04 0.05 0.07 0.07 0.07 0.06 0.07 0.10 0.12 0.11 0.09 0.04 0.02 0.01 0.04 0.04 0.05 0.06 0.07 0.04 0.03 0.03 0.04 0.03 0.01 0.01 0.00 0.00 0.01 0.00 0.00 0.00 0.00 0.00 0.00 0.00 0.00 0.00 0.00 0.00 0.00 0.00
0.05 0.05 0.05 0.07 0.08 0.09 0.11 0.11 0.11 0.09 0.08 0.07 0.09 0.09 0.07 0.10 0.10 0.11 0.11 0.07 0.08 0.09 0.06 0.06 0.05 0.03 0.01 0.00 0.01 0.00 0.00 0.00 0.00 0.00 0.00 0.00 0.00 0.00 0.00 0.00 0.00 0.00 0.00
0.05 0.07 0.09 0.09 0.10 0.10 0.10 0.09 0.09 0.10 0.15 0.18 0.15 0.12 0.11 0.11 0.14 0.13 0.11 0.09 0.09 0.08 0.09 0.13 0.10 0.06 0.02 0.02 0.02 0.01 0.01 0.00 0.00 0.00 0.00 0.00 0.00 0.00 0.00 0.00 0.00 0.00 0.00
0.07 0.08 0.10 0.11 0.14 0.14 0.14 0.17 0.22 0.21 0.19 0.17 0.17 0.15 0.12 0.10 0.09 0.08 0.09 0.11 0.11 0.11 0.10 0.10 0.11 0.10 0.08 0.08 0.06 0.03 0.01 0.01 0.02 0.01 0.01 0.00 0.00 0.00 0.00 0.00 0.00 0.00 0.00
0.07 0.11 0.14 0.15 0.18 0.22 0.26 0.23 0.19 0.16 0.16 0.14 0.14 0.14 0.13 0.12 0.11 0.11 0.11 0.13 0.15 0.13 0.11 0.12 0.11 0.09 0.07 0.06 0.08 0.09 0.05 0.03 0.06 0.03 0.02 0.01 0.01 0.00 0.00 0.00 0.00 0.00 0.00

GFSGL_prec_precacc24_045.txt.gz
Total_Precipitation_Accumulation
0.01 0.03 0.03 0.03 0.02 0.02 0.02 0.01 0.00 0.00 0.00 0.01 0.02 0.00 0.00 0.00 0.00 0.02 0.04 0.03 0.02 0.01 0.00 0.01 0.01 0.01 0.01 0.01 0.00 0.00 0.00 0.00 0.00 0.00 0.00 0.00 0.00 0.00 0.00 0.00 0.00 0.00 0.00
0.02 0.03 0.03 0.01 0.00 0.00 0.00 0.00 0.00 0.01 0.00 0.00 0.00 0.00 0.00 0.01 0.02 0.03 0.01 0.00 0.00 0.00 0.00 0.00 0.00 0.00 0.00 0.00 0.00 0.00 0.00 0.00 0.00 0.00 0.00 0.00 0.00 0.00 0.00 0.00 0.00 0.00 0.00
0.03 0.03 0.03 0.02 0.01 0.01 0.01 0.01 0.00 0.00 0.00 0.00 0.00 0.01 0.01 0.01 0.01 0.00 0.00 0.00 0.00 0.00 0.00 0.00 0.00 0.00 0.00 0.00 0.00 0.00 0.00 0.01 0.01 0.03 0.01 0.00 0.00 0.00 0.00 0.01 0.01 0.01 0.00
0.03 0.03 0.02 0.01 0.01 0.01 0.00 0.00 0.00 0.00 0.00 0.00 0.00 0.00 0.00 0.00 0.00 0.00 0.00 0.00 0.00 0.00 0.00 0.00 0.00 0.00 0.00 0.00 0.01 0.00 0.01 0.01 0.01 0.02 0.02 0.02 0.02 0.02 0.03 0.03 0.03 0.02 0.01
0.05 0.04 0.02 0.01 0.00 0.00 0.00 0.00 0.00 0.00 0.00 0.00 0.00 0.00 0.00 0.00 0.00 0.00 0.00 0.00 0.00 0.00 0.00 0.00 0.00 0.00 0.00 0.00 0.00 0.01 0.01 0.02 0.03 0.04 0.05 0.04 0.03 0.02 0.04 0.04 0.06 0.03 0.02
0.03 0.02 0.01 0.01 0.00 0.00 0.00 0.00 0.00 0.00 0.00 0.02 0.01 0.00 0.00 0.00 0.00 0.00 0.00 0.00 0.00 0.00 0.00 0.00 0.00 0.00 0.00 0.00 0.00 0.00 0.01 0.05 0.11 0.08 0.07 0.05 0.04 0.06 0.08 0.09 0.11 0.09 0.06
0.01 0.01 0.00 0.00 0.00 0.00 0.00 0.00 0.02 0.06 0.05 0.01 0.00 0.00 0.00 0.00 0.00 0.00 0.00 0.00 0.00 0.00 0.00 0.00 0.00 0.00 0.00 0.00 0.00 0.01 0.01 0.03 0.08 0.12 0.13 0.09 0.09 0.07 0.07 0.08 0.08 0.11 0.09
0.00 0.00 0.00 0.00 0.00 0.00 0.03 0.09 0.10 0.03 0.00 0.00 0.00 0.00 0.00 0.00 0.00 0.00 0.00 0.00 0.00 0.00 0.00 0.00 0.00 0.00 0.00 0.01 0.05 0.04 0.01 0.01 0.01 0.03 0.07 0.06 0.06 0.07 0.08 0.10 0.11 0.10 0.05
0.00 0.00 0.00 0.00 0.02 0.09 0.15 0.08 0.01 0.00 0.00 0.00 0.00 0.00 0.01 0.00 0.00 0.00 0.00 0.00 0.00 0.00 0.00 0.00 0.00 0.00 0.01 0.04 0.04 0.03 0.01 0.00 0.00 0.01 0.02 0.02 0.02 0.04 0.06 0.12 0.12 0.15 0.11
0.00 0.00 0.01 0.09 0.16 0.11 0.03 0.00 0.00 0.00 0.00 0.00 0.00 0.00 0.00 0.00 0.00 0.00 0.00 0.00 0.00 0.00 0.00 0.00 0.00 0.00 0.02 0.03 0.05 0.03 0.04 0.02 0.01 0.01 0.01 0.01 0.01 0.02 0.03 0.06 0.11 0.19 0.16
0.05 0.11 0.16 0.10 0.02 0.00 0.00 0.00 0.00 0.00 0.00 0.00 0.00 0.00 0.00 0.00 0.00 0.00 0.00 0.00 0.00 0.00 0.00 0.00 0.00 0.01 0.01 0.01 0.02 0.04 0.07 0.02 0.01 0.02 0.02 0.01 0.02 0.03 0.03 0.05 0.07 0.13 0.16
0.04 0.02 0.00 0.00 0.00 0.00 0.00 0.00 0.00 0.00 0.00 0.00 0.00 0.00 0.00 0.00 0.00 0.00 0.00 0.00 0.00 0.00 0.00 0.00 0.00 0.00 0.00 0.00 0.01 0.02 0.01 0.00 0.01 0.02 0.02 0.02 0.02 0.02 0.04 0.05 0.08 0.09 0.09
0.00 0.00 0.00 0.00 0.00 0.00 0.00 0.00 0.00 0.00 0.00 0.00 0.00 0.01 0.01 0.01 0.01 0.00 0.00 0.00 0.00 0.00 0.00 0.00 0.00 0.00 0.00 0.00 0.00 0.00 0.00 0.00 0.01 0.01 0.02 0.02 0.04 0.05 0.07 0.12 0.10 0.10 0.11
0.00 0.00 0.00 0.00 0.00 0.00 0.00 0.00 0.00 0.00 0.00 0.00 0.01 0.01 0.01 0.00 0.00 0.01 0.01 0.01 0.01 0.02 0.02 0.02 0.03 0.03 0.01 0.00 0.00 0.00 0.00 0.00 0.02 0.03 0.03 0.03 0.03 0.04 0.07 0.13 0.16 0.16 0.20
0.00 0.00 0.00 0.00 0.00 0.00 0.00 0.00 0.00 0.00 0.00 0.00 0.01 0.01 0.02 0.02 0.01 0.01 0.03 0.03 0.03 0.03 0.03 0.04 0.04 0.04 0.02 0.01 0.00 0.00 0.00 0.00 0.00 0.01 0.01 0.02 0.02 0.02 0.03 0.07 0.09 0.07 0.11
0.00 0.00 0.00 0.01 0.01 0.00 0.00 0.00 0.00 0.00 0.00 0.00 0.00 0.00 0.01 0.01 0.00 0.00 0.01 0.01 0.01 0.03 0.10 0.05 0.02 0.01 0.01 0.01 0.01 0.00 0.00 0.00 0.00 0.01 0.01 0.01 0.02 0.02 0.02 0.02 0.03 0.04 0.06
0.00 0.00 0.00 0.01 0.02 0.01 0.01 0.01 0.01 0.01 0.00 0.00 0.00 0.01 0.02 0.04 0.06 0.07 0.04 0.02 0.02 0.08 0.12 0.02 0.01 0.02 0.02 0.01 0.01 0.00 0.00 0.00 0.00 0.00 0.01 0.01 0.01 0.01 0.01 0.02 0.02 0.01 0.02
0.00 0.00 0.01 0.01 0.02 0.02 0.02 0.03 0.04 0.05 0.05 0.04 0.02 0.03 0.04 0.04 0.03 0.03 0.04 0.10 0.12 0.08 0.05 0.02 0.01 0.02 0.02 0.02 0.01 0.00 0.00 0.00 0.00 0.00 0.00 0.01 0.01 0.01 0.01 0.01 0.01 0.01 0.01
0.00 0.01 0.01 0.02 0.02 0.02 0.02 0.04 0.06 0.08 0.08 0.06 0.03 0.02 0.00 0.00 0.01 0.02 0.04 0.14 0.08 0.04 0.02 0.02 0.01 0.02 0.03 0.02 0.01 0.00 0.00 0.00 0.00 0.00 0.00 0.00 0.00 0.01 0.01 0.01 0.01 0.01 0.00
0.00 0.02 0.03 0.04 0.03 0.03 0.05 0.07 0.07 0.08 0.08 0.07 0.05 0.02 0.02 0.06 0.07 0.03 0.04 0.07 0.07 0.04 0.02 0.03 0.02 0.02 0.03 0.02 0.02 0.01 0.01 0.00 0.00 0.00 0.00 0.00 0.00 0.00 0.00 0.00 0.00 0.00 0.00
0.02 0.02 0.03 0.06 0.06 0.07 0.07 0.07 0.08 0.10 0.09 0.08 0.07 0.06 0.08 0.17 0.13 0.07 0.04 0.04 0.04 0.04 0.05 0.05 0.03 0.04 0.03 0.03 0.02 0.00 0.00 0.00 0.00 0.00 0.00 0.00 0.00 0.00 0.00 0.00 0.00 0.00 0.00
0.02 0.03 0.04 0.07 0.08 0.07 0.07 0.07 0.11 0.13 0.12 0.11 0.06 0.04 0.07 0.12 0.08 0.06 0.07 0.10 0.12 0.11 0.10 0.08 0.06 0.04 0.04 0.03 0.02 0.02 0.01 0.00 0.00 0.00 0.00 0.00 0.00 0.00 0.00 0.00 0.00 0.00 0.00
0.03 0.03 0.05 0.07 0.08 0.09 0.11 0.11 0.12 0.09 0.09 0.09 0.11 0.15 0.13 0.14 0.14 0.14 0.13 0.12 0.13 0.13 0.08 0.08 0.09 0.07 0.05 0.04 0.04 0.03 0.01 0.00 0.00 0.00 0.00 0.00 0.00 0.00 0.00 0.00 0.00 0.00 0.00
0.03 0.06 0.08 0.09 0.10 0.10 0.10 0.09 0.09 0.10 0.15 0.19 0.17 0.15 0.15 0.15 0.17 0.16 0.13 0.10 0.10 0.08 0.10 0.14 0.12 0.08 0.08 0.07 0.07 0.05 0.02 0.01 0.01 0.00 0.00 0.00 0.00 0.00 0.00 0.00 0.00 0.00 0.00
0.06 0.07 0.09 0.11 0.14 0.14 0.14 0.17 0.22 0.21 0.18 0.18 0.17 0.16 0.14 0.13 0.12 0.11 0.11 0.12 0.12 0.11 0.10 0.10 0.13 0.14 0.13 0.15 0.12 0.07 0.04 0.05 0.06 0.04 0.05 0.02 0.01 0.00 0.00 0.00 0.00 0.00 0.00
0.06 0.10 0.13 0.15 0.18 0.22 0.26 0.23 0.19 0.16 0.16 0.14 0.14 0.14 0.14 0.13 0.13 0.13 0.13 0.14 0.16 0.14 0.12 0.13 0.12 0.11 0.10 0.10 0.11 0.11 0.07 0.06 0.10 0.08 0.07 0.06 0.03 0.02 0.00 0.00 0.00 0.00 0.00

GFSGL_prec_precacc24_048.txt.gz
Total_Precipitation_Accumulation
0.03 0.09 0.08 0.10 0.10 0.09 0.09 0.06 0.03 0.01 0.01 0.02 0.02 0.01 0.00 0.00 0.00 0.02 0.04 0.03 0.02 0.01 0.00 0.01 0.01 0.01 0.01 0.01 0.00 0.00 0.00 0.00 0.00 0.00 0.00 0.00 0.00 0.00 0.00 0.00 0.00 0.00 0.00
0.09 0.11 0.14 0.12 0.09 0.06 0.04 0.03 0.02 0.01 0.01 0.02 0.02 0.00 0.00 0.01 0.02 0.03 0.01 0.00 0.00 0.00 0.00 0.00 0.00 0.00 0.00 0.00 0.00 0.00 0.00 0.00 0.00 0.00 0.00 0.00 0.00 0.00 0.00 0.00 0.00 0.00 0.00
0.13 0.12 0.11 0.08 0.05 0.03 0.02 0.02 0.01 0.00 0.00 0.00 0.00 0.01 0.01 0.01 0.01 0.00 0.00 0.00 0.00 0.00 0.00 0.00 0.00 0.00 0.00 0.00 0.00 0.00 0.00 0.00 0.01 0.01 0.01 0.00 0.00 0.00 0.00 0.01 0.01 0.01 0.00
0.12 0.11 0.07 0.06 0.03 0.02 0.01 0.00 0.00 0.00 0.01 0.01 0.01 0.00 0.01 0.01 0.00 0.00 0.00 0.00 0.00 0.00 0.00 0.00 0.00 0.00 0.00 0.00 0.00 0.00 0.01 0.01 0.01 0.01 0.01 0.01 0.02 0.02 0.03 0.03 0.03 0.02 0.01
0.09 0.08 0.06 0.03 0.01 0.00 0.00 0.00 0.00 0.01 0.00 0.00 0.01 0.04 0.02 0.00 0.00 0.00 0.00 0.00 0.00 0.00 0.00 0.00 0.00 0.00 0.00 0.00 0.00 0.00 0.01 0.01 0.02 0.03 0.03 0.02 0.02 0.02 0.03 0.04 0.06 0.03 0.02
0.05 0.04 0.02 0.01 0.00 0.00 0.00 0.00 0.00 0.00 0.01 0.06 0.07 0.03 0.01 0.00 0.00 0.00 0.00 0.00 0.00 0.00 0.00 0.00 0.00 0.00 0.00 0.00 0.00 0.00 0.00 0.04 0.09 0.07 0.06 0.05 0.04 0.05 0.07 0.08 0.10 0.09 0.06
0.02 0.01 0.00 0.00 0.00 0.00 0.00 0.00 0.02 0.08 0.12 0.07 0.02 0.00 0.00 0.00 0.00 0.00 0.00 0.00 0.00 0.00 0.00 0.00 0.00 0.00 0.00 0.00 0.00 0.01 0.01 0.02 0.06 0.07 0.08 0.08 0.08 0.07 0.07 0.07 0.08 0.11 0.10
0.00 0.00 0.00 0.00 0.00 0.00 0.03 0.10 0.14 0.12 0.06 0.01 0.00 0.00 0.00 0.00 0.00 0.00 0.00 0.00 0.00 0.00 0.00 0.00 0.00 0.00 0.00 0.01 0.03 0.02 0.01 0.00 0.01 0.03 0.06 0.05 0.04 0.05 0.07 0.10 0.12 0.10 0.05
0.00 0.00 0.00 0.00 0.02 0.09 0.18 0.17 0.10 0.03 0.00 0.00 0.00 0.00 0.01 0.00 0.00 0.00 0.00 0.00 0.00 0.00 0.00 0.00 0.00 0.00 0.00 0.02 0.02 0.02 0.00 0.00 0.00 0.00 0.02 0.02 0.01 0.01 0.03 0.09 0.10 0.13 0.11
0.00 0.00 0.01 0.11 0.23 0.20 0.10 0.02 0.00 0.00 0.00 0.00 0.00 0.00 0.00 0.00 0.00 0.00 0.00 0.00 0.00 0.00 0.00 0.00 0.00 0.00 0.01 0.01 0.01 0.01 0.02 0.01 0.00 0.00 0.01 0.01 0.01 0.02 0.03 0.06 0.11 0.17 0.15
0.06 0.12 0.17 0.13 0.03 0.00 0.00 0.00 0.00 0.00 0.00 0.00 0.00 0.00 0.00 0.00 0.00 0.00 0.00 0.00 0.00 0.00 0.00 0.00 0.00 0.00 0.00 0.00 0.00 0.01 0.03 0.01 0.01 0.01 0.01 0.01 0.01 0.02 0.03 0.05 0.07 0.13 0.16
0.04 0.02 0.00 0.00 0.00 0.00 0.00 0.00 0.00 0.00 0.00 0.00 0.00 0.00 0.00 0.00 0.00 0.00 0.00 0.00 0.00 0.00 0.00 0.00 0.00 0.00 0.00 0.01 0.00 0.00 0.00 0.00 0.01 0.01 0.02 0.02 0.01 0.01 0.02 0.04 0.08 0.09 0.09
0.00 0.00 0.00 0.00 0.00 0.00 0.00 0.00 0.00 0.00 0.00 0.00 0.00 0.01 0.01 0.01 0.01 0.00 0.00 0.00 0.00 0.00 0.00 0.00 0.00 0.00 0.01 0.02 0.01 0.00 0.00 0.00 0.01 0.01 0.02 0.01 0.02 0.03 0.04 0.09 0.09 0.09 0.09
0.00 0.00 0.00 0.00 0.00 0.00 0.00 0.00 0.00 0.00 0.00 0.00 0.01 0.01 0.01 0.00 0.00 0.01 0.01 0.01 0.01 0.02 0.02 0.02 0.03 0.05 0.05 0.04 0.03 0.03 0.01 0.00 0.01 0.01 0.02 0.02 0.02 0.02 0.03 0.08 0.11 0.11 0.16
0.00 0.00 0.00 0.00 0.00 0.00 0.00 0.00 0.00 0.00 0.00 0.00 0.01 0.01 0.02 0.02 0.01 0.01 0.03 0.04 0.04 0.04 0.04 0.06 0.05 0.05 0.04 0.03 0.03 0.03 0.03 0.01 0.00 0.00 0.01 0.01 0.01 0.01 0.02 0.03 0.05 0.05 0.09
0.00 0.00 0.00 0.00 0.00 0.00 0.00 0.00 0.00 0.00 0.00 0.00 0.00 0.00 0.01 0.01 0.00 0.01 0.02 0.04 0.06 0.08 0.17 0.08 0.03 0.03 0.04 0.03 0.03 0.02 0.02 0.01 0.00 0.00 0.00 0.00 0.01 0.01 0.01 0.01 0.02 0.03 0.04
0.00 0.00 0.00 0.00 0.01 0.01 0.01 0.01 0.01 0.01 0.00 0.00 0.00 0.01 0.02 0.04 0.06 0.08 0.08 0.08 0.09 0.17 0.23 0.06 0.02 0.02 0.02 0.03 0.04 0.04 0.03 0.00 0.00 0.00 0.00 0.00 0.01 0.01 0.01 0.01 0.01 0.01 0.01
0.00 0.00 0.00 0.00 0.01 0.01 0.02 0.03 0.04 0.05 0.05 0.04 0.02 0.03 0.04 0.04 0.03 0.04 0.06 0.14 0.16 0.12 0.10 0.05 0.03 0.02 0.02 0.03 0.03 0.03 0.02 0.01 0.00 0.00 0.00 0.00 0.00 0.01 0.01 0.01 0.01 0.01 0.00
0.00 0.00 0.01 0.02 0.02 0.02 0.02 0.04 0.06 0.08 0.08 0.06 0.03 0.02 0.00 0.00 0.01 0.02 0.05 0.19 0.13 0.05 0.02 0.02 0.01 0.03 0.04 0.04 0.05 0.05 0.03 0.02 0.00 0.00 0.00 0.00 0.00 0.00 0.00 0.00 0.00 0.00 0.00
0.00 0.00 0.02 0.03 0.03 0.03 0.05 0.07 0.07 0.08 0.08 0.07 0.05 0.03 0.03 0.07 0.09 0.07 0.10 0.13 0.10 0.05 0.03 0.03 0.03 0.03 0.05 0.05 0.04 0.04 0.04 0.01 0.01 0.00 0.00 0.00 0.00 0.00 0.00 0.00 0.00 0.00 0.00
0.01 0.01 0.02 0.04 0.05 0.06 0.07 0.07 0.08 0.10 0.09 0.08 0.07 0.06 0.09 0.18 0.17 0.12 0.08 0.07 0.07 0.07 0.08 0.09 0.10 0.13 0.10 0.05 0.05 0.05 0.02 0.01 0.01 0.00 0.00 0.00 0.00 0.00 0.00 0.00 0.00 0.00 0.00
0.01 0.02 0.03 0.06 0.06 0.07 0.07 0.07 0.11 0.13 0.12 0.10 0.06 0.04 0.07 0.12 0.10 0.09 0.10 0.13 0.15 0.17 0.20 0.21 0.14 0.08 0.07 0.08 0.07 0.07 0.03 0.02 0.01 0.00 0.00 0.00 0.00 0.00 0.00 0.00 0.00 0.00 0.00
0.02 0.03 0.03 0.05 0.06 0.08 0.11 0.11 0.12 0.09 0.09 0.09 0.11 0.15 0.13 0.14 0.15 0.16 0.16 0.14 0.16 0.15 0.10 0.10 0.11 0.09 0.07 0.09 0.11 0.09 0.05 0.02 0.01 0.01 0.00 0.00 0.00 0.00 0.01 0.00 0.00 0.00 0.00
0.03 0.05 0.06 0.08 0.08 0.09 0.10 0.09 0.09 0.11 0.15 0.19 0.17 0.15 0.15 0.15 0.18 0.17 0.14 0.12 0.12 0.10 0.12 0.16 0.13 0.09 0.09 0.10 0.12 0.12 0.08 0.04 0.07 0.04 0.01 0.00 0.00 0.00 0.00 0.00 0.00 0.00 0.00
0.05 0.06 0.08 0.10 0.13 0.13 0.13 0.17 0.22 0.21 0.19 0.18 0.17 0.16 0.14 0.13 0.12 0.11 0.12 0.13 0.13 0.13 0.12 0.11 0.14 0.15 0.14 0.16 0.16 0.13 0.11 0.11 0.13 0.10 0.12 0.05 0.01 0.01 0.00 0.00 0.00 0.00 0.00
0.06 0.09 0.12 0.13 0.16 0.21 0.25 0.22 0.18 0.15 0.15 0.13 0.14 0.14 0.14 0.14 0.13 0.13 0.13 0.15 0.16 0.15 0.13 0.14 0.13 0.11 0.11 0.12 0.15 0.17 0.14 0.13 0.17 0.13 0.13 0.11 0.07 0.04 0.01 0.00 0.00 0.00 0.00

GFSGL_prec_precacc24_051.txt.gz
Total_Precipitation_Accumulation
0.06 0.15 0.15 0.16 0.19 0.20 0.20 0.15 0.09 0.05 0.03 0.03 0.03 0.03 0.05 0.06 0.04 0.02 0.04 0.04 0.02 0.01 0.00 0.01 0.01 0.01 0.01 0.01 0.00 0.00 0.00 0.00 0.00 0.00 0.00 0.00 0.00 0.00 0.00 0.00 0.00 0.00 0.00
0.16 0.20 0.24 0.25 0.22 0.17 0.12 0.08 0.05 0.03 0.02 0.03 0.04 0.03 0.01 0.01 0.02 0.04 0.03 0.00 0.00 0.00 0.00 0.00 0.00 0.00 0.00 0.00 0.00 0.00 0.00 0.00 0.00 0.00 0.00 0.00 0.00 0.00 0.00 0.00 0.00 0.00 0.00
0.15 0.19 0.23 0.17 0.14 0.11 0.07 0.03 0.01 0.00 0.00 0.00 0.01 0.02 0.03 0.03 0.03 0.01 0.00 0.00 0.00 0.00 0.00 0.00 0.00 0.00 0.00 0.00 0.00 0.00 0.00 0.00 0.00 0.01 0.00 0.00 0.00 0.00 0.00 0.01 0.01 0.01 0.00
0.15 0.15 0.14 0.14 0.10 0.05 0.02 0.00 0.00 0.00 0.01 0.01 0.02 0.02 0.03 0.02 0.00 0.00 0.00 0.00 0.00 0.00 0.00 0.00 0.00 0.00 0.00 0.00 0.00 0.00 0.00 0.00 0.00 0.01 0.01 0.00 0.00 0.01 0.02 0.02 0.03 0.02 0.01
0.11 0.09 0.08 0.05 0.02 0.01 0.00 0.00 0.00 0.01 0.01 0.00 0.02 0.05 0.03 0.01 0.00 0.00 0.00 0.00 0.00 0.00 0.00 0.00 0.00 0.00 0.00 0.00 0.00 0.00 0.00 0.01 0.01 0.01 0.02 0.02 0.02 0.02 0.03 0.03 0.03 0.02 0.01
0.05 0.04 0.03 0.01 0.00 0.00 0.00 0.00 0.00 0.00 0.02 0.07 0.09 0.05 0.03 0.01 0.00 0.00 0.00 0.00 0.00 0.00 0.00 0.00 0.00 0.00 0.00 0.00 0.00 0.00 0.00 0.02 0.05 0.04 0.04 0.03 0.02 0.04 0.06 0.07 0.07 0.06 0.05
0.02 0.01 0.00 0.00 0.00 0.00 0.00 0.00 0.03 0.10 0.15 0.13 0.12 0.08 0.03 0.01 0.00 0.00 0.00 0.00 0.00 0.00 0.00 0.00 0.00 0.00 0.00 0.00 0.00 0.00 0.01 0.01 0.02 0.03 0.05 0.06 0.07 0.06 0.05 0.05 0.06 0.08 0.08
0.00 0.00 0.00 0.00 0.00 0.00 0.04 0.11 0.17 0.17 0.16 0.10 0.03 0.00 0.00 0.00 0.00 0.00 0.00 0.00 0.00 0.00 0.00 0.00 0.00 0.00 0.00 0.00 0.01 0.01 0.00 0.00 0.00 0.01 0.03 0.03 0.03 0.04 0.05 0.06 0.09 0.09 0.04
0.00 0.00 0.00 0.00 0.02 0.10 0.20 0.21 0.15 0.07 0.01 0.00 0.00 0.00 0.01 0.00 0.00 0.00 0.00 0.00 0.00 0.00 0.00 0.00 0.00 0.00 0.00 0.00 0.01 0.00 0.00 0.00 0.00 0.00 0.00 0.00 0.00 0.00 0.02 0.07 0.07 0.09 0.09
0.00 0.00 0.01 0.11 0.23 0.21 0.11 0.02 0.00 0.00 0.00 0.00 0.00 0.00 0.00 0.00 0.00 0.00 0.00 0.00 0.00 0.00 0.00 0.00 0.00 0.00 0.00 0.00 0.01 0.00 0.02 0.01 0.00 0.00 0.00 0.01 0.01 0.02 0.03 0.06 0.10 0.16 0.12
0.06 0.12 0.17 0.13 0.03 0.00 0.00 0.00 0.00 0.00 0.00 0.00 0.00 0.00 0.00 0.00 0.00 0.00 0.00 0.00 0.00 0.00 0.00 0.00 0.00 0.00 0.00 0.00 0.01 0.01 0.01 0.00 0.00 0.01 0.01 0.01 0.01 0.02 0.02 0.04 0.07 0.12 0.16
0.04 0.02 0.00 0.00 0.00 0.00 0.00 0.00 0.00 0.00 0.00 0.00 0.00 0.00 0.00 0.00 0.00 0.00 0.00 0.00 0.00 0.00 0.00 0.00 0.00 0.00 0.00 0.01 0.02 0.01 0.01 0.01 0.01 0.01 0.01 0.01 0.01 0.01 0.01 0.03 0.07 0.08 0.09
0.00 0.00 0.00 0.00 0.00 0.00 0.00 0.00 0.00 0.00 0.00 0.00 0.00 0.01 0.01 0.01 0.01 0.00 0.00 0.00 0.00 0.00 0.00 0.00 0.00 0.00 0.01 0.02 0.02 0.02 0.03 0.05 0.02 0.01 0.01 0.01 0.01 0.01 0.02 0.06 0.07 0.08 0.08
0.00 0.00 0.00 0.00 0.00 0.00 0.00 0.00 0.00 0.00 0.00 0.00 0.01 0.01 0.01 0.00 0.00 0.01 0.01 0.01 0.02 0.03 0.03 0.04 0.06 0.07 0.07 0.05 0.04 0.04 0.06 0.03 0.02 0.02 0.01 0.01 0.01 0.01 0.01 0.03 0.06 0.06 0.12
0.00 0.00 0.00 0.00 0.00 0.00 0.00 0.00 0.00 0.00 0.00 0.00 0.01 0.01 0.02 0.02 0.01 0.02 0.03 0.05 0.06 0.06 0.08 0.11 0.09 0.07 0.06 0.04 0.03 0.03 0.05 0.06 0.05 0.02 0.01 0.01 0.00 0.01 0.01 0.01 0.02 0.03 0.05
0.00 0.00 0.00 0.00 0.00 0.00 0.00 0.00 0.00 0.00 0.00 0.00 0.00 0.00 0.01 0.01 0.00 0.01 0.02 0.05 0.08 0.11 0.25 0.15 0.07 0.06 0.07 0.04 0.04 0.03 0.04 0.04 0.02 0.01 0.01 0.01 0.01 0.01 0.01 0.01 0.01 0.02 0.02
0.00 0.00 0.00 0.00 0.00 0.00 0.00 0.01 0.01 0.01 0.00 0.00 0.00 0.01 0.02 0.04 0.06 0.08 0.08 0.08 0.09 0.18 0.29 0.14 0.09 0.08 0.06 0.05 0.04 0.04 0.04 0.03 0.05 0.06 0.02 0.00 0.01 0.00 0.01 0.01 0.01 0.01 0.01
0.00 0.00 0.00 0.00 0.01 0.01 0.01 0.02 0.03 0.04 0.05 0.04 0.02 0.03 0.04 0.04 0.03 0.04 0.06 0.14 0.17 0.13 0.12 0.09 0.08 0.05 0.03 0.04 0.03 0.03 0.03 0.04 0.05 0.03 0.01 0.00 0.01 0.00 0.00 0.00 0.01 0.01 0.00
0.00 0.00 0.00 0.01 0.01 0.02 0.02 0.04 0.06 0.08 0.08 0.06 0.03 0.02 0.00 0.00 0.01 0.01 0.05 0.21 0.17 0.11 0.08 0.06 0.03 0.04 0.05 0.05 0.06 0.06 0.06 0.05 0.04 0.03 0.01 0.01 0.00 0.00 0.00 0.00 0.00 0.00 0.00
0.00 0.00 0.01 0.02 0.02 0.02 0.04 0.06 0.07 0.08 0.08 0.07 0.05 0.03 0.03 0.07 0.09 0.07 0.10 0.14 0.12 0.08 0.05 0.05 0.04 0.05 0.07 0.10 0.11 0.11 0.08 0.04 0.03 0.02 0.01 0.01 0.00 0.00 0.00 0.00 0.00 0.00 0.00
0.01 0.01 0.02 0.03 0.04 0.06 0.06 0.07 0.08 0.10 0.09 0.08 0.07 0.06 0.09 0.18 0.17 0.12 0.08 0.08 0.09 0.09 0.10 0.11 0.12 0.16 0.16 0.14 0.12 0.09 0.05 0.03 0.02 0.02 0.02 0.01 0.00 0.00 0.00 0.00 0.00 0.00 0.00
0.01 0.02 0.02 0.05 0.06 0.05 0.06 0.07 0.11 0.13 0.12 0.10 0.06 0.04 0.07 0.12 0.10 0.09 0.10 0.13 0.16 0.19 0.23 0.24 0.19 0.16 0.14 0.13 0.12 0.11 0.07 0.04 0.03 0.03 0.03 0.01 0.00 0.00 0.00 0.00 0.00 0.00 0.00
0.02 0.03 0.03 0.05 0.05 0.07 0.09 0.11 0.11 0.09 0.09 0.09 0.11 0.15 0.13 0.14 0.15 0.16 0.16 0.14 0.16 0.16 0.11 0.12 0.13 0.10 0.09 0.11 0.13 0.14 0.10 0.05 0.04 0.06 0.04 0.01 0.00 0.00 0.01 0.00 0.00 0.00 0.00
0.03 0.05 0.06 0.07 0.07 0.08 0.09 0.09 0.09 0.10 0.15 0.19 0.17 0.15 0.15 0.15 0.18 0.17 0.14 0.12 0.12 0.10 0.13 0.17 0.14 0.11 0.11 0.11 0.13 0.14 0.12 0.09 0.13 0.10 0.06 0.02 0.00 0.00 0.01 0.00 0.00 0.00 0.00
0.05 0.06 0.07 0.08 0.11 0.12 0.12 0.16 0.21 0.21 0.18 0.17 0.17 0.16 0.14 0.13 0.12 0.11 0.12 0.13 0.13 0.13 0.12 0.12 0.15 0.16 0.14 0.16 0.16 0.14 0.13 0.17 0.19 0.16 0.19 0.08 0.02 0.01 0.00 0.00 0.00 0.00 0.00
0.05 0.08 0.10 0.11 0.15 0.20 0.24 0.21 0.17 0.14 0.13 0.12 0.12 0.12 0.13 0.12 0.12 0.13 0.13 0.15 0.16 0.15 0.13 0.14 0.14 0.13 0.12 0.13 0.15 0.18 0.16 0.18 0.25 0.20 0.19 0.16 0.11 0.05 0.02 0.01 0.01 0.01 0.00

GFSGL_prec_precacc24_054.txt.gz
Total_Precipitation_Accumulation
0.06 0.15 0.16 0.19 0.23 0.24 0.25 0.21 0.15 0.09 0.06 0.06 0.05 0.04 0.06 0.08 0.09 0.05 0.04 0.05 0.04 0.01 0.00 0.01 0.01 0.01 0.01 0.01 0.00 0.00 0.00 0.00 0.00 0.00 0.00 0.00 0.00 0.00 0.00 0.00 0.00 0.00 0.00
0.16 0.20 0.25 0.27 0.27 0.22 0.17 0.13 0.08 0.05 0.03 0.03 0.05 0.03 0.03 0.03 0.03 0.06 0.06 0.03 0.00 0.00 0.00 0.00 0.00 0.00 0.00 0.00 0.00 0.00 0.00 0.00 0.00 0.00 0.00 0.00 0.00 0.00 0.00 0.00 0.00 0.00 0.00
0.15 0.19 0.23 0.19 0.18 0.16 0.11 0.06 0.02 0.00 0.00 0.00 0.01 0.02 0.04 0.05 0.09 0.08 0.03 0.01 0.00 0.00 0.00 0.00 0.00 0.00 0.00 0.00 0.00 0.00 0.00 0.00 0.00 0.00 0.00 0.00 0.00 0.00 0.00 0.00 0.00 0.00 0.00
0.15 0.15 0.14 0.15 0.12 0.07 0.04 0.01 0.01 0.01 0.01 0.01 0.02 0.02 0.04 0.06 0.05 0.03 0.01 0.00 0.00 0.00 0.00 0.00 0.00 0.00 0.00 0.00 0.00 0.00 0.00 0.00 0.00 0.00 0.00 0.00 0.00 0.00 0.01 0.01 0.02 0.01 0.00
0.13 0.11 0.08 0.05 0.02 0.01 0.00 0.00 0.01 0.01 0.01 0.00 0.02 0.07 0.06 0.03 0.02 0.00 0.00 0.00 0.00 0.00 0.00 0.00 0.00 0.00 0.00 0.00 0.00 0.00 0.00 0.00 0.00 0.01 0.01 0.01 0.01 0.01 0.02 0.03 0.03 0.01 0.00
0.06 0.05 0.03 0.01 0.00 0.00 0.00 0.00 0.00 0.00 0.02 0.07 0.10 0.07 0.06 0.03 0.02 0.00 0.00 0.00 0.00 0.00 0.00 0.00 0.00 0.00 0.00 0.00 0.00 0.00 0.00 0.01 0.03 0.02 0.02 0.01 0.01 0.03 0.04 0.04 0.04 0.04 0.03
0.02 0.01 0.00 0.00 0.00 0.00 0.00 0.00 0.03 0.11 0.16 0.15 0.14 0.10 0.04 0.01 0.00 0.00 0.00 0.00 0.00 0.00 0.00 0.00 0.00 0.00 0.00 0.00 0.00 0.00 0.00 0.00 0.01 0.02 0.02 0.04 0.05 0.04 0.03 0.03 0.03 0.05 0.05
0.00 0.00 0.00 0.00 0.00 0.00 0.04 0.12 0.19 0.19 0.17 0.11 0.03 0.01 0.01 0.00 0.00 0.00 0.00 0.00 0.00 0.00 0.00 0.00 0.00 0.00 0.00 0.00 0.00 0.00 0.00 0.00 0.00 0.00 0.01 0.01 0.00 0.00 0.01 0.03 0.06 0.06 0.02
0.00 0.00 0.00 0.00 0.02 0.10 0.20 0.21 0.15 0.07 0.01 0.00 0.00 0.00 0.01 0.00 0.00 0.00 0.00 0.00 0.00 0.00 0.00 0.00 0.00 0.00 0.00 0.00 0.00 0.00 0.01 0.01 0.00 0.00 0.00 0.00 0.00 0.00 0.01 0.04 0.05 0.07 0.06
0.00 0.00 0.01 0.11 0.23 0.21 0.11 0.02 0.00 0.00 0.00 0.00 0.00 0.00 0.00 0.00 0.00 0.00 0.00 0.00 0.00 0.00 0.00 0.00 0.00 0.00 0.00 0.00 0.01 0.01 0.01 0.01 0.01 0.00 0.00 0.00 0.00 0.01 0.02 0.04 0.09 0.15 0.11
0.06 0.12 0.17 0.13 0.03 0.00 0.00 0.00 0.00 0.00 0.00 0.00 0.00 0.00 0.00 0.00 0.00 0.00 0.00 0.00 0.00 0.00 0.00 0.00 0.00 0.00 0.00 0.00 0.02 0.02 0.01 0.01 0.02 0.01 0.01 0.01 0.01 0.01 0.01 0.01 0.04 0.10 0.15
0.04 0.02 0.00 0.00 0.00 0.00 0.00 0.00 0.00 0.00 0.00 0.00 0.00 0.00 0.00 0.00 0.00 0.00 0.00 0.00 0.00 0.00 0.00 0.00 0.01 0.00 0.00 0.01 0.02 0.02 0.01 0.03 0.06 0.06 0.03 0.02 0.01 0.00 0.00 0.01 0.03 0.05 0.08
0.00 0.00 0.00 0.00 0.00 0.00 0.00 0.00 0.00 0.00 0.00 0.00 0.00 0.01 0.01 0.01 0.01 0.00 0.00 0.00 0.00 0.00 0.00 0.00 0.01 0.01 0.04 0.05 0.06 0.05 0.05 0.07 0.06 0.05 0.03 0.01 0.01 0.01 0.01 0.01 0.02 0.04 0.06
0.00 0.00 0.00 0.00 0.00 0.00 0.00 0.00 0.00 0.00 0.00 0.00 0.00 0.01 0.01 0.00 0.00 0.01 0.01 0.02 0.02 0.04 0.04 0.05 0.06 0.08 0.09 0.09 0.08 0.09 0.12 0.09 0.05 0.04 0.02 0.02 0.02 0.01 0.01 0.01 0.02 0.01 0.06
0.00 0.00 0.00 0.00 0.00 0.00 0.00 0.00 0.00 0.00 0.00 0.00 0.01 0.01 0.02 0.02 0.01 0.02 0.04 0.05 0.06 0.07 0.09 0.13 0.10 0.08 0.08 0.07 0.06 0.06 0.08 0.07 0.06 0.03 0.03 0.04 0.03 0.01 0.01 0.01 0.01 0.01 0.03
0.00 0.00 0.00 0.00 0.00 0.00 0.00 0.00 0.00 0.00 0.00 0.00 0.00 0.00 0.01 0.01 0.00 0.01 0.02 0.05 0.08 0.11 0.26 0.17 0.10 0.11 0.12 0.10 0.11 0.10 0.08 0.06 0.03 0.02 0.03 0.03 0.02 0.02 0.01 0.01 0.01 0.01 0.01
0.00 0.00 0.00 0.00 0.00 0.00 0.00 0.00 0.01 0.01 0.00 0.00 0.00 0.01 0.02 0.04 0.06 0.08 0.08 0.08 0.09 0.18 0.31 0.16 0.13 0.13 0.12 0.12 0.11 0.10 0.08 0.04 0.05 0.08 0.06 0.04 0.03 0.03 0.01 0.01 0.01 0.01 0.01
0.00 0.00 0.00 0.00 0.00 0.00 0.01 0.02 0.02 0.03 0.04 0.04 0.02 0.03 0.04 0.04 0.03 0.04 0.06 0.14 0.17 0.13 0.13 0.11 0.12 0.10 0.08 0.09 0.08 0.07 0.04 0.05 0.06 0.05 0.04 0.04 0.03 0.02 0.02 0.01 0.00 0.00 0.00
0.00 0.00 0.00 0.00 0.01 0.01 0.01 0.03 0.05 0.07 0.08 0.06 0.03 0.02 0.00 0.00 0.01 0.01 0.04 0.20 0.17 0.11 0.08 0.06 0.04 0.05 0.06 0.07 0.08 0.08 0.09 0.08 0.08 0.08 0.05 0.04 0.04 0.03 0.02 0.01 0.00 0.00 0.00
0.00 0.00 0.01 0.02 0.02 0.02 0.03 0.05 0.06 0.07 0.07 0.06 0.05 0.02 0.03 0.07 0.09 0.07 0.09 0.13 0.12 0.08 0.05 0.05 0.05 0.06 0.09 0.12 0.14 0.15 0.15 0.10 0.07 0.06 0.03 0.03 0.04 0.03 0.02 0.01 0.00 0.00 0.00
0.01 0.01 0.02 0.02 0.03 0.05 0.05 0.06 0.07 0.09 0.08 0.07 0.07 0.06 0.09 0.18 0.17 0.12 0.08 0.07 0.08 0.09 0.10 0.11 0.12 0.16 0.17 0.16 0.15 0.14 0.11 0.08 0.06 0.05 0.05 0.05 0.05 0.03 0.01 0.01 0.00 0.00 0.00
0.01 0.02 0.02 0.04 0.05 0.05 0.05 0.05 0.09 0.12 0.11 0.10 0.06 0.04 0.07 0.12 0.09 0.08 0.10 0.13 0.15 0.19 0.23 0.25 0.20 0.16 0.16 0.17 0.16 0.15 0.11 0.08 0.07 0.08 0.08 0.07 0.05 0.02 0.01 0.01 0.01 0.00 0.00
0.02 0.02 0.03 0.04 0.05 0.06 0.09 0.10 0.10 0.08 0.08 0.08 0.11 0.14 0.12 0.14 0.15 0.15 0.15 0.14 0.16 0.15 0.11 0.12 0.13 0.10 0.10 0.13 0.16 0.17 0.13 0.07 0.07 0.10 0.11 0.08 0.05 0.03 0.01 0.01 0.01 0.00 0.00
0.03 0.05 0.05 0.06 0.06 0.06 0.07 0.07 0.07 0.09 0.14 0.18 0.16 0.15 0.15 0.15 0.18 0.17 0.14 0.12 0.11 0.10 0.13 0.17 0.15 0.11 0.11 0.12 0.15 0.16 0.14 0.10 0.14 0.13 0.12 0.09 0.06 0.03 0.02 0.01 0.01 0.00 0.00
0.04 0.05 0.05 0.06 0.09 0.10 0.10 0.15 0.20 0.19 0.17 0.16 0.16 0.15 0.14 0.13 0.12 0.11 0.11 0.13 0.13 0.13 0.12 0.12 0.15 0.16 0.15 0.17 0.17 0.16 0.14 0.18 0.21 0.18 0.24 0.14 0.07 0.05 0.02 0.01 0.00 0.00 0.00
0.05 0.07 0.09 0.09 0.13 0.18 0.21 0.19 0.15 0.12 0.11 0.10 0.10 0.10 0.11 0.10 0.11 0.11 0.11 0.12 0.14 0.13 0.12 0.14 0.14 0.13 0.13 0.13 0.16 0.19 0.17 0.19 0.26 0.24 0.25 0.22 0.15 0.10 0.05 0.03 0.03 0.02 0.01

GFSGL_prec_precacc24_057.txt.gz
Total_Precipitation_Accumulation
0.06 0.15 0.20 0.25 0.24 0.25 0.27 0.23 0.15 0.09 0.07 0.07 0.07 0.08 0.09 0.11 0.11 0.08 0.06 0.05 0.06 0.03 0.00 0.01 0.00 0.00 0.00 0.00 0.00 0.00 0.00 0.00 0.00 0.00 0.00 0.00 0.00 0.00 0.00 0.00 0.00 0.00 0.00
0.16 0.21 0.27 0.29 0.29 0.24 0.18 0.13 0.09 0.05 0.03 0.04 0.06 0.05 0.04 0.05 0.06 0.06 0.07 0.06 0.03 0.01 0.00 0.00 0.00 0.00 0.00 0.00 0.00 0.00 0.00 0.00 0.00 0.00 0.00 0.00 0.00 0.00 0.00 0.00 0.00 0.00 0.00
0.15 0.20 0.26 0.21 0.19 0.16 0.11 0.06 0.03 0.01 0.02 0.02 0.02 0.03 0.04 0.05 0.10 0.10 0.06 0.04 0.01 0.00 0.00 0.00 0.00 0.00 0.00 0.00 0.00 0.00 0.00 0.00 0.00 0.00 0.00 0.00 0.00 0.00 0.00 0.00 0.00 0.00 0.00
0.15 0.15 0.14 0.17 0.13 0.07 0.04 0.01 0.01 0.01 0.01 0.02 0.02 0.03 0.06 0.08 0.07 0.05 0.03 0.01 0.00 0.00 0.00 0.00 0.00 0.00 0.00 0.00 0.00 0.00 0.00 0.00 0.00 0.00 0.00 0.00 0.00 0.00 0.00 0.00 0.01 0.00 0.00
0.14 0.12 0.10 0.06 0.03 0.01 0.00 0.00 0.01 0.01 0.01 0.00 0.02 0.07 0.06 0.04 0.04 0.02 0.01 0.00 0.00 0.00 0.00 0.00 0.00 0.00 0.00 0.00 0.00 0.00 0.00 0.00 0.01 0.01 0.01 0.01 0.01 0.00 0.01 0.01 0.01 0.00 0.00
0.11 0.06 0.04 0.01 0.00 0.00 0.00 0.00 0.00 0.00 0.02 0.07 0.10 0.08 0.06 0.03 0.02 0.00 0.00 0.00 0.00 0.00 0.00 0.00 0.00 0.00 0.00 0.00 0.00 0.00 0.00 0.00 0.01 0.03 0.02 0.02 0.01 0.03 0.03 0.02 0.02 0.01 0.01
0.02 0.01 0.00 0.00 0.00 0.00 0.00 0.00 0.03 0.11 0.16 0.15 0.14 0.10 0.04 0.01 0.01 0.00 0.00 0.00 0.00 0.00 0.00 0.00 0.00 0.00 0.00 0.00 0.00 0.00 0.00 0.00 0.00 0.02 0.03 0.04 0.05 0.02 0.01 0.01 0.00 0.02 0.03
0.00 0.00 0.00 0.00 0.00 0.00 0.04 0.12 0.19 0.19 0.17 0.11 0.03 0.00 0.00 0.00 0.00 0.00 0.00 0.00 0.00 0.00 0.00 0.00 0.00 0.00 0.00 0.00 0.00 0.01 0.01 0.01 0.01 0.01 0.00 0.00 0.01 0.01 0.01 0.01 0.04 0.04 0.01
0.00 0.00 0.00 0.00 0.02 0.10 0.20 0.21 0.15 0.07 0.01 0.00 0.00 0.00 0.00 0.00 0.00 0.00 0.00 0.00 0.00 0.00 0.00 0.00 0.00 0.00 0.00 0.00 0.00 0.01 0.02 0.02 0.03 0.03 0.01 0.01 0.00 0.00 0.01 0.03 0.03 0.05 0.03
0.00 0.00 0.01 0.11 0.23 0.21 0.11 0.02 0.00 0.00 0.00 0.00 0.00 0.00 0.00 0.00 0.00 0.00 0.00 0.00 0.00 0.00 0.00 0.00 0.00 0.00 0.00 0.00 0.01 0.03 0.03 0.02 0.05 0.05 0.03 0.02 0.00 0.00 0.01 0.02 0.06 0.10 0.09
0.06 0.12 0.17 0.13 0.03 0.00 0.00 0.00 0.00 0.00 0.00 0.00 0.00 0.00 0.00 0.00 0.00 0.00 0.00 0.00 0.00 0.00 0.00 0.00 0.00 0.00 0.00 0.00 0.02 0.03 0.03 0.03 0.07 0.06 0.05 0.04 0.01 0.00 0.00 0.00 0.00 0.03 0.08
0.04 0.02 0.00 0.00 0.00 0.00 0.00 0.00 0.00 0.00 0.00 0.00 0.00 0.00 0.00 0.00 0.00 0.00 0.00 0.00 0.00 0.00 0.00 0.00 0.01 0.00 0.00 0.01 0.03 0.02 0.02 0.04 0.10 0.12 0.08 0.06 0.03 0.01 0.00 0.00 0.00 0.01 0.04
0.00 0.00 0.00 0.00 0.00 0.00 0.00 0.00 0.00 0.00 0.00 0.00 0.00 0.00 0.00 0.00 0.00 0.00 0.00 0.00 0.00 0.00 0.00 0.00 0.01 0.01 0.04 0.05 0.06 0.06 0.09 0.13 0.13 0.11 0.07 0.03 0.02 0.01 0.01 0.00 0.00 0.00 0.01
0.00 0.00 0.00 0.00 0.00 0.00 0.00 0.00 0.00 0.00 0.00 0.00 0.00 0.00 0.00 0.00 0.00 0.01 0.01 0.01 0.02 0.04 0.04 0.05 0.06 0.08 0.10 0.10 0.09 0.10 0.13 0.13 0.12 0.11 0.07 0.04 0.03 0.05 0.02 0.00 0.00 0.00 0.00
0.00 0.00 0.00 0.00 0.00 0.00 0.00 0.00 0.00 0.00 0.00 0.00 0.00 0.01 0.01 0.01 0.01 0.02 0.03 0.05 0.06 0.06 0.09 0.14 0.12 0.10 0.10 0.10 0.09 0.09 0.10 0.10 0.10 0.07 0.07 0.06 0.06 0.04 0.02 0.01 0.02 0.01 0.01
0.00 0.00 0.00 0.00 0.00 0.00 0.00 0.00 0.00 0.00 0.00 0.00 0.00 0.00 0.01 0.01 0.00 0.01 0.02 0.05 0.08 0.11 0.26 0.18 0.11 0.13 0.14 0.13 0.16 0.15 0.13 0.11 0.10 0.10 0.06 0.04 0.05 0.04 0.02 0.02 0.02 0.01 0.01
0.00 0.00 0.00 0.00 0.00 0.00 0.00 0.00 0.00 0.00 0.00 0.00 0.00 0.01 0.02 0.04 0.06 0.08 0.08 0.08 0.09 0.18 0.31 0.16 0.13 0.14 0.13 0.14 0.16 0.18 0.18 0.13 0.07 0.09 0.07 0.06 0.06 0.07 0.05 0.03 0.03 0.01 0.01
0.00 0.00 0.00 0.00 0.00 0.00 0.00 0.00 0.01 0.02 0.03 0.03 0.02 0.03 0.04 0.04 0.03 0.04 0.06 0.14 0.16 0.12 0.12 0.11 0.12 0.10 0.08 0.09 0.09 0.09 0.09 0.11 0.12 0.07 0.06 0.05 0.07 0.07 0.07 0.03 0.03 0.02 0.00
0.00 0.00 0.00 0.00 0.00 0.00 0.01 0.02 0.04 0.05 0.06 0.04 0.02 0.01 0.00 0.00 0.01 0.01 0.04 0.19 0.16 0.10 0.07 0.06 0.04 0.05 0.06 0.07 0.09 0.09 0.10 0.10 0.11 0.13 0.10 0.08 0.07 0.07 0.08 0.05 0.03 0.02 0.00
0.00 0.00 0.01 0.02 0.02 0.02 0.03 0.04 0.05 0.05 0.05 0.05 0.04 0.02 0.03 0.06 0.08 0.06 0.08 0.12 0.11 0.07 0.05 0.05 0.05 0.06 0.09 0.13 0.15 0.17 0.16 0.11 0.11 0.11 0.10 0.07 0.06 0.06 0.06 0.06 0.03 0.02 0.00
0.01 0.01 0.01 0.02 0.03 0.04 0.04 0.05 0.05 0.07 0.07 0.06 0.05 0.05 0.09 0.18 0.16 0.11 0.07 0.06 0.07 0.09 0.10 0.11 0.12 0.17 0.17 0.16 0.16 0.15 0.13 0.11 0.11 0.11 0.11 0.11 0.10 0.08 0.07 0.07 0.03 0.01 0.01
0.01 0.01 0.01 0.02 0.03 0.03 0.03 0.04 0.07 0.10 0.09 0.08 0.05 0.03 0.06 0.11 0.09 0.08 0.09 0.12 0.15 0.18 0.22 0.24 0.19 0.16 0.16 0.17 0.16 0.16 0.13 0.12 0.12 0.13 0.11 0.10 0.09 0.08 0.07 0.05 0.03 0.02 0.00
0.01 0.01 0.01 0.02 0.03 0.05 0.07 0.08 0.08 0.05 0.06 0.06 0.09 0.12 0.10 0.12 0.15 0.15 0.15 0.14 0.15 0.15 0.10 0.12 0.13 0.10 0.10 0.13 0.17 0.18 0.14 0.09 0.11 0.14 0.13 0.11 0.09 0.09 0.08 0.05 0.03 0.02 0.01
0.02 0.04 0.04 0.05 0.05 0.04 0.04 0.04 0.04 0.07 0.13 0.16 0.14 0.13 0.12 0.14 0.16 0.16 0.14 0.12 0.11 0.10 0.12 0.17 0.15 0.11 0.11 0.12 0.15 0.17 0.15 0.11 0.16 0.14 0.14 0.11 0.09 0.08 0.09 0.06 0.03 0.01 0.01
0.02 0.03 0.03 0.05 0.07 0.07 0.07 0.11 0.17 0.17 0.15 0.14 0.14 0.13 0.12 0.10 0.10 0.10 0.10 0.12 0.11 0.11 0.10 0.10 0.15 0.16 0.15 0.17 0.18 0.16 0.15 0.20 0.23 0.20 0.25 0.15 0.10 0.09 0.09 0.06 0.03 0.02 0.01
0.02 0.04 0.06 0.07 0.11 0.15 0.17 0.14 0.11 0.09 0.08 0.08 0.08 0.09 0.09 0.09 0.09 0.10 0.09 0.09 0.10 0.10 0.09 0.10 0.10 0.11 0.11 0.13 0.16 0.19 0.18 0.20 0.28 0.26 0.27 0.23 0.17 0.14 0.11 0.09 0.07 0.04 0.01

GFSGL_prec_precacc24_060.txt.gz
Total_Precipitation_Accumulation
0.06 0.17 0.26 0.32 0.50 0.54 0.36 0.31 0.24 0.15 0.08 0.07 0.07 0.09 0.12 0.15 0.15 0.11 0.08 0.07 0.07 0.04 0.03 0.01 0.00 0.00 0.00 0.00 0.00 0.00 0.00 0.00 0.00 0.00 0.00 0.00 0.00 0.00 0.00 0.00 0.00 0.00 0.00
0.24 0.47 0.42 0.54 0.40 0.32 0.24 0.18 0.12 0.06 0.04 0.05 0.07 0.07 0.08 0.11 0.10 0.08 0.08 0.06 0.03 0.01 0.00 0.00 0.00 0.00 0.00 0.00 0.00 0.00 0.00 0.00 0.00 0.00 0.00 0.00 0.00 0.00 0.00 0.00 0.00 0.00 0.00
0.37 0.33 0.45 0.43 0.23 0.20 0.15 0.09 0.04 0.03 0.03 0.03 0.03 0.03 0.05 0.06 0.10 0.11 0.07 0.04 0.01 0.00 0.00 0.00 0.00 0.00 0.00 0.00 0.00 0.00 0.00 0.00 0.00 0.00 0.00 0.00 0.00 0.00 0.00 0.00 0.00 0.00 0.00
0.20 0.25 0.22 0.18 0.17 0.10 0.06 0.04 0.02 0.02 0.02 0.02 0.02 0.03 0.06 0.08 0.07 0.06 0.03 0.01 0.00 0.00 0.00 0.00 0.00 0.00 0.00 0.00 0.00 0.00 0.00 0.00 0.00 0.00 0.00 0.00 0.00 0.00 0.00 0.00 0.00 0.00 0.00
0.18 0.15 0.13 0.07 0.06 0.02 0.01 0.01 0.01 0.01 0.01 0.00 0.02 0.07 0.06 0.04 0.04 0.03 0.01 0.00 0.00 0.00 0.00 0.00 0.00 0.00 0.00 0.00 0.00 0.00 0.00 0.00 0.00 0.01 0.01 0.01 0.00 0.00 0.01 0.01 0.01 0.00 0.00
0.14 0.10 0.06 0.03 0.01 0.00 0.00 0.00 0.00 0.00 0.02 0.07 0.10 0.08 0.06 0.04 0.03 0.01 0.00 0.00 0.00 0.00 0.00 0.00 0.00 0.00 0.00 0.00 0.00 0.00 0.00 0.00 0.01 0.02 0.02 0.02 0.02 0.03 0.04 0.02 0.01 0.01 0.01
0.05 0.02 0.00 0.00 0.00 0.00 0.00 0.00 0.03 0.11 0.16 0.15 0.14 0.10 0.04 0.01 0.01 0.00 0.00 0.00 0.00 0.00 0.00 0.00 0.00 0.00 0.00 0.00 0.00 0.00 0.00 0.00 0.00 0.02 0.04 0.03 0.05 0.05 0.07 0.04 0.04 0.06 0.04
0.01 0.00 0.00 0.00 0.00 0.00 0.04 0.12 0.19 0.19 0.17 0.11 0.03 0.00 0.00 0.00 0.00 0.00 0.00 0.00 0.00 0.00 0.00 0.00 0.00 0.00 0.00 0.00 0.00 0.01 0.01 0.01 0.02 0.02 0.02 0.01 0.02 0.03 0.04 0.03 0.05 0.04 0.01
0.00 0.00 0.00 0.00 0.02 0.10 0.20 0.21 0.15 0.07 0.01 0.00 0.00 0.00 0.00 0.00 0.00 0.00 0.00 0.00 0.00 0.00 0.00 0.00 0.00 0.00 0.00 0.00 0.00 0.01 0.02 0.02 0.03 0.04 0.03 0.04 0.03 0.01 0.02 0.03 0.03 0.03 0.02
0.00 0.00 0.01 0.11 0.23 0.21 0.11 0.02 0.00 0.00 0.00 0.00 0.00 0.00 0.00 0.00 0.00 0.00 0.00 0.00 0.00 0.00 0.00 0.00 0.00 0.00 0.00 0.00 0.01 0.03 0.04 0.02 0.05 0.06 0.05 0.04 0.03 0.02 0.02 0.02 0.01 0.02 0.02
0.05 0.12 0.17 0.13 0.02 0.00 0.00 0.00 0.00 0.00 0.00 0.00 0.00 0.00 0.00 0.00 0.00 0.00 0.00 0.00 0.00 0.00 0.00 0.00 0.00 0.00 0.00 0.00 0.02 0.03 0.03 0.03 0.07 0.06 0.07 0.08 0.05 0.02 0.00 0.00 0.00 0.01 0.03
0.03 0.01 0.00 0.00 0.00 0.00 0.00 0.00 0.00 0.00 0.00 0.00 0.00 0.00 0.00 0.00 0.00 0.00 0.00 0.00 0.00 0.00 0.00 0.00 0.01 0.00 0.00 0.01 0.03 0.02 0.02 0.04 0.10 0.12 0.09 0.07 0.06 0.05 0.03 0.01 0.00 0.00 0.00
0.00 0.00 0.00 0.00 0.00 0.00 0.00 0.00 0.00 0.00 0.00 0.00 0.00 0.00 0.00 0.00 0.00 0.00 0.00 0.00 0.00 0.00 0.00 0.00 0.01 0.01 0.04 0.05 0.06 0.06 0.09 0.14 0.13 0.12 0.08 0.04 0.04 0.04 0.05 0.05 0.01 0.00 0.00
0.00 0.00 0.00 0.00 0.00 0.00 0.00 0.00 0.00 0.00 0.00 0.00 0.00 0.00 0.00 0.00 0.00 0.00 0.01 0.01 0.02 0.04 0.04 0.05 0.06 0.08 0.10 0.10 0.09 0.10 0.13 0.14 0.15 0.13 0.09 0.07 0.10 0.14 0.09 0.02 0.01 0.00 0.00
0.00 0.00 0.00 0.00 0.00 0.00 0.00 0.00 0.00 0.00 0.00 0.00 0.00 0.00 0.00 0.01 0.01 0.02 0.03 0.04 0.05 0.06 0.09 0.14 0.12 0.10 0.10 0.09 0.09 0.10 0.11 0.12 0.13 0.10 0.09 0.11 0.11 0.08 0.03 0.02 0.03 0.02 0.02
0.00 0.00 0.00 0.00 0.00 0.00 0.00 0.00 0.00 0.00 0.00 0.00 0.00 0.00 0.00 0.01 0.00 0.01 0.02 0.05 0.08 0.11 0.26 0.18 0.11 0.13 0.14 0.13 0.16 0.15 0.14 0.15 0.14 0.18 0.19 0.16 0.12 0.08 0.04 0.04 0.03 0.02 0.01
0.00 0.00 0.00 0.00 0.00 0.00 0.00 0.00 0.00 0.00 0.00 0.00 0.00 0.01 0.02 0.04 0.06 0.08 0.08 0.08 0.09 0.18 0.31 0.16 0.13 0.13 0.13 0.14 0.16 0.18 0.19 0.16 0.16 0.17 0.14 0.09 0.06 0.07 0.07 0.06 0.05 0.02 0.01
0.00 0.00 0.00 0.00 0.00 0.00 0.00 0.00 0.00 0.01 0.02 0.02 0.01 0.03 0.04 0.04 0.03 0.04 0.06 0.13 0.16 0.11 0.12 0.11 0.12 0.10 0.08 0.09 0.09 0.10 0.10 0.12 0.14 0.12 0.11 0.08 0.08 0.08 0.09 0.06 0.05 0.04 0.01
0.00 0.00 0.00 0.00 0.00 0.00 0.01 0.02 0.03 0.05 0.06 0.04 0.02 0.01 0.00 0.00 0.01 0.01 0.03 0.18 0.16 0.10 0.07 0.05 0.04 0.05 0.06 0.07 0.09 0.10 0.11 0.11 0.12 0.14 0.12 0.11 0.10 0.10 0.11 0.08 0.07 0.05 0.04
0.00 0.01 0.01 0.01 0.02 0.01 0.02 0.04 0.04 0.05 0.05 0.04 0.03 0.01 0.02 0.04 0.06 0.06 0.08 0.12 0.11 0.07 0.04 0.05 0.05 0.06 0.10 0.14 0.16 0.17 0.16 0.11 0.11 0.12 0.12 0.12 0.14 0.13 0.11 0.08 0.09 0.09 0.04
0.04 0.04 0.03 0.01 0.01 0.02 0.02 0.03 0.04 0.06 0.05 0.05 0.05 0.04 0.08 0.15 0.13 0.09 0.06 0.05 0.07 0.09 0.10 0.11 0.12 0.17 0.17 0.16 0.16 0.15 0.13 0.11 0.12 0.13 0.12 0.13 0.14 0.13 0.10 0.10 0.08 0.06 0.04
0.02 0.02 0.01 0.01 0.01 0.01 0.01 0.02 0.06 0.09 0.08 0.07 0.04 0.02 0.05 0.10 0.08 0.07 0.08 0.12 0.14 0.18 0.22 0.24 0.20 0.16 0.16 0.18 0.17 0.16 0.14 0.12 0.13 0.14 0.13 0.12 0.11 0.10 0.10 0.11 0.10 0.07 0.04
0.01 0.01 0.01 0.01 0.01 0.04 0.07 0.08 0.07 0.04 0.04 0.04 0.07 0.11 0.09 0.09 0.11 0.14 0.15 0.14 0.15 0.15 0.10 0.12 0.13 0.11 0.10 0.14 0.17 0.19 0.15 0.10 0.12 0.16 0.16 0.13 0.11 0.11 0.11 0.11 0.11 0.07 0.03
0.01 0.01 0.01 0.01 0.02 0.03 0.04 0.03 0.03 0.05 0.09 0.12 0.11 0.11 0.11 0.11 0.11 0.11 0.11 0.10 0.10 0.09 0.12 0.16 0.14 0.11 0.11 0.12 0.15 0.17 0.15 0.12 0.16 0.16 0.16 0.13 0.10 0.09 0.11 0.10 0.09 0.07 0.03
0.01 0.01 0.01 0.02 0.04 0.05 0.05 0.09 0.15 0.14 0.11 0.09 0.09 0.09 0.10 0.09 0.08 0.08 0.08 0.09 0.09 0.10 0.09 0.09 0.12 0.14 0.13 0.16 0.16 0.16 0.16 0.21 0.24 0.21 0.27 0.16 0.11 0.10 0.10 0.09 0.09 0.09 0.05
0.00 0.01 0.02 0.03 0.03 0.05 0.11 0.12 0.10 0.07 0.06 0.05 0.05 0.05 0.06 0.05 0.05 0.07 0.08 0.09 0.10 0.09 0.08 0.08 0.08 0.09 0.09 0.10 0.12 0.16 0.17 0.20 0.29 0.28 0.30 0.25 0.18 0.15 0.12 0.12 0.12 0.11 0.06

GFSGL_prec_precacc24_063.txt.gz
Total_Precipitation_Accumulation
0.10 0.20 0.33 0.39 0.56 0.74 0.64 0.89 0.51 0.30 0.19 0.13 0.08 0.09 0.12 0.15 0.16 0.14 0.12 0.10 0.08 0.05 0.03 0.01 0.00 0.00 0.00 0.00 0.00 0.00 0.00 0.00 0.00 0.00 0.00 0.00 0.00 0.00 0.00 0.00 0.00 0.00 0.00
0.40 0.87 0.82 0.97 0.90 0.82 0.86 0.73 0.30 0.12 0.12 0.07 0.07 0.08 0.09 0.11 0.10 0.08 0.08 0.06 0.04 0.02 0.01 0.00 0.00 0.00 0.00 0.00 0.00 0.00 0.00 0.00 0.00 0.00 0.00 0.00 0.00 0.00 0.00 0.00 0.00 0.00 0.00
0.77 0.68 0.67 0.79 0.47 0.39 0.24 0.15 0.08 0.06 0.04 0.04 0.03 0.04 0.05 0.06 0.11 0.13 0.10 0.06 0.02 0.01 0.00 0.00 0.00 0.00 0.00 0.00 0.00 0.00 0.00 0.00 0.00 0.00 0.00 0.00 0.00 0.00 0.00 0.00 0.00 0.00 0.00
0.43 0.41 0.32 0.29 0.23 0.11 0.08 0.05 0.04 0.02 0.03 0.03 0.03 0.03 0.07 0.10 0.10 0.07 0.04 0.01 0.00 0.00 0.00 0.00 0.00 0.00 0.00 0.00 0.00 0.00 0.00 0.00 0.00 0.01 0.01 0.00 0.00 0.00 0.00 0.00 0.01 0.01 0.00
0.23 0.19 0.15 0.09 0.08 0.05 0.03 0.03 0.02 0.01 0.01 0.01 0.03 0.08 0.07 0.05 0.04 0.03 0.01 0.00 0.00 0.00 0.00 0.00 0.00 0.00 0.00 0.00 0.00 0.00 0.00 0.00 0.01 0.01 0.01 0.01 0.00 0.00 0.01 0.01 0.02 0.01 0.01
0.17 0.13 0.07 0.03 0.01 0.02 0.01 0.00 0.00 0.00 0.02 0.07 0.10 0.08 0.06 0.04 0.03 0.01 0.00 0.00 0.00 0.00 0.00 0.00 0.00 0.00 0.00 0.00 0.00 0.00 0.00 0.00 0.01 0.02 0.02 0.03 0.02 0.03 0.05 0.04 0.03 0.04 0.06
0.07 0.03 0.01 0.02 0.01 0.01 0.00 0.00 0.03 0.11 0.16 0.15 0.14 0.10 0.04 0.01 0.01 0.00 0.00 0.00 0.00 0.00 0.00 0.00 0.00 0.00 0.00 0.00 0.00 0.00 0.00 0.00 0.00 0.02 0.04 0.03 0.05 0.06 0.09 0.07 0.06 0.09 0.09
0.01 0.00 0.00 0.01 0.00 0.00 0.04 0.12 0.19 0.19 0.17 0.11 0.03 0.00 0.00 0.00 0.00 0.00 0.00 0.00 0.00 0.00 0.00 0.00 0.00 0.00 0.00 0.00 0.00 0.01 0.01 0.01 0.02 0.02 0.02 0.01 0.03 0.03 0.06 0.05 0.07 0.06 0.02
0.00 0.00 0.00 0.00 0.02 0.10 0.20 0.21 0.15 0.07 0.01 0.00 0.00 0.00 0.00 0.00 0.00 0.00 0.00 0.00 0.00 0.00 0.00 0.00 0.00 0.00 0.00 0.00 0.00 0.01 0.02 0.02 0.03 0.04 0.03 0.04 0.03 0.02 0.02 0.04 0.03 0.03 0.02
0.00 0.00 0.01 0.11 0.23 0.21 0.10 0.02 0.00 0.00 0.00 0.00 0.00 0.00 0.00 0.00 0.00 0.00 0.00 0.00 0.00 0.00 0.00 0.00 0.00 0.00 0.00 0.00 0.01 0.03 0.04 0.02 0.05 0.06 0.05 0.04 0.03 0.02 0.02 0.02 0.03 0.09 0.07
0.05 0.12 0.17 0.12 0.02 0.00 0.00 0.00 0.00 0.00 0.00 0.00 0.00 0.00 0.00 0.00 0.00 0.00 0.00 0.00 0.00 0.00 0.00 0.00 0.00 0.00 0.00 0.00 0.02 0.03 0.03 0.03 0.07 0.06 0.07 0.08 0.05 0.02 0.01 0.01 0.02 0.04 0.06
0.03 0.01 0.00 0.00 0.00 0.00 0.00 0.00 0.00 0.00 0.00 0.00 0.00 0.00 0.00 0.00 0.00 0.00 0.00 0.00 0.00 0.00 0.00 0.00 0.01 0.00 0.00 0.01 0.03 0.02 0.02 0.05 0.10 0.12 0.09 0.07 0.06 0.06 0.03 0.01 0.00 0.00 0.01
0.00 0.00 0.00 0.00 0.00 0.00 0.00 0.00 0.00 0.00 0.00 0.00 0.00 0.00 0.00 0.00 0.00 0.00 0.00 0.00 0.00 0.00 0.00 0.00 0.01 0.01 0.04 0.05 0.06 0.06 0.09 0.14 0.13 0.13 0.09 0.05 0.04 0.04 0.05 0.07 0.06 0.04 0.04
0.00 0.00 0.00 0.00 0.00 0.00 0.00 0.00 0.00 0.00 0.00 0.00 0.00 0.00 0.00 0.00 0.00 0.00 0.01 0.01 0.02 0.04 0.04 0.05 0.06 0.08 0.10 0.10 0.09 0.10 0.13 0.14 0.15 0.16 0.13 0.10 0.11 0.15 0.16 0.11 0.09 0.03 0.01
0.00 0.00 0.00 0.00 0.00 0.00 0.00 0.00 0.00 0.00 0.00 0.00 0.00 0.00 0.00 0.00 0.00 0.01 0.02 0.03 0.05 0.06 0.09 0.13 0.12 0.10 0.10 0.09 0.09 0.10 0.11 0.12 0.13 0.11 0.12 0.14 0.15 0.16 0.14 0.14 0.11 0.03 0.03
0.00 0.00 0.00 0.00 0.00 0.00 0.00 0.00 0.00 0.00 0.00 0.00 0.00 0.00 0.00 0.01 0.00 0.01 0.02 0.04 0.07 0.10 0.26 0.18 0.11 0.13 0.14 0.13 0.16 0.15 0.14 0.15 0.14 0.19 0.22 0.19 0.20 0.20 0.16 0.09 0.06 0.03 0.01
0.00 0.00 0.00 0.00 0.00 0.00 0.00 0.00 0.00 0.00 0.00 0.00 0.00 0.01 0.02 0.04 0.06 0.08 0.08 0.08 0.09 0.17 0.30 0.16 0.13 0.13 0.13 0.14 0.16 0.18 0.19 0.16 0.16 0.18 0.15 0.12 0.11 0.10 0.08 0.09 0.08 0.04 0.02
0.00 0.00 0.00 0.00 0.00 0.00 0.00 0.00 0.00 0.01 0.02 0.03 0.01 0.03 0.04 0.04 0.03 0.03 0.04 0.10 0.13 0.10 0.11 0.11 0.12 0.10 0.08 0.09 0.09 0.10 0.10 0.12 0.14 0.12 0.11 0.10 0.11 0.10 0.10 0.07 0.06 0.05 0.02
0.00 0.00 0.00 0.00 0.00 0.00 0.00 0.01 0.02 0.02 0.04 0.04 0.02 0.01 0.00 0.00 0.00 0.01 0.01 0.12 0.15 0.10 0.07 0.05 0.04 0.05 0.06 0.07 0.09 0.10 0.11 0.11 0.12 0.14 0.12 0.12 0.12 0.13 0.13 0.11 0.11 0.09 0.05
0.01 0.01 0.01 0.01 0.02 0.03 0.03 0.03 0.02 0.03 0.03 0.03 0.02 0.01 0.02 0.03 0.04 0.05 0.07 0.09 0.10 0.07 0.04 0.05 0.05 0.06 0.10 0.14 0.16 0.17 0.16 0.11 0.11 0.12 0.12 0.13 0.15 0.17 0.18 0.16 0.15 0.15 0.10
0.08 0.09 0.09 0.07 0.07 0.05 0.02 0.02 0.02 0.03 0.03 0.04 0.05 0.04 0.07 0.13 0.11 0.07 0.05 0.04 0.06 0.09 0.10 0.11 0.12 0.17 0.17 0.16 0.16 0.15 0.13 0.11 0.12 0.13 0.13 0.13 0.15 0.14 0.13 0.14 0.10 0.07 0.06
0.19 0.14 0.10 0.07 0.04 0.02 0.02 0.01 0.04 0.08 0.08 0.07 0.04 0.02 0.05 0.08 0.07 0.06 0.05 0.08 0.13 0.18 0.22 0.24 0.20 0.16 0.16 0.18 0.17 0.16 0.14 0.13 0.14 0.14 0.13 0.12 0.11 0.10 0.11 0.11 0.11 0.11 0.09
0.12 0.08 0.04 0.02 0.01 0.01 0.01 0.01 0.04 0.03 0.03 0.04 0.07 0.09 0.07 0.06 0.09 0.12 0.13 0.12 0.11 0.09 0.08 0.11 0.13 0.10 0.10 0.14 0.18 0.19 0.16 0.11 0.12 0.16 0.17 0.14 0.12 0.12 0.13 0.13 0.12 0.12 0.10
0.03 0.03 0.01 0.01 0.00 0.01 0.02 0.03 0.03 0.04 0.07 0.11 0.09 0.07 0.06 0.06 0.08 0.08 0.08 0.07 0.06 0.05 0.08 0.12 0.11 0.09 0.10 0.12 0.15 0.17 0.15 0.12 0.17 0.17 0.17 0.14 0.10 0.10 0.13 0.12 0.11 0.10 0.08
0.02 0.01 0.00 0.00 0.00 0.01 0.01 0.01 0.02 0.04 0.07 0.07 0.08 0.07 0.06 0.05 0.05 0.04 0.04 0.05 0.05 0.05 0.05 0.06 0.10 0.12 0.11 0.12 0.13 0.15 0.16 0.21 0.24 0.22 0.27 0.17 0.11 0.11 0.11 0.11 0.09 0.11 0.10
0.01 0.01 0.00 0.01 0.01 0.00 0.01 0.01 0.01 0.02 0.03 0.04 0.05 0.04 0.05 0.04 0.03 0.03 0.03 0.03 0.04 0.04 0.06 0.07 0.07 0.08 0.08 0.09 0.09 0.12 0.15 0.19 0.26 0.28 0.32 0.26 0.19 0.15 0.13 0.13 0.13 0.13 0.09

GFSGL_prec_precacc24_066.txt.gz
Total_Precipitation_Accumulation
0.10 0.20 0.32 0.38 0.57 0.90 0.85 1.16 0.89 0.61 0.33 0.16 0.15 0.19 0.16 0.17 0.16 0.15 0.13 0.10 0.08 0.06 0.03 0.02 0.01 0.01 0.00 0.00 0.00 0.00 0.00 0.00 0.00 0.00 0.00 0.00 0.00 0.00 0.00 0.00 0.00 0.00 0.00
0.55 0.98 0.90 1.04 1.21 1.10 1.34 1.84 1.00 0.36 0.22 0.15 0.18 0.13 0.11 0.12 0.11 0.08 0.08 0.07 0.05 0.04 0.03 0.02 0.01 0.01 0.00 0.00 0.00 0.00 0.00 0.00 0.00 0.00 0.00 0.00 0.00 0.00 0.00 0.00 0.00 0.00 0.00
0.86 0.92 1.04 1.44 0.94 0.51 0.36 0.28 0.16 0.11 0.09 0.07 0.05 0.05 0.06 0.07 0.12 0.14 0.11 0.08 0.05 0.03 0.01 0.00 0.00 0.00 0.00 0.00 0.00 0.00 0.00 0.00 0.00 0.01 0.00 0.00 0.00 0.00 0.00 0.00 0.00 0.00 0.00
0.59 0.63 0.59 0.59 0.56 0.25 0.18 0.10 0.07 0.06 0.06 0.04 0.04 0.05 0.07 0.11 0.11 0.08 0.05 0.01 0.00 0.00 0.00 0.00 0.00 0.00 0.00 0.00 0.00 0.00 0.00 0.00 0.00 0.01 0.01 0.00 0.00 0.00 0.00 0.00 0.01 0.01 0.01
0.24 0.22 0.20 0.15 0.15 0.11 0.10 0.06 0.04 0.03 0.03 0.02 0.03 0.08 0.07 0.06 0.05 0.03 0.01 0.00 0.00 0.00 0.00 0.00 0.00 0.00 0.00 0.00 0.00 0.00 0.00 0.00 0.01 0.01 0.01 0.01 0.00 0.00 0.01 0.01 0.03 0.02 0.02
0.20 0.14 0.09 0.06 0.07 0.07 0.05 0.03 0.02 0.01 0.03 0.08 0.10 0.08 0.06 0.04 0.05 0.02 0.00 0.00 0.00 0.00 0.00 0.00 0.00 0.00 0.00 0.00 0.00 0.00 0.00 0.00 0.01 0.02 0.02 0.03 0.02 0.03 0.04 0.05 0.04 0.05 0.07
0.09 0.05 0.03 0.05 0.04 0.03 0.02 0.01 0.03 0.11 0.16 0.15 0.15 0.10 0.04 0.01 0.01 0.00 0.00 0.00 0.00 0.00 0.00 0.00 0.00 0.00 0.00 0.00 0.00 0.00 0.00 0.00 0.00 0.02 0.04 0.03 0.05 0.06 0.09 0.07 0.07 0.11 0.10
0.02 0.01 0.01 0.03 0.02 0.01 0.04 0.12 0.19 0.19 0.17 0.11 0.03 0.00 0.00 0.00 0.00 0.00 0.00 0.00 0.00 0.00 0.00 0.00 0.00 0.00 0.00 0.00 0.00 0.01 0.01 0.01 0.02 0.02 0.02 0.01 0.03 0.03 0.05 0.05 0.06 0.05 0.03
0.00 0.00 0.01 0.01 0.02 0.07 0.16 0.19 0.15 0.07 0.01 0.00 0.00 0.00 0.00 0.00 0.00 0.00 0.00 0.00 0.00 0.00 0.00 0.00 0.00 0.00 0.00 0.00 0.00 0.01 0.02 0.02 0.03 0.04 0.03 0.04 0.03 0.02 0.02 0.03 0.03 0.04 0.04
0.00 0.00 0.00 0.08 0.18 0.18 0.10 0.02 0.00 0.00 0.00 0.00 0.00 0.00 0.00 0.00 0.00 0.00 0.00 0.00 0.00 0.00 0.00 0.00 0.00 0.00 0.00 0.00 0.01 0.03 0.04 0.02 0.05 0.06 0.05 0.04 0.03 0.02 0.02 0.03 0.04 0.11 0.10
0.05 0.08 0.11 0.10 0.02 0.00 0.00 0.00 0.00 0.00 0.00 0.00 0.00 0.00 0.00 0.00 0.00 0.00 0.00 0.00 0.00 0.00 0.00 0.00 0.00 0.00 0.00 0.00 0.02 0.03 0.03 0.03 0.07 0.06 0.07 0.08 0.05 0.02 0.01 0.01 0.02 0.05 0.09
0.01 0.00 0.00 0.00 0.00 0.00 0.00 0.00 0.00 0.00 0.00 0.00 0.00 0.00 0.00 0.00 0.00 0.00 0.00 0.00 0.00 0.00 0.00 0.00 0.01 0.00 0.00 0.01 0.03 0.02 0.02 0.05 0.10 0.12 0.09 0.07 0.06 0.06 0.03 0.01 0.01 0.00 0.01
0.00 0.00 0.00 0.00 0.00 0.00 0.00 0.00 0.00 0.00 0.00 0.00 0.00 0.00 0.00 0.00 0.00 0.00 0.00 0.00 0.00 0.00 0.00 0.00 0.01 0.01 0.04 0.05 0.06 0.06 0.09 0.14 0.13 0.13 0.10 0.05 0.04 0.05 0.06 0.08 0.07 0.04 0.05
0.00 0.00 0.00 0.00 0.00 0.00 0.00 0.00 0.00 0.00 0.00 0.00 0.00 0.00 0.00 0.00 0.00 0.00 0.00 0.01 0.01 0.02 0.04 0.05 0.06 0.08 0.10 0.10 0.09 0.10 0.13 0.14 0.15 0.16 0.13 0.10 0.11 0.16 0.16 0.11 0.12 0.09 0.08
0.00 0.00 0.00 0.00 0.00 0.00 0.00 0.00 0.00 0.00 0.00 0.00 0.00 0.00 0.00 0.00 0.00 0.01 0.01 0.02 0.03 0.04 0.07 0.12 0.11 0.10 0.10 0.09 0.09 0.10 0.11 0.12 0.13 0.11 0.12 0.14 0.15 0.16 0.16 0.22 0.23 0.15 0.06
0.00 0.00 0.00 0.00 0.00 0.00 0.00 0.00 0.00 0.00 0.00 0.00 0.00 0.00 0.00 0.01 0.00 0.01 0.02 0.04 0.06 0.09 0.21 0.16 0.11 0.13 0.14 0.13 0.16 0.15 0.14 0.15 0.14 0.19 0.22 0.19 0.20 0.20 0.17 0.13 0.11 0.06 0.02
0.00 0.00 0.00 0.00 0.00 0.00 0.00 0.00 0.00 0.00 0.00 0.00 0.00 0.00 0.01 0.05 0.06 0.08 0.07 0.07 0.07 0.12 0.24 0.16 0.13 0.13 0.13 0.14 0.16 0.18 0.19 0.16 0.16 0.18 0.15 0.12 0.11 0.11 0.09 0.09 0.09 0.06 0.04
0.00 0.00 0.00 0.00 0.00 0.00 0.00 0.01 0.01 0.01 0.01 0.01 0.01 0.01 0.02 0.04 0.03 0.03 0.04 0.07 0.08 0.05 0.09 0.11 0.12 0.10 0.08 0.09 0.09 0.10 0.10 0.12 0.15 0.12 0.11 0.10 0.11 0.11 0.11 0.07 0.07 0.07 0.04
0.00 0.00 0.01 0.02 0.02 0.01 0.01 0.02 0.02 0.04 0.04 0.04 0.02 0.01 0.00 0.00 0.01 0.01 0.01 0.08 0.11 0.08 0.06 0.05 0.04 0.05 0.06 0.07 0.09 0.10 0.11 0.11 0.12 0.14 0.12 0.12 0.13 0.14 0.14 0.12 0.12 0.10 0.10
0.04 0.05 0.04 0.04 0.06 0.08 0.10 0.09 0.07 0.05 0.03 0.02 0.01 0.01 0.02 0.04 0.05 0.05 0.07 0.08 0.06 0.05 0.03 0.04 0.04 0.06 0.10 0.14 0.16 0.17 0.16 0.11 0.11 0.12 0.12 0.13 0.15 0.18 0.19 0.17 0.17 0.18 0.13
0.14 0.16 0.17 0.18 0.19 0.17 0.12 0.09 0.07 0.06 0.05 0.04 0.04 0.05 0.08 0.13 0.10 0.06 0.04 0.04 0.06 0.07 0.08 0.10 0.11 0.16 0.17 0.16 0.16 0.15 0.13 0.11 0.12 0.14 0.13 0.13 0.15 0.15 0.14 0.16 0.14 0.11 0.09
0.29 0.26 0.22 0.18 0.15 0.12 0.09 0.06 0.06 0.06 0.05 0.04 0.02 0.02 0.05 0.08 0.06 0.05 0.04 0.07 0.12 0.17 0.21 0.21 0.17 0.16 0.16 0.18 0.17 0.17 0.14 0.13 0.14 0.15 0.13 0.12 0.11 0.11 0.12 0.12 0.12 0.13 0.11
0.19 0.15 0.11 0.08 0.07 0.07 0.05 0.04 0.03 0.02 0.02 0.02 0.03 0.06 0.07 0.06 0.06 0.06 0.06 0.08 0.09 0.07 0.06 0.08 0.09 0.09 0.09 0.13 0.17 0.19 0.16 0.11 0.12 0.17 0.18 0.15 0.13 0.12 0.14 0.14 0.13 0.13 0.11
0.08 0.08 0.06 0.06 0.05 0.03 0.02 0.02 0.02 0.01 0.02 0.02 0.03 0.04 0.05 0.05 0.05 0.05 0.04 0.04 0.03 0.03 0.04 0.05 0.05 0.06 0.09 0.11 0.14 0.16 0.15 0.12 0.17 0.18 0.18 0.15 0.11 0.10 0.14 0.13 0.12 0.12 0.10
0.04 0.03 0.02 0.02 0.02 0.02 0.02 0.02 0.01 0.01 0.01 0.01 0.02 0.03 0.03 0.04 0.04 0.04 0.04 0.03 0.03 0.03 0.03 0.03 0.04 0.07 0.07 0.09 0.11 0.14 0.15 0.20 0.23 0.21 0.28 0.18 0.12 0.11 0.11 0.11 0.11 0.13 0.12
0.03 0.02 0.02 0.02 0.01 0.00 0.01 0.01 0.01 0.01 0.01 0.01 0.01 0.02 0.02 0.03 0.02 0.03 0.02 0.02 0.03 0.02 0.02 0.03 0.03 0.04 0.06 0.08 0.09 0.11 0.14 0.17 0.24 0.26 0.32 0.26 0.19 0.15 0.14 0.14 0.13 0.14 0.10

GFSGL_prec_precacc24_069.txt.gz
Total_Precipitation_Accumulation
0.09 0.17 0.30 0.36 0.56 0.89 0.85 1.16 0.94 0.89 0.94 0.77 0.48 0.41 0.22 0.24 0.23 0.16 0.13 0.10 0.08 0.06 0.04 0.03 0.01 0.01 0.00 0.00 0.00 0.00 0.00 0.00 0.00 0.00 0.00 0.00 0.00 0.00 0.00 0.00 0.00 0.00 0.00
0.57 0.97 0.89 1.04 1.20 1.10 1.37 1.94 1.32 0.95 0.68 0.47 0.29 0.16 0.12 0.13 0.11 0.08 0.08 0.08 0.06 0.04 0.03 0.03 0.02 0.02 0.01 0.02 0.01 0.00 0.00 0.00 0.00 0.00 0.00 0.00 0.00 0.00 0.00 0.00 0.00 0.00 0.00
0.93 0.94 1.05 1.47 0.95 0.57 0.42 0.34 0.30 0.21 0.13 0.07 0.06 0.08 0.09 0.10 0.14 0.16 0.14 0.09 0.06 0.04 0.03 0.03 0.03 0.02 0.01 0.00 0.00 0.00 0.00 0.00 0.00 0.01 0.00 0.00 0.00 0.00 0.00 0.00 0.00 0.00 0.00
0.65 0.65 0.61 0.59 0.58 0.36 0.29 0.20 0.12 0.10 0.12 0.06 0.07 0.08 0.10 0.12 0.13 0.11 0.07 0.03 0.01 0.01 0.00 0.00 0.00 0.00 0.00 0.00 0.00 0.00 0.00 0.00 0.00 0.01 0.01 0.00 0.00 0.00 0.00 0.00 0.01 0.01 0.01
0.26 0.24 0.22 0.18 0.16 0.14 0.13 0.07 0.05 0.04 0.04 0.05 0.07 0.11 0.09 0.07 0.07 0.05 0.02 0.01 0.01 0.01 0.01 0.01 0.00 0.00 0.00 0.00 0.00 0.00 0.00 0.00 0.01 0.01 0.01 0.01 0.00 0.00 0.01 0.01 0.03 0.02 0.02
0.18 0.16 0.11 0.06 0.08 0.08 0.07 0.07 0.03 0.03 0.06 0.09 0.12 0.12 0.08 0.05 0.08 0.04 0.01 0.00 0.00 0.00 0.00 0.00 0.00 0.00 0.00 0.00 0.00 0.00 0.00 0.00 0.01 0.02 0.02 0.03 0.02 0.03 0.04 0.05 0.04 0.06 0.06
0.09 0.07 0.06 0.08 0.06 0.04 0.04 0.04 0.04 0.07 0.14 0.16 0.17 0.12 0.05 0.02 0.03 0.01 0.00 0.00 0.00 0.00 0.00 0.00 0.00 0.00 0.00 0.00 0.00 0.00 0.00 0.00 0.00 0.02 0.04 0.03 0.05 0.06 0.09 0.07 0.07 0.10 0.09
0.03 0.03 0.04 0.06 0.05 0.03 0.02 0.05 0.11 0.18 0.20 0.13 0.05 0.02 0.01 0.01 0.01 0.00 0.00 0.00 0.00 0.00 0.00 0.00 0.00 0.00 0.00 0.00 0.00 0.01 0.01 0.01 0.02 0.02 0.02 0.01 0.03 0.03 0.05 0.05 0.04 0.04 0.03
0.02 0.02 0.02 0.02 0.03 0.03 0.09 0.16 0.16 0.09 0.04 0.02 0.02 0.00 0.00 0.00 0.00 0.00 0.00 0.00 0.00 0.00 0.00 0.00 0.00 0.00 0.00 0.00 0.00 0.01 0.02 0.02 0.03 0.04 0.03 0.04 0.03 0.02 0.02 0.03 0.04 0.04 0.04
0.01 0.01 0.00 0.02 0.08 0.12 0.09 0.03 0.01 0.01 0.02 0.01 0.00 0.00 0.00 0.00 0.00 0.00 0.00 0.00 0.00 0.00 0.00 0.00 0.00 0.00 0.00 0.00 0.01 0.03 0.04 0.02 0.05 0.06 0.05 0.04 0.03 0.02 0.02 0.03 0.05 0.13 0.10
0.00 0.01 0.02 0.03 0.01 0.00 0.01 0.01 0.01 0.01 0.00 0.00 0.00 0.00 0.00 0.00 0.00 0.00 0.00 0.00 0.00 0.00 0.00 0.00 0.00 0.00 0.00 0.00 0.02 0.03 0.03 0.03 0.07 0.06 0.07 0.08 0.05 0.02 0.01 0.01 0.02 0.09 0.13
0.00 0.00 0.00 0.00 0.00 0.01 0.01 0.00 0.00 0.00 0.00 0.00 0.00 0.00 0.00 0.00 0.00 0.00 0.00 0.00 0.00 0.00 0.00 0.00 0.01 0.00 0.00 0.01 0.03 0.02 0.02 0.05 0.10 0.12 0.09 0.07 0.06 0.06 0.03 0.01 0.01 0.01 0.02
0.00 0.00 0.00 0.00 0.00 0.00 0.00 0.00 0.00 0.00 0.00 0.00 0.00 0.00 0.00 0.00 0.00 0.00 0.00 0.00 0.00 0.00 0.00 0.00 0.01 0.01 0.04 0.05 0.06 0.06 0.09 0.14 0.13 0.13 0.10 0.05 0.04 0.05 0.06 0.08 0.07 0.04 0.05
0.00 0.00 0.00 0.00 0.00 0.00 0.00 0.00 0.00 0.00 0.00 0.00 0.00 0.00 0.00 0.00 0.00 0.00 0.00 0.01 0.01 0.01 0.02 0.03 0.03 0.05 0.09 0.10 0.09 0.10 0.13 0.14 0.15 0.16 0.13 0.10 0.11 0.16 0.16 0.11 0.12 0.10 0.10
0.00 0.00 0.00 0.00 0.00 0.00 0.00 0.00 0.00 0.00 0.00 0.00 0.00 0.00 0.00 0.00 0.00 0.01 0.01 0.02 0.03 0.04 0.06 0.09 0.07 0.06 0.08 0.09 0.09 0.10 0.11 0.12 0.13 0.11 0.12 0.14 0.15 0.16 0.16 0.22 0.23 0.16 0.11
0.00 0.00 0.00 0.00 0.00 0.00 0.00 0.00 0.00 0.00 0.00 0.00 0.00 0.00 0.00 0.00 0.00 0.00 0.01 0.04 0.07 0.08 0.16 0.13 0.09 0.12 0.14 0.13 0.15 0.15 0.14 0.15 0.14 0.19 0.22 0.19 0.20 0.20 0.17 0.13 0.11 0.07 0.04
0.00 0.00 0.00 0.00 0.00 0.00 0.00 0.00 0.00 0.00 0.00 0.00 0.00 0.00 0.00 0.01 0.01 0.01 0.03 0.07 0.07 0.10 0.19 0.15 0.13 0.12 0.12 0.13 0.16 0.18 0.19 0.16 0.16 0.18 0.15 0.12 0.11 0.11 0.09 0.09 0.09 0.06 0.04
0.00 0.00 0.00 0.00 0.00 0.00 0.00 0.01 0.01 0.01 0.01 0.01 0.02 0.02 0.02 0.01 0.01 0.00 0.02 0.04 0.05 0.05 0.07 0.09 0.11 0.09 0.07 0.07 0.09 0.10 0.10 0.12 0.15 0.12 0.11 0.10 0.11 0.11 0.11 0.07 0.08 0.08 0.04
0.00 0.01 0.02 0.05 0.07 0.07 0.05 0.04 0.05 0.07 0.08 0.07 0.05 0.03 0.02 0.03 0.03 0.03 0.03 0.09 0.11 0.08 0.06 0.04 0.03 0.04 0.04 0.05 0.08 0.10 0.11 0.11 0.12 0.14 0.12 0.12 0.13 0.14 0.14 0.12 0.12 0.11 0.11
0.09 0.12 0.12 0.13 0.13 0.13 0.14 0.13 0.12 0.10 0.08 0.06 0.06 0.06 0.06 0.06 0.07 0.08 0.09 0.09 0.06 0.05 0.03 0.03 0.03 0.04 0.07 0.11 0.14 0.17 0.16 0.11 0.11 0.12 0.12 0.13 0.15 0.18 0.19 0.18 0.18 0.19 0.14
0.24 0.25 0.23 0.22 0.22 0.20 0.16 0.12 0.09 0.09 0.08 0.08 0.07 0.07 0.06 0.05 0.06 0.07 0.05 0.05 0.06 0.07 0.06 0.08 0.10 0.14 0.15 0.15 0.15 0.15 0.13 0.11 0.12 0.14 0.13 0.13 0.15 0.15 0.14 0.16 0.14 0.12 0.10
0.34 0.30 0.27 0.22 0.18 0.16 0.12 0.09 0.08 0.09 0.07 0.05 0.04 0.03 0.02 0.02 0.04 0.05 0.05 0.05 0.06 0.10 0.14 0.17 0.15 0.13 0.13 0.15 0.15 0.16 0.14 0.13 0.14 0.15 0.14 0.13 0.12 0.11 0.12 0.12 0.13 0.13 0.12
0.22 0.17 0.14 0.11 0.10 0.09 0.08 0.07 0.06 0.04 0.04 0.04 0.03 0.03 0.03 0.04 0.05 0.05 0.05 0.05 0.04 0.04 0.04 0.05 0.06 0.04 0.05 0.10 0.14 0.17 0.16 0.11 0.13 0.17 0.18 0.15 0.13 0.13 0.14 0.14 0.14 0.13 0.12
0.10 0.09 0.08 0.08 0.07 0.05 0.04 0.04 0.04 0.04 0.04 0.04 0.04 0.04 0.03 0.03 0.03 0.03 0.03 0.03 0.03 0.03 0.04 0.04 0.03 0.03 0.04 0.06 0.09 0.13 0.13 0.12 0.16 0.18 0.19 0.16 0.11 0.11 0.14 0.13 0.13 0.13 0.11
0.05 0.04 0.03 0.03 0.03 0.03 0.03 0.03 0.03 0.02 0.02 0.01 0.02 0.02 0.01 0.02 0.02 0.01 0.02 0.02 0.02 0.03 0.03 0.03 0.03 0.03 0.02 0.03 0.06 0.09 0.12 0.17 0.19 0.19 0.25 0.17 0.11 0.11 0.12 0.12 0.11 0.14 0.13
0.03 0.03 0.02 0.02 0.01 0.01 0.01 0.01 0.01 0.01 0.01 0.01 0.01 0.01 0.01 0.01 0.01 0.01 0.01 0.01 0.02 0.02 0.02 0.02 0.02 0.02 0.03 0.04 0.05 0.09 0.12 0.15 0.19 0.22 0.28 0.23 0.17 0.14 0.14 0.15 0.14 0.16 0.11

GFSGL_prec_precacc24_072.txt.gz
Total_Precipitation_Accumulation
0.07 0.12 0.25 0.30 0.48 0.82 0.78 1.11 0.91 0.88 0.94 0.80 0.60 0.61 0.50 0.40 0.29 0.22 0.19 0.16 0.11 0.07 0.04 0.03 0.01 0.01 0.01 0.00 0.00 0.00 0.00 0.00 0.00 0.00 0.00 0.00 0.00 0.00 0.00 0.00 0.00 0.00 0.00
0.50 0.89 0.78 0.93 1.12 1.05 1.33 1.91 1.30 0.95 0.70 0.47 0.32 0.24 0.21 0.22 0.20 0.13 0.12 0.11 0.09 0.06 0.04 0.03 0.03 0.02 0.02 0.02 0.01 0.01 0.00 0.00 0.00 0.00 0.00 0.00 0.00 0.00 0.00 0.00 0.00 0.00 0.00
0.88 0.86 0.97 1.41 0.92 0.55 0.41 0.34 0.30 0.23 0.16 0.09 0.07 0.08 0.10 0.11 0.16 0.17 0.16 0.14 0.09 0.07 0.04 0.04 0.04 0.03 0.02 0.01 0.01 0.01 0.01 0.00 0.00 0.01 0.00 0.00 0.00 0.00 0.00 0.00 0.00 0.00 0.00
0.61 0.60 0.57 0.56 0.57 0.36 0.29 0.23 0.24 0.21 0.19 0.13 0.11 0.12 0.11 0.12 0.13 0.12 0.09 0.06 0.05 0.05 0.03 0.01 0.01 0.01 0.00 0.00 0.00 0.00 0.00 0.00 0.00 0.01 0.01 0.00 0.00 0.00 0.00 0.00 0.01 0.01 0.01
0.23 0.20 0.19 0.18 0.16 0.14 0.14 0.08 0.07 0.04 0.04 0.07 0.10 0.14 0.13 0.09 0.09 0.07 0.03 0.04 0.05 0.06 0.04 0.01 0.00 0.01 0.01 0.01 0.00 0.00 0.00 0.00 0.01 0.01 0.01 0.01 0.00 0.00 0.01 0.01 0.03 0.02 0.02
0.16 0.14 0.11 0.12 0.13 0.10 0.08 0.09 0.06 0.06 0.08 0.07 0.08 0.11 0.10 0.08 0.15 0.08 0.04 0.02 0.02 0.03 0.01 0.01 0.00 0.01 0.01 0.01 0.00 0.00 0.00 0.00 0.01 0.02 0.02 0.03 0.02 0.03 0.04 0.05 0.04 0.05 0.06
0.08 0.06 0.07 0.10 0.09 0.10 0.06 0.07 0.12 0.12 0.14 0.15 0.18 0.15 0.09 0.05 0.09 0.04 0.05 0.02 0.03 0.02 0.02 0.01 0.00 0.01 0.01 0.00 0.00 0.00 0.00 0.00 0.00 0.02 0.04 0.03 0.05 0.06 0.09 0.07 0.07 0.09 0.08
0.03 0.03 0.04 0.07 0.07 0.05 0.04 0.06 0.10 0.17 0.21 0.16 0.09 0.06 0.05 0.05 0.06 0.03 0.03 0.01 0.02 0.01 0.00 0.00 0.00 0.00 0.00 0.00 0.00 0.01 0.01 0.01 0.02 0.02 0.02 0.01 0.03 0.03 0.05 0.05 0.04 0.04 0.03
0.02 0.02 0.03 0.03 0.04 0.05 0.07 0.11 0.10 0.10 0.07 0.05 0.05 0.03 0.03 0.05 0.06 0.03 0.01 0.00 0.00 0.00 0.00 0.00 0.00 0.00 0.00 0.00 0.00 0.01 0.02 0.02 0.03 0.04 0.03 0.04 0.03 0.02 0.02 0.03 0.04 0.05 0.04
0.01 0.02 0.01 0.01 0.02 0.03 0.04 0.03 0.02 0.02 0.04 0.04 0.04 0.03 0.06 0.04 0.05 0.02 0.01 0.00 0.00 0.00 0.00 0.00 0.00 0.00 0.00 0.00 0.01 0.03 0.04 0.02 0.05 0.06 0.05 0.04 0.03 0.02 0.02 0.03 0.05 0.15 0.11
0.00 0.00 0.00 0.00 0.00 0.01 0.01 0.02 0.02 0.03 0.03 0.04 0.03 0.02 0.03 0.03 0.02 0.01 0.00 0.00 0.00 0.00 0.00 0.00 0.00 0.00 0.00 0.00 0.02 0.03 0.03 0.03 0.07 0.06 0.07 0.08 0.05 0.02 0.01 0.01 0.02 0.09 0.14
0.00 0.00 0.01 0.01 0.01 0.02 0.02 0.02 0.04 0.05 0.04 0.03 0.03 0.02 0.01 0.01 0.00 0.00 0.00 0.00 0.00 0.00 0.00 0.00 0.01 0.00 0.00 0.00 0.03 0.02 0.02 0.05 0.10 0.12 0.09 0.07 0.06 0.06 0.03 0.01 0.01 0.01 0.02
0.00 0.00 0.00 0.02 0.03 0.02 0.03 0.04 0.05 0.04 0.03 0.02 0.01 0.00 0.00 0.00 0.00 0.00 0.00 0.00 0.00 0.00 0.00 0.00 0.01 0.01 0.02 0.03 0.04 0.06 0.09 0.14 0.13 0.13 0.10 0.05 0.04 0.05 0.06 0.08 0.07 0.04 0.05
0.00 0.00 0.00 0.01 0.02 0.02 0.03 0.03 0.02 0.02 0.01 0.00 0.00 0.00 0.00 0.00 0.00 0.00 0.00 0.01 0.01 0.01 0.02 0.03 0.02 0.03 0.04 0.06 0.06 0.08 0.12 0.14 0.15 0.16 0.13 0.10 0.11 0.16 0.16 0.11 0.12 0.10 0.10
0.00 0.00 0.00 0.00 0.01 0.00 0.01 0.02 0.01 0.01 0.00 0.00 0.00 0.00 0.00 0.00 0.00 0.01 0.01 0.02 0.03 0.03 0.06 0.08 0.07 0.05 0.06 0.06 0.06 0.07 0.09 0.10 0.13 0.11 0.12 0.14 0.15 0.16 0.16 0.22 0.23 0.16 0.11
0.00 0.00 0.00 0.00 0.01 0.01 0.01 0.01 0.01 0.00 0.00 0.00 0.00 0.00 0.01 0.01 0.00 0.00 0.01 0.01 0.02 0.03 0.10 0.10 0.09 0.11 0.11 0.11 0.13 0.13 0.12 0.13 0.14 0.19 0.22 0.19 0.20 0.20 0.17 0.13 0.11 0.07 0.04
0.00 0.00 0.00 0.00 0.00 0.00 0.00 0.00 0.00 0.01 0.02 0.03 0.04 0.04 0.03 0.03 0.02 0.01 0.01 0.01 0.01 0.01 0.08 0.10 0.12 0.12 0.11 0.11 0.12 0.15 0.16 0.16 0.16 0.18 0.15 0.12 0.11 0.11 0.09 0.09 0.09 0.06 0.04
0.03 0.07 0.10 0.10 0.08 0.05 0.04 0.05 0.08 0.11 0.12 0.10 0.07 0.04 0.03 0.02 0.01 0.00 0.00 0.01 0.02 0.01 0.03 0.06 0.09 0.08 0.07 0.06 0.06 0.07 0.08 0.11 0.14 0.12 0.11 0.10 0.11 0.12 0.11 0.08 0.08 0.08 0.04
0.07 0.08 0.09 0.13 0.14 0.14 0.13 0.13 0.13 0.13 0.12 0.12 0.12 0.11 0.09 0.09 0.09 0.09 0.07 0.09 0.10 0.10 0.08 0.06 0.05 0.05 0.04 0.04 0.05 0.06 0.08 0.10 0.12 0.14 0.12 0.12 0.13 0.14 0.14 0.12 0.12 0.11 0.11
0.13 0.18 0.18 0.21 0.22 0.21 0.20 0.18 0.17 0.15 0.13 0.12 0.11 0.10 0.11 0.10 0.09 0.08 0.07 0.07 0.08 0.08 0.07 0.06 0.05 0.06 0.07 0.10 0.13 0.14 0.13 0.10 0.11 0.12 0.13 0.14 0.16 0.18 0.19 0.18 0.18 0.19 0.14
0.32 0.35 0.32 0.28 0.27 0.24 0.19 0.15 0.12 0.11 0.11 0.11 0.11 0.11 0.09 0.06 0.05 0.04 0.04 0.04 0.06 0.06 0.06 0.06 0.06 0.06 0.10 0.13 0.12 0.11 0.11 0.11 0.12 0.14 0.13 0.14 0.15 0.15 0.14 0.16 0.14 0.12 0.10
0.39 0.35 0.30 0.25 0.21 0.18 0.15 0.11 0.10 0.10 0.09 0.07 0.06 0.05 0.04 0.03 0.04 0.04 0.04 0.04 0.05 0.06 0.06 0.06 0.08 0.09 0.10 0.10 0.10 0.11 0.12 0.12 0.13 0.15 0.14 0.13 0.12 0.11 0.12 0.12 0.13 0.14 0.12
0.25 0.20 0.16 0.14 0.12 0.11 0.09 0.07 0.06 0.05 0.05 0.05 0.04 0.04 0.04 0.05 0.05 0.04 0.03 0.03 0.02 0.02 0.02 0.03 0.04 0.03 0.03 0.05 0.07 0.11 0.11 0.09 0.12 0.16 0.19 0.15 0.13 0.13 0.14 0.14 0.14 0.14 0.12
0.12 0.11 0.09 0.09 0.08 0.06 0.05 0.05 0.05 0.04 0.04 0.04 0.04 0.04 0.03 0.03 0.03 0.02 0.02 0.02 0.01 0.01 0.01 0.02 0.02 0.02 0.02 0.03 0.04 0.05 0.08 0.09 0.12 0.15 0.19 0.16 0.11 0.11 0.14 0.13 0.13 0.13 0.11
0.06 0.05 0.04 0.04 0.03 0.04 0.04 0.04 0.03 0.02 0.02 0.01 0.02 0.02 0.01 0.02 0.01 0.01 0.01 0.01 0.01 0.01 0.01 0.01 0.02 0.02 0.02 0.02 0.02 0.03 0.05 0.11 0.13 0.13 0.18 0.15 0.11 0.11 0.12 0.12 0.12 0.14 0.13
0.03 0.03 0.02 0.02 0.01 0.01 0.01 0.01 0.01 0.01 0.01 0.01 0.02 0.01 0.01 0.01 0.01 0.01 0.01 0.01 0.01 0.01 0.01 0.01 0.01 0.02 0.02 0.02 0.02 0.04 0.05 0.08 0.13 0.17 0.23 0.18 0.14 0.12 0.13 0.15 0.14 0.16 0.11

GFSGL_prec_precacc24_075.txt.gz
Total_Precipitation_Accumulation
0.04 0.06 0.18 0.23 0.38 0.71 0.67 1.02 0.85 0.85 0.93 0.79 0.59 0.59 0.50 0.41 0.34 0.29 0.23 0.19 0.16 0.11 0.07 0.06 0.04 0.03 0.01 0.01 0.01 0.00 0.00 0.00 0.00 0.00 0.00 0.00 0.00 0.00 0.00 0.00 0.00 0.00 0.00
0.50 0.81 0.68 0.80 0.99 0.94 1.25 1.86 1.27 0.94 0.69 0.46 0.31 0.23 0.23 0.27 0.29 0.21 0.17 0.15 0.15 0.13 0.12 0.10 0.07 0.04 0.02 0.02 0.01 0.01 0.01 0.00 0.00 0.00 0.00 0.00 0.00 0.00 0.00 0.00 0.00 0.00 0.00
0.87 0.80 0.85 1.32 0.83 0.48 0.36 0.32 0.30 0.22 0.16 0.09 0.06 0.07 0.07 0.10 0.16 0.25 0.29 0.27 0.22 0.14 0.12 0.11 0.10 0.08 0.03 0.01 0.01 0.01 0.01 0.01 0.01 0.01 0.00 0.00 0.00 0.00 0.00 0.00 0.00 0.00 0.00
0.57 0.55 0.51 0.48 0.49 0.32 0.27 0.23 0.24 0.21 0.19 0.13 0.11 0.11 0.11 0.12 0.14 0.12 0.10 0.08 0.07 0.07 0.08 0.09 0.08 0.07 0.04 0.02 0.01 0.01 0.01 0.01 0.01 0.01 0.01 0.00 0.00 0.00 0.00 0.00 0.01 0.01 0.01
0.21 0.19 0.17 0.18 0.15 0.13 0.14 0.08 0.07 0.04 0.04 0.07 0.09 0.13 0.15 0.12 0.12 0.11 0.06 0.05 0.06 0.08 0.07 0.06 0.05 0.08 0.06 0.02 0.00 0.00 0.00 0.01 0.01 0.01 0.01 0.01 0.00 0.00 0.01 0.01 0.03 0.02 0.02
0.16 0.13 0.11 0.12 0.13 0.10 0.08 0.09 0.06 0.05 0.07 0.07 0.07 0.10 0.09 0.09 0.17 0.11 0.06 0.03 0.04 0.05 0.04 0.04 0.06 0.10 0.05 0.03 0.01 0.00 0.00 0.00 0.01 0.02 0.02 0.03 0.02 0.03 0.04 0.05 0.04 0.05 0.06
0.08 0.06 0.07 0.10 0.09 0.10 0.08 0.08 0.13 0.11 0.11 0.10 0.11 0.10 0.07 0.07 0.13 0.07 0.07 0.03 0.05 0.04 0.04 0.03 0.02 0.03 0.04 0.00 0.00 0.01 0.00 0.00 0.00 0.02 0.04 0.03 0.05 0.06 0.09 0.07 0.07 0.09 0.08
0.03 0.03 0.04 0.07 0.07 0.05 0.05 0.05 0.08 0.12 0.12 0.09 0.07 0.09 0.09 0.10 0.12 0.06 0.05 0.01 0.03 0.03 0.03 0.03 0.02 0.01 0.01 0.00 0.00 0.01 0.01 0.01 0.02 0.02 0.02 0.01 0.03 0.03 0.05 0.05 0.04 0.04 0.03
0.02 0.02 0.03 0.03 0.04 0.04 0.05 0.08 0.05 0.07 0.09 0.07 0.06 0.05 0.06 0.09 0.11 0.06 0.05 0.03 0.05 0.05 0.05 0.03 0.01 0.00 0.01 0.01 0.00 0.01 0.02 0.02 0.03 0.04 0.03 0.04 0.03 0.02 0.02 0.03 0.04 0.05 0.04
0.01 0.02 0.01 0.01 0.01 0.03 0.03 0.03 0.03 0.04 0.06 0.06 0.06 0.05 0.10 0.07 0.12 0.08 0.08 0.06 0.08 0.06 0.02 0.01 0.02 0.00 0.01 0.00 0.01 0.02 0.03 0.02 0.05 0.06 0.05 0.04 0.03 0.02 0.02 0.03 0.05 0.15 0.11
0.00 0.00 0.01 0.01 0.02 0.03 0.03 0.02 0.03 0.04 0.05 0.05 0.05 0.05 0.08 0.09 0.11 0.11 0.09 0.07 0.06 0.02 0.00 0.00 0.00 0.01 0.00 0.00 0.01 0.02 0.02 0.03 0.07 0.06 0.07 0.08 0.05 0.02 0.01 0.01 0.02 0.09 0.14
0.00 0.01 0.02 0.05 0.06 0.05 0.04 0.03 0.04 0.05 0.06 0.06 0.06 0.07 0.06 0.08 0.10 0.09 0.07 0.05 0.01 0.00 0.00 0.00 0.01 0.00 0.00 0.00 0.01 0.01 0.01 0.03 0.10 0.12 0.09 0.07 0.06 0.06 0.03 0.01 0.01 0.01 0.02
0.01 0.01 0.03 0.03 0.04 0.03 0.04 0.05 0.06 0.06 0.06 0.06 0.06 0.06 0.06 0.06 0.07 0.07 0.03 0.01 0.00 0.00 0.00 0.00 0.00 0.01 0.02 0.03 0.03 0.04 0.05 0.09 0.11 0.12 0.10 0.05 0.04 0.05 0.06 0.08 0.07 0.04 0.05
0.02 0.01 0.01 0.02 0.03 0.02 0.04 0.04 0.05 0.05 0.06 0.07 0.09 0.09 0.09 0.07 0.04 0.01 0.01 0.01 0.01 0.01 0.01 0.01 0.00 0.01 0.02 0.05 0.06 0.06 0.07 0.10 0.13 0.14 0.12 0.10 0.11 0.16 0.16 0.11 0.12 0.10 0.10
0.00 0.00 0.00 0.01 0.02 0.00 0.02 0.05 0.05 0.05 0.08 0.07 0.06 0.04 0.04 0.03 0.01 0.01 0.00 0.01 0.01 0.02 0.02 0.03 0.04 0.03 0.04 0.05 0.06 0.06 0.06 0.06 0.08 0.09 0.12 0.14 0.15 0.16 0.16 0.22 0.23 0.16 0.11
0.00 0.00 0.00 0.00 0.01 0.01 0.02 0.05 0.07 0.05 0.07 0.05 0.04 0.03 0.04 0.04 0.04 0.05 0.05 0.03 0.01 0.01 0.02 0.04 0.05 0.07 0.08 0.09 0.12 0.12 0.10 0.10 0.12 0.17 0.21 0.19 0.20 0.20 0.17 0.13 0.11 0.07 0.04
0.00 0.00 0.00 0.00 0.00 0.01 0.01 0.02 0.03 0.09 0.12 0.16 0.18 0.18 0.14 0.13 0.10 0.06 0.03 0.01 0.00 0.00 0.02 0.03 0.04 0.06 0.08 0.09 0.12 0.14 0.15 0.13 0.11 0.12 0.13 0.11 0.11 0.11 0.09 0.09 0.09 0.06 0.04
0.05 0.10 0.12 0.12 0.10 0.10 0.11 0.15 0.18 0.21 0.23 0.22 0.17 0.11 0.07 0.04 0.02 0.01 0.01 0.01 0.02 0.01 0.02 0.02 0.05 0.06 0.05 0.06 0.06 0.07 0.08 0.08 0.10 0.10 0.11 0.10 0.11 0.12 0.11 0.08 0.08 0.08 0.04
0.22 0.19 0.15 0.17 0.19 0.19 0.19 0.20 0.19 0.18 0.16 0.15 0.15 0.14 0.12 0.11 0.10 0.10 0.09 0.08 0.07 0.05 0.04 0.03 0.04 0.05 0.05 0.04 0.05 0.05 0.06 0.07 0.09 0.12 0.12 0.12 0.12 0.14 0.14 0.12 0.12 0.11 0.11
0.20 0.27 0.26 0.27 0.30 0.29 0.27 0.23 0.19 0.16 0.14 0.13 0.12 0.12 0.12 0.10 0.10 0.09 0.08 0.07 0.07 0.06 0.06 0.06 0.06 0.06 0.07 0.07 0.08 0.10 0.10 0.09 0.09 0.11 0.12 0.13 0.16 0.18 0.20 0.18 0.18 0.19 0.14
0.42 0.44 0.40 0.35 0.32 0.27 0.22 0.17 0.14 0.13 0.13 0.13 0.13 0.13 0.11 0.07 0.06 0.05 0.05 0.05 0.06 0.06 0.06 0.06 0.06 0.05 0.05 0.05 0.06 0.07 0.09 0.09 0.10 0.12 0.12 0.13 0.15 0.15 0.14 0.16 0.15 0.12 0.10
0.45 0.40 0.35 0.29 0.24 0.20 0.16 0.13 0.11 0.11 0.10 0.08 0.08 0.07 0.05 0.04 0.05 0.06 0.06 0.06 0.05 0.04 0.04 0.03 0.03 0.02 0.04 0.06 0.06 0.07 0.08 0.09 0.11 0.12 0.12 0.12 0.12 0.12 0.12 0.13 0.13 0.14 0.12
0.27 0.22 0.17 0.15 0.13 0.12 0.10 0.08 0.07 0.06 0.06 0.06 0.05 0.05 0.05 0.05 0.05 0.05 0.04 0.04 0.02 0.02 0.01 0.01 0.01 0.01 0.01 0.03 0.05 0.06 0.07 0.06 0.09 0.12 0.15 0.14 0.13 0.13 0.14 0.15 0.15 0.14 0.13
0.13 0.12 0.11 0.10 0.09 0.06 0.05 0.05 0.05 0.04 0.05 0.05 0.04 0.04 0.03 0.03 0.03 0.02 0.02 0.02 0.01 0.01 0.01 0.01 0.01 0.01 0.01 0.02 0.03 0.03 0.04 0.04 0.06 0.09 0.15 0.15 0.11 0.11 0.14 0.14 0.13 0.14 0.12
0.07 0.05 0.04 0.04 0.03 0.04 0.04 0.04 0.03 0.02 0.02 0.01 0.02 0.02 0.02 0.02 0.01 0.01 0.01 0.01 0.01 0.01 0.01 0.00 0.01 0.01 0.01 0.01 0.01 0.02 0.03 0.05 0.06 0.08 0.12 0.12 0.11 0.11 0.12 0.13 0.12 0.15 0.14
0.03 0.03 0.02 0.02 0.01 0.01 0.01 0.01 0.01 0.01 0.01 0.01 0.02 0.01 0.01 0.01 0.01 0.01 0.01 0.01 0.01 0.01 0.01 0.01 0.00 0.00 0.01 0.01 0.01 0.03 0.02 0.03 0.05 0.10 0.19 0.14 0.11 0.11 0.13 0.14 0.13 0.16 0.11

GFSGL_prec_precacc24_078.txt.gz
Total_Precipitation_Accumulation
0.04 0.06 0.17 0.20 0.35 0.67 0.62 0.96 0.80 0.81 0.90 0.76 0.57 0.58 0.49 0.38 0.29 0.24 0.21 0.17 0.15 0.13 0.09 0.08 0.08 0.07 0.06 0.05 0.05 0.02 0.01 0.00 0.00 0.00 0.00 0.00 0.00 0.00 0.00 0.00 0.00 0.00 0.00
0.52 0.81 0.67 0.79 0.94 0.89 1.20 1.81 1.25 0.92 0.68 0.45 0.30 0.22 0.21 0.24 0.26 0.19 0.14 0.15 0.16 0.16 0.17 0.22 0.25 0.23 0.19 0.12 0.07 0.02 0.01 0.00 0.00 0.00 0.00 0.00 0.00 0.00 0.00 0.00 0.00 0.00 0.00
0.88 0.81 0.85 1.30 0.79 0.43 0.32 0.30 0.28 0.22 0.16 0.09 0.06 0.06 0.06 0.06 0.09 0.18 0.26 0.27 0.27 0.24 0.23 0.25 0.28 0.27 0.20 0.13 0.12 0.09 0.02 0.01 0.01 0.01 0.01 0.00 0.00 0.00 0.00 0.00 0.00 0.00 0.00
0.57 0.55 0.50 0.47 0.48 0.31 0.26 0.22 0.23 0.20 0.19 0.13 0.10 0.11 0.09 0.08 0.08 0.09 0.10 0.08 0.08 0.12 0.17 0.19 0.19 0.15 0.12 0.06 0.04 0.03 0.02 0.02 0.01 0.01 0.01 0.00 0.00 0.00 0.00 0.00 0.01 0.01 0.01
0.19 0.17 0.17 0.17 0.15 0.13 0.14 0.08 0.07 0.04 0.04 0.07 0.09 0.11 0.12 0.11 0.13 0.11 0.08 0.07 0.07 0.08 0.07 0.06 0.05 0.10 0.10 0.07 0.06 0.05 0.05 0.06 0.03 0.01 0.01 0.01 0.00 0.00 0.01 0.01 0.03 0.02 0.02
0.16 0.13 0.11 0.12 0.13 0.10 0.08 0.09 0.06 0.05 0.07 0.06 0.06 0.07 0.07 0.07 0.16 0.11 0.06 0.04 0.04 0.06 0.05 0.05 0.07 0.14 0.09 0.10 0.09 0.07 0.04 0.02 0.01 0.02 0.02 0.03 0.02 0.03 0.04 0.05 0.04 0.05 0.06
0.08 0.06 0.07 0.10 0.09 0.10 0.08 0.08 0.13 0.13 0.11 0.09 0.09 0.07 0.07 0.06 0.13 0.07 0.08 0.04 0.06 0.07 0.07 0.06 0.05 0.06 0.09 0.02 0.03 0.02 0.01 0.01 0.00 0.02 0.03 0.03 0.05 0.06 0.09 0.07 0.07 0.09 0.08
0.03 0.03 0.04 0.07 0.07 0.05 0.05 0.04 0.06 0.11 0.13 0.10 0.09 0.10 0.10 0.11 0.14 0.08 0.09 0.03 0.04 0.05 0.05 0.06 0.06 0.05 0.06 0.05 0.04 0.04 0.03 0.02 0.02 0.02 0.02 0.01 0.03 0.03 0.05 0.05 0.04 0.04 0.03
0.02 0.02 0.03 0.03 0.04 0.04 0.05 0.07 0.05 0.07 0.09 0.08 0.08 0.06 0.07 0.11 0.16 0.10 0.09 0.04 0.07 0.08 0.08 0.11 0.13 0.13 0.19 0.16 0.11 0.04 0.01 0.01 0.03 0.04 0.03 0.04 0.03 0.02 0.02 0.03 0.04 0.05 0.04
0.01 0.02 0.01 0.01 0.01 0.03 0.03 0.03 0.03 0.04 0.07 0.06 0.06 0.06 0.14 0.09 0.18 0.12 0.10 0.06 0.09 0.11 0.10 0.10 0.13 0.08 0.11 0.06 0.02 0.02 0.02 0.01 0.04 0.05 0.05 0.04 0.03 0.02 0.02 0.03 0.05 0.15 0.11
0.00 0.00 0.01 0.01 0.02 0.03 0.05 0.04 0.04 0.04 0.05 0.05 0.05 0.06 0.09 0.11 0.14 0.15 0.12 0.08 0.08 0.08 0.08 0.07 0.07 0.09 0.05 0.03 0.01 0.02 0.02 0.02 0.05 0.06 0.06 0.08 0.05 0.02 0.01 0.01 0.02 0.09 0.14
0.00 0.01 0.02 0.05 0.06 0.06 0.05 0.05 0.06 0.06 0.06 0.06 0.06 0.07 0.07 0.09 0.16 0.14 0.12 0.12 0.13 0.10 0.09 0.08 0.07 0.06 0.01 0.00 0.00 0.00 0.01 0.02 0.04 0.07 0.07 0.06 0.06 0.06 0.03 0.01 0.01 0.01 0.02
0.01 0.02 0.04 0.05 0.06 0.06 0.08 0.08 0.07 0.06 0.06 0.06 0.06 0.06 0.07 0.08 0.12 0.15 0.11 0.10 0.08 0.06 0.06 0.06 0.04 0.01 0.00 0.00 0.00 0.01 0.04 0.06 0.08 0.08 0.07 0.04 0.04 0.05 0.06 0.08 0.07 0.04 0.05
0.02 0.01 0.01 0.03 0.05 0.03 0.04 0.04 0.05 0.05 0.06 0.08 0.09 0.10 0.13 0.15 0.14 0.14 0.12 0.11 0.10 0.08 0.05 0.02 0.00 0.00 0.00 0.01 0.01 0.01 0.02 0.05 0.10 0.12 0.11 0.09 0.10 0.15 0.16 0.11 0.12 0.10 0.10
0.01 0.01 0.01 0.01 0.03 0.01 0.02 0.05 0.05 0.06 0.10 0.08 0.07 0.07 0.08 0.10 0.13 0.13 0.10 0.08 0.06 0.05 0.03 0.02 0.02 0.03 0.03 0.04 0.04 0.03 0.03 0.04 0.07 0.07 0.09 0.10 0.12 0.15 0.16 0.22 0.23 0.16 0.11
0.00 0.00 0.01 0.01 0.02 0.02 0.03 0.06 0.09 0.07 0.09 0.08 0.10 0.12 0.18 0.18 0.20 0.20 0.17 0.12 0.06 0.04 0.05 0.05 0.04 0.04 0.03 0.03 0.04 0.05 0.06 0.09 0.11 0.16 0.19 0.17 0.18 0.19 0.16 0.13 0.10 0.07 0.04
0.02 0.01 0.01 0.01 0.01 0.02 0.03 0.03 0.04 0.13 0.19 0.27 0.32 0.33 0.25 0.25 0.21 0.16 0.11 0.08 0.05 0.03 0.02 0.02 0.02 0.01 0.01 0.02 0.06 0.08 0.12 0.13 0.11 0.11 0.09 0.08 0.08 0.08 0.08 0.09 0.08 0.06 0.04
0.34 0.34 0.34 0.31 0.27 0.25 0.22 0.20 0.21 0.25 0.28 0.32 0.28 0.20 0.14 0.11 0.08 0.06 0.05 0.04 0.04 0.02 0.01 0.01 0.01 0.01 0.01 0.01 0.02 0.04 0.06 0.08 0.09 0.08 0.08 0.07 0.08 0.10 0.10 0.07 0.07 0.08 0.04
0.50 0.49 0.47 0.42 0.36 0.30 0.25 0.24 0.23 0.22 0.20 0.20 0.21 0.20 0.17 0.15 0.14 0.12 0.09 0.08 0.07 0.05 0.04 0.03 0.03 0.04 0.03 0.03 0.03 0.04 0.04 0.05 0.06 0.08 0.09 0.09 0.10 0.12 0.13 0.12 0.12 0.11 0.11
0.36 0.43 0.39 0.39 0.42 0.38 0.34 0.29 0.26 0.22 0.20 0.18 0.16 0.15 0.14 0.12 0.11 0.09 0.08 0.07 0.07 0.06 0.06 0.06 0.06 0.05 0.05 0.05 0.05 0.06 0.04 0.03 0.06 0.08 0.10 0.11 0.12 0.16 0.19 0.18 0.18 0.19 0.14
0.61 0.64 0.58 0.50 0.47 0.40 0.31 0.24 0.19 0.17 0.16 0.16 0.16 0.15 0.12 0.07 0.06 0.05 0.05 0.05 0.06 0.06 0.06 0.06 0.06 0.05 0.04 0.04 0.04 0.03 0.03 0.04 0.06 0.10 0.09 0.09 0.11 0.13 0.14 0.16 0.15 0.13 0.11
0.54 0.50 0.44 0.37 0.31 0.26 0.21 0.16 0.14 0.13 0.12 0.09 0.09 0.07 0.05 0.05 0.05 0.06 0.06 0.06 0.06 0.05 0.04 0.03 0.03 0.02 0.02 0.02 0.02 0.03 0.05 0.06 0.07 0.08 0.07 0.06 0.08 0.10 0.12 0.13 0.13 0.14 0.13
0.33 0.27 0.22 0.19 0.16 0.14 0.11 0.10 0.08 0.07 0.06 0.06 0.05 0.05 0.05 0.06 0.06 0.05 0.04 0.04 0.03 0.02 0.01 0.01 0.01 0.01 0.00 0.01 0.02 0.03 0.05 0.04 0.06 0.08 0.09 0.08 0.09 0.11 0.14 0.15 0.14 0.14 0.13
0.15 0.14 0.12 0.11 0.10 0.07 0.06 0.06 0.05 0.05 0.05 0.05 0.05 0.04 0.04 0.03 0.03 0.02 0.02 0.02 0.01 0.01 0.01 0.01 0.01 0.00 0.01 0.01 0.01 0.01 0.02 0.02 0.05 0.07 0.10 0.09 0.06 0.08 0.13 0.14 0.13 0.14 0.13
0.07 0.05 0.04 0.04 0.03 0.04 0.04 0.04 0.03 0.03 0.02 0.02 0.02 0.02 0.02 0.02 0.01 0.01 0.01 0.01 0.00 0.01 0.01 0.00 0.01 0.01 0.01 0.00 0.00 0.01 0.02 0.04 0.05 0.05 0.07 0.07 0.06 0.07 0.11 0.13 0.12 0.15 0.14
0.03 0.03 0.02 0.02 0.01 0.01 0.01 0.01 0.01 0.01 0.01 0.01 0.02 0.01 0.01 0.01 0.01 0.01 0.00 0.00 0.01 0.00 0.00 0.00 0.00 0.00 0.00 0.01 0.01 0.02 0.01 0.02 0.03 0.06 0.13 0.09 0.07 0.08 0.11 0.14 0.13 0.16 0.12

GFSGL_prec_precacc24_081.txt.gz
Total_Precipitation_Accumulation
0.04 0.05 0.13 0.14 0.33 0.66 0.61 0.95 0.79 0.80 0.89 0.75 0.55 0.54 0.45 0.36 0.27 0.22 0.18 0.16 0.12 0.13 0.12 0.11 0.10 0.09 0.08 0.07 0.07 0.07 0.07 0.06 0.05 0.02 0.01 0.00 0.00 0.00 0.00 0.00 0.00 0.00 0.00
0.52 0.80 0.65 0.76 0.92 0.87 1.20 1.81 1.24 0.92 0.68 0.45 0.29 0.21 0.20 0.22 0.24 0.17 0.13 0.12 0.14 0.16 0.18 0.23 0.25 0.24 0.21 0.17 0.15 0.15 0.15 0.12 0.10 0.05 0.01 0.00 0.00 0.00 0.00 0.00 0.00 0.00 0.00
0.88 0.80 0.83 1.28 0.78 0.43 0.32 0.29 0.28 0.21 0.15 0.08 0.05 0.05 0.06 0.06 0.08 0.16 0.23 0.24 0.26 0.24 0.23 0.26 0.29 0.30 0.28 0.26 0.27 0.26 0.21 0.15 0.09 0.07 0.02 0.00 0.00 0.00 0.00 0.00 0.00 0.00 0.00
0.57 0.55 0.50 0.45 0.47 0.30 0.26 0.22 0.23 0.20 0.18 0.12 0.10 0.10 0.08 0.06 0.07 0.07 0.08 0.08 0.09 0.13 0.17 0.20 0.19 0.18 0.17 0.14 0.12 0.10 0.09 0.09 0.09 0.08 0.03 0.01 0.01 0.00 0.00 0.00 0.01 0.01 0.01
0.18 0.16 0.15 0.17 0.14 0.13 0.13 0.08 0.07 0.04 0.04 0.07 0.09 0.11 0.12 0.10 0.11 0.09 0.07 0.07 0.07 0.08 0.08 0.07 0.05 0.11 0.11 0.08 0.07 0.06 0.07 0.10 0.10 0.09 0.06 0.05 0.03 0.01 0.01 0.01 0.02 0.02 0.02
0.10 0.11 0.10 0.11 0.13 0.10 0.09 0.10 0.06 0.05 0.07 0.06 0.06 0.07 0.06 0.07 0.15 0.10 0.06 0.04 0.04 0.06 0.05 0.05 0.07 0.16 0.11 0.13 0.13 0.13 0.09 0.07 0.07 0.09 0.08 0.03 0.02 0.02 0.04 0.04 0.04 0.05 0.06
0.08 0.06 0.07 0.10 0.09 0.10 0.08 0.09 0.14 0.14 0.12 0.09 0.09 0.07 0.07 0.06 0.12 0.07 0.08 0.04 0.06 0.07 0.07 0.06 0.06 0.08 0.12 0.04 0.07 0.09 0.07 0.07 0.06 0.05 0.06 0.06 0.05 0.05 0.08 0.07 0.07 0.09 0.08
0.03 0.03 0.04 0.07 0.07 0.05 0.05 0.04 0.07 0.12 0.13 0.10 0.09 0.11 0.10 0.11 0.14 0.09 0.10 0.03 0.04 0.05 0.06 0.06 0.08 0.08 0.11 0.10 0.08 0.09 0.10 0.12 0.14 0.17 0.16 0.12 0.05 0.02 0.05 0.05 0.04 0.04 0.03
0.02 0.02 0.03 0.03 0.04 0.04 0.05 0.07 0.05 0.07 0.09 0.08 0.09 0.09 0.09 0.12 0.19 0.13 0.11 0.05 0.08 0.09 0.10 0.14 0.18 0.16 0.29 0.24 0.16 0.16 0.16 0.14 0.13 0.12 0.09 0.07 0.04 0.02 0.02 0.03 0.04 0.05 0.04
0.01 0.02 0.01 0.01 0.01 0.03 0.03 0.03 0.03 0.04 0.07 0.06 0.07 0.07 0.16 0.11 0.22 0.16 0.13 0.07 0.10 0.12 0.12 0.14 0.23 0.14 0.23 0.14 0.09 0.07 0.09 0.10 0.10 0.09 0.07 0.04 0.03 0.02 0.02 0.03 0.05 0.15 0.11
0.00 0.00 0.01 0.01 0.02 0.03 0.05 0.04 0.04 0.04 0.05 0.07 0.07 0.07 0.10 0.15 0.18 0.19 0.16 0.10 0.08 0.10 0.12 0.13 0.16 0.22 0.14 0.11 0.09 0.06 0.07 0.07 0.04 0.03 0.03 0.05 0.05 0.02 0.01 0.01 0.02 0.09 0.14
0.00 0.01 0.02 0.05 0.06 0.06 0.05 0.06 0.08 0.08 0.08 0.07 0.07 0.09 0.08 0.10 0.19 0.17 0.15 0.15 0.17 0.12 0.15 0.16 0.20 0.24 0.15 0.12 0.11 0.09 0.09 0.06 0.04 0.02 0.02 0.02 0.04 0.05 0.03 0.01 0.01 0.01 0.02
0.01 0.02 0.04 0.05 0.06 0.06 0.08 0.10 0.11 0.10 0.09 0.09 0.08 0.08 0.08 0.08 0.13 0.16 0.13 0.12 0.11 0.09 0.10 0.15 0.19 0.18 0.12 0.10 0.09 0.06 0.04 0.02 0.01 0.02 0.03 0.02 0.03 0.04 0.05 0.07 0.07 0.04 0.05
0.02 0.01 0.02 0.04 0.09 0.06 0.08 0.08 0.09 0.08 0.08 0.10 0.12 0.13 0.14 0.15 0.15 0.15 0.14 0.14 0.14 0.15 0.18 0.21 0.20 0.16 0.13 0.11 0.08 0.05 0.03 0.02 0.03 0.05 0.05 0.06 0.08 0.11 0.15 0.11 0.11 0.10 0.10
0.04 0.05 0.04 0.04 0.06 0.04 0.06 0.11 0.12 0.12 0.16 0.12 0.10 0.10 0.10 0.11 0.16 0.17 0.14 0.13 0.14 0.15 0.15 0.13 0.12 0.11 0.10 0.06 0.03 0.01 0.01 0.02 0.03 0.04 0.05 0.08 0.09 0.12 0.14 0.21 0.22 0.16 0.10
0.06 0.06 0.10 0.08 0.06 0.06 0.07 0.11 0.15 0.14 0.16 0.14 0.17 0.17 0.24 0.24 0.28 0.27 0.25 0.19 0.14 0.11 0.11 0.11 0.09 0.07 0.04 0.03 0.02 0.01 0.01 0.03 0.04 0.09 0.16 0.16 0.16 0.16 0.15 0.11 0.09 0.06 0.04
0.09 0.09 0.08 0.07 0.06 0.04 0.04 0.05 0.09 0.22 0.32 0.43 0.50 0.52 0.42 0.39 0.31 0.24 0.18 0.15 0.11 0.08 0.06 0.06 0.06 0.06 0.04 0.02 0.01 0.01 0.02 0.05 0.09 0.10 0.08 0.07 0.06 0.05 0.04 0.06 0.06 0.06 0.04
0.77 0.82 0.75 0.65 0.51 0.46 0.46 0.47 0.49 0.52 0.55 0.61 0.54 0.40 0.29 0.21 0.16 0.11 0.08 0.06 0.06 0.05 0.04 0.04 0.03 0.02 0.01 0.01 0.01 0.01 0.02 0.02 0.04 0.06 0.07 0.06 0.05 0.06 0.06 0.05 0.05 0.07 0.04
0.71 0.79 0.78 0.77 0.71 0.62 0.52 0.47 0.43 0.40 0.36 0.36 0.36 0.32 0.26 0.21 0.18 0.16 0.13 0.10 0.08 0.05 0.04 0.03 0.04 0.04 0.04 0.03 0.03 0.03 0.03 0.03 0.03 0.04 0.04 0.06 0.07 0.08 0.08 0.08 0.10 0.10 0.11
0.43 0.54 0.51 0.55 0.61 0.55 0.51 0.45 0.42 0.38 0.34 0.31 0.29 0.26 0.23 0.18 0.15 0.12 0.11 0.09 0.07 0.07 0.06 0.06 0.06 0.05 0.05 0.04 0.04 0.05 0.03 0.02 0.03 0.03 0.04 0.08 0.11 0.14 0.15 0.13 0.16 0.18 0.14
0.69 0.74 0.69 0.61 0.58 0.53 0.44 0.37 0.31 0.26 0.24 0.22 0.23 0.22 0.17 0.11 0.09 0.07 0.06 0.06 0.06 0.06 0.06 0.06 0.06 0.05 0.04 0.03 0.03 0.02 0.02 0.02 0.02 0.03 0.04 0.03 0.06 0.08 0.08 0.11 0.13 0.12 0.11
0.59 0.56 0.50 0.45 0.40 0.35 0.31 0.25 0.22 0.20 0.17 0.14 0.12 0.09 0.07 0.06 0.06 0.06 0.06 0.06 0.06 0.05 0.04 0.03 0.02 0.02 0.02 0.02 0.01 0.02 0.02 0.02 0.02 0.03 0.04 0.04 0.04 0.04 0.06 0.09 0.12 0.14 0.13
0.36 0.30 0.25 0.23 0.21 0.19 0.17 0.15 0.13 0.11 0.10 0.09 0.07 0.06 0.06 0.06 0.06 0.05 0.05 0.04 0.03 0.02 0.01 0.01 0.01 0.00 0.00 0.01 0.01 0.02 0.03 0.02 0.03 0.04 0.07 0.06 0.05 0.05 0.08 0.12 0.12 0.14 0.13
0.16 0.15 0.13 0.13 0.11 0.09 0.07 0.07 0.06 0.05 0.05 0.05 0.05 0.04 0.04 0.03 0.03 0.02 0.02 0.02 0.01 0.01 0.01 0.01 0.00 0.00 0.00 0.01 0.01 0.01 0.01 0.01 0.04 0.06 0.08 0.07 0.04 0.03 0.07 0.09 0.11 0.14 0.13
0.07 0.05 0.04 0.04 0.03 0.04 0.04 0.03 0.03 0.02 0.02 0.02 0.02 0.02 0.02 0.02 0.01 0.01 0.01 0.01 0.00 0.00 0.00 0.00 0.00 0.00 0.00 0.00 0.00 0.00 0.01 0.03 0.03 0.03 0.06 0.06 0.04 0.03 0.05 0.08 0.10 0.15 0.14
0.03 0.03 0.02 0.02 0.01 0.00 0.01 0.00 0.01 0.00 0.01 0.01 0.02 0.01 0.01 0.01 0.01 0.01 0.00 0.00 0.01 0.00 0.00 0.00 0.00 0.00 0.00 0.00 0.00 0.01 0.01 0.01 0.02 0.04 0.11 0.07 0.05 0.04 0.05 0.08 0.09 0.15 0.11

GFSGL_prec_precacc24_087.txt.gz
Total_Precipitation_Accumulation
0.00 0.00 0.00 0.00 0.02 0.18 0.23 0.29 0.43 0.60 0.77 0.69 0.54 0.53 0.42 0.32 0.23 0.16 0.12 0.11 0.11 0.11 0.11 0.12 0.11 0.12 0.13 0.12 0.13 0.15 0.12 0.09 0.07 0.03 0.02 0.00 0.00 0.00 0.00 0.00 0.00 0.00 0.00
0.28 0.14 0.10 0.08 0.31 0.29 0.51 1.21 1.03 0.85 0.59 0.41 0.28 0.17 0.15 0.16 0.19 0.16 0.12 0.11 0.13 0.15 0.18 0.25 0.25 0.26 0.23 0.19 0.17 0.17 0.16 0.15 0.16 0.12 0.06 0.04 0.03 0.02 0.01 0.00 0.00 0.00 0.00
0.25 0.32 0.42 0.70 0.50 0.20 0.19 0.21 0.23 0.17 0.13 0.06 0.03 0.04 0.05 0.05 0.07 0.13 0.19 0.22 0.25 0.23 0.23 0.26 0.29 0.32 0.29 0.27 0.29 0.28 0.23 0.21 0.19 0.18 0.11 0.05 0.04 0.02 0.01 0.00 0.00 0.00 0.00
0.29 0.30 0.33 0.33 0.37 0.27 0.21 0.18 0.20 0.19 0.17 0.12 0.10 0.10 0.06 0.04 0.04 0.05 0.07 0.07 0.08 0.12 0.17 0.20 0.19 0.19 0.17 0.15 0.13 0.12 0.14 0.16 0.17 0.19 0.17 0.10 0.06 0.04 0.03 0.02 0.01 0.01 0.01
0.09 0.10 0.10 0.14 0.09 0.09 0.10 0.06 0.05 0.03 0.03 0.07 0.09 0.11 0.11 0.10 0.10 0.09 0.07 0.07 0.07 0.08 0.08 0.07 0.05 0.11 0.12 0.09 0.10 0.10 0.13 0.16 0.16 0.16 0.17 0.16 0.12 0.11 0.10 0.08 0.09 0.07 0.05
0.04 0.05 0.06 0.09 0.12 0.08 0.08 0.10 0.06 0.05 0.07 0.06 0.06 0.07 0.06 0.06 0.14 0.10 0.06 0.04 0.04 0.06 0.05 0.05 0.07 0.16 0.11 0.15 0.15 0.16 0.14 0.12 0.12 0.16 0.19 0.22 0.19 0.15 0.15 0.17 0.15 0.18 0.19
0.03 0.05 0.06 0.10 0.08 0.09 0.08 0.09 0.14 0.16 0.12 0.09 0.09 0.07 0.07 0.06 0.12 0.08 0.08 0.04 0.06 0.07 0.07 0.06 0.06 0.08 0.12 0.04 0.09 0.16 0.17 0.21 0.20 0.20 0.23 0.24 0.25 0.24 0.28 0.36 0.37 0.32 0.27
0.05 0.04 0.04 0.07 0.09 0.09 0.05 0.04 0.07 0.12 0.14 0.11 0.11 0.12 0.10 0.11 0.14 0.09 0.11 0.04 0.04 0.06 0.06 0.06 0.08 0.09 0.11 0.11 0.10 0.15 0.17 0.23 0.29 0.32 0.35 0.38 0.37 0.35 0.32 0.31 0.28 0.26 0.22
0.05 0.06 0.04 0.04 0.06 0.07 0.06 0.07 0.05 0.07 0.09 0.08 0.11 0.10 0.09 0.13 0.19 0.13 0.11 0.05 0.08 0.10 0.10 0.15 0.19 0.17 0.37 0.36 0.24 0.23 0.28 0.32 0.45 0.43 0.37 0.38 0.35 0.29 0.22 0.19 0.20 0.21 0.21
0.02 0.05 0.03 0.05 0.06 0.06 0.06 0.03 0.03 0.05 0.07 0.06 0.08 0.08 0.16 0.12 0.23 0.17 0.14 0.08 0.11 0.15 0.15 0.19 0.37 0.23 0.40 0.25 0.15 0.11 0.18 0.26 0.26 0.29 0.29 0.28 0.26 0.24 0.22 0.19 0.19 0.23 0.17
0.00 0.01 0.02 0.04 0.08 0.08 0.09 0.07 0.07 0.09 0.08 0.08 0.07 0.08 0.12 0.19 0.23 0.26 0.20 0.13 0.12 0.17 0.21 0.24 0.31 0.47 0.26 0.25 0.24 0.14 0.24 0.31 0.32 0.29 0.27 0.25 0.19 0.16 0.14 0.13 0.11 0.13 0.14
0.00 0.01 0.03 0.09 0.12 0.14 0.13 0.14 0.13 0.11 0.09 0.07 0.08 0.10 0.11 0.14 0.26 0.26 0.23 0.26 0.31 0.20 0.27 0.29 0.40 0.49 0.29 0.27 0.27 0.29 0.32 0.28 0.24 0.24 0.22 0.21 0.18 0.14 0.09 0.05 0.03 0.02 0.03
0.01 0.02 0.05 0.09 0.13 0.16 0.21 0.21 0.21 0.20 0.16 0.15 0.15 0.14 0.15 0.16 0.23 0.31 0.26 0.28 0.29 0.21 0.28 0.39 0.46 0.38 0.25 0.21 0.23 0.22 0.19 0.17 0.17 0.18 0.18 0.14 0.09 0.05 0.03 0.02 0.02 0.01 0.02
0.02 0.02 0.03 0.09 0.14 0.12 0.15 0.15 0.16 0.17 0.20 0.26 0.31 0.33 0.36 0.37 0.38 0.39 0.41 0.44 0.46 0.46 0.54 0.57 0.52 0.45 0.39 0.34 0.34 0.29 0.22 0.18 0.15 0.14 0.14 0.13 0.09 0.07 0.05 0.03 0.04 0.07 0.09
0.06 0.07 0.08 0.08 0.09 0.08 0.11 0.22 0.26 0.36 0.49 0.52 0.60 0.66 0.65 0.64 0.70 0.68 0.62 0.62 0.67 0.72 0.68 0.68 0.66 0.60 0.56 0.47 0.39 0.32 0.25 0.20 0.17 0.14 0.12 0.09 0.06 0.04 0.03 0.08 0.13 0.14 0.08
0.10 0.11 0.17 0.17 0.18 0.20 0.22 0.30 0.39 0.41 0.44 0.44 0.53 0.59 0.77 0.82 0.92 0.84 0.83 0.81 0.79 0.77 0.72 0.73 0.72 0.63 0.53 0.42 0.31 0.22 0.16 0.12 0.09 0.06 0.04 0.02 0.01 0.01 0.01 0.04 0.05 0.04 0.04
0.18 0.19 0.19 0.18 0.24 0.29 0.36 0.42 0.52 0.72 0.82 0.93 1.01 1.05 0.98 1.06 0.99 0.91 0.82 0.75 0.67 0.54 0.46 0.42 0.36 0.31 0.24 0.17 0.13 0.09 0.08 0.04 0.02 0.01 0.01 0.01 0.01 0.01 0.01 0.01 0.01 0.03 0.03
0.83 0.93 0.93 0.98 0.97 0.93 0.89 0.87 0.89 0.92 1.00 1.21 1.17 1.01 0.91 0.82 0.73 0.61 0.49 0.35 0.30 0.24 0.21 0.19 0.16 0.13 0.09 0.06 0.04 0.03 0.02 0.01 0.02 0.01 0.01 0.01 0.02 0.03 0.02 0.02 0.02 0.04 0.03
0.74 0.83 0.87 0.91 0.93 0.90 0.86 0.82 0.78 0.72 0.65 0.66 0.62 0.58 0.55 0.48 0.44 0.41 0.34 0.28 0.24 0.20 0.15 0.12 0.11 0.09 0.06 0.04 0.03 0.03 0.03 0.02 0.02 0.02 0.02 0.02 0.02 0.02 0.02 0.02 0.02 0.03 0.06
0.47 0.60 0.56 0.61 0.69 0.67 0.65 0.62 0.62 0.58 0.55 0.53 0.50 0.48 0.45 0.33 0.31 0.28 0.25 0.21 0.17 0.16 0.12 0.09 0.07 0.05 0.05 0.04 0.04 0.04 0.03 0.02 0.02 0.02 0.02 0.01 0.02 0.02 0.03 0.03 0.05 0.06 0.05
0.66 0.70 0.65 0.58 0.60 0.58 0.54 0.47 0.42 0.37 0.35 0.34 0.37 0.36 0.28 0.19 0.19 0.16 0.13 0.11 0.09 0.07 0.07 0.06 0.06 0.04 0.04 0.03 0.02 0.02 0.01 0.01 0.01 0.01 0.01 0.01 0.01 0.02 0.02 0.03 0.06 0.07 0.06
0.45 0.47 0.44 0.43 0.42 0.39 0.36 0.32 0.29 0.28 0.26 0.22 0.22 0.18 0.12 0.10 0.09 0.08 0.07 0.07 0.06 0.05 0.03 0.03 0.02 0.01 0.01 0.01 0.01 0.01 0.01 0.01 0.01 0.01 0.01 0.01 0.02 0.02 0.02 0.03 0.03 0.04 0.05
0.28 0.26 0.24 0.24 0.23 0.22 0.19 0.18 0.16 0.15 0.13 0.12 0.09 0.08 0.06 0.06 0.06 0.06 0.05 0.05 0.03 0.02 0.01 0.01 0.00 0.00 0.00 0.00 0.00 0.01 0.01 0.01 0.01 0.02 0.03 0.03 0.02 0.02 0.02 0.04 0.03 0.04 0.04
0.16 0.15 0.14 0.13 0.12 0.10 0.08 0.07 0.06 0.05 0.05 0.05 0.05 0.04 0.04 0.03 0.03 0.02 0.02 0.01 0.01 0.01 0.00 0.00 0.00 0.00 0.00 0.00 0.00 0.00 0.00 0.01 0.02 0.03 0.04 0.05 0.03 0.02 0.02 0.03 0.04 0.05 0.06
0.05 0.05 0.04 0.04 0.04 0.04 0.04 0.04 0.03 0.03 0.02 0.02 0.02 0.02 0.02 0.02 0.01 0.01 0.01 0.00 0.00 0.00 0.00 0.00 0.00 0.00 0.00 0.00 0.00 0.00 0.00 0.01 0.01 0.02 0.04 0.04 0.03 0.02 0.03 0.04 0.05 0.06 0.06
0.02 0.02 0.02 0.02 0.01 0.01 0.01 0.00 0.01 0.00 0.01 0.02 0.02 0.01 0.01 0.01 0.01 0.00 0.00 0.00 0.00 0.00 0.00 0.00 0.00 0.00 0.00 0.00 0.00 0.00 0.00 0.00 0.01 0.01 0.06 0.05 0.04 0.03 0.03 0.05 0.04 0.07 0.04

GFSGL_prec_precacc24_090.txt.gz
Total_Precipitation_Accumulation
0.00 0.00 0.00 0.00 0.00 0.01 0.02 0.01 0.06 0.29 0.62 0.66 0.47 0.43 0.38 0.31 0.22 0.15 0.12 0.11 0.11 0.11 0.11 0.12 0.10 0.11 0.13 0.12 0.13 0.15 0.12 0.10 0.10 0.03 0.02 0.00 0.00 0.00 0.00 0.00 0.00 0.00 0.01
0.13 0.02 0.02 0.01 0.00 0.01 0.04 0.10 0.32 0.61 0.49 0.34 0.17 0.13 0.13 0.16 0.19 0.16 0.12 0.10 0.12 0.14 0.16 0.23 0.24 0.25 0.23 0.19 0.17 0.17 0.16 0.15 0.16 0.12 0.06 0.04 0.03 0.02 0.01 0.00 0.00 0.01 0.00
0.16 0.08 0.05 0.05 0.03 0.07 0.07 0.08 0.15 0.12 0.08 0.03 0.02 0.03 0.04 0.04 0.06 0.13 0.18 0.20 0.22 0.21 0.22 0.26 0.29 0.32 0.29 0.27 0.29 0.28 0.23 0.21 0.19 0.18 0.11 0.05 0.04 0.02 0.01 0.00 0.00 0.00 0.00
0.14 0.07 0.05 0.03 0.04 0.13 0.12 0.13 0.17 0.16 0.15 0.10 0.08 0.08 0.06 0.03 0.03 0.04 0.06 0.07 0.08 0.12 0.17 0.20 0.19 0.19 0.17 0.15 0.13 0.12 0.14 0.16 0.17 0.19 0.18 0.10 0.06 0.04 0.03 0.03 0.02 0.01 0.01
0.08 0.06 0.05 0.08 0.02 0.03 0.03 0.03 0.04 0.02 0.02 0.06 0.08 0.11 0.10 0.09 0.09 0.08 0.07 0.07 0.07 0.08 0.08 0.07 0.05 0.11 0.12 0.09 0.10 0.10 0.13 0.16 0.16 0.16 0.17 0.16 0.12 0.11 0.10 0.09 0.09 0.07 0.05
0.04 0.04 0.06 0.07 0.08 0.05 0.05 0.07 0.04 0.05 0.07 0.06 0.05 0.07 0.07 0.06 0.13 0.09 0.06 0.04 0.04 0.06 0.05 0.05 0.07 0.16 0.11 0.15 0.15 0.16 0.14 0.13 0.13 0.16 0.20 0.22 0.19 0.15 0.15 0.17 0.15 0.18 0.23
0.13 0.14 0.10 0.13 0.11 0.12 0.11 0.10 0.15 0.16 0.12 0.08 0.09 0.07 0.07 0.07 0.13 0.08 0.08 0.04 0.06 0.07 0.07 0.06 0.06 0.08 0.12 0.04 0.09 0.16 0.17 0.22 0.21 0.21 0.24 0.25 0.26 0.25 0.29 0.37 0.40 0.38 0.35
0.12 0.17 0.15 0.11 0.13 0.13 0.09 0.07 0.09 0.15 0.15 0.12 0.11 0.12 0.10 0.11 0.15 0.10 0.11 0.04 0.04 0.06 0.06 0.06 0.08 0.09 0.11 0.11 0.10 0.16 0.19 0.25 0.31 0.35 0.40 0.45 0.44 0.43 0.41 0.40 0.41 0.43 0.41
0.05 0.10 0.10 0.09 0.13 0.16 0.13 0.12 0.08 0.09 0.13 0.11 0.14 0.12 0.10 0.13 0.20 0.15 0.12 0.06 0.09 0.10 0.10 0.15 0.19 0.17 0.38 0.36 0.25 0.24 0.32 0.38 0.54 0.55 0.49 0.53 0.53 0.44 0.32 0.28 0.31 0.31 0.33
0.01 0.06 0.05 0.08 0.11 0.14 0.15 0.14 0.11 0.10 0.14 0.14 0.13 0.10 0.18 0.14 0.26 0.19 0.15 0.09 0.12 0.16 0.16 0.19 0.38 0.25 0.41 0.27 0.16 0.12 0.19 0.28 0.29 0.34 0.35 0.36 0.35 0.33 0.34 0.30 0.28 0.31 0.26
0.00 0.01 0.02 0.05 0.09 0.11 0.15 0.15 0.14 0.18 0.18 0.14 0.09 0.10 0.14 0.21 0.26 0.30 0.22 0.13 0.13 0.19 0.24 0.27 0.34 0.54 0.31 0.31 0.30 0.18 0.32 0.45 0.48 0.40 0.34 0.35 0.32 0.27 0.25 0.21 0.17 0.16 0.14
0.00 0.01 0.03 0.09 0.12 0.14 0.15 0.17 0.18 0.19 0.17 0.14 0.13 0.14 0.15 0.17 0.33 0.31 0.26 0.29 0.34 0.23 0.31 0.37 0.51 0.65 0.38 0.37 0.40 0.47 0.55 0.46 0.37 0.38 0.39 0.38 0.34 0.29 0.21 0.13 0.08 0.05 0.04
0.01 0.02 0.05 0.09 0.13 0.16 0.21 0.23 0.24 0.25 0.24 0.24 0.24 0.23 0.24 0.25 0.32 0.44 0.36 0.39 0.42 0.32 0.41 0.58 0.62 0.52 0.38 0.34 0.39 0.42 0.40 0.38 0.42 0.44 0.42 0.36 0.27 0.20 0.15 0.13 0.10 0.08 0.06
0.02 0.02 0.03 0.09 0.14 0.12 0.15 0.15 0.17 0.20 0.26 0.36 0.45 0.47 0.49 0.49 0.48 0.50 0.55 0.63 0.73 0.79 0.94 0.95 0.78 0.68 0.65 0.69 0.80 0.78 0.70 0.65 0.64 0.63 0.61 0.56 0.44 0.30 0.19 0.11 0.07 0.03 0.04
0.06 0.07 0.08 0.08 0.09 0.08 0.11 0.22 0.26 0.38 0.55 0.61 0.73 0.82 0.85 0.93 1.05 0.99 0.84 0.80 0.83 0.92 0.92 0.95 0.95 0.94 0.95 0.94 0.90 0.86 0.80 0.71 0.60 0.50 0.40 0.29 0.19 0.10 0.04 0.01 0.01 0.02 0.05
0.10 0.11 0.17 0.17 0.18 0.20 0.22 0.30 0.42 0.44 0.47 0.49 0.61 0.69 0.96 1.14 1.30 1.25 1.24 1.18 1.16 1.19 1.14 1.17 1.17 1.03 0.90 0.79 0.67 0.56 0.44 0.33 0.25 0.17 0.11 0.06 0.03 0.01 0.01 0.00 0.00 0.01 0.02
0.18 0.19 0.19 0.18 0.24 0.29 0.36 0.42 0.54 0.75 0.84 0.98 1.09 1.15 1.09 1.20 1.14 1.06 0.97 0.90 0.84 0.71 0.63 0.62 0.56 0.48 0.39 0.30 0.24 0.19 0.16 0.11 0.06 0.03 0.02 0.01 0.01 0.01 0.01 0.01 0.00 0.01 0.01
0.83 0.94 0.94 0.99 0.97 0.93 0.89 0.87 0.89 0.93 1.03 1.26 1.29 1.16 1.05 0.95 0.85 0.73 0.62 0.47 0.45 0.37 0.32 0.29 0.26 0.21 0.16 0.12 0.09 0.06 0.04 0.02 0.02 0.01 0.01 0.01 0.01 0.02 0.02 0.01 0.01 0.02 0.02
0.75 0.85 0.88 0.91 0.92 0.89 0.85 0.82 0.78 0.71 0.64 0.67 0.66 0.63 0.63 0.54 0.49 0.46 0.39 0.32 0.30 0.25 0.20 0.17 0.15 0.12 0.09 0.05 0.03 0.03 0.03 0.02 0.02 0.02 0.02 0.02 0.02 0.02 0.02 0.01 0.01 0.01 0.02
0.46 0.59 0.54 0.60 0.67 0.63 0.60 0.57 0.57 0.55 0.54 0.54 0.52 0.53 0.49 0.35 0.34 0.32 0.29 0.24 0.21 0.19 0.15 0.12 0.09 0.06 0.05 0.04 0.04 0.04 0.03 0.02 0.02 0.01 0.01 0.01 0.01 0.02 0.02 0.02 0.02 0.03 0.02
0.61 0.65 0.58 0.50 0.49 0.48 0.46 0.41 0.38 0.34 0.32 0.32 0.37 0.37 0.29 0.20 0.21 0.18 0.15 0.12 0.10 0.08 0.07 0.06 0.06 0.04 0.04 0.03 0.02 0.01 0.01 0.01 0.01 0.01 0.01 0.01 0.01 0.01 0.01 0.02 0.02 0.03 0.03
0.36 0.37 0.34 0.34 0.34 0.32 0.31 0.28 0.26 0.24 0.23 0.21 0.22 0.19 0.13 0.10 0.09 0.08 0.07 0.07 0.06 0.05 0.03 0.03 0.02 0.01 0.01 0.01 0.01 0.01 0.01 0.01 0.01 0.01 0.01 0.01 0.01 0.01 0.02 0.02 0.02 0.03 0.03
0.23 0.22 0.21 0.21 0.20 0.19 0.17 0.16 0.15 0.14 0.13 0.12 0.09 0.08 0.06 0.06 0.06 0.05 0.05 0.05 0.03 0.02 0.01 0.01 0.00 0.00 0.00 0.00 0.00 0.00 0.01 0.01 0.01 0.01 0.02 0.02 0.02 0.02 0.02 0.03 0.02 0.03 0.03
0.14 0.12 0.10 0.10 0.09 0.08 0.07 0.06 0.05 0.04 0.04 0.04 0.04 0.04 0.03 0.03 0.02 0.02 0.02 0.01 0.01 0.01 0.00 0.00 0.00 0.00 0.00 0.00 0.00 0.00 0.00 0.01 0.02 0.02 0.03 0.03 0.02 0.01 0.02 0.02 0.02 0.03 0.04
0.02 0.02 0.02 0.02 0.02 0.02 0.02 0.02 0.02 0.02 0.02 0.01 0.01 0.02 0.02 0.02 0.01 0.01 0.01 0.00 0.00 0.00 0.00 0.00 0.00 0.00 0.00 0.00 0.00 0.00 0.00 0.01 0.01 0.01 0.03 0.03 0.02 0.02 0.03 0.04 0.03 0.05 0.04
0.00 0.00 0.00 0.01 0.01 0.00 0.00 0.00 0.00 0.00 0.00 0.01 0.01 0.01 0.01 0.01 0.01 0.00 0.00 0.00 0.00 0.00 0.00 0.00 0.00 0.00 0.00 0.00 0.00 0.00 0.00 0.00 0.00 0.01 0.04 0.03 0.03 0.02 0.03 0.04 0.03 0.05 0.03

GFSGL_prec_precacc24_093.txt.gz
Total_Precipitation_Accumulation
0.00 0.00 0.00 0.00 0.00 0.00 0.00 0.00 0.00 0.00 0.00 0.03 0.12 0.21 0.33 0.23 0.16 0.13 0.12 0.11 0.11 0.10 0.10 0.11 0.10 0.12 0.13 0.12 0.13 0.15 0.13 0.11 0.11 0.03 0.02 0.00 0.00 0.00 0.00 0.00 0.01 0.00 0.01
0.10 0.01 0.00 0.00 0.00 0.00 0.00 0.00 0.00 0.00 0.02 0.02 0.06 0.09 0.12 0.15 0.18 0.15 0.12 0.09 0.11 0.13 0.16 0.22 0.23 0.24 0.22 0.18 0.16 0.17 0.16 0.15 0.17 0.12 0.06 0.04 0.03 0.02 0.01 0.00 0.00 0.01 0.00
0.07 0.03 0.01 0.00 0.00 0.00 0.00 0.01 0.01 0.02 0.04 0.02 0.01 0.01 0.01 0.02 0.04 0.10 0.16 0.19 0.21 0.20 0.21 0.24 0.27 0.31 0.28 0.27 0.29 0.28 0.23 0.21 0.19 0.18 0.11 0.05 0.04 0.02 0.01 0.00 0.00 0.00 0.00
0.08 0.03 0.01 0.02 0.00 0.00 0.00 0.03 0.12 0.12 0.09 0.08 0.05 0.05 0.04 0.02 0.01 0.01 0.04 0.06 0.07 0.12 0.17 0.20 0.19 0.18 0.17 0.15 0.13 0.12 0.14 0.16 0.17 0.19 0.18 0.10 0.06 0.04 0.03 0.03 0.02 0.01 0.01
0.08 0.03 0.05 0.06 0.01 0.00 0.01 0.01 0.03 0.01 0.01 0.03 0.04 0.07 0.09 0.07 0.07 0.07 0.06 0.06 0.06 0.07 0.07 0.06 0.05 0.11 0.12 0.09 0.10 0.10 0.13 0.16 0.16 0.16 0.17 0.16 0.12 0.11 0.10 0.09 0.09 0.07 0.05
0.03 0.08 0.12 0.14 0.12 0.07 0.05 0.05 0.03 0.02 0.04 0.04 0.02 0.04 0.05 0.05 0.10 0.07 0.05 0.03 0.04 0.05 0.05 0.05 0.07 0.16 0.11 0.15 0.15 0.16 0.14 0.13 0.13 0.16 0.20 0.22 0.19 0.15 0.15 0.17 0.15 0.18 0.22
0.12 0.14 0.11 0.15 0.15 0.16 0.16 0.12 0.18 0.20 0.12 0.08 0.08 0.06 0.06 0.06 0.11 0.07 0.08 0.04 0.06 0.06 0.07 0.06 0.06 0.08 0.12 0.04 0.09 0.16 0.17 0.22 0.21 0.21 0.24 0.25 0.26 0.25 0.29 0.38 0.40 0.39 0.38
0.11 0.16 0.13 0.09 0.11 0.14 0.12 0.11 0.15 0.20 0.17 0.15 0.15 0.17 0.14 0.13 0.15 0.10 0.11 0.04 0.04 0.06 0.06 0.06 0.08 0.09 0.11 0.11 0.10 0.16 0.19 0.25 0.31 0.35 0.40 0.45 0.45 0.44 0.42 0.44 0.47 0.52 0.52
0.04 0.08 0.08 0.09 0.13 0.15 0.12 0.10 0.09 0.10 0.14 0.15 0.20 0.22 0.18 0.18 0.27 0.20 0.14 0.06 0.09 0.10 0.10 0.15 0.19 0.17 0.38 0.36 0.25 0.24 0.32 0.38 0.54 0.56 0.51 0.56 0.57 0.51 0.43 0.39 0.45 0.49 0.54
0.00 0.05 0.05 0.08 0.10 0.12 0.14 0.15 0.14 0.11 0.13 0.15 0.16 0.16 0.25 0.19 0.34 0.26 0.19 0.10 0.14 0.17 0.16 0.19 0.38 0.25 0.41 0.27 0.16 0.12 0.19 0.28 0.29 0.34 0.36 0.39 0.38 0.39 0.43 0.38 0.37 0.42 0.42
0.00 0.00 0.02 0.05 0.09 0.10 0.14 0.14 0.15 0.19 0.22 0.21 0.18 0.17 0.20 0.27 0.31 0.36 0.28 0.20 0.20 0.25 0.31 0.33 0.37 0.59 0.35 0.33 0.33 0.20 0.38 0.52 0.58 0.49 0.43 0.44 0.40 0.36 0.37 0.37 0.34 0.31 0.29
0.00 0.01 0.03 0.09 0.12 0.14 0.14 0.16 0.18 0.19 0.20 0.19 0.20 0.20 0.19 0.21 0.40 0.36 0.31 0.36 0.46 0.42 0.58 0.59 0.70 0.83 0.49 0.50 0.55 0.67 0.76 0.59 0.43 0.48 0.54 0.55 0.52 0.46 0.39 0.32 0.28 0.25 0.23
0.01 0.02 0.05 0.09 0.13 0.15 0.21 0.23 0.24 0.25 0.25 0.26 0.29 0.31 0.32 0.31 0.38 0.51 0.42 0.47 0.56 0.58 0.82 1.06 1.06 0.86 0.65 0.62 0.74 0.78 0.71 0.61 0.63 0.73 0.74 0.72 0.62 0.53 0.47 0.45 0.42 0.36 0.30
0.02 0.02 0.03 0.08 0.14 0.12 0.15 0.15 0.17 0.20 0.26 0.36 0.46 0.50 0.53 0.54 0.55 0.57 0.62 0.71 0.83 0.96 1.19 1.28 1.23 1.09 0.98 1.01 1.16 1.17 1.14 1.17 1.19 1.15 1.11 1.06 0.91 0.75 0.61 0.48 0.36 0.27 0.20
0.06 0.07 0.08 0.08 0.09 0.08 0.11 0.22 0.26 0.39 0.55 0.61 0.73 0.82 0.85 0.94 1.08 1.09 1.00 0.98 1.01 1.09 1.10 1.15 1.21 1.22 1.22 1.20 1.15 1.12 1.08 1.02 0.92 0.82 0.69 0.56 0.43 0.30 0.21 0.13 0.08 0.05 0.04
0.10 0.11 0.17 0.17 0.18 0.20 0.23 0.31 0.42 0.45 0.48 0.49 0.61 0.70 0.97 1.16 1.33 1.30 1.32 1.30 1.29 1.30 1.24 1.29 1.33 1.27 1.17 1.04 0.89 0.77 0.64 0.52 0.43 0.32 0.24 0.16 0.10 0.05 0.03 0.01 0.01 0.01 0.01
0.18 0.19 0.19 0.19 0.24 0.30 0.36 0.42 0.55 0.76 0.85 0.98 1.10 1.16 1.10 1.22 1.15 1.08 0.98 0.91 0.87 0.73 0.66 0.66 0.61 0.55 0.47 0.38 0.33 0.27 0.24 0.18 0.12 0.08 0.05 0.02 0.01 0.01 0.01 0.01 0.00 0.01 0.01
0.83 0.94 0.94 1.00 0.98 0.94 0.89 0.87 0.89 0.92 1.02 1.26 1.29 1.16 1.05 0.95 0.85 0.74 0.63 0.48 0.47 0.40 0.36 0.33 0.31 0.27 0.22 0.18 0.15 0.11 0.07 0.04 0.02 0.02 0.01 0.01 0.02 0.02 0.01 0.01 0.01 0.01 0.01
0.75 0.85 0.87 0.88 0.88 0.85 0.82 0.79 0.75 0.67 0.60 0.65 0.63 0.61 0.63 0.53 0.47 0.44 0.38 0.32 0.31 0.29 0.24 0.20 0.18 0.16 0.12 0.08 0.05 0.03 0.03 0.02 0.02 0.02 0.02 0.02 0.02 0.02 0.02 0.01 0.01 0.01 0.01
0.41 0.52 0.47 0.52 0.61 0.59 0.57 0.52 0.53 0.51 0.50 0.50 0.48 0.50 0.46 0.31 0.30 0.30 0.27 0.24 0.21 0.21 0.17 0.13 0.10 0.07 0.05 0.04 0.04 0.04 0.03 0.02 0.02 0.01 0.01 0.01 0.01 0.02 0.02 0.01 0.02 0.02 0.02
0.51 0.56 0.52 0.46 0.46 0.46 0.43 0.39 0.37 0.32 0.30 0.30 0.35 0.35 0.25 0.18 0.20 0.18 0.15 0.12 0.10 0.08 0.07 0.06 0.05 0.04 0.04 0.03 0.02 0.01 0.01 0.01 0.01 0.01 0.01 0.01 0.01 0.01 0.01 0.02 0.02 0.02 0.02
0.31 0.33 0.31 0.31 0.31 0.30 0.29 0.28 0.25 0.23 0.22 0.20 0.22 0.18 0.11 0.09 0.08 0.06 0.05 0.05 0.05 0.04 0.03 0.03 0.02 0.01 0.01 0.01 0.01 0.01 0.01 0.01 0.01 0.01 0.01 0.01 0.01 0.01 0.01 0.02 0.02 0.02 0.02
0.20 0.19 0.18 0.19 0.18 0.17 0.16 0.16 0.14 0.12 0.11 0.09 0.06 0.05 0.03 0.03 0.03 0.03 0.04 0.04 0.02 0.02 0.01 0.01 0.00 0.00 0.00 0.00 0.00 0.00 0.01 0.01 0.01 0.01 0.02 0.02 0.02 0.02 0.02 0.02 0.02 0.02 0.02
0.12 0.10 0.09 0.08 0.07 0.06 0.05 0.04 0.03 0.02 0.02 0.02 0.02 0.01 0.02 0.02 0.01 0.01 0.01 0.00 0.00 0.01 0.00 0.00 0.00 0.00 0.00 0.00 0.00 0.00 0.00 0.00 0.01 0.01 0.02 0.02 0.02 0.01 0.01 0.02 0.02 0.02 0.03
0.01 0.01 0.01 0.01 0.01 0.01 0.01 0.01 0.01 0.01 0.01 0.01 0.01 0.01 0.01 0.01 0.01 0.01 0.01 0.00 0.00 0.00 0.00 0.00 0.00 0.00 0.00 0.00 0.00 0.00 0.00 0.00 0.01 0.01 0.01 0.02 0.02 0.01 0.02 0.03 0.03 0.03 0.03
0.00 0.00 0.00 0.00 0.00 0.00 0.00 0.00 0.00 0.00 0.00 0.01 0.01 0.01 0.00 0.01 0.01 0.00 0.00 0.00 0.00 0.00 0.00 0.00 0.00 0.00 0.00 0.00 0.00 0.00 0.00 0.00 0.00 0.00 0.03 0.02 0.02 0.02 0.02 0.03 0.02 0.04 0.02

GFSGL_prec_precacc24_096.txt.gz
Total_Precipitation_Accumulation
0.00 0.00 0.00 0.00 0.00 0.00 0.00 0.00 0.00 0.00 0.00 0.00 0.00 0.00 0.04 0.08 0.09 0.08 0.07 0.07 0.09 0.09 0.10 0.11 0.10 0.11 0.13 0.12 0.13 0.15 0.13 0.12 0.12 0.03 0.02 0.00 0.00 0.01 0.00 0.00 0.01 0.01 0.01
0.10 0.01 0.00 0.00 0.00 0.00 0.00 0.00 0.00 0.00 0.00 0.00 0.00 0.01 0.03 0.05 0.09 0.10 0.08 0.07 0.09 0.12 0.16 0.22 0.23 0.24 0.22 0.18 0.16 0.17 0.16 0.16 0.17 0.12 0.06 0.04 0.03 0.02 0.01 0.00 0.00 0.01 0.00
0.03 0.02 0.01 0.00 0.00 0.00 0.00 0.00 0.00 0.00 0.00 0.00 0.00 0.00 0.00 0.00 0.02 0.09 0.13 0.14 0.17 0.17 0.20 0.23 0.26 0.30 0.28 0.26 0.28 0.27 0.23 0.21 0.19 0.18 0.11 0.05 0.04 0.02 0.01 0.00 0.00 0.00 0.00
0.06 0.06 0.02 0.01 0.00 0.00 0.00 0.00 0.00 0.00 0.00 0.00 0.00 0.00 0.01 0.01 0.00 0.00 0.02 0.02 0.04 0.07 0.14 0.19 0.19 0.18 0.16 0.14 0.13 0.12 0.13 0.16 0.18 0.20 0.19 0.10 0.06 0.04 0.03 0.03 0.02 0.01 0.01
0.13 0.05 0.05 0.05 0.02 0.00 0.00 0.00 0.00 0.00 0.00 0.00 0.00 0.01 0.03 0.05 0.05 0.05 0.04 0.03 0.02 0.02 0.04 0.05 0.05 0.10 0.11 0.09 0.09 0.10 0.13 0.16 0.16 0.16 0.17 0.16 0.12 0.11 0.10 0.09 0.09 0.07 0.05
0.06 0.10 0.13 0.10 0.08 0.05 0.05 0.03 0.01 0.00 0.01 0.01 0.01 0.01 0.02 0.02 0.03 0.02 0.02 0.01 0.02 0.03 0.04 0.04 0.07 0.14 0.11 0.14 0.15 0.16 0.14 0.13 0.13 0.16 0.20 0.22 0.19 0.15 0.15 0.17 0.15 0.18 0.22
0.13 0.15 0.11 0.13 0.12 0.11 0.14 0.09 0.10 0.13 0.05 0.04 0.05 0.03 0.01 0.02 0.05 0.04 0.03 0.02 0.04 0.05 0.05 0.05 0.05 0.07 0.11 0.04 0.09 0.16 0.17 0.22 0.21 0.21 0.24 0.25 0.26 0.25 0.29 0.38 0.40 0.39 0.38
0.11 0.16 0.14 0.08 0.09 0.12 0.10 0.10 0.12 0.13 0.11 0.10 0.13 0.18 0.14 0.13 0.13 0.08 0.10 0.04 0.03 0.05 0.05 0.06 0.08 0.09 0.11 0.11 0.10 0.16 0.19 0.25 0.31 0.35 0.40 0.46 0.45 0.44 0.42 0.45 0.49 0.56 0.56
0.04 0.08 0.08 0.08 0.11 0.14 0.10 0.07 0.07 0.08 0.11 0.13 0.20 0.23 0.18 0.18 0.30 0.19 0.15 0.09 0.13 0.13 0.11 0.15 0.19 0.17 0.38 0.36 0.25 0.24 0.32 0.38 0.55 0.58 0.53 0.58 0.59 0.53 0.45 0.41 0.49 0.57 0.65
0.00 0.04 0.04 0.07 0.10 0.12 0.13 0.14 0.14 0.10 0.12 0.15 0.18 0.20 0.27 0.18 0.35 0.30 0.24 0.17 0.22 0.22 0.20 0.25 0.53 0.35 0.45 0.29 0.18 0.12 0.19 0.30 0.31 0.36 0.37 0.41 0.41 0.42 0.48 0.40 0.38 0.43 0.48
0.00 0.00 0.02 0.04 0.09 0.10 0.14 0.13 0.13 0.17 0.19 0.19 0.19 0.19 0.20 0.29 0.33 0.40 0.31 0.25 0.31 0.38 0.41 0.39 0.45 0.70 0.41 0.41 0.45 0.37 0.63 0.79 0.77 0.60 0.50 0.52 0.47 0.43 0.43 0.42 0.39 0.38 0.41
0.00 0.00 0.02 0.08 0.11 0.13 0.12 0.14 0.14 0.15 0.16 0.16 0.18 0.21 0.22 0.25 0.49 0.42 0.35 0.42 0.59 0.56 0.78 0.82 0.97 1.11 0.78 0.85 0.96 1.18 1.28 1.12 0.94 0.95 0.95 0.89 0.78 0.68 0.59 0.50 0.44 0.42 0.44
0.01 0.02 0.04 0.08 0.10 0.13 0.18 0.19 0.19 0.21 0.22 0.24 0.28 0.30 0.33 0.33 0.41 0.56 0.45 0.51 0.62 0.63 0.90 1.17 1.18 0.99 0.77 0.75 0.89 0.99 1.02 1.01 1.16 1.30 1.32 1.24 1.10 1.00 0.90 0.83 0.77 0.67 0.57
0.02 0.02 0.03 0.07 0.12 0.10 0.12 0.12 0.15 0.18 0.24 0.36 0.46 0.50 0.53 0.54 0.55 0.57 0.63 0.72 0.85 0.99 1.23 1.32 1.29 1.16 1.09 1.14 1.29 1.29 1.26 1.34 1.41 1.47 1.48 1.42 1.24 1.05 0.88 0.73 0.59 0.48 0.37
0.06 0.07 0.08 0.08 0.08 0.08 0.10 0.21 0.26 0.39 0.55 0.61 0.73 0.82 0.86 0.95 1.09 1.09 1.00 0.98 1.01 1.10 1.10 1.15 1.22 1.25 1.27 1.28 1.26 1.22 1.18 1.11 1.03 0.95 0.85 0.73 0.60 0.47 0.37 0.26 0.19 0.13 0.10
0.10 0.11 0.17 0.16 0.18 0.20 0.22 0.30 0.42 0.45 0.48 0.49 0.61 0.70 0.98 1.17 1.34 1.30 1.32 1.30 1.29 1.30 1.24 1.29 1.34 1.28 1.18 1.07 0.93 0.81 0.68 0.57 0.49 0.39 0.32 0.25 0.18 0.11 0.06 0.03 0.02 0.01 0.01
0.19 0.20 0.19 0.19 0.24 0.30 0.36 0.42 0.55 0.75 0.83 0.96 1.06 1.13 1.08 1.21 1.14 1.07 0.98 0.91 0.87 0.73 0.66 0.66 0.62 0.56 0.48 0.40 0.35 0.29 0.27 0.21 0.15 0.10 0.06 0.04 0.02 0.02 0.01 0.01 0.01 0.01 0.01
0.80 0.88 0.85 0.90 0.91 0.89 0.85 0.83 0.82 0.82 0.91 1.17 1.25 1.14 1.05 0.96 0.86 0.75 0.63 0.47 0.45 0.39 0.36 0.33 0.31 0.28 0.23 0.19 0.16 0.12 0.08 0.04 0.03 0.02 0.02 0.02 0.02 0.02 0.02 0.01 0.01 0.01 0.01
0.69 0.78 0.81 0.81 0.81 0.78 0.74 0.71 0.68 0.62 0.55 0.60 0.57 0.54 0.57 0.48 0.42 0.39 0.33 0.28 0.27 0.26 0.22 0.19 0.18 0.15 0.12 0.08 0.05 0.03 0.03 0.02 0.02 0.02 0.02 0.02 0.02 0.02 0.01 0.01 0.01 0.01 0.01
0.38 0.46 0.41 0.45 0.52 0.51 0.50 0.48 0.48 0.46 0.45 0.45 0.43 0.46 0.42 0.27 0.26 0.26 0.24 0.21 0.18 0.18 0.14 0.10 0.07 0.04 0.03 0.03 0.03 0.03 0.03 0.02 0.02 0.01 0.01 0.01 0.01 0.01 0.02 0.01 0.01 0.02 0.01
0.43 0.47 0.44 0.40 0.42 0.42 0.40 0.36 0.33 0.29 0.27 0.26 0.31 0.31 0.22 0.16 0.19 0.16 0.13 0.10 0.08 0.06 0.04 0.03 0.03 0.03 0.03 0.02 0.02 0.01 0.01 0.01 0.01 0.01 0.01 0.01 0.01 0.01 0.01 0.01 0.02 0.02 0.02
0.27 0.29 0.28 0.28 0.29 0.28 0.28 0.26 0.24 0.22 0.21 0.19 0.20 0.16 0.10 0.08 0.06 0.05 0.03 0.03 0.03 0.02 0.01 0.02 0.01 0.01 0.01 0.01 0.01 0.01 0.01 0.01 0.01 0.01 0.01 0.01 0.01 0.01 0.01 0.02 0.02 0.02 0.02
0.18 0.17 0.16 0.17 0.17 0.17 0.16 0.15 0.13 0.12 0.10 0.08 0.06 0.04 0.02 0.02 0.02 0.02 0.02 0.02 0.01 0.01 0.00 0.00 0.00 0.00 0.00 0.00 0.00 0.00 0.01 0.01 0.01 0.01 0.01 0.01 0.01 0.01 0.02 0.02 0.02 0.02 0.02
0.10 0.09 0.08 0.08 0.06 0.05 0.04 0.03 0.02 0.01 0.01 0.01 0.01 0.01 0.01 0.01 0.01 0.01 0.01 0.00 0.00 0.01 0.00 0.00 0.00 0.00 0.00 0.00 0.00 0.00 0.00 0.00 0.01 0.01 0.01 0.02 0.01 0.01 0.01 0.02 0.02 0.02 0.03
0.01 0.00 0.00 0.00 0.00 0.00 0.00 0.00 0.00 0.01 0.01 0.01 0.01 0.01 0.01 0.01 0.01 0.01 0.01 0.00 0.00 0.00 0.00 0.00 0.00 0.00 0.00 0.00 0.00 0.00 0.00 0.00 0.00 0.00 0.01 0.01 0.01 0.01 0.02 0.02 0.02 0.03 0.02
0.00 0.00 0.00 0.00 0.00 0.00 0.00 0.00 0.00 0.00 0.00 0.01 0.01 0.01 0.00 0.01 0.01 0.00 0.00 0.00 0.00 0.00 0.00 0.00 0.00 0.00 0.00 0.00 0.00 0.00 0.00 0.00 0.00 0.00 0.01 0.01 0.02 0.02 0.02 0.03 0.02 0.03 0.02

GFSGL_prec_precacc24_099.txt.gz
Total_Precipitation_Accumulation
0.00 0.00 0.00 0.00 0.00 0.00 0.00 0.00 0.00 0.00 0.00 0.00 0.00 0.00 0.00 0.00 0.01 0.01 0.02 0.02 0.03 0.05 0.07 0.08 0.07 0.10 0.12 0.11 0.13 0.15 0.13 0.13 0.12 0.03 0.02 0.00 0.01 0.01 0.00 0.01 0.01 0.01 0.01
0.06 0.03 0.00 0.00 0.00 0.00 0.00 0.00 0.00 0.00 0.00 0.00 0.00 0.00 0.00 0.00 0.00 0.01 0.01 0.02 0.04 0.05 0.07 0.15 0.18 0.22 0.21 0.18 0.16 0.17 0.16 0.17 0.20 0.13 0.07 0.04 0.03 0.02 0.01 0.00 0.00 0.01 0.00
0.06 0.02 0.01 0.00 0.00 0.00 0.00 0.00 0.00 0.00 0.00 0.00 0.00 0.00 0.00 0.00 0.00 0.00 0.01 0.01 0.05 0.11 0.13 0.17 0.20 0.26 0.27 0.26 0.28 0.27 0.22 0.21 0.19 0.19 0.11 0.05 0.04 0.02 0.01 0.00 0.00 0.00 0.00
0.09 0.10 0.03 0.01 0.00 0.00 0.00 0.00 0.00 0.00 0.00 0.00 0.00 0.00 0.00 0.00 0.00 0.00 0.01 0.01 0.01 0.05 0.10 0.12 0.12 0.13 0.15 0.14 0.13 0.12 0.13 0.16 0.17 0.20 0.19 0.10 0.07 0.04 0.03 0.03 0.02 0.01 0.01
0.21 0.12 0.08 0.04 0.02 0.00 0.00 0.00 0.00 0.00 0.00 0.00 0.00 0.00 0.00 0.02 0.02 0.01 0.01 0.02 0.01 0.00 0.00 0.01 0.01 0.03 0.05 0.07 0.09 0.10 0.13 0.16 0.16 0.16 0.17 0.16 0.12 0.11 0.10 0.09 0.09 0.07 0.05
0.07 0.13 0.16 0.12 0.09 0.05 0.04 0.03 0.01 0.00 0.00 0.00 0.00 0.00 0.01 0.01 0.00 0.00 0.00 0.00 0.01 0.01 0.01 0.01 0.02 0.06 0.07 0.12 0.14 0.16 0.13 0.13 0.13 0.16 0.20 0.22 0.19 0.15 0.15 0.17 0.15 0.18 0.22
0.15 0.18 0.15 0.16 0.15 0.13 0.13 0.09 0.09 0.12 0.05 0.03 0.03 0.01 0.01 0.01 0.01 0.01 0.01 0.01 0.02 0.02 0.02 0.03 0.03 0.05 0.08 0.04 0.09 0.15 0.17 0.22 0.21 0.21 0.24 0.25 0.26 0.25 0.29 0.38 0.40 0.39 0.38
0.16 0.19 0.15 0.09 0.11 0.15 0.12 0.11 0.13 0.13 0.11 0.10 0.12 0.15 0.10 0.09 0.08 0.06 0.08 0.04 0.04 0.05 0.03 0.04 0.06 0.08 0.11 0.11 0.09 0.16 0.19 0.25 0.31 0.35 0.40 0.47 0.49 0.47 0.44 0.47 0.51 0.56 0.57
0.10 0.10 0.08 0.08 0.12 0.14 0.11 0.09 0.10 0.10 0.12 0.15 0.22 0.26 0.20 0.18 0.29 0.17 0.12 0.07 0.09 0.09 0.08 0.15 0.23 0.20 0.43 0.42 0.29 0.26 0.34 0.43 0.64 0.67 0.67 0.70 0.69 0.61 0.51 0.45 0.54 0.69 0.79
0.01 0.04 0.04 0.07 0.10 0.11 0.13 0.14 0.13 0.09 0.11 0.16 0.20 0.22 0.29 0.18 0.33 0.24 0.18 0.14 0.16 0.18 0.21 0.29 0.61 0.42 0.52 0.36 0.26 0.20 0.29 0.41 0.46 0.49 0.55 0.57 0.55 0.55 0.60 0.48 0.44 0.51 0.65
0.00 0.00 0.01 0.03 0.08 0.08 0.12 0.13 0.12 0.16 0.17 0.18 0.18 0.17 0.18 0.25 0.29 0.33 0.23 0.19 0.27 0.40 0.45 0.43 0.50 0.79 0.45 0.45 0.50 0.45 0.84 1.11 1.12 0.94 0.82 0.79 0.70 0.61 0.60 0.60 0.56 0.58 0.68
0.00 0.00 0.01 0.04 0.06 0.09 0.11 0.14 0.14 0.14 0.15 0.13 0.15 0.16 0.17 0.19 0.41 0.34 0.30 0.40 0.62 0.59 0.82 0.86 1.04 1.20 0.85 0.94 1.12 1.41 1.55 1.37 1.19 1.19 1.18 1.14 1.07 0.95 0.83 0.72 0.65 0.63 0.66
0.00 0.01 0.02 0.06 0.09 0.13 0.17 0.18 0.18 0.20 0.19 0.20 0.23 0.25 0.27 0.27 0.33 0.49 0.42 0.49 0.62 0.64 0.90 1.18 1.20 1.00 0.78 0.77 0.92 1.03 1.06 1.08 1.25 1.40 1.45 1.40 1.27 1.14 1.01 0.94 0.87 0.79 0.71
0.01 0.01 0.02 0.07 0.11 0.09 0.11 0.11 0.13 0.15 0.20 0.29 0.37 0.41 0.44 0.47 0.51 0.56 0.62 0.72 0.85 0.99 1.23 1.32 1.29 1.16 1.09 1.14 1.29 1.30 1.28 1.35 1.42 1.49 1.51 1.47 1.30 1.11 0.94 0.80 0.66 0.55 0.44
0.06 0.07 0.08 0.08 0.08 0.08 0.10 0.19 0.22 0.35 0.48 0.55 0.68 0.78 0.82 0.93 1.09 1.09 1.00 0.98 1.01 1.09 1.09 1.15 1.22 1.25 1.27 1.28 1.26 1.22 1.18 1.11 1.03 0.96 0.86 0.75 0.62 0.50 0.39 0.29 0.21 0.15 0.11
0.10 0.11 0.17 0.16 0.18 0.19 0.20 0.26 0.37 0.41 0.41 0.45 0.58 0.68 0.95 1.15 1.31 1.26 1.27 1.27 1.28 1.29 1.23 1.29 1.34 1.28 1.19 1.07 0.93 0.81 0.68 0.57 0.50 0.40 0.32 0.25 0.18 0.12 0.07 0.03 0.02 0.02 0.02
0.18 0.20 0.19 0.19 0.24 0.29 0.35 0.40 0.52 0.68 0.74 0.84 0.92 0.99 0.98 1.11 1.07 1.02 0.95 0.90 0.87 0.73 0.66 0.66 0.62 0.56 0.48 0.40 0.35 0.29 0.27 0.21 0.14 0.09 0.06 0.04 0.02 0.02 0.02 0.01 0.01 0.01 0.01
0.78 0.85 0.83 0.89 0.88 0.84 0.78 0.73 0.72 0.72 0.80 1.06 1.16 1.09 1.02 0.94 0.84 0.74 0.63 0.47 0.45 0.38 0.35 0.33 0.31 0.28 0.23 0.18 0.15 0.11 0.07 0.04 0.02 0.01 0.01 0.02 0.02 0.02 0.02 0.01 0.01 0.01 0.01
0.54 0.68 0.75 0.77 0.77 0.73 0.68 0.64 0.61 0.56 0.52 0.57 0.54 0.51 0.55 0.46 0.40 0.38 0.32 0.27 0.26 0.25 0.21 0.19 0.17 0.14 0.11 0.06 0.04 0.02 0.02 0.01 0.01 0.02 0.01 0.02 0.02 0.02 0.01 0.01 0.01 0.01 0.01
0.31 0.37 0.34 0.38 0.45 0.44 0.44 0.44 0.46 0.44 0.44 0.44 0.42 0.45 0.41 0.26 0.25 0.26 0.23 0.20 0.17 0.16 0.12 0.08 0.05 0.02 0.01 0.01 0.01 0.01 0.01 0.01 0.01 0.01 0.01 0.01 0.01 0.01 0.01 0.01 0.01 0.02 0.01
0.34 0.38 0.36 0.34 0.38 0.40 0.38 0.35 0.32 0.28 0.26 0.25 0.30 0.30 0.21 0.15 0.17 0.15 0.12 0.09 0.06 0.04 0.03 0.02 0.01 0.01 0.01 0.01 0.00 0.00 0.01 0.00 0.01 0.01 0.01 0.01 0.01 0.01 0.01 0.01 0.01 0.02 0.02
0.21 0.24 0.24 0.25 0.27 0.26 0.27 0.25 0.24 0.21 0.20 0.18 0.19 0.14 0.09 0.07 0.05 0.03 0.02 0.02 0.02 0.01 0.00 0.01 0.00 0.00 0.00 0.00 0.00 0.00 0.00 0.01 0.01 0.01 0.01 0.00 0.01 0.01 0.01 0.01 0.02 0.02 0.02
0.17 0.16 0.16 0.17 0.16 0.16 0.15 0.15 0.13 0.11 0.09 0.07 0.05 0.03 0.01 0.02 0.01 0.02 0.02 0.02 0.01 0.01 0.00 0.00 0.00 0.00 0.00 0.00 0.00 0.00 0.01 0.01 0.00 0.01 0.01 0.01 0.01 0.01 0.01 0.02 0.01 0.02 0.02
0.09 0.08 0.07 0.07 0.05 0.05 0.04 0.03 0.02 0.01 0.01 0.01 0.01 0.01 0.01 0.01 0.01 0.01 0.01 0.00 0.00 0.01 0.00 0.00 0.00 0.00 0.00 0.00 0.00 0.00 0.00 0.00 0.00 0.00 0.01 0.01 0.01 0.01 0.01 0.01 0.01 0.01 0.02
0.00 0.00 0.00 0.00 0.00 0.00 0.00 0.00 0.00 0.01 0.01 0.01 0.01 0.01 0.01 0.01 0.01 0.01 0.01 0.00 0.00 0.00 0.00 0.00 0.00 0.00 0.00 0.00 0.00 0.00 0.00 0.00 0.00 0.00 0.00 0.01 0.01 0.01 0.01 0.02 0.02 0.02 0.02
0.00 0.00 0.00 0.00 0.00 0.00 0.00 0.00 0.00 0.00 0.00 0.01 0.01 0.01 0.00 0.01 0.01 0.00 0.00 0.00 0.00 0.00 0.00 0.00 0.00 0.00 0.00 0.00 0.00 0.00 0.00 0.00 0.00 0.00 0.01 0.01 0.01 0.01 0.02 0.02 0.02 0.02 0.01

GFSGL_prec_precacc24_102.txt.gz
Total_Precipitation_Accumulation
0.01 0.01 0.00 0.00 0.00 0.00 0.00 0.00 0.00 0.00 0.00 0.00 0.00 0.00 0.00 0.00 0.01 0.02 0.03 0.03 0.05 0.05 0.08 0.11 0.08 0.08 0.10 0.08 0.09 0.14 0.13 0.13 0.13 0.04 0.02 0.00 0.01 0.01 0.00 0.01 0.01 0.02 0.01
0.04 0.03 0.01 0.00 0.00 0.00 0.00 0.00 0.00 0.00 0.00 0.00 0.00 0.00 0.00 0.00 0.00 0.00 0.00 0.01 0.02 0.02 0.02 0.03 0.01 0.04 0.05 0.08 0.11 0.16 0.17 0.19 0.22 0.14 0.08 0.05 0.04 0.02 0.01 0.01 0.00 0.01 0.00
0.06 0.01 0.00 0.00 0.00 0.00 0.00 0.00 0.00 0.00 0.00 0.00 0.00 0.00 0.00 0.00 0.00 0.00 0.00 0.00 0.00 0.00 0.01 0.02 0.02 0.07 0.10 0.15 0.17 0.19 0.21 0.21 0.20 0.20 0.12 0.07 0.06 0.03 0.03 0.02 0.01 0.00 0.00
0.14 0.16 0.05 0.01 0.00 0.00 0.00 0.00 0.00 0.00 0.00 0.00 0.00 0.00 0.00 0.00 0.00 0.00 0.00 0.00 0.00 0.00 0.01 0.01 0.01 0.05 0.07 0.10 0.11 0.11 0.13 0.16 0.17 0.21 0.19 0.11 0.07 0.04 0.05 0.04 0.03 0.01 0.01
0.36 0.24 0.13 0.05 0.02 0.00 0.00 0.00 0.00 0.00 0.00 0.00 0.00 0.00 0.00 0.00 0.00 0.00 0.00 0.00 0.00 0.00 0.00 0.00 0.01 0.01 0.01 0.02 0.04 0.05 0.09 0.12 0.15 0.17 0.17 0.16 0.13 0.12 0.12 0.10 0.12 0.07 0.06
0.15 0.18 0.18 0.14 0.11 0.06 0.04 0.03 0.01 0.00 0.00 0.00 0.00 0.01 0.01 0.01 0.00 0.00 0.00 0.00 0.00 0.00 0.00 0.00 0.00 0.02 0.03 0.05 0.06 0.09 0.09 0.11 0.13 0.17 0.20 0.23 0.19 0.15 0.15 0.18 0.16 0.19 0.23
0.19 0.19 0.16 0.19 0.19 0.18 0.17 0.10 0.09 0.11 0.04 0.03 0.03 0.01 0.00 0.01 0.00 0.01 0.01 0.00 0.00 0.00 0.00 0.00 0.00 0.01 0.03 0.02 0.06 0.14 0.16 0.21 0.21 0.22 0.26 0.26 0.26 0.25 0.29 0.38 0.41 0.40 0.39
0.17 0.20 0.18 0.12 0.13 0.17 0.15 0.15 0.17 0.14 0.10 0.09 0.11 0.14 0.11 0.10 0.08 0.04 0.05 0.03 0.03 0.02 0.01 0.02 0.05 0.06 0.08 0.09 0.06 0.13 0.18 0.25 0.32 0.35 0.42 0.49 0.52 0.51 0.49 0.52 0.57 0.61 0.60
0.15 0.17 0.18 0.17 0.16 0.16 0.12 0.09 0.11 0.10 0.13 0.16 0.22 0.26 0.22 0.19 0.27 0.14 0.09 0.06 0.08 0.08 0.10 0.13 0.15 0.09 0.29 0.32 0.23 0.28 0.44 0.67 0.93 0.93 0.99 0.98 0.93 0.81 0.66 0.61 0.78 1.00 1.07
0.11 0.11 0.10 0.14 0.14 0.12 0.14 0.15 0.14 0.10 0.12 0.17 0.21 0.23 0.29 0.17 0.30 0.22 0.17 0.14 0.17 0.16 0.16 0.22 0.55 0.35 0.42 0.31 0.24 0.20 0.31 0.47 0.54 0.57 0.64 0.68 0.64 0.62 0.66 0.54 0.53 0.67 0.91
0.02 0.03 0.03 0.04 0.08 0.07 0.10 0.11 0.11 0.16 0.17 0.18 0.18 0.16 0.17 0.25 0.29 0.31 0.21 0.19 0.26 0.35 0.38 0.38 0.47 0.78 0.44 0.48 0.58 0.57 0.99 1.31 1.34 1.14 0.99 0.93 0.80 0.68 0.67 0.66 0.61 0.63 0.76
0.01 0.00 0.01 0.04 0.06 0.08 0.09 0.12 0.12 0.13 0.15 0.13 0.15 0.16 0.17 0.18 0.36 0.30 0.25 0.33 0.51 0.50 0.73 0.79 1.01 1.20 0.86 0.96 1.15 1.45 1.60 1.43 1.25 1.24 1.23 1.17 1.08 0.97 0.85 0.73 0.65 0.63 0.66
0.01 0.01 0.02 0.04 0.07 0.10 0.13 0.15 0.16 0.19 0.19 0.20 0.23 0.24 0.26 0.25 0.29 0.42 0.34 0.41 0.54 0.58 0.84 1.12 1.16 0.98 0.78 0.77 0.92 1.03 1.07 1.08 1.25 1.40 1.45 1.41 1.27 1.15 1.02 0.94 0.87 0.79 0.71
0.01 0.01 0.02 0.06 0.09 0.09 0.10 0.11 0.13 0.15 0.20 0.29 0.37 0.40 0.41 0.40 0.41 0.43 0.51 0.62 0.76 0.91 1.18 1.31 1.28 1.16 1.09 1.15 1.29 1.30 1.28 1.35 1.42 1.49 1.52 1.48 1.31 1.11 0.94 0.80 0.66 0.55 0.44
0.05 0.06 0.07 0.07 0.07 0.07 0.10 0.19 0.23 0.35 0.47 0.54 0.67 0.76 0.78 0.86 0.99 0.97 0.90 0.91 0.95 1.05 1.07 1.15 1.22 1.24 1.26 1.28 1.26 1.22 1.18 1.12 1.03 0.96 0.86 0.75 0.62 0.50 0.39 0.29 0.21 0.15 0.11
0.09 0.11 0.17 0.16 0.17 0.18 0.19 0.25 0.36 0.40 0.40 0.42 0.52 0.60 0.82 1.01 1.14 1.11 1.15 1.19 1.23 1.26 1.20 1.26 1.31 1.27 1.18 1.08 0.94 0.81 0.68 0.57 0.50 0.40 0.32 0.25 0.18 0.12 0.07 0.03 0.02 0.02 0.02
0.17 0.19 0.18 0.18 0.23 0.28 0.34 0.40 0.52 0.64 0.66 0.73 0.79 0.85 0.87 1.00 0.96 0.93 0.88 0.84 0.82 0.70 0.64 0.65 0.61 0.56 0.48 0.40 0.35 0.29 0.26 0.21 0.14 0.09 0.06 0.03 0.02 0.02 0.01 0.01 0.01 0.01 0.01
0.50 0.61 0.62 0.71 0.73 0.70 0.68 0.68 0.69 0.69 0.76 0.97 1.05 1.00 0.95 0.88 0.79 0.69 0.59 0.44 0.43 0.37 0.35 0.33 0.31 0.28 0.23 0.18 0.15 0.11 0.07 0.04 0.02 0.01 0.01 0.01 0.01 0.01 0.01 0.01 0.01 0.01 0.01
0.26 0.37 0.44 0.52 0.61 0.63 0.62 0.60 0.57 0.52 0.48 0.52 0.49 0.46 0.49 0.42 0.37 0.36 0.31 0.26 0.26 0.25 0.21 0.19 0.17 0.14 0.11 0.06 0.03 0.01 0.01 0.01 0.01 0.01 0.01 0.01 0.01 0.01 0.01 0.01 0.01 0.01 0.01
0.15 0.21 0.21 0.27 0.33 0.35 0.37 0.37 0.39 0.38 0.39 0.39 0.38 0.42 0.39 0.25 0.25 0.25 0.23 0.20 0.16 0.16 0.12 0.08 0.05 0.02 0.01 0.00 0.01 0.01 0.01 0.00 0.00 0.00 0.00 0.00 0.01 0.01 0.01 0.01 0.01 0.01 0.01
0.16 0.18 0.19 0.19 0.23 0.28 0.29 0.28 0.27 0.24 0.23 0.23 0.28 0.28 0.20 0.15 0.17 0.15 0.12 0.08 0.06 0.04 0.02 0.01 0.01 0.01 0.00 0.00 0.00 0.00 0.00 0.00 0.00 0.00 0.00 0.00 0.00 0.00 0.00 0.01 0.01 0.01 0.01
0.12 0.14 0.15 0.17 0.20 0.21 0.22 0.22 0.22 0.20 0.19 0.17 0.18 0.14 0.08 0.06 0.05 0.03 0.02 0.01 0.01 0.01 0.00 0.00 0.00 0.00 0.00 0.00 0.00 0.00 0.00 0.00 0.00 0.00 0.00 0.00 0.00 0.00 0.00 0.01 0.01 0.01 0.01
0.11 0.11 0.12 0.14 0.14 0.15 0.14 0.14 0.12 0.10 0.08 0.06 0.04 0.03 0.01 0.01 0.01 0.01 0.01 0.01 0.00 0.00 0.00 0.00 0.00 0.00 0.00 0.00 0.00 0.00 0.00 0.00 0.00 0.00 0.00 0.00 0.00 0.00 0.00 0.01 0.01 0.01 0.01
0.07 0.07 0.06 0.06 0.04 0.04 0.03 0.02 0.01 0.01 0.01 0.01 0.01 0.00 0.01 0.01 0.01 0.01 0.01 0.00 0.00 0.01 0.00 0.00 0.00 0.00 0.00 0.00 0.00 0.00 0.00 0.00 0.00 0.00 0.00 0.00 0.00 0.00 0.00 0.00 0.01 0.01 0.01
0.00 0.00 0.00 0.00 0.00 0.01 0.01 0.00 0.00 0.00 0.00 0.00 0.01 0.01 0.01 0.01 0.01 0.01 0.01 0.00 0.00 0.00 0.00 0.00 0.00 0.00 0.00 0.00 0.00 0.00 0.00 0.00 0.00 0.00 0.00 0.00 0.00 0.00 0.01 0.01 0.01 0.01 0.01
0.00 0.00 0.00 0.00 0.00 0.00 0.00 0.01 0.00 0.00 0.00 0.01 0.01 0.01 0.00 0.00 0.00 0.00 0.00 0.00 0.00 0.00 0.00 0.00 0.00 0.00 0.00 0.01 0.00 0.00 0.00 0.00 0.00 0.00 0.00 0.01 0.01 0.01 0.01 0.01 0.01 0.01 0.01

GFSGL_prec_precacc24_105.txt.gz
Total_Precipitation_Accumulation
0.01 0.01 0.00 0.00 0.00 0.00 0.00 0.00 0.00 0.00 0.00 0.00 0.00 0.01 0.00 0.00 0.00 0.02 0.02 0.03 0.05 0.05 0.07 0.12 0.15 0.20 0.20 0.18 0.15 0.13 0.09 0.08 0.08 0.01 0.01 0.00 0.02 0.05 0.02 0.01 0.01 0.02 0.01
0.04 0.03 0.01 0.00 0.00 0.00 0.00 0.00 0.00 0.00 0.00 0.00 0.00 0.00 0.00 0.00 0.00 0.00 0.01 0.01 0.02 0.02 0.02 0.03 0.03 0.08 0.11 0.11 0.10 0.07 0.04 0.08 0.13 0.09 0.07 0.05 0.04 0.03 0.04 0.05 0.03 0.02 0.00
0.06 0.01 0.00 0.01 0.02 0.04 0.01 0.00 0.00 0.00 0.00 0.00 0.00 0.00 0.00 0.00 0.00 0.00 0.00 0.00 0.00 0.00 0.01 0.02 0.01 0.04 0.02 0.02 0.03 0.03 0.03 0.07 0.13 0.16 0.11 0.08 0.07 0.03 0.05 0.05 0.06 0.05 0.02
0.15 0.19 0.14 0.10 0.06 0.03 0.00 0.00 0.00 0.00 0.00 0.00 0.00 0.00 0.00 0.00 0.00 0.00 0.00 0.00 0.00 0.00 0.01 0.01 0.01 0.02 0.02 0.02 0.03 0.03 0.06 0.08 0.10 0.14 0.16 0.10 0.07 0.05 0.07 0.06 0.05 0.03 0.03
0.41 0.33 0.23 0.14 0.07 0.02 0.00 0.00 0.00 0.00 0.00 0.00 0.00 0.01 0.00 0.00 0.00 0.00 0.00 0.00 0.00 0.00 0.00 0.00 0.00 0.00 0.01 0.02 0.03 0.04 0.07 0.08 0.08 0.09 0.11 0.12 0.09 0.11 0.12 0.10 0.12 0.08 0.07
0.22 0.23 0.23 0.18 0.14 0.08 0.04 0.02 0.01 0.00 0.00 0.00 0.00 0.01 0.02 0.01 0.00 0.00 0.00 0.00 0.00 0.00 0.00 0.00 0.00 0.00 0.01 0.01 0.02 0.03 0.06 0.07 0.07 0.08 0.13 0.20 0.17 0.15 0.16 0.20 0.19 0.23 0.26
0.29 0.29 0.21 0.23 0.20 0.20 0.18 0.10 0.09 0.10 0.04 0.03 0.03 0.01 0.01 0.01 0.01 0.01 0.00 0.00 0.01 0.01 0.01 0.00 0.01 0.00 0.00 0.00 0.02 0.07 0.10 0.15 0.17 0.20 0.23 0.22 0.26 0.26 0.31 0.41 0.43 0.42 0.42
0.30 0.31 0.24 0.14 0.15 0.18 0.16 0.16 0.18 0.14 0.10 0.08 0.11 0.14 0.11 0.10 0.08 0.04 0.05 0.03 0.03 0.04 0.05 0.03 0.04 0.04 0.09 0.09 0.04 0.11 0.18 0.23 0.25 0.27 0.36 0.46 0.53 0.53 0.50 0.57 0.63 0.66 0.65
0.41 0.37 0.31 0.23 0.18 0.19 0.18 0.14 0.15 0.15 0.16 0.17 0.22 0.27 0.23 0.19 0.28 0.13 0.08 0.06 0.09 0.10 0.10 0.12 0.11 0.08 0.26 0.30 0.21 0.23 0.42 0.71 0.99 1.00 1.16 1.17 1.11 0.96 0.80 0.76 0.97 1.21 1.27
0.47 0.30 0.22 0.25 0.30 0.29 0.28 0.29 0.29 0.27 0.23 0.22 0.22 0.24 0.31 0.17 0.29 0.19 0.15 0.13 0.17 0.16 0.15 0.20 0.51 0.32 0.33 0.25 0.19 0.16 0.25 0.39 0.50 0.57 0.68 0.74 0.72 0.68 0.73 0.60 0.62 0.79 1.04
0.20 0.19 0.11 0.11 0.18 0.19 0.23 0.27 0.28 0.32 0.33 0.31 0.27 0.22 0.21 0.25 0.30 0.32 0.21 0.20 0.32 0.43 0.41 0.37 0.43 0.71 0.38 0.43 0.53 0.55 1.00 1.36 1.44 1.23 1.07 0.99 0.84 0.71 0.68 0.66 0.61 0.64 0.76
0.14 0.08 0.08 0.11 0.11 0.12 0.12 0.12 0.13 0.14 0.15 0.14 0.16 0.16 0.17 0.17 0.33 0.27 0.23 0.30 0.47 0.48 0.69 0.73 0.91 1.05 0.74 0.86 1.05 1.37 1.53 1.39 1.22 1.23 1.23 1.17 1.08 0.97 0.86 0.73 0.65 0.63 0.66
0.03 0.05 0.06 0.08 0.09 0.11 0.15 0.14 0.14 0.15 0.16 0.17 0.21 0.23 0.25 0.25 0.28 0.40 0.32 0.39 0.51 0.55 0.80 1.04 1.01 0.82 0.66 0.66 0.83 0.97 1.03 1.06 1.24 1.40 1.45 1.41 1.28 1.15 1.02 0.94 0.87 0.79 0.71
0.01 0.01 0.03 0.06 0.08 0.08 0.08 0.08 0.09 0.13 0.18 0.27 0.34 0.38 0.40 0.40 0.41 0.43 0.49 0.59 0.71 0.84 1.05 1.11 1.09 1.00 0.96 1.04 1.22 1.26 1.26 1.35 1.42 1.49 1.52 1.48 1.31 1.11 0.94 0.80 0.66 0.55 0.44
0.02 0.03 0.04 0.04 0.04 0.05 0.07 0.14 0.16 0.30 0.40 0.50 0.64 0.74 0.77 0.86 0.96 0.93 0.86 0.86 0.88 0.95 0.96 1.03 1.11 1.15 1.18 1.23 1.24 1.22 1.18 1.12 1.03 0.97 0.86 0.75 0.62 0.50 0.39 0.29 0.21 0.15 0.11
0.04 0.05 0.09 0.10 0.13 0.15 0.16 0.20 0.30 0.34 0.33 0.36 0.46 0.54 0.76 0.95 1.07 1.04 1.07 1.11 1.16 1.19 1.13 1.19 1.25 1.22 1.15 1.05 0.92 0.80 0.68 0.57 0.49 0.40 0.31 0.24 0.18 0.12 0.07 0.03 0.02 0.02 0.01
0.10 0.11 0.12 0.12 0.19 0.26 0.33 0.38 0.47 0.55 0.54 0.58 0.61 0.66 0.71 0.86 0.86 0.85 0.80 0.77 0.77 0.65 0.60 0.61 0.57 0.51 0.45 0.38 0.34 0.28 0.25 0.20 0.14 0.09 0.05 0.03 0.02 0.01 0.01 0.01 0.01 0.01 0.00
0.08 0.14 0.21 0.37 0.49 0.49 0.45 0.42 0.42 0.42 0.49 0.68 0.79 0.80 0.81 0.77 0.71 0.64 0.56 0.42 0.40 0.34 0.32 0.30 0.29 0.26 0.22 0.18 0.15 0.11 0.07 0.03 0.01 0.01 0.01 0.01 0.01 0.00 0.00 0.00 0.00 0.00 0.00
0.06 0.09 0.13 0.18 0.26 0.32 0.36 0.39 0.39 0.35 0.33 0.37 0.35 0.34 0.41 0.36 0.32 0.32 0.27 0.25 0.25 0.24 0.21 0.18 0.17 0.14 0.10 0.06 0.03 0.01 0.01 0.00 0.00 0.00 0.00 0.00 0.00 0.00 0.00 0.00 0.00 0.00 0.00
0.09 0.10 0.09 0.11 0.15 0.18 0.21 0.22 0.24 0.24 0.25 0.26 0.26 0.32 0.31 0.19 0.21 0.22 0.21 0.18 0.16 0.15 0.12 0.08 0.05 0.02 0.01 0.00 0.00 0.00 0.00 0.00 0.00 0.00 0.00 0.00 0.00 0.00 0.00 0.00 0.00 0.00 0.00
0.08 0.09 0.08 0.08 0.12 0.15 0.17 0.16 0.17 0.16 0.16 0.16 0.21 0.21 0.15 0.11 0.14 0.13 0.10 0.07 0.05 0.03 0.02 0.01 0.00 0.00 0.00 0.00 0.00 0.00 0.00 0.00 0.00 0.00 0.00 0.00 0.00 0.00 0.00 0.00 0.00 0.00 0.00
0.09 0.10 0.09 0.10 0.12 0.12 0.13 0.14 0.14 0.14 0.14 0.13 0.15 0.12 0.07 0.05 0.04 0.02 0.01 0.01 0.01 0.00 0.00 0.00 0.00 0.00 0.00 0.00 0.00 0.00 0.00 0.00 0.00 0.00 0.00 0.00 0.00 0.00 0.00 0.00 0.00 0.00 0.00
0.09 0.09 0.09 0.10 0.10 0.10 0.09 0.09 0.08 0.07 0.05 0.04 0.03 0.02 0.01 0.01 0.01 0.01 0.01 0.01 0.00 0.00 0.00 0.00 0.00 0.00 0.00 0.00 0.00 0.00 0.00 0.00 0.00 0.00 0.00 0.00 0.00 0.00 0.00 0.00 0.00 0.00 0.00
0.06 0.06 0.05 0.05 0.03 0.03 0.02 0.01 0.01 0.00 0.00 0.01 0.01 0.00 0.01 0.01 0.01 0.01 0.01 0.00 0.00 0.01 0.00 0.00 0.00 0.00 0.00 0.00 0.00 0.00 0.00 0.00 0.00 0.00 0.00 0.00 0.00 0.00 0.00 0.00 0.00 0.00 0.00
0.00 0.00 0.00 0.01 0.01 0.01 0.01 0.01 0.01 0.01 0.01 0.00 0.01 0.01 0.01 0.01 0.01 0.01 0.01 0.00 0.00 0.01 0.00 0.00 0.00 0.00 0.00 0.00 0.00 0.00 0.00 0.00 0.00 0.00 0.00 0.00 0.00 0.00 0.00 0.00 0.01 0.01 0.01
0.00 0.00 0.00 0.01 0.01 0.01 0.01 0.01 0.01 0.01 0.00 0.01 0.01 0.01 0.00 0.00 0.00 0.00 0.00 0.00 0.00 0.00 0.00 0.00 0.00 0.00 0.00 0.01 0.00 0.00 0.00 0.00 0.00 0.00 0.00 0.01 0.01 0.01 0.01 0.01 0.01 0.01 0.01

GFSGL_prec_precacc24_108.txt.gz
Total_Precipitation_Accumulation
0.01 0.03 0.01 0.01 0.00 0.00 0.00 0.00 0.00 0.00 0.00 0.00 0.00 0.01 0.01 0.01 0.00 0.02 0.02 0.03 0.05 0.04 0.09 0.17 0.20 0.21 0.19 0.19 0.20 0.18 0.13 0.10 0.08 0.01 0.00 0.00 0.03 0.07 0.03 0.02 0.04 0.06 0.03
0.05 0.06 0.01 0.01 0.02 0.01 0.01 0.00 0.00 0.00 0.00 0.00 0.00 0.01 0.00 0.00 0.00 0.01 0.01 0.01 0.02 0.01 0.01 0.01 0.03 0.07 0.11 0.15 0.21 0.22 0.16 0.13 0.12 0.04 0.02 0.02 0.02 0.03 0.04 0.05 0.04 0.04 0.02
0.07 0.03 0.01 0.02 0.06 0.07 0.05 0.01 0.01 0.00 0.00 0.00 0.00 0.00 0.01 0.00 0.00 0.01 0.01 0.01 0.00 0.00 0.01 0.01 0.01 0.02 0.02 0.02 0.04 0.05 0.04 0.04 0.06 0.06 0.03 0.04 0.04 0.03 0.05 0.05 0.06 0.06 0.03
0.16 0.20 0.16 0.12 0.09 0.08 0.08 0.00 0.02 0.00 0.00 0.00 0.00 0.00 0.00 0.00 0.00 0.00 0.00 0.00 0.00 0.01 0.01 0.01 0.01 0.01 0.02 0.02 0.03 0.03 0.05 0.06 0.08 0.08 0.06 0.03 0.02 0.02 0.05 0.04 0.04 0.03 0.04
0.46 0.39 0.26 0.17 0.11 0.08 0.06 0.03 0.02 0.01 0.00 0.00 0.00 0.01 0.01 0.00 0.00 0.00 0.00 0.00 0.00 0.00 0.00 0.00 0.00 0.00 0.00 0.00 0.01 0.02 0.06 0.07 0.07 0.07 0.06 0.06 0.03 0.05 0.05 0.04 0.08 0.06 0.07
0.30 0.31 0.32 0.25 0.19 0.14 0.09 0.05 0.02 0.00 0.00 0.00 0.00 0.01 0.02 0.01 0.01 0.00 0.00 0.01 0.00 0.00 0.00 0.00 0.00 0.00 0.00 0.00 0.00 0.02 0.05 0.06 0.06 0.05 0.04 0.04 0.04 0.07 0.11 0.14 0.14 0.17 0.22
0.36 0.37 0.31 0.31 0.26 0.24 0.21 0.11 0.10 0.08 0.05 0.04 0.03 0.01 0.01 0.01 0.01 0.01 0.00 0.01 0.03 0.03 0.02 0.02 0.02 0.02 0.01 0.00 0.01 0.04 0.05 0.06 0.09 0.10 0.09 0.07 0.12 0.11 0.13 0.21 0.27 0.32 0.39
0.40 0.42 0.34 0.24 0.24 0.24 0.19 0.18 0.20 0.15 0.10 0.08 0.10 0.14 0.11 0.10 0.09 0.04 0.04 0.02 0.02 0.05 0.06 0.04 0.06 0.06 0.12 0.10 0.03 0.09 0.16 0.21 0.25 0.30 0.38 0.42 0.38 0.34 0.36 0.47 0.58 0.67 0.71
0.57 0.56 0.51 0.41 0.35 0.33 0.25 0.17 0.17 0.17 0.17 0.17 0.21 0.26 0.23 0.19 0.28 0.13 0.08 0.05 0.09 0.11 0.10 0.11 0.11 0.08 0.24 0.24 0.16 0.20 0.42 0.70 0.96 0.98 1.11 1.09 1.02 0.89 0.75 0.74 1.02 1.29 1.38
0.69 0.62 0.72 0.72 0.64 0.62 0.58 0.49 0.41 0.38 0.38 0.35 0.31 0.28 0.35 0.18 0.31 0.19 0.15 0.13 0.18 0.16 0.14 0.17 0.44 0.28 0.24 0.19 0.16 0.16 0.27 0.41 0.50 0.52 0.62 0.70 0.67 0.65 0.71 0.58 0.62 0.81 1.08
0.44 0.61 0.54 0.56 0.62 0.58 0.67 0.60 0.56 0.65 0.67 0.67 0.66 0.49 0.38 0.38 0.37 0.40 0.32 0.31 0.41 0.47 0.44 0.40 0.46 0.72 0.47 0.48 0.56 0.61 1.03 1.34 1.38 1.17 1.03 0.93 0.77 0.64 0.62 0.62 0.59 0.62 0.76
0.33 0.30 0.36 0.40 0.39 0.42 0.37 0.34 0.30 0.31 0.32 0.34 0.39 0.46 0.43 0.37 0.48 0.40 0.35 0.42 0.58 0.60 0.78 0.78 0.87 0.96 0.71 0.82 0.98 1.29 1.44 1.28 1.09 1.09 1.09 1.07 1.01 0.93 0.83 0.71 0.65 0.63 0.66
0.12 0.15 0.18 0.20 0.28 0.29 0.24 0.21 0.18 0.17 0.16 0.18 0.23 0.26 0.30 0.29 0.28 0.37 0.31 0.36 0.48 0.54 0.77 0.97 0.91 0.74 0.61 0.63 0.78 0.92 0.97 0.98 1.15 1.30 1.37 1.35 1.25 1.14 1.02 0.94 0.87 0.79 0.71
0.02 0.04 0.05 0.07 0.08 0.11 0.15 0.18 0.18 0.16 0.15 0.18 0.23 0.26 0.26 0.25 0.28 0.30 0.37 0.48 0.62 0.78 1.00 1.07 1.05 0.95 0.91 0.97 1.11 1.16 1.17 1.27 1.37 1.45 1.48 1.44 1.29 1.10 0.94 0.80 0.66 0.55 0.44
0.00 0.00 0.01 0.01 0.02 0.03 0.05 0.10 0.14 0.26 0.29 0.34 0.43 0.47 0.48 0.55 0.72 0.75 0.73 0.78 0.82 0.88 0.90 0.98 1.05 1.07 1.09 1.13 1.15 1.14 1.12 1.07 0.98 0.93 0.82 0.72 0.60 0.49 0.39 0.29 0.21 0.15 0.11
0.00 0.01 0.02 0.03 0.03 0.04 0.05 0.09 0.17 0.21 0.20 0.22 0.28 0.34 0.49 0.62 0.72 0.80 0.90 0.94 0.98 1.02 0.97 1.02 1.08 1.07 1.02 0.95 0.84 0.73 0.62 0.53 0.46 0.37 0.31 0.24 0.18 0.12 0.07 0.03 0.02 0.02 0.01
0.01 0.02 0.02 0.03 0.07 0.11 0.15 0.17 0.23 0.28 0.27 0.34 0.37 0.38 0.41 0.55 0.53 0.51 0.49 0.49 0.52 0.46 0.45 0.47 0.45 0.41 0.37 0.32 0.29 0.25 0.23 0.19 0.14 0.09 0.05 0.03 0.01 0.01 0.01 0.01 0.01 0.00 0.00
0.04 0.05 0.05 0.08 0.12 0.15 0.14 0.12 0.12 0.15 0.21 0.39 0.55 0.58 0.58 0.53 0.48 0.43 0.37 0.27 0.27 0.24 0.23 0.23 0.23 0.22 0.20 0.17 0.15 0.11 0.07 0.03 0.01 0.01 0.01 0.00 0.00 0.00 0.00 0.00 0.00 0.00 0.00
0.04 0.07 0.08 0.08 0.09 0.11 0.13 0.14 0.16 0.15 0.16 0.22 0.21 0.20 0.25 0.21 0.18 0.18 0.15 0.15 0.16 0.17 0.16 0.14 0.14 0.12 0.10 0.06 0.03 0.01 0.00 0.00 0.00 0.00 0.00 0.00 0.00 0.00 0.00 0.00 0.00 0.00 0.00
0.05 0.05 0.05 0.06 0.07 0.07 0.08 0.09 0.11 0.13 0.14 0.15 0.15 0.21 0.20 0.11 0.12 0.13 0.13 0.12 0.10 0.11 0.09 0.07 0.04 0.02 0.00 0.00 0.00 0.00 0.00 0.00 0.00 0.00 0.00 0.00 0.00 0.00 0.00 0.00 0.00 0.00 0.00
0.07 0.06 0.06 0.06 0.08 0.09 0.09 0.09 0.09 0.09 0.09 0.10 0.13 0.14 0.10 0.07 0.09 0.09 0.07 0.06 0.04 0.03 0.02 0.00 0.00 0.00 0.00 0.00 0.00 0.00 0.00 0.00 0.00 0.00 0.00 0.00 0.00 0.00 0.00 0.00 0.00 0.00 0.00
0.08 0.08 0.08 0.08 0.09 0.09 0.10 0.10 0.09 0.09 0.09 0.08 0.08 0.06 0.03 0.03 0.02 0.01 0.01 0.01 0.01 0.00 0.00 0.00 0.00 0.00 0.00 0.00 0.00 0.00 0.00 0.00 0.00 0.00 0.00 0.00 0.00 0.00 0.00 0.00 0.00 0.00 0.00
0.08 0.08 0.08 0.09 0.09 0.09 0.07 0.07 0.06 0.04 0.03 0.01 0.01 0.00 0.00 0.00 0.00 0.01 0.01 0.01 0.00 0.00 0.00 0.00 0.00 0.00 0.00 0.00 0.00 0.00 0.00 0.00 0.00 0.00 0.00 0.00 0.00 0.00 0.00 0.00 0.00 0.00 0.00
0.06 0.06 0.04 0.04 0.03 0.02 0.02 0.01 0.01 0.00 0.00 0.01 0.01 0.01 0.01 0.01 0.01 0.01 0.01 0.01 0.01 0.01 0.01 0.00 0.00 0.00 0.00 0.00 0.00 0.00 0.00 0.00 0.00 0.00 0.00 0.00 0.00 0.00 0.00 0.00 0.00 0.00 0.00
0.01 0.01 0.01 0.01 0.01 0.01 0.01 0.01 0.01 0.01 0.01 0.01 0.01 0.01 0.01 0.01 0.01 0.01 0.01 0.00 0.00 0.00 0.00 0.00 0.00 0.00 0.00 0.00 0.00 0.00 0.00 0.00 0.00 0.00 0.00 0.00 0.00 0.00 0.00 0.00 0.00 0.00 0.00
0.00 0.00 0.01 0.01 0.01 0.01 0.01 0.01 0.01 0.01 0.01 0.01 0.01 0.01 0.00 0.00 0.01 0.00 0.00 0.00 0.00 0.00 0.00 0.00 0.00 0.00 0.00 0.01 0.00 0.00 0.00 0.00 0.00 0.00 0.00 0.00 0.01 0.00 0.00 0.00 0.00 0.00 0.00

GFSGL_prec_precacc24_111.txt.gz
Total_Precipitation_Accumulation
0.02 0.07 0.08 0.04 0.05 0.08 0.03 0.00 0.00 0.00 0.00 0.00 0.00 0.01 0.02 0.01 0.01 0.02 0.02 0.03 0.05 0.05 0.09 0.21 0.26 0.28 0.27 0.28 0.24 0.20 0.14 0.10 0.09 0.01 0.01 0.00 0.03 0.07 0.03 0.03 0.04 0.06 0.03
0.13 0.16 0.12 0.12 0.17 0.14 0.05 0.00 0.00 0.02 0.03 0.00 0.00 0.01 0.01 0.01 0.01 0.01 0.01 0.01 0.02 0.02 0.02 0.01 0.04 0.09 0.15 0.19 0.25 0.27 0.25 0.23 0.21 0.08 0.05 0.03 0.02 0.02 0.03 0.05 0.04 0.04 0.03
0.12 0.16 0.15 0.17 0.24 0.22 0.11 0.02 0.06 0.08 0.04 0.00 0.00 0.00 0.01 0.01 0.01 0.01 0.01 0.01 0.00 0.00 0.01 0.01 0.01 0.01 0.02 0.04 0.04 0.07 0.09 0.11 0.15 0.14 0.08 0.06 0.04 0.02 0.04 0.05 0.06 0.06 0.03
0.18 0.22 0.21 0.21 0.24 0.24 0.14 0.04 0.09 0.09 0.05 0.01 0.00 0.00 0.00 0.00 0.01 0.01 0.02 0.02 0.01 0.01 0.01 0.01 0.01 0.01 0.02 0.02 0.04 0.04 0.03 0.05 0.04 0.04 0.03 0.01 0.02 0.01 0.05 0.04 0.04 0.03 0.04
0.49 0.42 0.30 0.23 0.25 0.24 0.11 0.07 0.07 0.07 0.04 0.01 0.01 0.02 0.01 0.01 0.01 0.01 0.01 0.01 0.01 0.01 0.01 0.01 0.01 0.01 0.01 0.00 0.01 0.02 0.03 0.04 0.03 0.02 0.01 0.01 0.00 0.01 0.02 0.02 0.04 0.02 0.03
0.33 0.35 0.39 0.35 0.38 0.36 0.18 0.12 0.04 0.02 0.02 0.01 0.01 0.02 0.03 0.02 0.02 0.01 0.01 0.01 0.01 0.01 0.00 0.00 0.00 0.00 0.00 0.00 0.00 0.00 0.02 0.04 0.03 0.02 0.01 0.01 0.00 0.01 0.02 0.04 0.05 0.07 0.09
0.41 0.42 0.36 0.40 0.39 0.42 0.31 0.19 0.14 0.10 0.05 0.05 0.04 0.02 0.02 0.01 0.02 0.01 0.01 0.02 0.04 0.04 0.02 0.02 0.03 0.02 0.01 0.00 0.00 0.01 0.03 0.03 0.06 0.07 0.07 0.05 0.05 0.04 0.04 0.06 0.08 0.15 0.25
0.44 0.46 0.40 0.34 0.41 0.42 0.33 0.26 0.26 0.18 0.12 0.09 0.11 0.14 0.12 0.11 0.11 0.05 0.05 0.03 0.05 0.06 0.08 0.06 0.07 0.07 0.14 0.12 0.03 0.07 0.14 0.16 0.18 0.23 0.31 0.33 0.31 0.27 0.27 0.38 0.49 0.58 0.64
0.70 0.62 0.58 0.52 0.51 0.54 0.45 0.31 0.27 0.28 0.24 0.21 0.23 0.28 0.24 0.20 0.31 0.14 0.09 0.06 0.10 0.12 0.12 0.13 0.13 0.09 0.25 0.24 0.16 0.20 0.42 0.67 0.85 0.86 0.99 0.97 0.91 0.80 0.68 0.70 0.94 1.18 1.24
0.86 0.76 0.90 0.87 0.87 0.80 0.77 0.77 0.67 0.59 0.58 0.49 0.42 0.37 0.41 0.21 0.38 0.23 0.17 0.14 0.17 0.16 0.14 0.17 0.42 0.26 0.22 0.18 0.17 0.18 0.30 0.41 0.48 0.50 0.58 0.62 0.58 0.55 0.62 0.49 0.52 0.72 1.00
0.59 0.75 0.69 0.85 0.97 0.90 0.97 1.02 1.02 0.99 1.00 0.95 0.87 0.64 0.54 0.54 0.54 0.53 0.42 0.36 0.46 0.51 0.48 0.41 0.46 0.71 0.48 0.54 0.66 0.75 1.16 1.43 1.41 1.15 0.94 0.83 0.70 0.58 0.56 0.54 0.51 0.56 0.71
0.45 0.40 0.52 0.55 0.53 0.67 0.67 0.66 0.71 0.73 0.74 0.74 0.72 0.73 0.66 0.59 0.71 0.62 0.53 0.58 0.74 0.75 0.91 0.91 0.99 1.03 0.80 0.91 1.09 1.39 1.47 1.28 1.06 1.04 1.02 0.97 0.91 0.83 0.77 0.68 0.63 0.61 0.65
0.16 0.21 0.24 0.27 0.36 0.38 0.39 0.45 0.37 0.33 0.34 0.35 0.38 0.41 0.44 0.39 0.36 0.45 0.38 0.41 0.49 0.57 0.76 0.89 0.81 0.66 0.56 0.59 0.72 0.84 0.88 0.91 1.07 1.22 1.28 1.27 1.20 1.11 1.00 0.93 0.86 0.78 0.70
0.03 0.05 0.07 0.09 0.12 0.15 0.19 0.25 0.31 0.34 0.33 0.31 0.28 0.25 0.23 0.22 0.23 0.23 0.27 0.34 0.44 0.56 0.71 0.77 0.77 0.71 0.70 0.81 0.95 1.02 1.06 1.17 1.28 1.36 1.38 1.35 1.22 1.05 0.90 0.78 0.64 0.54 0.44
0.00 0.00 0.01 0.01 0.01 0.04 0.06 0.10 0.12 0.20 0.21 0.26 0.32 0.32 0.32 0.42 0.51 0.49 0.45 0.43 0.39 0.43 0.45 0.50 0.58 0.67 0.73 0.82 0.87 0.90 0.93 0.92 0.86 0.83 0.75 0.66 0.56 0.47 0.38 0.29 0.21 0.15 0.11
0.01 0.01 0.02 0.02 0.01 0.00 0.01 0.03 0.07 0.09 0.07 0.09 0.13 0.16 0.29 0.41 0.46 0.50 0.52 0.52 0.54 0.56 0.55 0.59 0.65 0.67 0.67 0.66 0.62 0.59 0.53 0.46 0.41 0.34 0.28 0.23 0.17 0.11 0.07 0.03 0.02 0.02 0.01
0.01 0.02 0.01 0.01 0.02 0.03 0.02 0.02 0.05 0.06 0.04 0.08 0.11 0.14 0.16 0.21 0.18 0.18 0.17 0.17 0.20 0.19 0.20 0.25 0.26 0.26 0.25 0.23 0.22 0.20 0.19 0.17 0.13 0.08 0.05 0.03 0.01 0.01 0.01 0.01 0.01 0.00 0.00
0.04 0.04 0.04 0.05 0.04 0.03 0.03 0.04 0.03 0.03 0.05 0.09 0.17 0.20 0.19 0.16 0.15 0.14 0.14 0.13 0.16 0.15 0.15 0.16 0.16 0.16 0.14 0.13 0.11 0.09 0.06 0.03 0.01 0.01 0.01 0.00 0.00 0.00 0.00 0.00 0.00 0.00 0.00
0.03 0.05 0.06 0.05 0.06 0.05 0.03 0.03 0.03 0.03 0.05 0.10 0.11 0.11 0.13 0.10 0.07 0.07 0.06 0.07 0.09 0.10 0.10 0.10 0.10 0.09 0.07 0.04 0.02 0.01 0.00 0.00 0.00 0.00 0.00 0.00 0.00 0.00 0.00 0.00 0.00 0.00 0.00
0.04 0.04 0.04 0.05 0.05 0.05 0.05 0.04 0.04 0.04 0.04 0.05 0.06 0.12 0.11 0.05 0.05 0.06 0.06 0.06 0.06 0.06 0.06 0.05 0.03 0.01 0.00 0.00 0.00 0.00 0.00 0.00 0.00 0.00 0.00 0.00 0.00 0.00 0.00 0.00 0.00 0.00 0.00
0.05 0.04 0.05 0.05 0.06 0.07 0.06 0.06 0.06 0.05 0.05 0.06 0.08 0.08 0.05 0.03 0.04 0.04 0.04 0.03 0.02 0.02 0.01 0.00 0.00 0.00 0.00 0.00 0.00 0.00 0.00 0.00 0.00 0.00 0.00 0.00 0.00 0.00 0.00 0.00 0.00 0.00 0.00
0.05 0.06 0.06 0.07 0.07 0.07 0.08 0.08 0.08 0.07 0.07 0.06 0.05 0.03 0.01 0.01 0.01 0.00 0.00 0.01 0.01 0.01 0.00 0.00 0.00 0.00 0.00 0.00 0.00 0.00 0.00 0.00 0.00 0.00 0.00 0.00 0.00 0.00 0.00 0.00 0.00 0.00 0.00
0.06 0.06 0.06 0.08 0.09 0.08 0.06 0.06 0.06 0.04 0.02 0.01 0.01 0.00 0.00 0.00 0.00 0.01 0.01 0.01 0.00 0.00 0.00 0.00 0.00 0.00 0.01 0.00 0.00 0.00 0.00 0.00 0.00 0.00 0.00 0.00 0.00 0.00 0.00 0.00 0.00 0.00 0.00
0.04 0.05 0.04 0.04 0.03 0.02 0.02 0.01 0.01 0.00 0.00 0.01 0.01 0.01 0.00 0.01 0.01 0.01 0.01 0.01 0.01 0.01 0.01 0.00 0.00 0.00 0.00 0.00 0.00 0.00 0.00 0.00 0.00 0.00 0.00 0.00 0.00 0.00 0.00 0.00 0.00 0.00 0.00
0.01 0.01 0.01 0.01 0.01 0.02 0.02 0.01 0.01 0.01 0.01 0.01 0.01 0.01 0.01 0.01 0.01 0.01 0.01 0.00 0.00 0.00 0.00 0.00 0.00 0.00 0.00 0.00 0.00 0.00 0.00 0.00 0.00 0.00 0.00 0.00 0.00 0.00 0.00 0.00 0.00 0.00 0.00
0.00 0.00 0.01 0.01 0.01 0.01 0.01 0.02 0.01 0.01 0.01 0.01 0.01 0.01 0.00 0.01 0.01 0.00 0.00 0.00 0.00 0.00 0.00 0.00 0.00 0.00 0.01 0.00 0.00 0.00 0.00 0.00 0.00 0.00 0.00 0.00 0.01 0.00 0.00 0.00 0.00 0.00 0.00

GFSGL_prec_precacc24_117.txt.gz
Total_Precipitation_Accumulation
0.03 0.09 0.11 0.07 0.10 0.15 0.10 0.06 0.06 0.09 0.10 0.08 0.03 0.02 0.02 0.02 0.01 0.03 0.03 0.03 0.06 0.06 0.10 0.22 0.27 0.28 0.29 0.36 0.37 0.26 0.16 0.10 0.06 0.01 0.01 0.01 0.03 0.08 0.04 0.04 0.05 0.08 0.04
0.15 0.22 0.19 0.22 0.30 0.26 0.18 0.10 0.09 0.12 0.15 0.09 0.06 0.03 0.01 0.02 0.02 0.01 0.02 0.02 0.02 0.03 0.02 0.01 0.05 0.14 0.19 0.24 0.34 0.39 0.32 0.28 0.22 0.08 0.06 0.06 0.06 0.07 0.07 0.08 0.06 0.04 0.03
0.12 0.19 0.24 0.28 0.40 0.43 0.35 0.19 0.19 0.23 0.22 0.15 0.10 0.07 0.04 0.02 0.02 0.02 0.02 0.03 0.01 0.02 0.02 0.02 0.01 0.03 0.09 0.15 0.21 0.27 0.26 0.26 0.27 0.28 0.21 0.18 0.17 0.14 0.15 0.13 0.11 0.07 0.04
0.15 0.22 0.25 0.31 0.41 0.46 0.43 0.29 0.31 0.30 0.24 0.17 0.13 0.10 0.11 0.04 0.03 0.03 0.05 0.05 0.02 0.02 0.02 0.02 0.03 0.04 0.06 0.07 0.12 0.18 0.26 0.37 0.37 0.31 0.27 0.21 0.19 0.20 0.27 0.22 0.16 0.10 0.10
0.45 0.41 0.28 0.24 0.33 0.41 0.38 0.32 0.27 0.27 0.24 0.18 0.12 0.07 0.05 0.03 0.04 0.05 0.04 0.03 0.03 0.03 0.02 0.02 0.02 0.06 0.11 0.08 0.08 0.08 0.14 0.16 0.19 0.18 0.20 0.17 0.12 0.11 0.13 0.10 0.12 0.11 0.16
0.33 0.30 0.31 0.29 0.35 0.41 0.31 0.32 0.24 0.21 0.22 0.22 0.17 0.12 0.05 0.04 0.06 0.04 0.04 0.04 0.04 0.03 0.03 0.02 0.02 0.03 0.03 0.06 0.04 0.04 0.06 0.07 0.07 0.07 0.05 0.03 0.02 0.01 0.03 0.06 0.07 0.11 0.13
0.32 0.30 0.28 0.32 0.38 0.43 0.40 0.40 0.36 0.32 0.32 0.28 0.20 0.12 0.03 0.02 0.03 0.03 0.03 0.03 0.07 0.06 0.05 0.05 0.05 0.04 0.04 0.01 0.05 0.05 0.05 0.05 0.06 0.07 0.07 0.05 0.05 0.04 0.04 0.04 0.04 0.07 0.13
0.49 0.40 0.33 0.35 0.46 0.58 0.52 0.46 0.56 0.52 0.38 0.36 0.32 0.18 0.12 0.11 0.11 0.06 0.08 0.04 0.05 0.07 0.11 0.08 0.09 0.10 0.16 0.13 0.04 0.06 0.12 0.15 0.17 0.21 0.26 0.27 0.24 0.19 0.19 0.26 0.31 0.34 0.40
0.88 0.78 0.74 0.59 0.59 0.61 0.71 0.73 0.68 0.70 0.72 0.58 0.38 0.34 0.22 0.19 0.29 0.16 0.13 0.08 0.12 0.15 0.14 0.16 0.16 0.11 0.31 0.28 0.16 0.20 0.40 0.62 0.77 0.75 0.88 0.82 0.72 0.60 0.50 0.52 0.72 0.96 0.99
1.04 1.03 1.13 1.12 1.09 1.14 1.14 1.17 1.30 1.32 1.16 1.07 0.96 0.73 0.61 0.26 0.42 0.33 0.30 0.20 0.22 0.21 0.20 0.22 0.49 0.31 0.30 0.22 0.18 0.19 0.31 0.41 0.47 0.48 0.54 0.56 0.49 0.44 0.47 0.34 0.37 0.55 0.81
0.65 0.88 0.85 1.00 1.17 1.18 1.33 1.42 1.56 1.73 1.79 1.58 1.41 1.10 0.91 0.89 0.87 0.85 0.82 0.71 0.74 0.64 0.51 0.44 0.50 0.73 0.49 0.56 0.69 0.77 1.18 1.37 1.33 1.08 0.92 0.78 0.62 0.49 0.45 0.42 0.42 0.51 0.65
0.45 0.41 0.53 0.57 0.58 0.77 0.80 0.86 0.96 0.99 1.10 1.20 1.17 1.20 1.11 1.02 1.05 0.99 0.99 1.06 1.10 0.92 0.90 0.82 0.92 0.93 0.79 0.90 1.06 1.33 1.39 1.25 1.08 0.99 0.90 0.81 0.72 0.64 0.59 0.53 0.51 0.53 0.57
0.16 0.21 0.25 0.28 0.37 0.39 0.42 0.48 0.45 0.46 0.47 0.49 0.52 0.57 0.63 0.63 0.63 0.70 0.69 0.66 0.63 0.60 0.65 0.70 0.67 0.55 0.49 0.47 0.51 0.58 0.67 0.75 0.85 0.90 0.94 0.92 0.83 0.77 0.68 0.60 0.53 0.49 0.44
0.03 0.06 0.07 0.09 0.12 0.15 0.21 0.27 0.34 0.38 0.36 0.34 0.29 0.26 0.25 0.25 0.27 0.29 0.32 0.35 0.37 0.35 0.35 0.34 0.31 0.28 0.32 0.36 0.35 0.35 0.32 0.33 0.37 0.45 0.52 0.54 0.47 0.41 0.38 0.34 0.30 0.28 0.24
0.00 0.01 0.02 0.01 0.01 0.03 0.07 0.11 0.14 0.22 0.20 0.23 0.28 0.27 0.25 0.30 0.35 0.28 0.27 0.27 0.28 0.27 0.21 0.16 0.14 0.14 0.15 0.17 0.20 0.19 0.17 0.15 0.15 0.16 0.17 0.19 0.20 0.20 0.18 0.16 0.13 0.10 0.07
0.01 0.01 0.02 0.03 0.02 0.00 0.00 0.02 0.05 0.08 0.05 0.06 0.08 0.11 0.16 0.17 0.13 0.11 0.11 0.12 0.14 0.16 0.17 0.20 0.21 0.20 0.19 0.18 0.16 0.13 0.10 0.08 0.07 0.07 0.08 0.09 0.08 0.06 0.04 0.02 0.01 0.01 0.01
0.02 0.02 0.01 0.02 0.03 0.03 0.02 0.01 0.03 0.03 0.01 0.03 0.03 0.04 0.05 0.06 0.03 0.03 0.02 0.02 0.02 0.02 0.03 0.05 0.06 0.07 0.08 0.08 0.09 0.09 0.09 0.07 0.05 0.03 0.02 0.01 0.01 0.01 0.01 0.01 0.01 0.00 0.00
0.03 0.03 0.03 0.04 0.04 0.03 0.03 0.03 0.03 0.02 0.02 0.03 0.04 0.04 0.04 0.02 0.01 0.01 0.00 0.00 0.00 0.00 0.01 0.01 0.02 0.02 0.02 0.02 0.02 0.01 0.01 0.01 0.00 0.00 0.00 0.00 0.00 0.00 0.00 0.00 0.00 0.00 0.00
0.01 0.03 0.04 0.03 0.04 0.03 0.03 0.02 0.03 0.02 0.03 0.05 0.05 0.04 0.03 0.02 0.01 0.00 0.00 0.01 0.01 0.01 0.01 0.02 0.02 0.02 0.01 0.01 0.00 0.00 0.00 0.00 0.00 0.00 0.00 0.00 0.00 0.00 0.00 0.00 0.00 0.00 0.00
0.02 0.02 0.02 0.03 0.03 0.03 0.03 0.03 0.03 0.02 0.02 0.02 0.03 0.07 0.05 0.01 0.02 0.02 0.01 0.01 0.01 0.01 0.01 0.01 0.01 0.00 0.00 0.00 0.00 0.00 0.00 0.00 0.00 0.00 0.00 0.00 0.00 0.00 0.00 0.00 0.00 0.00 0.00
0.05 0.03 0.03 0.03 0.04 0.04 0.04 0.04 0.03 0.02 0.02 0.03 0.04 0.03 0.02 0.01 0.02 0.02 0.02 0.01 0.01 0.01 0.00 0.00 0.00 0.00 0.00 0.00 0.00 0.00 0.00 0.00 0.00 0.00 0.00 0.00 0.00 0.00 0.00 0.00 0.00 0.00 0.00
0.04 0.04 0.03 0.04 0.03 0.03 0.04 0.05 0.04 0.04 0.03 0.02 0.02 0.01 0.00 0.00 0.00 0.00 0.00 0.01 0.01 0.00 0.00 0.00 0.00 0.00 0.00 0.00 0.00 0.00 0.00 0.00 0.00 0.00 0.00 0.00 0.00 0.00 0.00 0.00 0.00 0.00 0.00
0.03 0.03 0.03 0.04 0.05 0.04 0.03 0.03 0.03 0.02 0.01 0.00 0.00 0.00 0.00 0.00 0.00 0.01 0.01 0.00 0.00 0.00 0.00 0.00 0.00 0.00 0.01 0.00 0.00 0.00 0.00 0.00 0.00 0.00 0.00 0.00 0.00 0.00 0.00 0.00 0.00 0.00 0.00
0.01 0.02 0.02 0.02 0.02 0.02 0.02 0.01 0.01 0.01 0.00 0.00 0.00 0.00 0.00 0.01 0.01 0.01 0.01 0.01 0.01 0.01 0.01 0.00 0.00 0.00 0.00 0.00 0.00 0.00 0.00 0.00 0.00 0.00 0.00 0.00 0.00 0.00 0.00 0.00 0.00 0.00 0.00
0.01 0.01 0.01 0.01 0.02 0.03 0.03 0.01 0.01 0.01 0.01 0.01 0.02 0.01 0.01 0.01 0.01 0.01 0.01 0.00 0.01 0.01 0.00 0.00 0.00 0.00 0.00 0.00 0.00 0.00 0.00 0.00 0.00 0.00 0.00 0.00 0.00 0.00 0.00 0.00 0.00 0.00 0.00
0.00 0.00 0.01 0.01 0.01 0.01 0.02 0.02 0.02 0.02 0.01 0.01 0.01 0.01 0.01 0.00 0.01 0.00 0.00 0.00 0.00 0.00 0.00 0.00 0.00 0.00 0.01 0.00 0.00 0.00 0.00 0.00 0.00 0.00 0.00 0.00 0.01 0.00 0.00 0.00 0.00 0.00 0.00

GFSGL_prec_precacc24_120.txt.gz
Total_Precipitation_Accumulation
0.03 0.10 0.11 0.07 0.10 0.15 0.10 0.08 0.11 0.15 0.16 0.13 0.09 0.06 0.03 0.04 0.03 0.03 0.02 0.03 0.05 0.06 0.10 0.22 0.27 0.29 0.29 0.36 0.39 0.32 0.22 0.14 0.10 0.07 0.07 0.06 0.06 0.08 0.04 0.04 0.05 0.07 0.04
0.15 0.23 0.20 0.22 0.30 0.27 0.19 0.12 0.12 0.13 0.18 0.15 0.14 0.07 0.03 0.04 0.03 0.02 0.02 0.02 0.02 0.02 0.02 0.02 0.05 0.14 0.19 0.24 0.34 0.42 0.39 0.34 0.30 0.16 0.10 0.08 0.07 0.07 0.07 0.08 0.06 0.05 0.04
0.11 0.20 0.25 0.30 0.41 0.45 0.37 0.21 0.23 0.26 0.25 0.22 0.17 0.11 0.08 0.07 0.05 0.04 0.03 0.03 0.02 0.02 0.02 0.02 0.01 0.03 0.09 0.16 0.22 0.28 0.29 0.35 0.36 0.38 0.28 0.20 0.17 0.14 0.15 0.14 0.12 0.10 0.08
0.12 0.16 0.23 0.31 0.43 0.48 0.45 0.31 0.35 0.34 0.28 0.24 0.21 0.18 0.19 0.13 0.08 0.07 0.06 0.05 0.02 0.02 0.02 0.02 0.04 0.04 0.07 0.10 0.15 0.21 0.29 0.44 0.50 0.49 0.42 0.32 0.26 0.25 0.31 0.24 0.19 0.16 0.19
0.38 0.39 0.26 0.23 0.32 0.42 0.42 0.37 0.33 0.34 0.32 0.26 0.20 0.16 0.15 0.13 0.12 0.09 0.05 0.04 0.04 0.03 0.03 0.02 0.02 0.07 0.13 0.11 0.13 0.15 0.21 0.26 0.32 0.35 0.42 0.37 0.25 0.24 0.25 0.19 0.22 0.21 0.39
0.31 0.28 0.30 0.28 0.33 0.40 0.30 0.32 0.25 0.23 0.26 0.32 0.39 0.35 0.23 0.15 0.17 0.10 0.07 0.05 0.04 0.04 0.04 0.03 0.02 0.05 0.04 0.10 0.15 0.15 0.12 0.15 0.18 0.16 0.14 0.12 0.07 0.07 0.12 0.18 0.19 0.31 0.33
0.31 0.29 0.28 0.32 0.38 0.43 0.39 0.40 0.35 0.32 0.34 0.30 0.29 0.32 0.45 0.49 0.43 0.25 0.13 0.06 0.07 0.07 0.06 0.06 0.06 0.05 0.05 0.02 0.07 0.09 0.12 0.10 0.09 0.09 0.11 0.08 0.08 0.07 0.08 0.11 0.11 0.13 0.19
0.48 0.39 0.32 0.35 0.46 0.58 0.52 0.47 0.56 0.52 0.43 0.45 0.48 0.36 0.26 0.30 0.35 0.20 0.17 0.06 0.06 0.08 0.13 0.11 0.11 0.11 0.18 0.15 0.05 0.08 0.14 0.18 0.20 0.22 0.26 0.27 0.24 0.19 0.19 0.25 0.29 0.31 0.36
0.88 0.78 0.74 0.59 0.60 0.62 0.71 0.73 0.69 0.71 0.78 0.77 0.70 0.71 0.59 0.39 0.38 0.31 0.24 0.09 0.09 0.13 0.15 0.18 0.18 0.13 0.33 0.30 0.17 0.22 0.42 0.63 0.79 0.77 0.88 0.82 0.71 0.58 0.48 0.51 0.68 0.87 0.88
1.04 1.03 1.14 1.12 1.09 1.14 1.15 1.19 1.31 1.32 1.19 1.10 1.03 0.94 0.96 0.64 0.74 0.60 0.44 0.23 0.20 0.18 0.17 0.20 0.39 0.25 0.30 0.23 0.17 0.19 0.31 0.39 0.45 0.47 0.54 0.54 0.48 0.42 0.44 0.33 0.37 0.53 0.75
0.65 0.88 0.85 1.00 1.17 1.18 1.33 1.43 1.57 1.76 1.86 1.73 1.60 1.34 1.16 1.16 1.19 1.20 1.18 0.94 0.82 0.63 0.51 0.45 0.52 0.77 0.57 0.59 0.64 0.62 0.98 1.13 1.15 0.98 0.86 0.72 0.56 0.43 0.39 0.37 0.38 0.46 0.60
0.45 0.41 0.53 0.57 0.58 0.77 0.80 0.86 0.97 1.01 1.14 1.25 1.26 1.35 1.30 1.23 1.23 1.21 1.27 1.38 1.32 0.94 0.82 0.71 0.83 0.85 0.70 0.75 0.82 0.99 1.03 0.82 0.62 0.56 0.50 0.49 0.48 0.45 0.42 0.38 0.40 0.45 0.51
0.16 0.21 0.25 0.28 0.37 0.39 0.42 0.48 0.45 0.46 0.47 0.49 0.53 0.58 0.65 0.69 0.73 0.83 0.87 0.89 0.88 0.77 0.75 0.76 0.73 0.61 0.57 0.60 0.62 0.65 0.62 0.52 0.48 0.50 0.50 0.48 0.40 0.33 0.30 0.28 0.27 0.28 0.30
0.03 0.06 0.07 0.09 0.12 0.15 0.21 0.27 0.34 0.38 0.37 0.33 0.29 0.27 0.26 0.26 0.30 0.34 0.40 0.47 0.53 0.54 0.54 0.49 0.43 0.37 0.36 0.38 0.41 0.46 0.44 0.41 0.37 0.33 0.31 0.31 0.25 0.17 0.15 0.15 0.13 0.12 0.10
0.00 0.01 0.02 0.01 0.01 0.03 0.06 0.10 0.14 0.24 0.22 0.25 0.30 0.28 0.26 0.31 0.37 0.29 0.28 0.30 0.32 0.34 0.30 0.27 0.24 0.23 0.21 0.21 0.21 0.22 0.23 0.23 0.22 0.21 0.18 0.14 0.08 0.05 0.04 0.03 0.02 0.02 0.01
0.01 0.01 0.02 0.03 0.01 0.00 0.00 0.02 0.04 0.07 0.05 0.07 0.08 0.11 0.16 0.17 0.13 0.11 0.11 0.12 0.15 0.17 0.18 0.22 0.25 0.24 0.23 0.22 0.19 0.17 0.14 0.12 0.09 0.06 0.05 0.04 0.03 0.02 0.02 0.02 0.02 0.02 0.01
0.02 0.02 0.01 0.02 0.03 0.03 0.02 0.01 0.02 0.02 0.01 0.02 0.03 0.04 0.04 0.05 0.03 0.03 0.02 0.02 0.02 0.02 0.03 0.05 0.07 0.08 0.10 0.10 0.11 0.11 0.11 0.11 0.09 0.08 0.06 0.04 0.03 0.03 0.03 0.03 0.02 0.01 0.01
0.03 0.03 0.03 0.04 0.03 0.02 0.03 0.03 0.03 0.02 0.02 0.03 0.03 0.03 0.03 0.01 0.01 0.00 0.00 0.00 0.00 0.00 0.01 0.01 0.01 0.01 0.01 0.01 0.02 0.02 0.02 0.02 0.02 0.01 0.01 0.01 0.01 0.01 0.01 0.01 0.01 0.00 0.00
0.01 0.03 0.04 0.03 0.04 0.03 0.02 0.02 0.02 0.02 0.03 0.05 0.05 0.04 0.03 0.01 0.00 0.00 0.00 0.00 0.01 0.00 0.00 0.00 0.01 0.00 0.00 0.00 0.00 0.00 0.00 0.00 0.00 0.00 0.00 0.00 0.00 0.00 0.00 0.00 0.00 0.00 0.00
0.02 0.01 0.02 0.03 0.03 0.03 0.03 0.03 0.02 0.02 0.02 0.02 0.02 0.06 0.04 0.01 0.01 0.01 0.01 0.01 0.00 0.00 0.00 0.00 0.00 0.00 0.00 0.00 0.00 0.00 0.00 0.00 0.00 0.00 0.00 0.00 0.00 0.00 0.00 0.00 0.00 0.00 0.00
0.04 0.02 0.02 0.02 0.03 0.04 0.04 0.03 0.03 0.02 0.02 0.03 0.04 0.02 0.01 0.01 0.01 0.01 0.01 0.01 0.01 0.01 0.01 0.00 0.01 0.00 0.00 0.00 0.00 0.00 0.00 0.00 0.00 0.00 0.00 0.00 0.00 0.00 0.00 0.00 0.00 0.00 0.00
0.03 0.03 0.02 0.04 0.03 0.03 0.04 0.04 0.04 0.03 0.03 0.02 0.02 0.00 0.00 0.00 0.00 0.00 0.00 0.00 0.01 0.01 0.00 0.00 0.00 0.00 0.00 0.00 0.00 0.00 0.00 0.00 0.00 0.00 0.00 0.00 0.00 0.00 0.00 0.00 0.00 0.00 0.00
0.02 0.03 0.02 0.03 0.05 0.03 0.03 0.03 0.03 0.02 0.01 0.00 0.00 0.00 0.00 0.00 0.00 0.01 0.01 0.00 0.00 0.00 0.00 0.00 0.00 0.00 0.01 0.00 0.00 0.00 0.00 0.00 0.00 0.00 0.00 0.00 0.00 0.00 0.00 0.00 0.00 0.00 0.00
0.01 0.02 0.02 0.02 0.02 0.02 0.02 0.01 0.01 0.01 0.01 0.01 0.00 0.00 0.00 0.01 0.01 0.00 0.01 0.01 0.01 0.01 0.01 0.00 0.00 0.00 0.00 0.00 0.00 0.00 0.00 0.00 0.00 0.00 0.00 0.00 0.00 0.00 0.00 0.00 0.00 0.00 0.00
0.01 0.01 0.01 0.01 0.02 0.03 0.03 0.01 0.01 0.01 0.01 0.01 0.02 0.01 0.02 0.01 0.01 0.01 0.01 0.00 0.01 0.01 0.00 0.00 0.00 0.00 0.00 0.00 0.00 0.00 0.00 0.00 0.00 0.00 0.00 0.00 0.00 0.00 0.00 0.00 0.00 0.00 0.00
0.00 0.00 0.01 0.01 0.01 0.01 0.02 0.02 0.02 0.02 0.01 0.01 0.01 0.02 0.01 0.01 0.01 0.00 0.00 0.00 0.00 0.00 0.00 0.00 0.00 0.00 0.01 0.00 0.00 0.00 0.00 0.00 0.00 0.00 0.00 0.00 0.01 0.00 0.00 0.00 0.00 0.00 0.00

GFSGL_prec_precacc24_123.txt.gz
Total_Precipitation_Accumulation
0.03 0.09 0.11 0.07 0.10 0.15 0.10 0.08 0.12 0.17 0.23 0.19 0.15 0.11 0.06 0.07 0.07 0.06 0.04 0.04 0.06 0.08 0.12 0.22 0.28 0.29 0.29 0.36 0.39 0.32 0.22 0.15 0.12 0.09 0.12 0.15 0.19 0.19 0.14 0.09 0.07 0.08 0.04
0.12 0.20 0.19 0.22 0.30 0.27 0.20 0.13 0.13 0.15 0.20 0.20 0.21 0.14 0.07 0.07 0.07 0.06 0.04 0.03 0.04 0.04 0.05 0.03 0.06 0.15 0.20 0.24 0.34 0.42 0.39 0.33 0.31 0.19 0.16 0.20 0.13 0.10 0.11 0.11 0.08 0.06 0.04
0.07 0.19 0.25 0.30 0.42 0.45 0.37 0.22 0.24 0.28 0.27 0.24 0.20 0.15 0.11 0.09 0.08 0.07 0.10 0.05 0.04 0.03 0.03 0.01 0.02 0.03 0.08 0.15 0.22 0.28 0.30 0.37 0.39 0.41 0.36 0.31 0.26 0.19 0.18 0.15 0.12 0.10 0.09
0.09 0.13 0.23 0.31 0.43 0.48 0.46 0.32 0.36 0.36 0.31 0.27 0.24 0.22 0.24 0.17 0.12 0.12 0.11 0.08 0.06 0.04 0.03 0.03 0.04 0.04 0.06 0.08 0.14 0.21 0.29 0.45 0.52 0.56 0.57 0.46 0.33 0.28 0.33 0.25 0.20 0.16 0.21
0.31 0.31 0.23 0.22 0.32 0.42 0.42 0.37 0.34 0.36 0.34 0.28 0.22 0.19 0.22 0.23 0.23 0.16 0.10 0.08 0.09 0.07 0.04 0.03 0.03 0.07 0.13 0.11 0.13 0.15 0.22 0.27 0.34 0.40 0.52 0.52 0.39 0.32 0.30 0.21 0.25 0.27 0.47
0.29 0.25 0.26 0.26 0.32 0.40 0.30 0.32 0.25 0.24 0.28 0.37 0.46 0.51 0.44 0.29 0.28 0.16 0.12 0.07 0.06 0.07 0.07 0.04 0.03 0.05 0.04 0.10 0.15 0.15 0.14 0.16 0.20 0.21 0.21 0.23 0.17 0.20 0.28 0.38 0.36 0.51 0.48
0.30 0.26 0.24 0.28 0.34 0.40 0.38 0.39 0.35 0.32 0.34 0.31 0.31 0.39 0.62 0.71 0.72 0.66 0.52 0.36 0.31 0.26 0.13 0.09 0.07 0.05 0.06 0.02 0.08 0.12 0.16 0.16 0.13 0.11 0.13 0.12 0.11 0.10 0.16 0.25 0.29 0.35 0.31
0.44 0.37 0.31 0.33 0.44 0.56 0.49 0.44 0.54 0.51 0.42 0.44 0.47 0.37 0.28 0.33 0.47 0.54 0.63 0.65 0.72 0.61 0.35 0.15 0.11 0.11 0.19 0.16 0.05 0.08 0.15 0.19 0.22 0.25 0.27 0.25 0.21 0.18 0.20 0.28 0.35 0.45 0.49
0.82 0.77 0.74 0.59 0.59 0.61 0.70 0.71 0.66 0.68 0.75 0.74 0.67 0.68 0.56 0.40 0.45 0.42 0.42 0.30 0.33 0.33 0.25 0.20 0.18 0.12 0.33 0.29 0.15 0.21 0.40 0.60 0.74 0.70 0.76 0.73 0.63 0.52 0.44 0.47 0.64 0.77 0.77
1.04 1.03 1.14 1.12 1.09 1.14 1.15 1.19 1.31 1.32 1.17 1.07 0.99 0.90 0.92 0.71 0.89 0.85 0.80 0.64 0.58 0.52 0.37 0.25 0.37 0.25 0.36 0.25 0.14 0.12 0.22 0.29 0.30 0.34 0.38 0.39 0.35 0.32 0.35 0.26 0.31 0.46 0.59
0.65 0.88 0.85 1.00 1.17 1.18 1.33 1.43 1.57 1.76 1.86 1.73 1.59 1.33 1.14 1.14 1.18 1.25 1.37 1.24 1.13 0.89 0.67 0.55 0.59 0.78 0.62 0.67 0.74 0.69 0.93 0.91 0.84 0.66 0.55 0.44 0.34 0.26 0.22 0.21 0.21 0.27 0.32
0.45 0.41 0.53 0.57 0.58 0.77 0.80 0.86 0.97 1.01 1.14 1.25 1.26 1.35 1.30 1.24 1.25 1.26 1.34 1.51 1.52 1.24 1.10 0.89 0.94 0.92 0.75 0.80 0.82 0.99 1.00 0.80 0.54 0.44 0.34 0.27 0.21 0.19 0.18 0.17 0.20 0.26 0.31
0.16 0.21 0.25 0.28 0.37 0.39 0.42 0.48 0.45 0.46 0.47 0.49 0.53 0.58 0.65 0.69 0.75 0.87 0.95 0.99 1.03 1.01 1.06 1.07 1.00 0.81 0.69 0.71 0.77 0.79 0.74 0.61 0.57 0.55 0.52 0.45 0.31 0.25 0.26 0.25 0.24 0.24 0.24
0.03 0.06 0.07 0.09 0.12 0.15 0.21 0.27 0.34 0.39 0.37 0.34 0.29 0.27 0.26 0.26 0.30 0.34 0.41 0.49 0.57 0.62 0.65 0.65 0.62 0.57 0.55 0.54 0.58 0.64 0.62 0.60 0.58 0.54 0.50 0.50 0.45 0.37 0.31 0.25 0.21 0.19 0.16
0.00 0.01 0.02 0.01 0.01 0.03 0.06 0.10 0.14 0.24 0.23 0.26 0.31 0.28 0.27 0.31 0.37 0.29 0.29 0.30 0.32 0.35 0.31 0.29 0.28 0.29 0.29 0.31 0.32 0.34 0.40 0.44 0.43 0.43 0.39 0.34 0.26 0.21 0.18 0.16 0.14 0.11 0.09
0.01 0.02 0.03 0.03 0.01 0.00 0.00 0.01 0.04 0.06 0.05 0.07 0.09 0.11 0.16 0.17 0.13 0.11 0.11 0.12 0.15 0.17 0.18 0.22 0.25 0.25 0.26 0.26 0.26 0.25 0.23 0.21 0.21 0.20 0.19 0.17 0.15 0.11 0.08 0.05 0.04 0.04 0.04
0.02 0.03 0.01 0.02 0.03 0.03 0.02 0.01 0.02 0.02 0.01 0.02 0.03 0.03 0.04 0.05 0.03 0.03 0.02 0.02 0.02 0.02 0.03 0.05 0.07 0.09 0.10 0.11 0.13 0.14 0.16 0.17 0.16 0.15 0.13 0.11 0.09 0.07 0.06 0.05 0.04 0.03 0.03
0.03 0.02 0.03 0.04 0.03 0.02 0.03 0.03 0.03 0.02 0.02 0.03 0.03 0.02 0.02 0.01 0.01 0.00 0.00 0.00 0.00 0.00 0.01 0.01 0.01 0.01 0.01 0.02 0.02 0.02 0.03 0.04 0.04 0.05 0.05 0.05 0.04 0.03 0.02 0.02 0.01 0.01 0.01
0.01 0.03 0.03 0.03 0.03 0.03 0.02 0.02 0.02 0.02 0.03 0.04 0.04 0.04 0.02 0.01 0.00 0.00 0.00 0.00 0.01 0.00 0.00 0.00 0.00 0.00 0.00 0.00 0.00 0.00 0.00 0.00 0.00 0.00 0.00 0.00 0.00 0.00 0.00 0.00 0.00 0.00 0.00
0.02 0.01 0.02 0.02 0.02 0.02 0.02 0.02 0.02 0.02 0.02 0.02 0.02 0.06 0.04 0.01 0.01 0.01 0.01 0.01 0.00 0.00 0.00 0.00 0.00 0.00 0.00 0.00 0.00 0.00 0.00 0.00 0.00 0.00 0.00 0.00 0.00 0.00 0.00 0.00 0.00 0.00 0.00
0.04 0.02 0.02 0.02 0.02 0.03 0.03 0.03 0.02 0.01 0.02 0.02 0.03 0.02 0.01 0.01 0.01 0.01 0.01 0.01 0.01 0.01 0.00 0.00 0.00 0.00 0.00 0.00 0.00 0.00 0.00 0.00 0.00 0.00 0.00 0.00 0.00 0.00 0.00 0.00 0.00 0.00 0.00
0.02 0.02 0.01 0.03 0.02 0.02 0.03 0.04 0.04 0.02 0.02 0.02 0.01 0.00 0.00 0.00 0.00 0.00 0.00 0.00 0.01 0.01 0.00 0.00 0.00 0.00 0.00 0.00 0.00 0.00 0.00 0.00 0.00 0.00 0.00 0.00 0.00 0.00 0.00 0.00 0.00 0.00 0.00
0.01 0.02 0.01 0.02 0.04 0.02 0.02 0.03 0.03 0.02 0.01 0.00 0.00 0.00 0.00 0.00 0.00 0.01 0.01 0.00 0.00 0.00 0.00 0.00 0.00 0.00 0.01 0.00 0.00 0.00 0.00 0.00 0.00 0.00 0.00 0.00 0.00 0.00 0.00 0.00 0.00 0.00 0.00
0.01 0.02 0.01 0.02 0.02 0.02 0.03 0.02 0.01 0.01 0.01 0.01 0.01 0.01 0.01 0.01 0.01 0.00 0.01 0.01 0.01 0.01 0.01 0.00 0.00 0.00 0.00 0.00 0.00 0.00 0.00 0.00 0.00 0.00 0.00 0.00 0.00 0.00 0.00 0.00 0.00 0.00 0.00
0.01 0.01 0.01 0.01 0.02 0.03 0.03 0.01 0.01 0.01 0.01 0.01 0.02 0.02 0.02 0.01 0.01 0.01 0.01 0.00 0.01 0.01 0.00 0.00 0.00 0.00 0.00 0.00 0.00 0.00 0.00 0.00 0.00 0.00 0.00 0.00 0.00 0.00 0.00 0.00 0.00 0.00 0.00
0.00 0.00 0.01 0.01 0.01 0.01 0.02 0.02 0.02 0.02 0.01 0.02 0.01 0.02 0.01 0.01 0.01 0.00 0.00 0.00 0.00 0.00 0.00 0.00 0.00 0.00 0.01 0.00 0.00 0.00 0.00 0.00 0.00 0.00 0.00 0.00 0.01 0.00 0.00 0.00 0.00 0.00 0.00

GFSGL_prec_precacc24_126.txt.gz
Total_Precipitation_Accumulation
0.04 0.10 0.11 0.07 0.10 0.15 0.10 0.08 0.12 0.17 0.25 0.22 0.19 0.16 0.09 0.09 0.08 0.08 0.04 0.04 0.05 0.09 0.13 0.20 0.26 0.27 0.28 0.36 0.38 0.32 0.22 0.16 0.13 0.09 0.11 0.16 0.23 0.28 0.27 0.20 0.15 0.12 0.05
0.13 0.20 0.20 0.22 0.31 0.27 0.20 0.13 0.13 0.15 0.20 0.22 0.26 0.20 0.14 0.12 0.09 0.07 0.05 0.04 0.05 0.08 0.10 0.07 0.08 0.17 0.21 0.24 0.34 0.42 0.39 0.33 0.30 0.19 0.16 0.20 0.15 0.14 0.19 0.23 0.19 0.14 0.08
0.11 0.20 0.26 0.31 0.42 0.45 0.37 0.22 0.25 0.28 0.28 0.24 0.21 0.17 0.15 0.15 0.14 0.12 0.15 0.12 0.10 0.09 0.08 0.06 0.05 0.05 0.09 0.15 0.22 0.28 0.30 0.38 0.39 0.40 0.36 0.30 0.27 0.23 0.23 0.18 0.16 0.15 0.12
0.06 0.08 0.21 0.31 0.43 0.48 0.46 0.32 0.37 0.37 0.32 0.29 0.27 0.25 0.26 0.21 0.16 0.16 0.14 0.12 0.10 0.10 0.09 0.07 0.06 0.05 0.06 0.08 0.13 0.20 0.29 0.45 0.52 0.56 0.57 0.48 0.36 0.31 0.36 0.28 0.24 0.21 0.27
0.16 0.20 0.18 0.21 0.32 0.42 0.42 0.37 0.34 0.37 0.35 0.30 0.25 0.23 0.24 0.24 0.24 0.17 0.10 0.08 0.10 0.10 0.09 0.09 0.06 0.11 0.15 0.11 0.13 0.15 0.21 0.26 0.34 0.39 0.52 0.53 0.43 0.36 0.33 0.24 0.28 0.33 0.54
0.22 0.20 0.24 0.24 0.31 0.40 0.30 0.32 0.26 0.24 0.28 0.38 0.48 0.53 0.46 0.31 0.33 0.17 0.13 0.08 0.07 0.08 0.08 0.07 0.08 0.12 0.09 0.12 0.15 0.15 0.14 0.16 0.20 0.21 0.20 0.23 0.17 0.22 0.34 0.47 0.45 0.61 0.54
0.26 0.25 0.23 0.25 0.30 0.35 0.34 0.38 0.34 0.32 0.34 0.31 0.33 0.44 0.68 0.83 0.89 0.80 0.65 0.47 0.42 0.43 0.40 0.36 0.27 0.22 0.19 0.09 0.10 0.12 0.16 0.16 0.14 0.11 0.11 0.11 0.11 0.10 0.18 0.36 0.45 0.50 0.41
0.43 0.35 0.28 0.31 0.42 0.53 0.46 0.41 0.50 0.50 0.41 0.44 0.47 0.37 0.26 0.32 0.47 0.57 0.74 0.86 0.95 0.83 0.80 0.71 0.72 0.69 0.66 0.53 0.15 0.09 0.15 0.19 0.23 0.25 0.26 0.24 0.18 0.14 0.16 0.24 0.34 0.51 0.59
0.78 0.69 0.63 0.51 0.55 0.59 0.69 0.71 0.65 0.67 0.74 0.72 0.65 0.66 0.53 0.38 0.42 0.41 0.44 0.34 0.40 0.45 0.39 0.35 0.35 0.33 0.54 0.44 0.20 0.17 0.31 0.36 0.47 0.47 0.47 0.50 0.43 0.34 0.28 0.31 0.41 0.49 0.54
0.94 0.96 1.09 1.07 1.06 1.13 1.14 1.18 1.30 1.31 1.16 1.06 0.99 0.89 0.89 0.69 0.86 0.84 0.80 0.69 0.68 0.62 0.48 0.39 0.48 0.39 0.49 0.31 0.17 0.14 0.23 0.23 0.22 0.27 0.30 0.30 0.28 0.26 0.31 0.22 0.23 0.31 0.34
0.63 0.86 0.83 1.00 1.18 1.18 1.34 1.43 1.57 1.76 1.86 1.73 1.60 1.33 1.14 1.13 1.15 1.24 1.36 1.24 1.16 0.98 0.85 0.77 0.80 0.97 0.77 0.79 0.81 0.69 0.91 0.84 0.73 0.50 0.40 0.33 0.25 0.19 0.16 0.16 0.17 0.23 0.26
0.44 0.41 0.53 0.57 0.58 0.77 0.80 0.86 0.97 1.02 1.14 1.26 1.26 1.35 1.30 1.24 1.25 1.26 1.34 1.51 1.52 1.25 1.15 1.02 1.09 1.07 0.93 0.95 0.98 1.18 1.16 0.90 0.66 0.59 0.48 0.42 0.33 0.26 0.22 0.19 0.22 0.28 0.33
0.15 0.20 0.24 0.28 0.37 0.40 0.42 0.48 0.45 0.47 0.47 0.50 0.53 0.58 0.65 0.69 0.75 0.87 0.94 0.99 1.03 1.02 1.08 1.12 1.09 0.93 0.83 0.88 0.98 1.03 0.97 0.78 0.71 0.69 0.67 0.61 0.44 0.36 0.36 0.35 0.30 0.27 0.28
0.03 0.05 0.07 0.09 0.12 0.15 0.21 0.27 0.34 0.39 0.37 0.34 0.29 0.27 0.26 0.26 0.30 0.34 0.41 0.49 0.58 0.62 0.66 0.67 0.65 0.61 0.61 0.65 0.73 0.83 0.86 0.90 0.88 0.79 0.70 0.66 0.60 0.50 0.43 0.38 0.35 0.33 0.28
0.00 0.01 0.02 0.01 0.01 0.03 0.06 0.10 0.14 0.24 0.23 0.26 0.31 0.29 0.27 0.32 0.37 0.30 0.29 0.30 0.32 0.35 0.31 0.29 0.29 0.31 0.33 0.36 0.40 0.47 0.57 0.64 0.67 0.70 0.66 0.58 0.47 0.40 0.36 0.35 0.34 0.30 0.28
0.01 0.01 0.02 0.03 0.01 0.00 0.00 0.01 0.03 0.06 0.04 0.07 0.09 0.11 0.16 0.17 0.13 0.11 0.11 0.12 0.15 0.17 0.18 0.22 0.25 0.26 0.27 0.29 0.29 0.31 0.30 0.31 0.35 0.35 0.36 0.34 0.31 0.27 0.22 0.19 0.17 0.18 0.18
0.02 0.02 0.01 0.01 0.03 0.03 0.02 0.01 0.02 0.01 0.01 0.01 0.02 0.03 0.04 0.05 0.03 0.02 0.02 0.02 0.02 0.02 0.03 0.05 0.08 0.09 0.11 0.12 0.14 0.16 0.19 0.22 0.22 0.22 0.22 0.21 0.19 0.17 0.15 0.14 0.13 0.12 0.10
0.02 0.02 0.02 0.04 0.03 0.02 0.03 0.03 0.02 0.02 0.02 0.02 0.02 0.02 0.02 0.01 0.00 0.00 0.00 0.00 0.00 0.00 0.00 0.01 0.01 0.01 0.01 0.02 0.02 0.03 0.04 0.05 0.06 0.08 0.09 0.10 0.10 0.09 0.08 0.07 0.06 0.05 0.04
0.01 0.02 0.03 0.03 0.03 0.02 0.02 0.02 0.02 0.02 0.03 0.04 0.04 0.04 0.02 0.01 0.00 0.00 0.00 0.00 0.01 0.00 0.00 0.00 0.00 0.00 0.00 0.00 0.01 0.00 0.00 0.00 0.00 0.00 0.00 0.01 0.01 0.01 0.01 0.01 0.01 0.01 0.01
0.02 0.01 0.01 0.02 0.02 0.02 0.02 0.02 0.02 0.02 0.02 0.02 0.02 0.05 0.03 0.01 0.01 0.01 0.01 0.01 0.00 0.01 0.00 0.00 0.00 0.00 0.00 0.00 0.00 0.00 0.00 0.00 0.00 0.00 0.00 0.00 0.00 0.00 0.00 0.00 0.00 0.00 0.00
0.03 0.01 0.01 0.01 0.02 0.03 0.03 0.03 0.02 0.02 0.02 0.02 0.03 0.02 0.01 0.01 0.01 0.01 0.01 0.01 0.01 0.01 0.01 0.00 0.01 0.00 0.00 0.00 0.00 0.00 0.00 0.00 0.00 0.00 0.00 0.00 0.00 0.00 0.00 0.00 0.00 0.00 0.00
0.02 0.02 0.01 0.02 0.02 0.02 0.04 0.04 0.04 0.03 0.03 0.02 0.02 0.00 0.00 0.00 0.00 0.00 0.00 0.01 0.01 0.01 0.01 0.00 0.00 0.00 0.00 0.00 0.00 0.00 0.00 0.00 0.00 0.00 0.00 0.00 0.00 0.00 0.00 0.00 0.00 0.00 0.00
0.01 0.02 0.01 0.02 0.03 0.02 0.02 0.03 0.04 0.03 0.01 0.01 0.01 0.01 0.01 0.01 0.01 0.01 0.01 0.01 0.00 0.00 0.00 0.00 0.00 0.00 0.01 0.00 0.00 0.00 0.00 0.00 0.01 0.01 0.00 0.00 0.00 0.00 0.00 0.00 0.00 0.00 0.00
0.01 0.01 0.01 0.01 0.02 0.02 0.03 0.02 0.01 0.01 0.01 0.01 0.01 0.01 0.01 0.01 0.01 0.01 0.01 0.01 0.01 0.01 0.01 0.00 0.00 0.00 0.00 0.00 0.00 0.00 0.00 0.00 0.00 0.00 0.00 0.00 0.00 0.00 0.00 0.00 0.00 0.00 0.00
0.00 0.01 0.01 0.01 0.02 0.04 0.03 0.02 0.01 0.02 0.02 0.02 0.03 0.02 0.02 0.02 0.01 0.01 0.01 0.01 0.01 0.01 0.00 0.00 0.00 0.00 0.00 0.00 0.00 0.00 0.00 0.00 0.00 0.00 0.00 0.00 0.00 0.00 0.00 0.00 0.00 0.00 0.00
0.00 0.00 0.01 0.01 0.01 0.01 0.02 0.03 0.03 0.02 0.02 0.02 0.02 0.02 0.02 0.02 0.02 0.01 0.01 0.01 0.01 0.01 0.01 0.01 0.00 0.00 0.00 0.00 0.00 0.00 0.00 0.00 0.00 0.00 0.00 0.00 0.00 0.00 0.00 0.00 0.00 0.00 0.00

GFSGL_prec_precacc24_129.txt.gz
Total_Precipitation_Accumulation
0.09 0.13 0.13 0.09 0.13 0.17 0.11 0.08 0.12 0.17 0.25 0.22 0.19 0.17 0.11 0.11 0.11 0.10 0.08 0.08 0.08 0.09 0.12 0.18 0.21 0.19 0.20 0.26 0.31 0.29 0.21 0.16 0.13 0.10 0.12 0.16 0.22 0.25 0.25 0.20 0.19 0.16 0.10
0.20 0.24 0.23 0.23 0.31 0.27 0.20 0.13 0.13 0.15 0.20 0.22 0.26 0.22 0.17 0.14 0.12 0.11 0.08 0.07 0.08 0.10 0.13 0.12 0.11 0.18 0.19 0.23 0.31 0.41 0.40 0.33 0.30 0.19 0.16 0.20 0.16 0.13 0.17 0.19 0.19 0.18 0.14
0.12 0.21 0.27 0.32 0.42 0.43 0.37 0.22 0.25 0.28 0.28 0.25 0.21 0.18 0.17 0.18 0.17 0.16 0.19 0.16 0.14 0.13 0.12 0.12 0.10 0.11 0.15 0.22 0.27 0.30 0.32 0.40 0.39 0.41 0.35 0.29 0.26 0.23 0.21 0.16 0.14 0.16 0.21
0.17 0.10 0.15 0.23 0.39 0.47 0.48 0.34 0.37 0.37 0.33 0.30 0.29 0.27 0.29 0.23 0.18 0.18 0.17 0.15 0.15 0.18 0.17 0.14 0.14 0.12 0.12 0.13 0.16 0.22 0.31 0.47 0.53 0.57 0.58 0.48 0.35 0.31 0.34 0.27 0.24 0.21 0.28
0.19 0.19 0.09 0.12 0.27 0.40 0.43 0.39 0.35 0.38 0.37 0.31 0.27 0.26 0.29 0.29 0.30 0.21 0.13 0.13 0.15 0.17 0.19 0.20 0.18 0.22 0.24 0.17 0.17 0.17 0.23 0.28 0.35 0.40 0.53 0.53 0.43 0.36 0.33 0.25 0.28 0.34 0.56
0.16 0.15 0.19 0.20 0.28 0.38 0.30 0.32 0.26 0.24 0.29 0.39 0.50 0.56 0.47 0.34 0.42 0.25 0.18 0.11 0.09 0.11 0.12 0.11 0.14 0.21 0.15 0.19 0.21 0.19 0.15 0.16 0.21 0.21 0.20 0.23 0.17 0.22 0.33 0.45 0.44 0.63 0.58
0.16 0.16 0.18 0.22 0.29 0.34 0.33 0.37 0.34 0.32 0.33 0.31 0.33 0.45 0.68 0.83 0.90 0.81 0.68 0.48 0.45 0.46 0.43 0.41 0.30 0.28 0.28 0.15 0.24 0.28 0.31 0.31 0.22 0.13 0.10 0.09 0.08 0.08 0.16 0.34 0.46 0.51 0.41
0.30 0.24 0.22 0.28 0.41 0.52 0.45 0.39 0.48 0.49 0.41 0.43 0.47 0.36 0.26 0.32 0.46 0.57 0.76 0.89 1.00 0.90 0.83 0.77 0.79 0.77 0.73 0.63 0.46 0.42 0.38 0.38 0.38 0.32 0.21 0.16 0.15 0.13 0.15 0.20 0.28 0.48 0.62
0.52 0.50 0.51 0.45 0.53 0.56 0.63 0.66 0.61 0.63 0.71 0.71 0.64 0.63 0.50 0.36 0.38 0.40 0.42 0.34 0.39 0.44 0.41 0.39 0.42 0.41 0.61 0.54 0.38 0.41 0.46 0.45 0.50 0.43 0.33 0.34 0.29 0.22 0.19 0.19 0.22 0.28 0.36
0.59 0.78 0.96 0.95 0.89 0.97 1.00 1.04 1.15 1.14 1.05 1.00 0.96 0.87 0.84 0.68 0.83 0.83 0.79 0.68 0.66 0.60 0.48 0.39 0.49 0.44 0.59 0.44 0.31 0.30 0.37 0.38 0.33 0.33 0.31 0.27 0.24 0.25 0.34 0.23 0.17 0.21 0.23
0.46 0.69 0.76 0.94 1.08 1.07 1.21 1.27 1.41 1.61 1.70 1.59 1.50 1.27 1.09 1.10 1.10 1.19 1.32 1.21 1.10 0.89 0.79 0.74 0.78 0.97 0.82 0.86 0.91 0.82 1.06 0.93 0.81 0.56 0.46 0.37 0.27 0.19 0.19 0.21 0.22 0.28 0.30
0.31 0.33 0.46 0.51 0.54 0.74 0.78 0.85 0.95 0.99 1.12 1.25 1.25 1.33 1.29 1.24 1.25 1.26 1.34 1.51 1.52 1.25 1.14 1.01 1.06 1.06 0.95 1.03 1.11 1.36 1.38 1.10 0.82 0.76 0.66 0.57 0.47 0.36 0.30 0.27 0.29 0.34 0.38
0.12 0.16 0.19 0.24 0.35 0.38 0.40 0.47 0.45 0.46 0.47 0.50 0.53 0.58 0.65 0.70 0.76 0.87 0.94 0.99 1.03 1.02 1.09 1.12 1.09 0.93 0.83 0.89 1.02 1.11 1.10 0.98 0.94 0.91 0.87 0.82 0.69 0.60 0.54 0.51 0.46 0.42 0.42
0.03 0.05 0.06 0.07 0.10 0.13 0.20 0.27 0.34 0.39 0.37 0.34 0.30 0.28 0.26 0.26 0.30 0.35 0.41 0.49 0.58 0.62 0.66 0.68 0.65 0.61 0.61 0.65 0.73 0.85 0.92 1.00 1.05 1.03 0.98 0.94 0.85 0.74 0.66 0.60 0.56 0.55 0.48
0.00 0.01 0.02 0.01 0.01 0.03 0.05 0.09 0.13 0.24 0.23 0.26 0.31 0.29 0.28 0.33 0.38 0.30 0.29 0.30 0.32 0.35 0.31 0.29 0.29 0.31 0.33 0.37 0.40 0.47 0.58 0.67 0.72 0.80 0.83 0.83 0.77 0.68 0.63 0.61 0.57 0.50 0.46
0.01 0.01 0.02 0.03 0.01 0.00 0.00 0.01 0.02 0.05 0.04 0.06 0.08 0.11 0.16 0.17 0.13 0.11 0.11 0.12 0.15 0.17 0.18 0.22 0.25 0.26 0.27 0.29 0.30 0.31 0.31 0.33 0.38 0.40 0.43 0.45 0.46 0.46 0.45 0.43 0.42 0.41 0.40
0.02 0.02 0.01 0.01 0.02 0.03 0.02 0.01 0.01 0.01 0.01 0.01 0.02 0.03 0.03 0.05 0.03 0.02 0.02 0.02 0.02 0.02 0.03 0.05 0.08 0.09 0.11 0.12 0.15 0.16 0.20 0.24 0.26 0.26 0.27 0.28 0.29 0.29 0.29 0.29 0.29 0.28 0.26
0.02 0.02 0.02 0.03 0.02 0.01 0.02 0.03 0.02 0.02 0.01 0.02 0.02 0.01 0.01 0.01 0.00 0.00 0.00 0.00 0.00 0.00 0.01 0.01 0.01 0.01 0.01 0.02 0.02 0.04 0.05 0.07 0.08 0.10 0.13 0.15 0.17 0.17 0.18 0.18 0.18 0.17 0.16
0.00 0.02 0.02 0.02 0.02 0.02 0.02 0.01 0.02 0.02 0.02 0.03 0.03 0.03 0.01 0.01 0.00 0.00 0.00 0.00 0.01 0.01 0.01 0.01 0.01 0.01 0.00 0.00 0.01 0.01 0.01 0.01 0.00 0.01 0.01 0.02 0.03 0.04 0.07 0.08 0.09 0.09 0.09
0.01 0.01 0.01 0.01 0.02 0.02 0.02 0.02 0.01 0.01 0.01 0.02 0.02 0.04 0.02 0.00 0.01 0.01 0.01 0.01 0.01 0.01 0.01 0.01 0.01 0.01 0.00 0.00 0.01 0.01 0.01 0.00 0.00 0.00 0.01 0.01 0.01 0.00 0.00 0.01 0.01 0.01 0.02
0.03 0.01 0.01 0.01 0.02 0.03 0.03 0.03 0.02 0.01 0.01 0.02 0.02 0.02 0.01 0.01 0.01 0.01 0.01 0.01 0.02 0.01 0.01 0.01 0.01 0.01 0.00 0.00 0.00 0.01 0.01 0.01 0.01 0.01 0.01 0.00 0.00 0.00 0.00 0.00 0.00 0.00 0.00
0.01 0.02 0.01 0.02 0.01 0.02 0.03 0.04 0.03 0.02 0.02 0.02 0.02 0.01 0.00 0.00 0.00 0.00 0.01 0.01 0.01 0.01 0.01 0.01 0.01 0.00 0.00 0.00 0.00 0.01 0.01 0.01 0.01 0.01 0.01 0.01 0.00 0.00 0.00 0.00 0.00 0.00 0.00
0.00 0.01 0.01 0.01 0.03 0.01 0.01 0.02 0.03 0.03 0.01 0.01 0.01 0.01 0.01 0.01 0.01 0.01 0.01 0.01 0.01 0.01 0.01 0.00 0.00 0.00 0.01 0.00 0.00 0.00 0.00 0.01 0.02 0.01 0.01 0.01 0.00 0.00 0.00 0.00 0.00 0.00 0.00
0.00 0.01 0.01 0.01 0.02 0.02 0.02 0.02 0.02 0.01 0.01 0.02 0.02 0.02 0.01 0.02 0.02 0.01 0.02 0.02 0.01 0.01 0.01 0.01 0.00 0.00 0.00 0.00 0.00 0.00 0.00 0.00 0.00 0.00 0.01 0.01 0.01 0.00 0.00 0.00 0.00 0.00 0.00
0.00 0.01 0.01 0.01 0.02 0.04 0.04 0.02 0.02 0.02 0.02 0.02 0.03 0.03 0.03 0.02 0.02 0.01 0.02 0.01 0.01 0.01 0.01 0.01 0.01 0.00 0.00 0.00 0.00 0.00 0.00 0.00 0.00 0.00 0.01 0.00 0.00 0.00 0.00 0.00 0.00 0.00 0.00
0.00 0.00 0.01 0.01 0.01 0.01 0.02 0.03 0.03 0.02 0.02 0.02 0.02 0.03 0.03 0.02 0.02 0.01 0.01 0.01 0.01 0.01 0.01 0.01 0.01 0.00 0.01 0.00 0.00 0.00 0.00 0.00 0.00 0.00 0.00 0.00 0.00 0.00 0.00 0.00 0.00 0.00 0.00

GFSGL_prec_precacc24_132.txt.gz
Total_Precipitation_Accumulation
0.32 0.28 0.20 0.14 0.22 0.24 0.21 0.16 0.23 0.27 0.35 0.28 0.22 0.18 0.13 0.14 0.13 0.12 0.10 0.10 0.13 0.16 0.15 0.17 0.21 0.30 0.32 0.38 0.36 0.28 0.22 0.22 0.17 0.12 0.14 0.22 0.22 0.23 0.24 0.20 0.17 0.11 0.09
0.27 0.26 0.25 0.23 0.32 0.32 0.25 0.20 0.16 0.17 0.22 0.23 0.27 0.23 0.17 0.15 0.13 0.12 0.10 0.10 0.11 0.15 0.17 0.15 0.12 0.22 0.32 0.40 0.45 0.55 0.56 0.36 0.30 0.20 0.22 0.25 0.17 0.13 0.17 0.19 0.19 0.17 0.13
0.18 0.29 0.35 0.31 0.38 0.41 0.34 0.24 0.27 0.30 0.29 0.25 0.21 0.18 0.17 0.18 0.18 0.17 0.21 0.17 0.18 0.19 0.21 0.22 0.20 0.18 0.23 0.36 0.48 0.54 0.43 0.46 0.47 0.46 0.38 0.32 0.28 0.23 0.21 0.16 0.14 0.16 0.20
0.20 0.10 0.19 0.25 0.38 0.43 0.40 0.34 0.36 0.37 0.33 0.30 0.29 0.27 0.28 0.23 0.18 0.18 0.17 0.16 0.17 0.21 0.24 0.23 0.23 0.21 0.19 0.20 0.20 0.27 0.35 0.49 0.56 0.59 0.59 0.49 0.36 0.31 0.33 0.27 0.24 0.21 0.28
0.29 0.23 0.12 0.11 0.24 0.36 0.38 0.36 0.33 0.38 0.39 0.34 0.31 0.29 0.31 0.30 0.31 0.23 0.15 0.15 0.18 0.20 0.25 0.30 0.31 0.36 0.36 0.25 0.26 0.29 0.40 0.51 0.62 0.63 0.61 0.55 0.44 0.36 0.33 0.25 0.28 0.34 0.57
0.10 0.11 0.15 0.14 0.23 0.32 0.25 0.29 0.25 0.24 0.29 0.39 0.51 0.60 0.53 0.40 0.48 0.30 0.30 0.26 0.23 0.22 0.21 0.20 0.25 0.34 0.23 0.25 0.26 0.25 0.21 0.23 0.28 0.30 0.25 0.25 0.18 0.22 0.33 0.45 0.43 0.63 0.61
0.09 0.08 0.08 0.13 0.23 0.30 0.30 0.36 0.34 0.31 0.33 0.30 0.33 0.44 0.69 0.85 0.91 0.82 0.69 0.50 0.47 0.51 0.54 0.52 0.41 0.38 0.38 0.19 0.29 0.31 0.35 0.39 0.33 0.28 0.26 0.20 0.16 0.14 0.23 0.41 0.47 0.48 0.36
0.20 0.14 0.12 0.19 0.31 0.46 0.42 0.38 0.47 0.48 0.40 0.43 0.47 0.36 0.26 0.31 0.46 0.57 0.76 0.89 1.00 0.89 0.82 0.76 0.78 0.78 0.73 0.64 0.48 0.44 0.39 0.40 0.41 0.39 0.36 0.34 0.30 0.23 0.19 0.19 0.22 0.40 0.53
0.36 0.31 0.31 0.27 0.36 0.42 0.56 0.63 0.59 0.60 0.70 0.70 0.63 0.62 0.50 0.36 0.38 0.40 0.42 0.34 0.39 0.44 0.41 0.39 0.42 0.41 0.57 0.52 0.38 0.41 0.41 0.44 0.54 0.59 0.60 0.67 0.56 0.38 0.24 0.18 0.16 0.20 0.25
0.36 0.46 0.47 0.48 0.55 0.64 0.71 0.84 1.03 1.03 0.90 0.87 0.88 0.83 0.81 0.67 0.80 0.82 0.79 0.68 0.65 0.59 0.47 0.38 0.46 0.42 0.56 0.42 0.30 0.29 0.35 0.38 0.38 0.44 0.47 0.48 0.46 0.46 0.54 0.43 0.33 0.28 0.22
0.21 0.27 0.32 0.48 0.63 0.68 0.77 0.95 1.14 1.27 1.37 1.23 1.10 1.00 0.91 0.95 1.00 1.08 1.20 1.09 0.99 0.79 0.69 0.64 0.66 0.81 0.67 0.73 0.81 0.74 0.98 0.91 0.86 0.62 0.51 0.46 0.38 0.33 0.34 0.40 0.46 0.53 0.47
0.12 0.11 0.17 0.20 0.24 0.44 0.52 0.62 0.78 0.82 0.94 1.04 1.01 1.03 1.02 1.02 1.06 1.09 1.18 1.34 1.35 1.09 1.00 0.91 1.01 1.02 0.93 1.00 1.09 1.35 1.39 1.14 0.91 0.87 0.78 0.71 0.63 0.58 0.52 0.45 0.46 0.54 0.57
0.04 0.06 0.06 0.09 0.13 0.16 0.26 0.38 0.39 0.43 0.45 0.47 0.51 0.55 0.60 0.64 0.72 0.84 0.92 0.97 1.02 1.02 1.09 1.13 1.09 0.93 0.83 0.89 1.02 1.11 1.10 0.99 0.97 0.99 0.99 0.97 0.86 0.77 0.71 0.70 0.66 0.60 0.57
0.01 0.02 0.02 0.03 0.05 0.07 0.09 0.14 0.23 0.32 0.33 0.32 0.29 0.28 0.26 0.26 0.29 0.34 0.41 0.49 0.58 0.62 0.66 0.68 0.65 0.61 0.61 0.65 0.73 0.85 0.92 1.00 1.07 1.07 1.04 1.03 0.98 0.89 0.83 0.79 0.75 0.74 0.67
0.00 0.01 0.02 0.00 0.00 0.01 0.03 0.07 0.10 0.18 0.18 0.21 0.26 0.26 0.26 0.30 0.35 0.28 0.28 0.29 0.32 0.35 0.31 0.29 0.29 0.31 0.33 0.36 0.40 0.47 0.58 0.67 0.72 0.81 0.85 0.87 0.83 0.78 0.76 0.76 0.76 0.71 0.69
0.00 0.01 0.02 0.03 0.01 0.00 0.00 0.01 0.02 0.04 0.03 0.06 0.08 0.10 0.15 0.17 0.12 0.10 0.11 0.12 0.15 0.17 0.18 0.22 0.25 0.26 0.28 0.29 0.30 0.32 0.32 0.33 0.39 0.41 0.44 0.47 0.48 0.50 0.51 0.52 0.53 0.54 0.56
0.01 0.01 0.01 0.01 0.02 0.02 0.01 0.00 0.00 0.00 0.00 0.01 0.02 0.02 0.03 0.04 0.03 0.02 0.02 0.02 0.02 0.02 0.03 0.06 0.08 0.10 0.11 0.13 0.15 0.17 0.22 0.25 0.27 0.27 0.29 0.30 0.31 0.31 0.31 0.32 0.34 0.35 0.37
0.01 0.01 0.01 0.02 0.02 0.01 0.02 0.02 0.01 0.01 0.01 0.01 0.02 0.01 0.01 0.01 0.00 0.00 0.00 0.00 0.00 0.00 0.00 0.02 0.02 0.02 0.02 0.02 0.03 0.05 0.07 0.08 0.09 0.13 0.15 0.18 0.20 0.20 0.21 0.22 0.22 0.22 0.22
0.00 0.01 0.01 0.01 0.02 0.01 0.01 0.01 0.01 0.01 0.02 0.02 0.02 0.02 0.01 0.00 0.00 0.00 0.00 0.01 0.01 0.01 0.01 0.01 0.01 0.01 0.00 0.00 0.02 0.02 0.02 0.01 0.02 0.04 0.04 0.05 0.07 0.08 0.10 0.12 0.13 0.14 0.14
0.01 0.00 0.00 0.00 0.01 0.01 0.01 0.01 0.01 0.01 0.01 0.02 0.02 0.04 0.01 0.00 0.01 0.01 0.01 0.01 0.01 0.01 0.01 0.01 0.01 0.01 0.01 0.01 0.01 0.01 0.01 0.01 0.01 0.01 0.03 0.02 0.02 0.01 0.01 0.02 0.03 0.04 0.05
0.01 0.00 0.00 0.00 0.01 0.02 0.02 0.02 0.01 0.01 0.01 0.02 0.02 0.03 0.00 0.00 0.01 0.01 0.01 0.01 0.02 0.02 0.01 0.01 0.01 0.01 0.00 0.01 0.01 0.01 0.01 0.01 0.01 0.01 0.02 0.03 0.03 0.01 0.00 0.00 0.00 0.00 0.00
0.01 0.01 0.00 0.01 0.00 0.01 0.02 0.03 0.03 0.02 0.02 0.02 0.02 0.01 0.00 0.01 0.01 0.01 0.01 0.01 0.02 0.02 0.01 0.01 0.01 0.01 0.00 0.00 0.01 0.01 0.01 0.01 0.01 0.01 0.01 0.02 0.02 0.01 0.01 0.00 0.00 0.00 0.00
0.00 0.00 0.00 0.01 0.02 0.01 0.01 0.02 0.03 0.02 0.01 0.01 0.01 0.01 0.01 0.02 0.02 0.02 0.02 0.02 0.01 0.01 0.01 0.01 0.01 0.00 0.00 0.00 0.00 0.00 0.00 0.01 0.02 0.02 0.01 0.02 0.01 0.01 0.01 0.00 0.00 0.00 0.00
0.00 0.00 0.01 0.01 0.01 0.01 0.02 0.02 0.02 0.01 0.01 0.02 0.02 0.02 0.02 0.02 0.02 0.02 0.02 0.02 0.01 0.01 0.01 0.01 0.01 0.00 0.00 0.00 0.00 0.00 0.00 0.00 0.01 0.00 0.01 0.02 0.01 0.00 0.01 0.00 0.00 0.00 0.00
0.00 0.01 0.00 0.01 0.01 0.03 0.03 0.02 0.02 0.02 0.02 0.03 0.03 0.03 0.03 0.03 0.02 0.02 0.03 0.02 0.02 0.02 0.01 0.01 0.01 0.00 0.00 0.01 0.00 0.00 0.00 0.00 0.00 0.00 0.00 0.01 0.01 0.01 0.00 0.00 0.00 0.00 0.00
0.01 0.00 0.01 0.01 0.01 0.02 0.02 0.03 0.03 0.02 0.02 0.02 0.02 0.03 0.03 0.03 0.02 0.02 0.02 0.02 0.02 0.01 0.01 0.01 0.01 0.01 0.01 0.01 0.00 0.00 0.00 0.00 0.00 0.00 0.00 0.01 0.00 0.00 0.00 0.00 0.00 0.00 0.00

GFSGL_prec_precacc24_135.txt.gz
Total_Precipitation_Accumulation
0.80 0.54 0.58 0.34 0.47 0.27 0.20 0.17 0.34 0.48 0.72 0.75 0.67 0.52 0.43 0.35 0.31 0.22 0.14 0.12 0.18 0.21 0.25 0.24 0.27 0.38 0.45 0.53 0.57 0.51 0.39 0.34 0.26 0.16 0.19 0.27 0.28 0.26 0.24 0.19 0.17 0.11 0.08
1.04 0.72 0.54 0.31 0.30 0.33 0.27 0.22 0.20 0.24 0.29 0.37 0.43 0.46 0.35 0.24 0.19 0.17 0.16 0.14 0.14 0.17 0.21 0.21 0.19 0.27 0.41 0.55 0.62 0.70 0.70 0.69 0.59 0.37 0.29 0.31 0.26 0.18 0.18 0.19 0.18 0.16 0.12
0.48 0.63 0.45 0.26 0.22 0.26 0.39 0.36 0.25 0.30 0.31 0.30 0.30 0.31 0.28 0.23 0.20 0.20 0.24 0.19 0.20 0.21 0.24 0.26 0.25 0.24 0.31 0.45 0.59 0.66 0.56 0.54 0.55 0.53 0.40 0.37 0.34 0.28 0.23 0.16 0.14 0.16 0.20
0.40 0.25 0.47 0.33 0.24 0.27 0.34 0.38 0.35 0.31 0.36 0.38 0.33 0.30 0.32 0.27 0.19 0.18 0.16 0.15 0.17 0.22 0.25 0.26 0.27 0.26 0.24 0.25 0.26 0.34 0.43 0.61 0.74 0.76 0.69 0.56 0.45 0.37 0.39 0.28 0.25 0.21 0.28
0.44 0.38 0.20 0.14 0.13 0.20 0.32 0.32 0.28 0.32 0.35 0.34 0.31 0.29 0.31 0.30 0.31 0.22 0.15 0.14 0.17 0.20 0.25 0.30 0.34 0.43 0.45 0.33 0.32 0.32 0.44 0.56 0.69 0.75 0.86 0.81 0.63 0.51 0.44 0.32 0.32 0.35 0.58
0.08 0.13 0.17 0.08 0.06 0.11 0.16 0.23 0.23 0.22 0.27 0.38 0.50 0.59 0.53 0.40 0.48 0.31 0.31 0.28 0.26 0.24 0.24 0.25 0.31 0.40 0.29 0.34 0.40 0.40 0.36 0.36 0.40 0.42 0.41 0.41 0.32 0.32 0.37 0.48 0.45 0.65 0.62
0.05 0.03 0.03 0.04 0.11 0.13 0.20 0.28 0.29 0.30 0.32 0.29 0.32 0.43 0.69 0.84 0.90 0.81 0.69 0.50 0.48 0.53 0.57 0.54 0.44 0.43 0.44 0.26 0.38 0.44 0.49 0.58 0.49 0.39 0.38 0.36 0.30 0.29 0.38 0.51 0.56 0.53 0.34
0.14 0.09 0.06 0.08 0.12 0.25 0.28 0.30 0.41 0.44 0.39 0.43 0.45 0.35 0.25 0.30 0.44 0.56 0.75 0.88 0.98 0.87 0.80 0.74 0.77 0.76 0.71 0.62 0.47 0.44 0.40 0.43 0.47 0.45 0.41 0.38 0.36 0.35 0.37 0.31 0.31 0.45 0.52
0.20 0.21 0.22 0.15 0.18 0.17 0.35 0.49 0.48 0.50 0.63 0.67 0.61 0.61 0.49 0.34 0.35 0.38 0.41 0.33 0.38 0.42 0.39 0.37 0.39 0.39 0.54 0.50 0.37 0.39 0.38 0.40 0.48 0.53 0.54 0.60 0.53 0.43 0.36 0.30 0.32 0.38 0.37
0.18 0.28 0.26 0.29 0.28 0.42 0.48 0.56 0.77 0.82 0.70 0.74 0.77 0.74 0.74 0.63 0.73 0.78 0.76 0.67 0.65 0.58 0.46 0.37 0.44 0.41 0.53 0.40 0.28 0.28 0.30 0.31 0.33 0.37 0.41 0.43 0.42 0.46 0.63 0.58 0.55 0.45 0.34
0.06 0.14 0.16 0.17 0.22 0.31 0.43 0.50 0.64 0.89 1.01 0.95 0.89 0.84 0.75 0.77 0.81 0.90 1.07 1.03 0.93 0.73 0.63 0.59 0.61 0.74 0.60 0.61 0.63 0.55 0.77 0.69 0.67 0.49 0.44 0.43 0.37 0.37 0.45 0.55 0.64 0.77 0.72
0.00 0.00 0.01 0.02 0.05 0.11 0.16 0.23 0.32 0.38 0.51 0.64 0.68 0.75 0.78 0.79 0.79 0.82 0.94 1.11 1.12 0.91 0.81 0.71 0.79 0.83 0.76 0.83 0.90 1.15 1.23 1.05 0.86 0.84 0.77 0.71 0.64 0.63 0.60 0.56 0.62 0.74 0.79
0.00 0.00 0.00 0.01 0.01 0.02 0.03 0.06 0.11 0.19 0.22 0.25 0.30 0.34 0.40 0.48 0.58 0.67 0.75 0.81 0.87 0.87 0.96 1.03 1.02 0.89 0.80 0.86 0.99 1.09 1.10 0.99 0.97 0.99 0.99 0.97 0.86 0.78 0.75 0.77 0.77 0.76 0.78
0.01 0.00 0.00 0.00 0.00 0.00 0.01 0.03 0.04 0.09 0.10 0.14 0.17 0.20 0.21 0.22 0.25 0.30 0.37 0.44 0.53 0.59 0.65 0.67 0.65 0.61 0.61 0.65 0.73 0.85 0.92 1.00 1.07 1.07 1.05 1.03 0.98 0.89 0.83 0.81 0.80 0.83 0.79
0.00 0.01 0.01 0.00 0.00 0.00 0.01 0.02 0.04 0.10 0.09 0.10 0.14 0.15 0.18 0.23 0.29 0.23 0.22 0.24 0.28 0.31 0.29 0.28 0.28 0.30 0.32 0.36 0.40 0.47 0.58 0.67 0.73 0.81 0.85 0.87 0.83 0.78 0.77 0.77 0.78 0.75 0.76
0.00 0.01 0.01 0.02 0.00 0.00 0.00 0.00 0.01 0.03 0.02 0.04 0.05 0.07 0.11 0.14 0.10 0.08 0.08 0.09 0.12 0.14 0.16 0.20 0.24 0.25 0.27 0.29 0.31 0.32 0.32 0.34 0.40 0.42 0.44 0.47 0.49 0.50 0.52 0.53 0.55 0.58 0.60
0.01 0.01 0.00 0.01 0.01 0.01 0.00 0.00 0.00 0.00 0.00 0.01 0.02 0.02 0.02 0.03 0.02 0.02 0.02 0.02 0.02 0.02 0.03 0.06 0.08 0.10 0.11 0.13 0.15 0.18 0.22 0.26 0.28 0.28 0.30 0.31 0.33 0.32 0.32 0.34 0.35 0.37 0.39
0.00 0.01 0.01 0.02 0.01 0.01 0.01 0.01 0.00 0.01 0.01 0.01 0.01 0.01 0.01 0.00 0.00 0.00 0.00 0.00 0.00 0.00 0.00 0.02 0.02 0.02 0.02 0.02 0.03 0.05 0.07 0.08 0.10 0.14 0.16 0.20 0.22 0.22 0.23 0.24 0.25 0.25 0.25
0.00 0.00 0.00 0.01 0.01 0.01 0.01 0.00 0.01 0.01 0.01 0.01 0.01 0.00 0.00 0.00 0.00 0.00 0.00 0.01 0.01 0.01 0.01 0.01 0.01 0.01 0.00 0.00 0.02 0.02 0.02 0.02 0.02 0.05 0.05 0.07 0.09 0.11 0.13 0.15 0.17 0.17 0.17
0.00 0.00 0.00 0.00 0.01 0.01 0.00 0.01 0.01 0.01 0.01 0.01 0.01 0.02 0.00 0.00 0.01 0.01 0.01 0.01 0.01 0.01 0.01 0.01 0.01 0.01 0.01 0.01 0.01 0.01 0.02 0.01 0.01 0.02 0.04 0.04 0.04 0.04 0.05 0.05 0.07 0.09 0.09
0.01 0.00 0.00 0.00 0.00 0.01 0.02 0.01 0.01 0.01 0.01 0.01 0.02 0.02 0.00 0.00 0.01 0.01 0.01 0.01 0.02 0.01 0.02 0.01 0.01 0.01 0.00 0.01 0.01 0.01 0.01 0.01 0.01 0.02 0.04 0.04 0.05 0.05 0.04 0.03 0.03 0.03 0.05
0.00 0.00 0.00 0.01 0.00 0.01 0.02 0.02 0.02 0.01 0.01 0.01 0.02 0.01 0.00 0.01 0.01 0.01 0.01 0.02 0.02 0.01 0.01 0.01 0.01 0.00 0.00 0.00 0.01 0.01 0.01 0.01 0.01 0.01 0.02 0.02 0.03 0.03 0.04 0.02 0.01 0.01 0.02
0.00 0.00 0.00 0.00 0.01 0.00 0.01 0.02 0.02 0.02 0.01 0.01 0.01 0.01 0.01 0.02 0.02 0.02 0.02 0.02 0.01 0.01 0.01 0.01 0.01 0.01 0.00 0.00 0.00 0.00 0.00 0.01 0.01 0.02 0.01 0.02 0.02 0.01 0.02 0.01 0.00 0.00 0.01
0.00 0.00 0.00 0.01 0.01 0.01 0.01 0.02 0.01 0.01 0.01 0.02 0.02 0.02 0.02 0.02 0.02 0.02 0.02 0.02 0.01 0.01 0.01 0.01 0.01 0.01 0.00 0.00 0.00 0.00 0.00 0.00 0.01 0.00 0.01 0.03 0.01 0.01 0.01 0.00 0.01 0.00 0.00
0.00 0.01 0.00 0.01 0.01 0.03 0.03 0.02 0.02 0.02 0.02 0.02 0.03 0.03 0.03 0.03 0.02 0.02 0.03 0.02 0.02 0.02 0.01 0.01 0.02 0.01 0.00 0.01 0.00 0.00 0.00 0.00 0.00 0.00 0.01 0.02 0.01 0.01 0.00 0.00 0.00 0.00 0.00
0.01 0.00 0.01 0.01 0.01 0.02 0.02 0.03 0.03 0.02 0.02 0.02 0.02 0.03 0.03 0.03 0.02 0.02 0.02 0.02 0.02 0.01 0.01 0.01 0.01 0.01 0.01 0.01 0.00 0.00 0.00 0.00 0.00 0.00 0.00 0.01 0.00 0.00 0.00 0.00 0.00 0.00 0.00

GFSGL_prec_precacc24_138.txt.gz
Total_Precipitation_Accumulation
0.90 0.71 0.73 0.50 0.65 0.44 0.35 0.31 0.42 0.54 0.76 0.83 0.80 0.80 0.78 0.71 0.69 0.73 0.70 0.88 1.25 1.49 1.27 0.94 0.53 0.47 0.55 0.67 0.71 0.67 0.56 0.54 0.52 0.37 0.29 0.31 0.32 0.28 0.29 0.23 0.20 0.11 0.09
1.40 1.08 0.89 0.90 1.07 0.60 0.39 0.29 0.22 0.30 0.43 0.45 0.48 0.53 0.57 0.56 0.58 0.55 0.63 0.59 0.53 0.60 0.70 0.55 0.28 0.26 0.40 0.53 0.61 0.73 0.80 0.83 0.83 0.61 0.42 0.49 0.50 0.32 0.27 0.25 0.22 0.19 0.13
0.86 1.17 0.94 0.66 0.57 0.68 0.38 0.30 0.20 0.25 0.40 0.37 0.29 0.31 0.38 0.40 0.41 0.47 0.53 0.46 0.53 0.42 0.39 0.33 0.27 0.24 0.30 0.42 0.51 0.56 0.50 0.55 0.61 0.58 0.52 0.50 0.37 0.25 0.22 0.17 0.18 0.20 0.22
0.61 0.48 1.01 0.94 0.29 0.21 0.30 0.27 0.26 0.23 0.32 0.38 0.33 0.31 0.34 0.33 0.34 0.38 0.34 0.25 0.24 0.28 0.29 0.27 0.26 0.26 0.24 0.25 0.26 0.30 0.36 0.56 0.67 0.71 0.65 0.54 0.43 0.45 0.60 0.51 0.39 0.30 0.33
0.44 0.38 0.23 0.31 0.19 0.12 0.17 0.18 0.19 0.25 0.29 0.29 0.30 0.30 0.32 0.32 0.32 0.23 0.17 0.16 0.17 0.19 0.25 0.30 0.34 0.42 0.44 0.33 0.32 0.32 0.41 0.54 0.69 0.76 0.86 0.84 0.69 0.61 0.60 0.52 0.53 0.48 0.64
0.06 0.12 0.16 0.09 0.06 0.03 0.03 0.05 0.07 0.13 0.22 0.35 0.47 0.58 0.53 0.40 0.46 0.29 0.29 0.26 0.24 0.23 0.23 0.25 0.30 0.39 0.29 0.33 0.40 0.40 0.36 0.37 0.45 0.56 0.59 0.60 0.45 0.46 0.56 0.72 0.70 0.89 0.78
0.02 0.01 0.02 0.02 0.03 0.03 0.04 0.12 0.13 0.18 0.27 0.27 0.30 0.42 0.69 0.84 0.89 0.80 0.67 0.49 0.47 0.53 0.56 0.54 0.43 0.43 0.43 0.25 0.38 0.44 0.49 0.58 0.50 0.41 0.41 0.42 0.39 0.39 0.49 0.60 0.65 0.63 0.40
0.01 0.03 0.03 0.02 0.02 0.02 0.04 0.07 0.20 0.28 0.33 0.40 0.45 0.35 0.24 0.29 0.43 0.55 0.74 0.88 0.97 0.87 0.79 0.74 0.76 0.76 0.71 0.62 0.47 0.44 0.40 0.42 0.46 0.45 0.42 0.39 0.39 0.38 0.43 0.40 0.39 0.51 0.52
0.01 0.04 0.06 0.05 0.03 0.04 0.09 0.19 0.18 0.22 0.41 0.56 0.58 0.59 0.48 0.32 0.31 0.33 0.39 0.33 0.37 0.40 0.37 0.36 0.38 0.38 0.51 0.47 0.36 0.38 0.36 0.39 0.47 0.51 0.52 0.58 0.51 0.42 0.34 0.28 0.30 0.35 0.34
0.01 0.03 0.06 0.07 0.11 0.16 0.24 0.21 0.35 0.52 0.47 0.52 0.64 0.64 0.65 0.59 0.66 0.67 0.67 0.65 0.64 0.56 0.43 0.34 0.39 0.37 0.48 0.36 0.26 0.26 0.30 0.31 0.31 0.34 0.37 0.39 0.40 0.44 0.61 0.56 0.52 0.41 0.33
0.00 0.00 0.01 0.04 0.08 0.12 0.17 0.26 0.26 0.34 0.57 0.59 0.58 0.54 0.49 0.50 0.55 0.65 0.82 0.84 0.81 0.69 0.61 0.57 0.58 0.69 0.56 0.56 0.58 0.51 0.68 0.59 0.55 0.39 0.32 0.30 0.26 0.29 0.40 0.52 0.62 0.76 0.71
0.00 0.00 0.00 0.00 0.02 0.03 0.04 0.03 0.07 0.14 0.21 0.28 0.40 0.48 0.51 0.55 0.55 0.55 0.62 0.80 0.89 0.78 0.73 0.67 0.72 0.75 0.68 0.71 0.75 0.94 0.99 0.84 0.68 0.69 0.64 0.59 0.56 0.57 0.57 0.54 0.60 0.74 0.81
0.00 0.00 0.00 0.00 0.00 0.00 0.00 0.01 0.01 0.02 0.05 0.09 0.13 0.19 0.25 0.31 0.37 0.44 0.53 0.60 0.68 0.71 0.80 0.88 0.86 0.73 0.63 0.67 0.78 0.87 0.87 0.79 0.82 0.88 0.92 0.93 0.85 0.78 0.74 0.77 0.77 0.76 0.78
0.00 0.00 0.00 0.00 0.00 0.00 0.00 0.00 0.01 0.02 0.01 0.01 0.03 0.05 0.07 0.10 0.15 0.19 0.23 0.29 0.37 0.43 0.49 0.54 0.56 0.55 0.57 0.61 0.67 0.79 0.89 0.99 1.06 1.07 1.05 1.04 0.98 0.89 0.84 0.81 0.80 0.83 0.79
0.00 0.00 0.00 0.00 0.00 0.00 0.00 0.02 0.02 0.07 0.06 0.05 0.06 0.05 0.07 0.09 0.13 0.09 0.09 0.11 0.15 0.19 0.20 0.22 0.24 0.28 0.31 0.36 0.40 0.47 0.58 0.67 0.73 0.81 0.86 0.87 0.83 0.78 0.77 0.77 0.78 0.75 0.76
0.00 0.00 0.01 0.01 0.00 0.00 0.00 0.00 0.01 0.02 0.01 0.02 0.02 0.03 0.04 0.06 0.02 0.01 0.02 0.03 0.04 0.05 0.06 0.10 0.13 0.16 0.20 0.24 0.28 0.31 0.32 0.34 0.40 0.42 0.45 0.47 0.49 0.51 0.52 0.53 0.55 0.58 0.61
0.01 0.01 0.00 0.00 0.00 0.00 0.00 0.00 0.00 0.00 0.00 0.00 0.01 0.01 0.01 0.01 0.00 0.00 0.00 0.00 0.01 0.01 0.02 0.04 0.07 0.09 0.10 0.12 0.14 0.17 0.22 0.26 0.28 0.28 0.30 0.32 0.33 0.32 0.33 0.34 0.36 0.38 0.40
0.00 0.00 0.01 0.01 0.01 0.00 0.01 0.00 0.00 0.01 0.01 0.00 0.00 0.00 0.01 0.00 0.00 0.00 0.00 0.00 0.00 0.00 0.00 0.01 0.02 0.02 0.02 0.02 0.03 0.05 0.07 0.08 0.10 0.14 0.16 0.20 0.23 0.23 0.23 0.24 0.25 0.26 0.27
0.00 0.00 0.00 0.00 0.01 0.00 0.00 0.00 0.00 0.01 0.01 0.01 0.00 0.00 0.00 0.00 0.00 0.00 0.00 0.01 0.01 0.01 0.01 0.01 0.01 0.01 0.00 0.00 0.02 0.02 0.03 0.02 0.02 0.05 0.05 0.07 0.10 0.12 0.14 0.16 0.17 0.18 0.19
0.00 0.00 0.00 0.00 0.01 0.01 0.00 0.00 0.00 0.00 0.01 0.01 0.01 0.02 0.00 0.00 0.01 0.01 0.01 0.01 0.01 0.01 0.01 0.01 0.01 0.01 0.01 0.01 0.01 0.02 0.02 0.01 0.01 0.02 0.04 0.04 0.05 0.05 0.06 0.06 0.08 0.11 0.12
0.00 0.00 0.00 0.00 0.00 0.01 0.01 0.01 0.01 0.01 0.01 0.01 0.01 0.02 0.00 0.00 0.01 0.01 0.01 0.01 0.01 0.01 0.02 0.01 0.01 0.01 0.00 0.01 0.01 0.01 0.01 0.01 0.01 0.02 0.04 0.05 0.06 0.05 0.04 0.04 0.04 0.05 0.08
0.00 0.00 0.00 0.00 0.00 0.01 0.01 0.01 0.02 0.01 0.01 0.01 0.01 0.01 0.00 0.01 0.01 0.01 0.01 0.02 0.02 0.01 0.01 0.01 0.01 0.00 0.00 0.00 0.01 0.01 0.01 0.01 0.01 0.01 0.02 0.02 0.03 0.03 0.04 0.02 0.02 0.02 0.04
0.00 0.00 0.00 0.00 0.01 0.00 0.01 0.01 0.02 0.01 0.01 0.01 0.01 0.01 0.01 0.02 0.02 0.02 0.02 0.02 0.01 0.01 0.01 0.01 0.01 0.01 0.00 0.00 0.00 0.00 0.00 0.01 0.01 0.02 0.02 0.02 0.02 0.01 0.03 0.01 0.01 0.01 0.02
0.00 0.00 0.00 0.00 0.01 0.01 0.01 0.02 0.01 0.01 0.01 0.02 0.02 0.02 0.02 0.02 0.02 0.02 0.02 0.02 0.01 0.01 0.01 0.01 0.01 0.01 0.00 0.00 0.00 0.00 0.00 0.00 0.01 0.00 0.01 0.03 0.02 0.01 0.01 0.01 0.01 0.00 0.00
0.00 0.01 0.00 0.01 0.01 0.02 0.02 0.02 0.02 0.02 0.02 0.02 0.03 0.03 0.02 0.02 0.02 0.02 0.03 0.02 0.02 0.02 0.01 0.01 0.02 0.01 0.00 0.01 0.00 0.00 0.00 0.00 0.00 0.00 0.01 0.02 0.02 0.01 0.00 0.00 0.00 0.00 0.00
0.01 0.00 0.01 0.01 0.01 0.02 0.02 0.02 0.02 0.02 0.02 0.02 0.02 0.03 0.03 0.03 0.02 0.02 0.02 0.02 0.02 0.01 0.01 0.01 0.01 0.01 0.01 0.01 0.00 0.00 0.00 0.00 0.00 0.00 0.01 0.01 0.00 0.00 0.00 0.00 0.00 0.00 0.00

GFSGL_prec_precacc24_141.txt.gz
Total_Precipitation_Accumulation
0.95 0.78 0.77 0.53 0.68 0.47 0.40 0.38 0.51 0.58 0.82 0.88 0.83 0.82 0.80 0.73 0.79 0.93 0.90 1.12 1.49 1.65 1.47 1.32 1.31 1.42 1.19 1.20 1.26 1.09 0.76 0.65 0.62 0.41 0.32 0.34 0.33 0.30 0.31 0.26 0.23 0.15 0.12
1.52 1.22 1.05 1.02 1.24 0.75 0.63 0.51 0.51 0.53 0.46 0.47 0.49 0.54 0.60 0.63 0.70 0.75 0.83 0.78 0.76 0.83 0.95 0.99 0.99 0.96 1.01 1.15 1.20 1.29 0.99 0.85 0.86 0.65 0.49 0.54 0.55 0.43 0.40 0.39 0.33 0.29 0.18
0.91 1.31 1.07 0.91 1.09 1.29 0.98 0.85 0.40 0.39 0.35 0.39 0.28 0.32 0.39 0.43 0.50 0.58 0.66 0.68 0.75 0.82 0.91 0.87 0.77 0.68 0.65 0.66 0.68 0.66 0.49 0.49 0.55 0.54 0.49 0.48 0.39 0.28 0.21 0.14 0.15 0.19 0.22
0.61 0.50 1.14 1.09 0.39 0.52 0.94 0.69 0.37 0.20 0.29 0.44 0.31 0.28 0.27 0.32 0.36 0.47 0.49 0.43 0.44 0.53 0.54 0.56 0.51 0.43 0.35 0.36 0.31 0.28 0.24 0.32 0.44 0.55 0.52 0.43 0.34 0.34 0.46 0.45 0.35 0.25 0.29
0.44 0.38 0.24 0.37 0.29 0.12 0.13 0.27 0.26 0.15 0.20 0.33 0.24 0.26 0.30 0.31 0.31 0.23 0.20 0.25 0.29 0.29 0.32 0.36 0.38 0.41 0.37 0.28 0.27 0.27 0.34 0.45 0.56 0.63 0.73 0.70 0.60 0.52 0.52 0.50 0.51 0.46 0.55
0.05 0.11 0.16 0.08 0.08 0.07 0.03 0.02 0.04 0.04 0.07 0.17 0.34 0.49 0.50 0.38 0.45 0.29 0.28 0.25 0.23 0.22 0.22 0.24 0.29 0.38 0.27 0.29 0.36 0.37 0.32 0.34 0.42 0.51 0.55 0.57 0.44 0.45 0.55 0.71 0.71 0.88 0.75
0.02 0.01 0.01 0.02 0.02 0.02 0.02 0.01 0.02 0.02 0.02 0.04 0.13 0.33 0.68 0.83 0.88 0.79 0.67 0.48 0.45 0.51 0.54 0.51 0.42 0.41 0.41 0.24 0.33 0.40 0.47 0.57 0.49 0.40 0.40 0.42 0.40 0.39 0.48 0.60 0.66 0.66 0.42
0.01 0.01 0.00 0.00 0.00 0.00 0.00 0.01 0.01 0.02 0.05 0.10 0.18 0.25 0.21 0.28 0.42 0.54 0.72 0.87 0.97 0.85 0.78 0.72 0.74 0.74 0.69 0.61 0.47 0.43 0.40 0.42 0.45 0.45 0.42 0.39 0.39 0.38 0.44 0.40 0.39 0.52 0.53
0.00 0.00 0.01 0.01 0.01 0.01 0.01 0.01 0.02 0.02 0.07 0.21 0.36 0.42 0.42 0.30 0.28 0.30 0.34 0.30 0.36 0.39 0.37 0.35 0.37 0.37 0.49 0.46 0.36 0.38 0.36 0.39 0.47 0.51 0.51 0.56 0.50 0.41 0.34 0.28 0.29 0.33 0.30
0.00 0.01 0.01 0.00 0.01 0.01 0.02 0.02 0.02 0.02 0.04 0.06 0.14 0.29 0.46 0.51 0.58 0.58 0.58 0.58 0.58 0.51 0.39 0.32 0.36 0.35 0.45 0.34 0.25 0.26 0.29 0.30 0.31 0.34 0.37 0.39 0.39 0.43 0.58 0.54 0.51 0.38 0.30
0.00 0.00 0.00 0.00 0.01 0.01 0.01 0.02 0.02 0.04 0.07 0.17 0.24 0.29 0.30 0.34 0.40 0.48 0.59 0.61 0.57 0.53 0.50 0.48 0.50 0.59 0.50 0.50 0.51 0.48 0.62 0.54 0.50 0.36 0.31 0.30 0.25 0.25 0.33 0.43 0.50 0.60 0.57
0.00 0.00 0.00 0.00 0.00 0.00 0.00 0.00 0.01 0.03 0.04 0.06 0.11 0.18 0.24 0.29 0.31 0.34 0.40 0.54 0.61 0.52 0.51 0.50 0.56 0.59 0.56 0.61 0.66 0.83 0.87 0.77 0.65 0.64 0.59 0.53 0.50 0.50 0.48 0.44 0.48 0.60 0.67
0.00 0.00 0.00 0.00 0.00 0.00 0.00 0.00 0.00 0.00 0.01 0.01 0.01 0.02 0.04 0.08 0.15 0.23 0.29 0.36 0.46 0.48 0.52 0.56 0.56 0.51 0.47 0.56 0.69 0.79 0.79 0.72 0.74 0.77 0.77 0.75 0.69 0.65 0.62 0.66 0.69 0.71 0.75
0.00 0.00 0.00 0.00 0.00 0.00 0.00 0.00 0.01 0.02 0.01 0.01 0.01 0.02 0.02 0.02 0.04 0.06 0.10 0.15 0.23 0.30 0.35 0.38 0.39 0.40 0.40 0.43 0.51 0.63 0.74 0.86 0.95 0.97 0.94 0.93 0.91 0.84 0.80 0.79 0.79 0.83 0.79
0.00 0.00 0.00 0.00 0.00 0.00 0.00 0.01 0.01 0.06 0.05 0.04 0.05 0.04 0.05 0.06 0.07 0.03 0.03 0.04 0.06 0.09 0.12 0.15 0.17 0.21 0.24 0.28 0.31 0.39 0.51 0.62 0.69 0.80 0.85 0.87 0.83 0.78 0.77 0.77 0.78 0.75 0.76
0.00 0.00 0.00 0.00 0.00 0.00 0.00 0.00 0.00 0.01 0.01 0.02 0.02 0.02 0.03 0.05 0.01 0.00 0.00 0.00 0.01 0.01 0.02 0.04 0.06 0.08 0.12 0.16 0.19 0.23 0.26 0.31 0.39 0.42 0.45 0.48 0.50 0.51 0.52 0.53 0.55 0.59 0.61
0.00 0.00 0.00 0.00 0.00 0.00 0.00 0.00 0.00 0.00 0.00 0.00 0.00 0.00 0.01 0.01 0.00 0.00 0.00 0.00 0.00 0.00 0.01 0.02 0.04 0.05 0.06 0.06 0.08 0.11 0.17 0.22 0.25 0.27 0.30 0.32 0.34 0.33 0.33 0.34 0.36 0.38 0.40
0.00 0.00 0.00 0.01 0.01 0.00 0.00 0.00 0.00 0.01 0.01 0.00 0.00 0.00 0.00 0.00 0.00 0.00 0.00 0.00 0.00 0.00 0.00 0.01 0.02 0.02 0.01 0.02 0.03 0.05 0.07 0.08 0.10 0.14 0.16 0.20 0.23 0.23 0.24 0.25 0.26 0.27 0.27
0.00 0.00 0.00 0.00 0.01 0.00 0.00 0.00 0.00 0.01 0.01 0.01 0.00 0.00 0.00 0.00 0.00 0.00 0.00 0.01 0.01 0.01 0.01 0.00 0.01 0.01 0.00 0.00 0.02 0.02 0.03 0.02 0.02 0.05 0.05 0.07 0.10 0.12 0.14 0.16 0.18 0.19 0.20
0.00 0.00 0.00 0.00 0.00 0.01 0.00 0.00 0.00 0.00 0.01 0.01 0.01 0.01 0.00 0.00 0.01 0.00 0.01 0.01 0.01 0.01 0.01 0.01 0.01 0.01 0.01 0.01 0.01 0.02 0.02 0.01 0.01 0.02 0.04 0.04 0.05 0.05 0.07 0.07 0.08 0.12 0.12
0.00 0.00 0.00 0.00 0.00 0.01 0.01 0.01 0.01 0.01 0.01 0.01 0.01 0.02 0.00 0.00 0.01 0.00 0.01 0.01 0.01 0.01 0.02 0.01 0.01 0.01 0.00 0.01 0.01 0.01 0.01 0.01 0.01 0.02 0.04 0.05 0.06 0.05 0.04 0.04 0.04 0.05 0.08
0.00 0.00 0.00 0.00 0.00 0.01 0.01 0.01 0.01 0.01 0.01 0.01 0.01 0.01 0.00 0.01 0.01 0.01 0.01 0.02 0.02 0.01 0.01 0.01 0.01 0.00 0.00 0.00 0.01 0.01 0.01 0.01 0.01 0.01 0.02 0.02 0.03 0.04 0.05 0.02 0.02 0.03 0.04
0.00 0.00 0.00 0.00 0.00 0.00 0.01 0.01 0.01 0.01 0.01 0.01 0.01 0.01 0.01 0.02 0.02 0.02 0.02 0.02 0.01 0.01 0.01 0.01 0.01 0.01 0.00 0.00 0.00 0.00 0.00 0.01 0.01 0.02 0.02 0.02 0.02 0.02 0.03 0.01 0.01 0.01 0.03
0.00 0.00 0.00 0.00 0.00 0.00 0.01 0.01 0.01 0.01 0.01 0.02 0.02 0.02 0.02 0.02 0.02 0.02 0.02 0.02 0.01 0.01 0.01 0.01 0.01 0.01 0.00 0.00 0.00 0.00 0.00 0.00 0.01 0.00 0.01 0.03 0.02 0.01 0.01 0.01 0.01 0.00 0.00
0.00 0.01 0.00 0.01 0.01 0.01 0.01 0.02 0.02 0.02 0.02 0.02 0.03 0.03 0.02 0.02 0.02 0.02 0.03 0.02 0.02 0.02 0.01 0.01 0.02 0.01 0.00 0.01 0.00 0.00 0.00 0.00 0.00 0.00 0.01 0.02 0.02 0.01 0.00 0.00 0.01 0.00 0.00
0.01 0.00 0.01 0.01 0.01 0.02 0.02 0.03 0.02 0.02 0.02 0.02 0.02 0.02 0.03 0.03 0.02 0.03 0.03 0.03 0.03 0.01 0.01 0.01 0.01 0.01 0.01 0.01 0.00 0.00 0.00 0.00 0.00 0.00 0.01 0.01 0.00 0.00 0.00 0.00 0.00 0.00 0.00